# Wetter Temperatur Luftdruck Luftfeuchtigkeit Sichtweite Windgeschwindigkeit Windrichtung Zeit
1 Clouds 12 1019 71 8000 1 0 22:23 24.01.2020
2 Clouds 12 1020 71 8000 1 0 21:41 24.01.2020
3 Clouds 13 1019 62 8000 2.1 320 21:20 24.01.2020
4 Clouds 13 1019 62 0 2.1 330 20:55 24.01.2020
5 Clouds 13 1019 62 0 2.1 330 20:37 24.01.2020
6 Clear 14 1019 58 0 3.1 330 20:18 24.01.2020
7 Clouds 14 1018 58 10000 3.6 330 19:55 24.01.2020
8 Clouds 14 1018 58 10000 3.6 330 19:37 24.01.2020
9 Clouds 15 1018 58 10000 5.7 320 19:19 24.01.2020
10 Clouds 15 1018 58 10000 5.7 320 19:19 24.01.2020
11 Clouds 17 1018 42 10000 3.1 320 18:42 24.01.2020
12 Clouds 19 1017 34 10000 2.1 300 18:22 24.01.2020
13 Clouds 19 1017 34 10000 3.1 310 17:45 24.01.2020
14 Clouds 19 1017 34 10000 3.1 310 17:45 24.01.2020
15 Clouds 19 1017 34 10000 3.1 320 17:22 24.01.2020
16 Clouds 20 1017 32 10000 1 0 16:58 24.01.2020
17 Clouds 20 1017 32 10000 1 0 16:38 24.01.2020
18 Clouds 20 1017 32 10000 1.5 0 16:19 24.01.2020
19 Clouds 20 1018 34 10000 2.1 340 15:42 24.01.2020
20 Clouds 19 1018 37 10000 2.6 350 15:21 24.01.2020
21 Clouds 18 1018 45 10000 2.1 20 14:55 24.01.2020
22 Clouds 18 1018 45 10000 2.1 20 14:37 24.01.2020
23 Clouds 17 1019 45 10000 2.1 30 14:19 24.01.2020
24 Clouds 17 1019 48 10000 3.1 30 13:41 24.01.2020
25 Clouds 16 1020 51 10000 2.1 10 13:22 24.01.2020
26 Clouds 16 1020 51 10000 2.1 20 12:43 24.01.2020
27 Clear 15 1020 54 10000 2.1 90 12:21 24.01.2020
28 Clear 14 1020 58 10000 1.5 90 11:45 24.01.2020
29 Clear 14 1020 58 10000 0.5 0 11:19 24.01.2020
30 Clear 12 1020 66 10000 1 0 10:58 24.01.2020
31 Clear 12 1020 66 10000 1 0 10:40 24.01.2020
32 Clear 10 1019 76 10000 1 0 10:19 24.01.2020
33 Clear 9 1019 81 10000 1.21 222 09:41 24.01.2020
34 Clear 6 1019 87 10000 0.5 0 09:23 24.01.2020
35 Clear 5 1019 93 10000 2.1 100 08:41 24.01.2020
36 Clear 5 1018 93 10000 2.1 90 08:21 24.01.2020
37 Clouds 4 1018 93 8000 2.1 90 07:59 24.01.2020
38 Clouds 4 1018 93 8000 2.1 90 07:39 24.01.2020
39 Clouds 6 1018 93 8000 1.5 80 06:55 24.01.2020
40 Clouds 6 1018 93 8000 1.5 80 06:35 24.01.2020
41 Clouds 6 1018 87 8000 2.6 100 05:59 24.01.2020
42 Clouds 7 1019 87 8000 0.5 0 05:18 24.01.2020
43 Clouds 8 1019 87 8000 3.1 80 02:54 24.01.2020
44 Clouds 8 1019 87 8000 2.6 70 02:27 24.01.2020
45 Clouds 9 1020 81 8000 2.1 110 01:56 24.01.2020
46 Clouds 9 1020 81 8000 2.1 110 01:35 24.01.2020
47 Clouds 9 1020 87 8000 3.1 90 00:33 24.01.2020
48 Clouds 11 1020 76 8000 3.1 120 23:58 23.01.2020
49 Clouds 11 1020 76 8000 3.1 120 23:40 23.01.2020
50 Clouds 11 1020 76 8000 1.5 100 23:20 23.01.2020
51 Clouds 11 1020 76 8000 1.5 50 22:39 23.01.2020
52 Clouds 12 1019 71 8000 1 0 22:20 23.01.2020
53 Clouds 13 1019 66 8000 1 0 21:58 23.01.2020
54 Clouds 13 1019 66 8000 1 0 21:58 23.01.2020
55 Clouds 13 1019 66 8000 1 0 21:40 23.01.2020
56 Clouds 13 1019 66 8000 1.5 330 21:21 23.01.2020
57 Clouds 14 1018 62 8000 2.1 330 20:59 23.01.2020
58 Clouds 14 1018 62 8000 2.1 330 20:39 23.01.2020
59 Clouds 14 1018 62 8000 2.6 310 20:21 23.01.2020
60 Clouds 15 1018 54 8000 5.1 280 19:56 23.01.2020
61 Clouds 15 1018 54 8000 5.1 280 19:38 23.01.2020
62 Clouds 15 1017 54 8000 5.1 270 19:20 23.01.2020
63 Clouds 16 1017 55 8000 1 0 18:56 23.01.2020
64 Clouds 16 1017 55 8000 1 0 18:37 23.01.2020
65 Clouds 16 1017 51 8000 2.1 340 18:19 23.01.2020
66 Clouds 16 1017 51 8000 2.6 340 17:43 23.01.2020
67 Clouds 17 1016 51 8000 1 0 17:20 23.01.2020
68 Clouds 17 1016 51 8000 2.6 250 16:58 23.01.2020
69 Clouds 16 1016 55 8000 3.1 270 16:37 23.01.2020
70 Clouds 16 1016 55 8000 3.1 270 16:18 23.01.2020
71 Clouds 16 1016 55 8000 5.1 250 15:57 23.01.2020
72 Clouds 16 1016 51 8000 3.1 260 15:37 23.01.2020
73 Clouds 16 1016 51 8000 3.1 260 15:18 23.01.2020
74 Clouds 16 1017 51 8000 3.1 320 14:56 23.01.2020
75 Clouds 16 1017 51 8000 3.1 320 14:38 23.01.2020
76 Clouds 16 1017 51 8000 1 0 14:20 23.01.2020
77 Clouds 16 1017 55 8000 1.5 90 13:43 23.01.2020
78 Clouds 15 1018 58 8000 3.1 80 13:20 23.01.2020
79 Clouds 14 1018 62 8000 3.1 90 12:54 23.01.2020
80 Clouds 14 1018 62 8000 3.1 90 12:36 23.01.2020
81 Clouds 13 1018 66 8000 3.1 100 12:18 23.01.2020
82 Clouds 13 1018 71 8000 2.6 80 11:42 23.01.2020
83 Clouds 12 1018 76 8000 3.1 100 11:23 23.01.2020
84 Clouds 11 1018 81 8000 3.6 100 10:56 23.01.2020
85 Clouds 11 1018 81 8000 3.6 100 10:38 23.01.2020
86 Clouds 10 1018 81 8000 2.6 130 10:18 23.01.2020
87 Clouds 9 1017 87 8000 2.6 110 09:40 23.01.2020
88 Clouds 9 1017 87 8000 2.6 130 09:21 23.01.2020
89 Clouds 8 1017 87 8000 1 0 08:43 23.01.2020
90 Clouds 7 1016 93 8000 2.1 80 08:25 23.01.2020
91 Clouds 7 1016 93 8000 2.1 80 07:51 23.01.2020
92 Clouds 7 1016 93 8000 1.5 70 07:27 23.01.2020
93 Clouds 7 1016 93 8000 1.5 80 06:55 23.01.2020
94 Clouds 7 1016 87 8000 2.6 100 06:25 23.01.2020
95 Clouds 7 1016 87 8000 1.5 70 05:59 23.01.2020
96 Clouds 7 1016 93 8000 1.5 80 04:25 23.01.2020
97 Clouds 8 1017 93 8000 1 0 02:50 23.01.2020
98 Clear 8 1017 93 8000 1 0 01:51 23.01.2020
99 Clear 9 1017 87 8000 1 0 00:41 23.01.2020
100 Clear 9 1017 87 8000 1 0 00:20 23.01.2020
101 Clouds 10 1017 87 10000 1 0 23:45 22.01.2020
102 Clouds 10 1017 87 10000 1 0 23:27 22.01.2020
103 Rain 11 1017 81 8000 2.1 250 22:43 22.01.2020
104 Rain 11 1017 81 8000 2.1 250 22:43 22.01.2020
105 Rain 11 1017 81 8000 2.1 270 22:24 22.01.2020
106 Rain 12 1017 76 8000 2.6 240 21:58 22.01.2020
107 Clouds 12 1016 71 10000 1.5 260 21:36 22.01.2020
108 Clouds 12 1016 71 10000 1.5 260 21:36 22.01.2020
109 Clouds 12 1016 71 10000 1.5 260 21:18 22.01.2020
110 Clouds 13 1016 66 10000 2.1 270 20:41 22.01.2020
111 Clouds 13 1016 66 10000 1.5 290 20:23 22.01.2020
112 Clouds 14 1016 62 10000 1.5 260 19:58 22.01.2020
113 Clouds 14 1016 62 10000 1.5 260 19:58 22.01.2020
114 Clouds 14 1016 62 10000 1.5 260 19:40 22.01.2020
115 Clouds 14 1016 62 10000 2.1 290 19:20 22.01.2020
116 Clouds 15 1015 54 10000 1.5 260 18:58 22.01.2020
117 Clouds 15 1015 54 10000 1.5 260 18:39 22.01.2020
118 Clouds 15 1015 54 10000 2.1 260 18:20 22.01.2020
119 Clouds 15 1015 54 10000 2.6 310 17:56 22.01.2020
120 Clouds 15 1015 54 10000 2.6 310 17:38 22.01.2020
121 Clouds 15 1015 54 10000 2.1 0 17:19 22.01.2020
122 Clouds 16 1015 51 10000 3.1 280 16:44 22.01.2020
123 Clouds 15 1015 51 10000 3.1 0 16:24 22.01.2020
124 Clouds 15 1015 51 10000 4.1 240 15:59 22.01.2020
125 Clouds 15 1015 51 10000 4.1 240 15:41 22.01.2020
126 Clouds 15 1016 54 10000 4.6 280 15:23 22.01.2020
127 Clouds 15 1016 54 10000 4.6 280 14:58 22.01.2020
128 Clouds 15 1016 54 10000 4.1 270 14:37 22.01.2020
129 Clouds 15 1016 54 10000 4.1 270 14:19 22.01.2020
130 Clouds 14 1017 58 10000 5.1 280 13:55 22.01.2020
131 Clouds 14 1017 58 10000 5.1 280 13:36 22.01.2020
132 Clouds 14 1017 58 10000 3.1 280 13:18 22.01.2020
133 Clouds 14 1017 58 10000 2.1 310 12:56 22.01.2020
134 Clouds 14 1017 58 10000 2.1 310 12:37 22.01.2020
135 Clouds 14 1017 62 10000 1 0 12:18 22.01.2020
136 Clouds 13 1017 66 10000 1 0 11:56 22.01.2020
137 Clouds 13 1017 66 10000 1 0 11:37 22.01.2020
138 Clouds 12 1017 71 10000 1.5 170 11:18 22.01.2020
139 Clouds 10 1016 76 10000 2.1 160 10:44 22.01.2020
140 Clouds 9 1016 81 8000 1 0 10:21 22.01.2020
141 Clouds 8 1016 81 8000 1.5 150 09:44 22.01.2020
142 Clouds 7 1016 87 8000 1 0 09:26 22.01.2020
143 Clouds 6 1016 93 8000 1 0 08:59 22.01.2020
144 Clouds 6 1016 93 8000 1 0 08:40 22.01.2020
145 Clouds 7 1015 87 8000 1 0 08:21 22.01.2020
146 Clouds 6 1015 93 8000 1 0 07:58 22.01.2020
147 Clouds 6 1015 93 8000 1 0 07:58 22.01.2020
148 Clouds 6 1015 93 8000 1 0 07:40 22.01.2020
149 Clouds 6 1015 93 8000 1.5 140 07:21 22.01.2020
150 Clouds 7 1014 87 8000 3.6 170 06:31 22.01.2020
151 Clouds 7 1014 93 8000 2.6 160 05:41 22.01.2020
152 Clouds 8 1014 87 8000 2.1 220 04:20 22.01.2020
153 Clouds 8 1014 87 8000 3.1 220 03:23 22.01.2020
154 Clouds 8 1014 87 8000 3.1 220 03:23 22.01.2020
155 Clouds 8 1014 87 6000 2.6 180 02:27 22.01.2020
156 Clouds 9 1015 87 6000 2.6 180 00:45 22.01.2020
157 Clouds 8 1014 93 6000 1 0 00:26 22.01.2020
158 Rain 8 1014 93 5000 3.1 280 23:39 21.01.2020
159 Rain 8 1015 93 5000 2.6 240 23:21 21.01.2020
160 Rain 9 1015 87 5000 5.7 230 22:59 21.01.2020
161 Rain 9 1015 87 5000 5.7 230 22:39 21.01.2020
162 Rain 10 1014 87 3000 4.1 240 22:20 21.01.2020
163 Rain 10 1014 81 3000 3.1 280 21:56 21.01.2020
164 Rain 10 1014 81 3000 3.1 280 21:37 21.01.2020
165 Clouds 12 1013 66 8000 3.1 290 21:19 21.01.2020
166 Clouds 12 1013 66 8000 3.1 290 20:55 21.01.2020
167 Clouds 12 1013 66 8000 3.1 290 20:37 21.01.2020
168 Clouds 12 1013 66 8000 2.6 290 20:18 21.01.2020
169 Clouds 12 1013 66 8000 2.6 290 20:18 21.01.2020
170 Clouds 12 1012 71 8000 1.5 270 19:55 21.01.2020
171 Clouds 12 1012 71 8000 1.5 270 19:37 21.01.2020
172 Clouds 12 1012 71 8000 1.5 270 19:37 21.01.2020
173 Clouds 12 1012 66 8000 1.5 280 19:18 21.01.2020
174 Clouds 13 1012 58 8000 3.1 290 18:55 21.01.2020
175 Clouds 13 1012 58 8000 3.1 290 18:36 21.01.2020
176 Clouds 14 1012 54 8000 2.6 290 18:18 21.01.2020
177 Clouds 14 1012 54 8000 2.1 310 17:42 21.01.2020
178 Clouds 14 1012 54 8000 3.6 330 17:19 21.01.2020
179 Clouds 14 1012 54 8000 2.6 320 16:57 21.01.2020
180 Clouds 14 1012 54 8000 2.6 320 16:36 21.01.2020
181 Clouds 15 1011 51 8000 2.6 290 16:18 21.01.2020
182 Clouds 14 1012 54 8000 3.6 260 15:40 21.01.2020
183 Clouds 14 1012 54 8000 3.1 0 15:20 21.01.2020
184 Clouds 15 1012 54 8000 1.5 0 14:57 21.01.2020
185 Clouds 15 1012 54 8000 1.5 0 14:37 21.01.2020
186 Clouds 13 1012 62 8000 2.6 310 14:18 21.01.2020
187 Clouds 13 1013 62 8000 2.6 250 13:39 21.01.2020
188 Clouds 13 1013 62 8000 2.6 250 13:18 21.01.2020
189 Clouds 13 1013 62 8000 2.6 260 12:43 21.01.2020
190 Clouds 13 1013 66 8000 1 0 12:25 21.01.2020
191 Clouds 13 1013 71 8000 0.5 0 11:57 21.01.2020
192 Clouds 13 1013 71 8000 0.5 0 11:38 21.01.2020
193 Clouds 10 1013 81 8000 1.5 120 11:19 21.01.2020
194 Clouds 9 1013 87 8000 1 0 10:44 21.01.2020
195 Clouds 8 1013 87 8000 1 0 10:23 21.01.2020
196 Clouds 7 1012 93 8000 0.5 0 09:58 21.01.2020
197 Clouds 7 1012 93 8000 0.5 0 09:40 21.01.2020
198 Clouds 6 1012 93 8000 0.5 0 09:21 21.01.2020
199 Clear 6 1012 93 8000 2.1 180 08:47 21.01.2020
200 Clear 7 1011 93 8000 3.1 180 08:27 21.01.2020
201 Clouds 7 1011 93 6000 2.6 180 07:56 21.01.2020
202 Clouds 7 1011 93 6000 2.6 180 07:37 21.01.2020
203 Clouds 6 1011 93 8000 2.1 170 07:19 21.01.2020
204 Clouds 7 1011 87 8000 2.1 170 06:44 21.01.2020
205 Clouds 8 1011 87 8000 1 0 06:23 21.01.2020
206 Clouds 7 1011 93 8000 1 0 05:41 21.01.2020
207 Clouds 7 1011 93 8000 0.5 0 04:39 21.01.2020
208 Clear 6 1011 93 8000 1 0 02:34 21.01.2020
209 Clouds 8 1011 87 8000 2.6 210 01:37 21.01.2020
210 Clouds 8 1011 87 8000 2.6 240 00:52 21.01.2020
211 Clouds 8 1012 87 8000 2.6 230 00:29 21.01.2020
212 Clouds 8 1011 87 8000 2.6 240 23:56 20.01.2020
213 Clouds 8 1011 87 8000 2.6 240 23:36 20.01.2020
214 Clouds 8 1011 93 8000 2.1 230 23:36 20.01.2020
215 Clouds 8 1011 93 8000 2.1 230 23:18 20.01.2020
216 Clouds 9 1011 87 8000 2.6 220 22:54 20.01.2020
217 Clouds 9 1011 87 8000 2.6 220 22:36 20.01.2020
218 Clouds 9 1011 87 10000 2.1 210 22:18 20.01.2020
219 Clouds 9 1011 87 10000 1.5 230 21:54 20.01.2020
220 Clouds 9 1011 87 10000 1.5 230 21:36 20.01.2020
221 Clouds 9 1011 81 10000 2.6 300 21:18 20.01.2020
222 Clouds 10 1011 81 10000 3.6 300 20:42 20.01.2020
223 Clouds 10 1011 76 10000 3.1 290 20:20 20.01.2020
224 Clouds 11 1010 66 10000 3.1 300 19:59 20.01.2020
225 Clouds 11 1010 66 10000 3.1 300 19:40 20.01.2020
226 Clouds 11 1010 66 10000 3.1 310 19:19 20.01.2020
227 Clouds 11 1010 66 10000 4.1 300 18:56 20.01.2020
228 Clouds 11 1010 66 10000 4.1 300 18:38 20.01.2020
229 Clouds 12 1010 62 10000 3.1 290 18:19 20.01.2020
230 Clouds 13 1010 62 10000 3.1 260 17:38 20.01.2020
231 Clouds 13 1010 62 10000 2.6 280 17:19 20.01.2020
232 Clouds 12 1010 62 10000 3.6 300 16:47 20.01.2020
233 Clouds 12 1010 66 10000 3.6 290 16:26 20.01.2020
234 Clouds 12 1010 62 10000 3.6 310 15:59 20.01.2020
235 Clouds 12 1010 62 10000 3.6 310 15:40 20.01.2020
236 Clouds 13 1010 58 10000 2.6 270 15:22 20.01.2020
237 Clouds 12 1011 66 10000 3.1 280 14:59 20.01.2020
238 Clouds 12 1011 66 10000 3.1 280 14:40 20.01.2020
239 Clouds 12 1011 66 10000 2.1 290 14:21 20.01.2020
240 Clouds 11 1012 71 10000 2.6 290 13:56 20.01.2020
241 Clouds 11 1012 71 10000 2.6 290 13:38 20.01.2020
242 Clouds 10 1012 81 10000 4.1 300 13:18 20.01.2020
243 Clouds 10 1012 81 10000 3.6 290 12:42 20.01.2020
244 Clouds 10 1012 81 8000 3.6 280 12:23 20.01.2020
245 Clouds 9 1013 87 8000 3.6 260 11:55 20.01.2020
246 Clouds 9 1013 87 8000 3.6 260 11:36 20.01.2020
247 Clouds 9 1012 93 8000 4.1 250 11:18 20.01.2020
248 Clouds 8 1012 100 8000 3.6 250 10:41 20.01.2020
249 Clouds 8 1012 100 8000 3.6 260 10:20 20.01.2020
250 -273 0 0 0 0 0 09:42 20.01.2020
251 Clouds 8 1012 93 8000 2.6 240 09:24 20.01.2020
252 Clouds 8 1012 93 7000 4.1 270 08:55 20.01.2020
253 Clouds 8 1012 100 7000 4.1 260 08:34 20.01.2020
254 Clouds 9 1012 93 7000 5.1 270 07:56 20.01.2020
255 Clouds 9 1012 93 7000 5.1 270 07:38 20.01.2020
256 Clouds 9 1012 93 7000 4.1 280 07:19 20.01.2020
257 Clouds 9 1012 93 7000 3.6 250 06:42 20.01.2020
258 Clouds 9 1012 93 7000 3.1 270 06:21 20.01.2020
259 Rain 9 1013 93 10000 4.1 230 05:38 20.01.2020
260 Rain 9 1013 93 10000 4.1 230 05:19 20.01.2020
261 Rain 9 1014 93 3000 3.1 290 03:55 20.01.2020
262 Rain 9 1016 93 7000 3.6 250 01:58 20.01.2020
263 Rain 9 1016 93 7000 3.6 250 01:39 20.01.2020
264 Clouds 10 1017 87 10000 3.6 260 00:56 20.01.2020
265 Clouds 10 1017 87 10000 3.6 260 00:38 20.01.2020
266 Clouds 11 1018 81 10000 3.1 270 00:20 20.01.2020
267 Clouds 11 1019 76 10000 3.1 250 23:38 19.01.2020
268 Clouds 11 1019 76 10000 3.1 250 23:18 19.01.2020
269 Clouds 11 1019 76 10000 3.1 310 22:55 19.01.2020
270 Clouds 11 1019 76 10000 3.1 310 22:37 19.01.2020
271 Clouds 12 1019 71 10000 3.1 330 22:19 19.01.2020
272 Clouds 12 1019 66 10000 3.1 300 21:56 19.01.2020
273 Clouds 12 1019 66 10000 3.1 300 21:37 19.01.2020
274 Clouds 13 1020 66 10000 2.6 290 21:19 19.01.2020
275 Clouds 13 1020 66 10000 4.1 330 20:56 19.01.2020
276 Clouds 13 1020 66 10000 4.1 330 20:38 19.01.2020
277 Clouds 13 1020 71 10000 4.1 330 20:19 19.01.2020
278 Clouds 13 1019 76 10000 4.6 340 19:55 19.01.2020
279 Clouds 13 1019 76 10000 4.6 340 19:37 19.01.2020
280 Clouds 14 1019 71 10000 4.1 330 19:19 19.01.2020
281 Clouds 14 1020 71 10000 5.1 320 18:55 19.01.2020
282 Clouds 14 1020 71 10000 5.1 320 18:37 19.01.2020
283 Clouds 14 1020 76 10000 5.1 340 18:19 19.01.2020
284 Clouds 16 1020 72 10000 5.1 300 17:57 19.01.2020
285 Clouds 16 1020 72 10000 5.1 300 17:38 19.01.2020
286 Clouds 17 1020 67 10000 5.1 300 17:20 19.01.2020
287 Clouds 18 1020 59 10000 5.1 290 16:57 19.01.2020
288 Clouds 18 1020 59 10000 5.1 290 16:37 19.01.2020
289 Clouds 18 1020 59 10000 5.1 290 16:37 19.01.2020
290 Clouds 18 1020 59 10000 5.1 300 16:19 19.01.2020
291 Clouds 19 1021 52 10000 4.1 280 15:56 19.01.2020
292 Clouds 19 1021 52 10000 4.1 280 15:37 19.01.2020
293 Clouds 20 1021 49 10000 4.1 270 15:18 19.01.2020
294 Clouds 18 1022 52 10000 3.1 280 14:56 19.01.2020
295 Clouds 18 1022 52 10000 3.1 280 14:37 19.01.2020
296 Clouds 18 1023 52 10000 2.6 310 14:18 19.01.2020
297 Clouds 18 1023 52 10000 2.6 310 14:18 19.01.2020
298 Clouds 17 1024 51 10000 3.1 290 13:54 19.01.2020
299 Clouds 17 1024 51 10000 3.1 290 13:36 19.01.2020
300 Clouds 17 1025 45 10000 2.6 270 13:18 19.01.2020
301 Clouds 17 1026 39 8000 2.6 210 12:42 19.01.2020
302 Clouds 15 1026 41 8000 3.1 210 12:23 19.01.2020
303 Clouds 14 1026 41 8000 2.1 210 11:57 19.01.2020
304 Clouds 14 1026 41 8000 2.1 210 11:39 19.01.2020
305 Clear 13 1025 37 0 1.48 165 11:18 19.01.2020
306 Clear 12 1027 40 0 2.1 160 10:54 19.01.2020
307 Clear 12 1027 40 0 2.1 160 10:36 19.01.2020
308 Clear 10 1027 37 0 1.5 60 10:18 19.01.2020
309 Clear 9 1026 49 0 2.6 160 09:41 19.01.2020
310 Clear 7 1026 52 8000 1 0 09:23 19.01.2020
311 Clear 6 1026 56 8000 0.5 0 08:56 19.01.2020
312 Clear 6 1026 56 8000 0.5 0 08:38 19.01.2020
313 Clear 8 1026 49 8000 2.6 10 08:19 19.01.2020
314 Clear 9 1026 42 8000 1.5 200 07:30 19.01.2020
315 Clear 9 1026 42 8000 2.1 170 06:56 19.01.2020
316 Clear 8 1027 45 8000 2.6 170 06:25 19.01.2020
317 Clear 7 1028 48 8000 1 0 04:39 19.01.2020
318 Clear 11 1029 37 8000 1.5 140 02:36 19.01.2020
319 Clouds 11 1029 37 8000 2.6 170 01:58 19.01.2020
320 Clouds 10 1029 39 8000 2.1 160 01:24 19.01.2020
321 Clouds 11 1029 37 8000 1 0 00:45 19.01.2020
322 Clouds 12 1029 34 8000 1 0 00:26 19.01.2020
323 Clouds 14 1030 33 8000 1 0 23:55 18.01.2020
324 Clouds 14 1030 33 8000 1 0 23:36 18.01.2020
325 Clouds 14 1029 33 10000 2.1 220 23:18 18.01.2020
326 Clouds 14 1030 33 10000 1 0 22:54 18.01.2020
327 Clouds 14 1030 33 10000 1 0 22:54 18.01.2020
328 Clouds 14 1030 33 10000 1 0 22:54 18.01.2020
329 Clouds 14 1030 33 10000 1 0 22:36 18.01.2020
330 Clouds 14 1030 33 10000 1 0 22:36 18.01.2020
331 Clouds 14 1030 33 10000 1.5 170 22:18 18.01.2020
332 Clouds 14 1030 33 10000 1.5 200 21:55 18.01.2020
333 Clouds 14 1030 33 10000 1.5 200 21:36 18.01.2020
334 Clouds 15 1030 30 10000 1.5 260 21:18 18.01.2020
335 Clouds 16 1030 29 10000 2.1 250 20:41 18.01.2020
336 Clear 17 1030 27 10000 2.1 270 20:19 18.01.2020
337 Clear 18 1029 27 10000 1.5 260 19:44 18.01.2020
338 Clear 18 1029 27 10000 1.5 260 19:44 18.01.2020
339 Clear 19 1029 24 10000 2.6 280 19:25 18.01.2020
340 Clear 19 1029 24 10000 2.6 280 19:25 18.01.2020
341 Clear 22 1029 21 10000 2.1 300 18:56 18.01.2020
342 Clear 22 1029 21 10000 2.1 300 18:37 18.01.2020
343 Clear 23 1029 15 10000 1.5 330 18:19 18.01.2020
344 Clear 23 1029 16 10000 1.5 350 17:41 18.01.2020
345 Clear 24 1030 17 10000 1.5 330 17:21 18.01.2020
346 Clear 23 1030 16 10000 1.5 320 16:57 18.01.2020
347 Clear 23 1030 16 10000 1.5 320 16:38 18.01.2020
348 Clear 24 1030 15 10000 2.1 340 16:20 18.01.2020
349 Clear 23 1030 16 10000 2.1 360 15:56 18.01.2020
350 Clear 23 1030 16 10000 2.1 360 15:38 18.01.2020
351 Clear 23 1030 16 10000 1.5 0 15:20 18.01.2020
352 Clear 22 1030 18 10000 2.1 360 14:41 18.01.2020
353 Clear 22 1031 21 10000 1.5 0 14:20 18.01.2020
354 Clear 21 1031 21 10000 2.1 350 13:57 18.01.2020
355 Clear 20 1032 20 10000 1.5 360 13:37 18.01.2020
356 Clear 20 1032 20 10000 1.5 360 13:18 18.01.2020
357 Clear 19 1032 20 10000 1 0 12:43 18.01.2020
358 Clear 18 1032 20 10000 1 0 12:22 18.01.2020
359 Clear 18 1032 20 10000 1 0 12:22 18.01.2020
360 Clear 17 1033 20 10000 1 0 11:58 18.01.2020
361 Clear 17 1033 20 10000 1 0 11:40 18.01.2020
362 Clear 15 1033 36 10000 0.5 0 11:20 18.01.2020
363 Clear 12 1032 40 10000 1.5 80 10:43 18.01.2020
364 Clear 10 1032 46 10000 1 0 10:21 18.01.2020
365 Clear 4 1032 64 10000 2.1 100 09:56 18.01.2020
366 Clear 4 1032 64 10000 2.1 100 09:38 18.01.2020
367 Clear 4 1032 64 10000 2.1 100 09:18 18.01.2020
368 Clear 4 1032 64 10000 2.1 110 08:42 18.01.2020
369 Clear 4 1031 64 10000 2.1 90 08:20 18.01.2020
370 Clear 4 1031 64 10000 2.1 90 08:20 18.01.2020
371 Clear 3 1031 64 10000 2.1 90 07:58 18.01.2020
372 Clear 3 1031 64 10000 2.1 90 07:37 18.01.2020
373 Clear 4 1031 60 10000 2.6 80 06:50 18.01.2020
374 Clear 5 1031 60 10000 2.6 80 06:27 18.01.2020
375 Clear 5 1031 56 10000 2.6 90 05:49 18.01.2020
376 Clear 7 1031 48 10000 1.5 120 04:24 18.01.2020
377 Clear 11 1031 34 10000 1 0 02:34 18.01.2020
378 Clear 11 1031 34 10000 2.1 150 01:40 18.01.2020
379 Clear 10 1032 37 10000 2.6 170 00:39 18.01.2020
380 Clear 10 1032 37 10000 2.6 170 00:39 18.01.2020
381 Clear 11 1031 34 10000 1.5 160 00:19 18.01.2020
382 Clear 10 1031 37 10000 0.5 0 23:58 17.01.2020
383 Clear 10 1031 37 10000 0.5 0 23:38 17.01.2020
384 Clear 12 1031 32 10000 1 0 23:18 17.01.2020
385 Clear 12 1031 32 10000 1 0 22:41 17.01.2020
386 Clear 12 1031 30 10000 1.5 130 22:19 17.01.2020
387 Clear 12 1031 30 10000 3.1 120 21:54 17.01.2020
388 Clear 12 1031 30 10000 3.1 120 21:36 17.01.2020
389 Clear 13 1030 28 10000 2.6 100 21:18 17.01.2020
390 Clear 16 1030 21 10000 1 0 20:41 17.01.2020
391 Clouds 17 1030 21 8000 2.1 40 20:21 17.01.2020
392 Clouds 17 1030 21 8000 2.1 40 20:21 17.01.2020
393 Clouds 17 1030 21 8000 2.1 40 19:57 17.01.2020
394 Clouds 17 1030 21 8000 2.1 40 19:38 17.01.2020
395 Clouds 19 1029 20 8000 2.6 30 19:20 17.01.2020
396 -273 0 0 0 0 0 18:58 17.01.2020
397 Clouds 22 1029 17 8000 2.1 60 18:58 17.01.2020
398 Clouds 22 1029 17 8000 2.1 60 18:38 17.01.2020
399 Clouds 22 1029 17 8000 2.1 60 18:20 17.01.2020
400 Clouds 22 1029 17 8000 2.1 60 17:40 17.01.2020
401 Clouds 23 1029 16 8000 1.5 0 17:21 17.01.2020
402 Clouds 22 1028 18 8000 2.6 60 16:57 17.01.2020
403 Clouds 22 1028 18 8000 2.6 60 16:57 17.01.2020
404 Clouds 22 1028 18 8000 2.6 60 16:38 17.01.2020
405 Clouds 22 1028 18 8000 2.6 60 16:18 17.01.2020
406 Clouds 21 1028 21 8000 2.6 50 15:44 17.01.2020
407 Clouds 20 1029 24 8000 3.6 40 15:26 17.01.2020
408 Clouds 20 1029 24 8000 4.1 60 14:44 17.01.2020
409 Clouds 19 1030 25 8000 4.1 70 14:26 17.01.2020
410 Clear 18 1030 24 8000 4.1 60 13:58 17.01.2020
411 Clear 18 1030 24 8000 4.1 60 13:37 17.01.2020
412 Clear 18 1031 24 8000 4.1 60 13:19 17.01.2020
413 Clear 16 1032 24 8000 4.1 80 12:44 17.01.2020
414 Clear 15 1032 38 8000 2.1 60 12:21 17.01.2020
415 Clear 14 1032 41 8000 2.1 80 11:38 17.01.2020
416 Clear 13 1032 43 8000 2.1 70 11:18 17.01.2020
417 Clear 11 1032 50 8000 1.5 40 10:44 17.01.2020
418 Clear 9 1032 34 8000 1.5 50 10:23 17.01.2020
419 Clear 6 1031 34 8000 1.5 80 09:58 17.01.2020
420 Clear 6 1031 34 8000 1.5 80 09:40 17.01.2020
421 Clear 4 1031 69 8000 2.1 90 09:20 17.01.2020
422 Clear 4 1031 69 8000 1.5 90 08:45 17.01.2020
423 Clear 4 1031 69 8000 1.5 100 08:25 17.01.2020
424 Clear 4 1030 64 8000 2.6 110 07:55 17.01.2020
425 Clear 4 1030 69 8000 1.5 90 07:32 17.01.2020
426 Clear 4 1030 69 8000 1.5 90 07:32 17.01.2020
427 Clear 5 1030 65 8000 1 0 06:59 17.01.2020
428 Clear 5 1030 65 8000 1 0 06:41 17.01.2020
429 Clear 7 1030 52 8000 1 0 05:56 17.01.2020
430 Clouds 6 1030 41 10000 0.5 0 03:39 17.01.2020
431 Clouds 9 1030 49 10000 1.5 160 02:53 17.01.2020
432 Clear 9 1030 49 10000 1.5 160 01:47 17.01.2020
433 Clear 9 1030 37 10000 1 0 01:29 17.01.2020
434 Clear 9 1029 36 0 0.39 65 00:50 17.01.2020
435 Clear 12 1030 40 10000 2.1 120 00:26 17.01.2020
436 Clear 12 1030 40 10000 2.1 120 23:44 16.01.2020
437 Clear 12 1030 40 10000 2.1 120 23:26 16.01.2020
438 Clear 11 1030 43 10000 1.5 70 22:58 16.01.2020
439 Clear 11 1030 43 10000 1.5 70 22:40 16.01.2020
440 Clear 10 1030 43 10000 1 0 22:20 16.01.2020
441 Clear 12 1029 40 10000 1 0 21:55 16.01.2020
442 Clear 12 1029 40 10000 1 0 21:37 16.01.2020
443 Clear 13 1029 37 10000 1 0 21:18 16.01.2020
444 Clear 14 1029 35 10000 1 0 20:41 16.01.2020
445 Clear 15 1029 33 10000 1.5 220 20:21 16.01.2020
446 Clear 15 1029 33 10000 1.5 220 19:59 16.01.2020
447 Clear 15 1029 33 10000 1.5 220 19:41 16.01.2020
448 Clear 16 1029 31 10000 1.5 230 19:22 16.01.2020
449 Clear 18 1029 23 10000 1.5 320 18:57 16.01.2020
450 Clear 18 1029 23 10000 1.5 320 18:39 16.01.2020
451 Clear 19 1028 24 10000 1 0 18:20 16.01.2020
452 Clear 20 1028 24 10000 2.6 290 17:59 16.01.2020
453 Clear 20 1028 24 10000 2.6 290 17:40 16.01.2020
454 Clear 20 1028 24 10000 2.1 340 17:20 16.01.2020
455 Clear 20 1028 22 10000 2.6 320 16:43 16.01.2020
456 Clear 20 1027 22 10000 2.6 310 16:25 16.01.2020
457 Clear 20 1027 24 10000 3.1 300 15:59 16.01.2020
458 Clear 20 1027 24 10000 3.1 300 15:40 16.01.2020
459 Clear 20 1028 24 10000 3.1 300 15:21 16.01.2020
460 Clear 20 1028 24 10000 3.1 300 15:21 16.01.2020
461 Clear 18 1028 27 10000 3.1 310 14:45 16.01.2020
462 Clear 18 1028 27 10000 3.1 310 14:24 16.01.2020
463 Clouds 18 1028 20 10000 2.6 340 13:56 16.01.2020
464 Clouds 17 1029 20 10000 1.5 0 13:37 16.01.2020
465 Clouds 18 1028 20 10000 2.6 340 13:37 16.01.2020
466 Clouds 17 1029 20 10000 1.5 0 13:19 16.01.2020
467 Clouds 17 1029 20 10000 1.5 0 12:43 16.01.2020
468 Clouds 17 1029 20 10000 1 0 12:25 16.01.2020
469 Clouds 16 1029 31 10000 1 0 11:54 16.01.2020
470 Clouds 16 1029 31 10000 1 0 11:36 16.01.2020
471 Clouds 14 1029 35 10000 1 0 11:18 16.01.2020
472 Clouds 13 1029 33 10000 0.5 0 10:38 16.01.2020
473 Clouds 10 1028 33 10000 0.5 0 10:20 16.01.2020
474 Clouds 7 1028 33 10000 1 0 09:56 16.01.2020
475 Clouds 7 1028 33 10000 1 0 09:37 16.01.2020
476 Clouds 4 1028 69 10000 2.1 90 09:19 16.01.2020
477 Clouds 4 1027 64 10000 1 0 08:49 16.01.2020
478 Clouds 4 1027 69 10000 0.5 0 08:29 16.01.2020
479 Clear 4 1027 64 10000 1 0 07:57 16.01.2020
480 Clear 4 1027 64 10000 1 0 07:37 16.01.2020
481 Clear 4 1026 64 10000 1 0 07:18 16.01.2020
482 Clear 4 1026 69 10000 2.1 90 06:42 16.01.2020
483 Clear 6 1026 56 10000 2.6 100 05:58 16.01.2020
484 Clear 6 1026 56 10000 2.6 100 05:40 16.01.2020
485 Clear 8 1026 49 10000 3.1 180 04:37 16.01.2020
486 Clear 8 1026 49 10000 3.1 180 04:37 16.01.2020
487 Clear 7 1026 52 10000 1 0 03:28 16.01.2020
488 Clear 7 1026 56 10000 1 0 02:42 16.01.2020
489 Clear 9 1026 49 10000 0.5 0 00:53 16.01.2020
490 Clear 8 1026 52 10000 1.5 150 00:24 16.01.2020
491 Clear 10 1026 46 10000 1.5 70 23:48 15.01.2020
492 Clear 10 1026 46 10000 2.1 100 23:23 15.01.2020
493 Clear 10 1026 46 10000 2.1 100 23:23 15.01.2020
494 Clear 10 1026 43 10000 2.6 120 22:57 15.01.2020
495 Clear 10 1026 43 10000 2.6 120 22:39 15.01.2020
496 Clear 10 1026 43 10000 2.6 110 22:19 15.01.2020
497 Clear 11 1026 40 10000 2.1 90 21:57 15.01.2020
498 Clear 11 1026 40 10000 2.1 90 21:57 15.01.2020
499 Clear 11 1026 40 10000 2.1 90 21:38 15.01.2020
500 Clear 12 1026 37 10000 2.6 70 21:20 15.01.2020
501 Clear 14 1026 33 10000 2.6 60 20:58 15.01.2020
502 Clear 14 1026 33 10000 2.6 60 20:58 15.01.2020
503 Clear 14 1026 33 10000 2.6 60 20:40 15.01.2020
504 Clear 15 1026 30 10000 2.6 60 20:20 15.01.2020
505 Clear 16 1026 31 10000 3.1 50 19:55 15.01.2020
506 Clear 16 1026 31 10000 3.1 50 19:37 15.01.2020
507 Clear 17 1025 29 10000 2.6 30 19:19 15.01.2020
508 Clear 18 1025 27 10000 2.1 10 18:56 15.01.2020
509 Clear 18 1025 27 10000 2.1 10 18:56 15.01.2020
510 Clear 18 1025 27 10000 2.1 10 18:38 15.01.2020
511 Clear 19 1025 24 10000 2.1 10 18:19 15.01.2020
512 Clear 19 1025 24 10000 2.1 70 17:57 15.01.2020
513 Clear 19 1025 24 10000 2.1 70 17:38 15.01.2020
514 Clear 19 1024 24 10000 3.1 30 17:19 15.01.2020
515 Clear 19 1024 24 10000 2.6 40 16:41 15.01.2020
516 Clear 19 1025 24 10000 2.1 340 16:22 15.01.2020
517 Clear 19 1025 24 10000 2.6 0 15:58 15.01.2020
518 Clear 19 1025 24 10000 2.6 0 15:39 15.01.2020
519 Clear 19 1025 25 10000 2.6 0 15:20 15.01.2020
520 Clear 19 1025 25 10000 2.1 0 14:43 15.01.2020
521 Clear 18 1026 27 10000 2.1 30 14:20 15.01.2020
522 Clear 18 1026 25 10000 2.1 40 13:46 15.01.2020
523 Clear 18 1027 25 8000 1 0 13:27 15.01.2020
524 Clear 17 1027 33 8000 1.5 70 12:59 15.01.2020
525 Clear 17 1027 33 8000 1.5 70 12:40 15.01.2020
526 Clear 15 1028 38 8000 1.5 40 12:20 15.01.2020
527 Clear 14 1028 41 8000 1 0 11:58 15.01.2020
528 Clear 12 1028 46 10000 1 0 11:37 15.01.2020
529 Clear 12 1028 46 10000 1 0 11:19 15.01.2020
530 Clear 10 1027 53 10000 1 0 10:46 15.01.2020
531 Clear 8 1027 37 10000 1.5 80 10:27 15.01.2020
532 Clear 5 1027 37 10000 2.1 60 09:46 15.01.2020
533 Clear 3 1026 74 10000 2.1 60 09:26 15.01.2020
534 Clouds 3 1026 74 10000 2.1 90 08:59 15.01.2020
535 Clouds 3 1026 74 10000 2.1 90 08:59 15.01.2020
536 Clouds 3 1026 74 10000 2.1 90 08:41 15.01.2020
537 Clouds 3 1026 74 10000 2.6 100 08:22 15.01.2020
538 Clouds 4 1026 69 10000 2.6 100 07:52 15.01.2020
539 Clouds 3 1026 69 10000 2.1 80 07:32 15.01.2020
540 Clouds 4 1025 64 10000 2.1 90 06:46 15.01.2020
541 Clouds 4 1025 64 10000 2.1 40 06:20 15.01.2020
542 Clouds 7 1025 56 10000 4.1 170 04:45 15.01.2020
543 Clouds 7 1025 56 10000 2.1 160 02:39 15.01.2020
544 Clouds 7 1025 56 10000 0.5 0 01:28 15.01.2020
545 Clouds 7 1025 56 10000 2.6 270 00:47 15.01.2020
546 Clouds 9 1025 49 10000 1 0 00:27 15.01.2020
547 Clouds 9 1025 49 10000 1 0 23:57 14.01.2020
548 Clouds 9 1025 49 10000 1 0 23:38 14.01.2020
549 Clouds 10 1025 41 10000 1.5 160 23:19 14.01.2020
550 Clouds 11 1025 41 10000 2.6 150 22:41 14.01.2020
551 Clouds 11 1025 41 10000 0.5 0 22:19 14.01.2020
552 Clouds 12 1025 41 10000 1 0 21:59 14.01.2020
553 Clouds 11 1025 41 10000 1.5 150 21:40 14.01.2020
554 Clouds 11 1025 41 10000 1.5 150 21:21 14.01.2020
555 Clouds 11 1025 41 10000 1.5 150 21:21 14.01.2020
556 Clouds 12 1025 46 10000 2.1 120 20:59 14.01.2020
557 Clouds 12 1025 46 10000 2.1 120 20:40 14.01.2020
558 Clouds 14 1025 33 8000 1.5 90 20:20 14.01.2020
559 Clouds 14 1025 33 8000 1.5 90 19:56 14.01.2020
560 Clouds 14 1025 33 8000 1.5 90 19:38 14.01.2020
561 Clouds 15 1025 33 8000 1 0 19:18 14.01.2020
562 Clouds 16 1024 33 8000 1 0 18:56 14.01.2020
563 Clouds 16 1024 33 8000 1 0 18:37 14.01.2020
564 Clouds 16 1024 33 8000 1 0 18:18 14.01.2020
565 Clouds 16 1024 33 8000 1 0 17:38 14.01.2020
566 Clouds 17 1024 23 8000 1 0 17:19 14.01.2020
567 Clouds 17 1024 23 8000 1 0 16:55 14.01.2020
568 Clouds 17 1024 33 8000 1 0 16:37 14.01.2020
569 Clouds 17 1024 33 8000 1 0 16:19 14.01.2020
570 Clouds 18 1024 34 8000 1.5 0 15:43 14.01.2020
571 Clouds 16 1024 36 8000 1.5 0 15:19 14.01.2020
572 Clouds 16 1024 38 8000 1.5 10 14:47 14.01.2020
573 Clouds 16 1024 38 8000 1.5 10 14:47 14.01.2020
574 Clouds 15 1025 41 8000 1.5 20 14:23 14.01.2020
575 Clouds 14 1025 47 8000 1.5 20 13:59 14.01.2020
576 Clouds 14 1025 47 8000 1.5 20 13:41 14.01.2020
577 Clouds 14 1025 44 8000 1.5 40 13:19 14.01.2020
578 Clouds 14 1026 47 10000 2.1 50 12:42 14.01.2020
579 Clouds 14 1026 47 10000 1 0 12:24 14.01.2020
580 Clouds 14 1026 44 10000 1 0 11:58 14.01.2020
581 Clouds 14 1026 44 10000 1 0 11:40 14.01.2020
582 Clouds 12 1026 46 10000 0.5 0 11:22 14.01.2020
583 Clouds 10 1026 53 10000 2.1 160 10:56 14.01.2020
584 Clouds 10 1026 53 10000 2.1 160 10:37 14.01.2020
585 Clouds 9 1026 42 10000 2.6 170 10:19 14.01.2020
586 Clouds 8 1025 42 10000 1 0 09:43 14.01.2020
587 Clouds 7 1025 42 10000 1.5 150 09:24 14.01.2020
588 Clouds 3 1025 74 10000 0.5 0 08:58 14.01.2020
589 Clouds 3 1025 74 10000 0.5 0 08:39 14.01.2020
590 Clouds 5 1025 51 10000 0.5 0 08:20 14.01.2020
591 Clouds 4 1024 69 10000 1.5 100 07:46 14.01.2020
592 Clouds 5 1024 51 10000 0.5 0 07:18 14.01.2020
593 Clouds 4 1024 69 10000 1.5 90 06:42 14.01.2020
594 Clouds 6 1024 51 10000 0.5 0 05:57 14.01.2020
595 Clouds 6 1024 51 10000 1.5 110 04:49 14.01.2020
596 Clouds 6 1024 60 10000 1 0 03:45 14.01.2020
597 Clouds 8 1024 52 10000 0.5 0 02:32 14.01.2020
598 Clouds 10 1024 47 10000 1 0 01:19 14.01.2020
599 Clouds 10 1024 46 10000 1 0 00:47 14.01.2020
600 Clouds 10 1025 47 10000 0.5 0 00:21 14.01.2020
601 Clouds 10 1025 47 10000 0.5 0 00:21 14.01.2020
602 Clouds 11 1025 47 10000 2.6 180 23:42 13.01.2020
603 Clouds 11 1025 41 10000 3.1 180 23:19 13.01.2020
604 Clouds 11 1025 41 10000 2.1 180 22:56 13.01.2020
605 Clouds 11 1025 41 10000 2.1 180 22:37 13.01.2020
606 Clouds 12 1025 41 10000 1.5 210 22:19 13.01.2020
607 Clouds 14 1025 41 10000 2.6 220 21:55 13.01.2020
608 Clouds 14 1025 41 10000 2.6 220 21:36 13.01.2020
609 Clouds 13 1025 41 10000 2.1 230 21:18 13.01.2020
610 Clouds 14 1025 41 10000 1.5 230 20:55 13.01.2020
611 Clouds 14 1025 41 10000 1.5 230 20:37 13.01.2020
612 Clouds 13 1025 34 10000 1.5 230 20:18 13.01.2020
613 Clouds 14 1025 34 10000 1.5 240 19:41 13.01.2020
614 Clouds 16 1025 34 10000 1 0 19:20 13.01.2020
615 Clouds 17 1025 34 10000 2.1 300 18:58 13.01.2020
616 Clouds 17 1025 34 10000 2.1 300 18:58 13.01.2020
617 Clouds 17 1025 34 10000 2.1 300 18:38 13.01.2020
618 Clouds 17 1025 34 10000 2.1 300 18:38 13.01.2020
619 Clouds 18 1025 27 10000 2.6 280 18:19 13.01.2020
620 Clouds 18 1025 27 10000 2.6 280 18:19 13.01.2020
621 Clouds 18 1025 25 10000 3.6 280 17:58 13.01.2020
622 Clouds 18 1025 25 10000 3.6 280 17:38 13.01.2020
623 Clear 18 1025 27 10000 4.1 300 17:20 13.01.2020
624 Clear 19 1025 25 10000 4.1 290 16:42 13.01.2020
625 Clear 19 1025 23 8000 4.6 290 16:23 13.01.2020
626 Clear 17 1024 23 0 4.46 303 15:58 13.01.2020
627 Clear 17 1024 23 0 4.46 303 15:40 13.01.2020
628 Clear 17 1024 23 0 4.46 303 15:20 13.01.2020
629 Clear 17 1024 23 0 4.46 303 14:43 13.01.2020
630 Clear 17 1024 23 0 4.46 303 14:24 13.01.2020
631 Clouds 16 1027 22 0 2.6 284 13:59 13.01.2020
632 Clouds 16 1027 22 0 2.6 284 13:40 13.01.2020
633 Clouds 16 1027 22 0 2.6 284 13:40 13.01.2020
634 Clouds 17 1026 23 0 2.36 292 13:22 13.01.2020
635 Clouds 15 1027 44 10000 1.5 350 12:57 13.01.2020
636 Clouds 15 1027 44 10000 1.5 350 12:39 13.01.2020
637 Clouds 15 1027 44 10000 1.5 350 12:21 13.01.2020
638 Clouds 15 1027 44 10000 1.5 350 11:40 13.01.2020
639 Clear 14 1026 47 10000 1 0 11:20 13.01.2020
640 Clear 14 1026 47 10000 1 0 11:20 13.01.2020
641 Clear 11 1026 53 10000 2.1 70 10:58 13.01.2020
642 Clear 11 1026 53 10000 2.1 70 10:39 13.01.2020
643 Clear 9 1026 61 10000 2.1 80 10:20 13.01.2020
644 Clear 9 1026 61 10000 2.1 80 10:20 13.01.2020
645 Clear 6 1026 75 10000 1.5 70 09:58 13.01.2020
646 Clear 4 1025 80 10000 2.1 70 09:38 13.01.2020
647 Clear 4 1025 80 10000 2.1 70 09:19 13.01.2020
648 Clear 4 1025 80 10000 2.6 90 08:41 13.01.2020
649 Clear 4 1025 80 8000 1.5 110 08:20 13.01.2020
650 Clear 4 1026 47 8000 1.5 110 07:48 13.01.2020
651 Clear 4 1026 47 8000 1 0 07:27 13.01.2020
652 Clear 4 1025 80 8000 1.5 120 06:43 13.01.2020
653 Clear 4 1025 80 8000 2.1 110 06:21 13.01.2020
654 Clear 5 1025 75 8000 1 0 05:27 13.01.2020
655 Clear 6 1026 70 8000 1.5 90 03:55 13.01.2020
656 Clear 6 1026 70 8000 2.1 100 03:25 13.01.2020
657 Clear 7 1026 65 8000 2.1 50 02:47 13.01.2020
658 Clear 10 1026 57 8000 1.5 140 02:28 13.01.2020
659 Clear 10 1026 57 8000 3.6 190 01:21 13.01.2020
660 Clear 10 1027 57 8000 3.1 180 00:41 13.01.2020
661 Clear 10 1027 57 8000 1.5 0 00:23 13.01.2020
662 Clear 11 1027 53 8000 4.1 180 23:54 12.01.2020
663 Clear 11 1027 53 8000 3.6 180 23:36 12.01.2020
664 Clear 11 1027 53 8000 3.6 180 23:18 12.01.2020
665 Clear 11 1027 53 8000 3.1 180 22:42 12.01.2020
666 Clear 11 1027 53 8000 2.1 0 22:23 12.01.2020
667 Clear 12 1027 54 8000 2.1 170 21:56 12.01.2020
668 Clear 12 1027 54 8000 2.1 170 21:38 12.01.2020
669 Clear 13 1027 50 8000 1 0 21:19 12.01.2020
670 Clear 14 1027 47 8000 2.1 230 20:56 12.01.2020
671 Clear 14 1027 47 8000 2.1 230 20:38 12.01.2020
672 Clear 14 1027 47 8000 2.1 230 20:20 12.01.2020
673 Clear 14 1027 47 10000 2.6 230 19:56 12.01.2020
674 Clear 14 1027 47 10000 2.6 230 19:37 12.01.2020
675 Clear 15 1027 44 10000 2.6 240 19:18 12.01.2020
676 Clear 16 1026 41 10000 3.1 260 18:57 12.01.2020
677 Clear 16 1026 41 10000 3.1 260 18:39 12.01.2020
678 Clear 17 1026 39 10000 3.1 250 18:21 12.01.2020
679 Clear 18 1026 34 10000 3.1 290 17:43 12.01.2020
680 Clear 18 1026 36 10000 2.6 320 17:23 12.01.2020
681 Clear 18 1026 36 10000 2.6 320 17:23 12.01.2020
682 Clear 18 1026 36 10000 3.6 320 16:59 12.01.2020
683 Clear 18 1026 36 10000 3.6 320 16:40 12.01.2020
684 Clear 18 1025 36 10000 3.6 300 16:21 12.01.2020
685 Clear 18 1025 36 10000 3.6 300 16:21 12.01.2020
686 Clear 18 1025 36 10000 4.6 280 15:58 12.01.2020
687 Clear 18 1025 36 10000 4.6 280 15:39 12.01.2020
688 Clear 18 1025 36 10000 4.1 280 15:21 12.01.2020
689 Clear 18 1026 39 10000 2.6 310 14:44 12.01.2020
690 Clear 17 1026 45 10000 2.6 310 14:25 12.01.2020
691 Clear 16 1026 48 10000 2.1 330 13:57 12.01.2020
692 Clear 15 1027 51 10000 2.6 10 13:39 12.01.2020
693 Clear 15 1027 51 10000 2.6 10 13:20 12.01.2020
694 Clear 15 1027 51 8000 1.5 350 12:57 12.01.2020
695 Clear 15 1027 51 8000 1.5 350 12:38 12.01.2020
696 Clear 14 1027 54 8000 1.5 350 12:19 12.01.2020
697 Clear 14 1028 54 8000 0.5 0 11:42 12.01.2020
698 Clear 10 1027 66 6000 0.5 0 11:22 12.01.2020
699 Clear 10 1027 66 6000 0.5 0 10:58 12.01.2020
700 Clear 10 1027 66 6000 0.5 0 10:40 12.01.2020
701 Clear 8 1027 75 6000 1 0 10:20 12.01.2020
702 Clear 5 1026 86 8000 1.5 90 09:43 12.01.2020
703 Clear 3 1026 86 8000 2.1 90 09:24 12.01.2020
704 Clear 3 1026 86 10000 1 0 08:48 12.01.2020
705 Clear 3 1025 86 10000 2.1 90 08:25 12.01.2020
706 Clear 3 1025 86 10000 0.5 0 07:58 12.01.2020
707 Clear 3 1025 86 10000 0.5 0 07:38 12.01.2020
708 Clear 3 1025 86 10000 1 0 07:19 12.01.2020
709 Clear 4 1024 86 10000 0.5 0 06:40 12.01.2020
710 Clear 4 1024 86 10000 1.5 80 05:58 12.01.2020
711 Clear 5 1024 80 10000 2.1 90 05:18 12.01.2020
712 Clear 5 1025 80 10000 1 0 03:44 12.01.2020
713 Clear 8 1024 75 10000 2.6 160 02:52 12.01.2020
714 Clear 6 1024 81 10000 1.5 150 02:27 12.01.2020
715 Clear 7 1024 75 10000 1 0 01:35 12.01.2020
716 Clear 7 1024 75 10000 1 0 00:57 12.01.2020
717 Clear 7 1024 75 10000 2.1 100 00:37 12.01.2020
718 Clear 7 1024 75 10000 2.1 100 00:18 12.01.2020
719 Clear 8 1024 70 10000 1.5 80 23:41 11.01.2020
720 Clear 9 1024 70 10000 1.5 110 23:19 11.01.2020
721 Clear 8 1024 70 10000 2.6 100 22:57 11.01.2020
722 Clear 8 1024 70 10000 2.6 100 22:38 11.01.2020
723 Clear 9 1024 66 10000 3.1 90 22:20 11.01.2020
724 Clear 10 1024 61 10000 2.1 90 21:54 11.01.2020
725 Clear 10 1024 61 10000 2.1 90 21:36 11.01.2020
726 Clear 11 1024 57 10000 2.1 60 21:18 11.01.2020
727 Clear 12 1024 54 10000 3.6 40 20:39 11.01.2020
728 Clear 12 1023 58 10000 3.1 50 20:20 11.01.2020
729 Clear 13 1023 50 10000 2.6 30 19:58 11.01.2020
730 Clear 13 1023 50 10000 2.6 30 19:38 11.01.2020
731 Clear 13 1023 54 10000 2.6 40 19:20 11.01.2020
732 Clear 14 1023 50 10000 2.1 70 18:56 11.01.2020
733 Clear 14 1023 50 10000 2.1 70 18:37 11.01.2020
734 Clear 15 1023 47 10000 3.1 40 18:19 11.01.2020
735 Clear 15 1023 47 10000 3.1 40 18:19 11.01.2020
736 Clear 15 1023 51 10000 3.1 70 17:57 11.01.2020
737 Clear 15 1023 51 10000 3.1 70 17:39 11.01.2020
738 Clouds 15 1023 51 10000 2.1 60 17:18 11.01.2020
739 Clouds 15 1023 54 10000 1.5 50 16:44 11.01.2020
740 Clouds 15 1023 54 10000 2.1 80 16:25 11.01.2020
741 Clouds 14 1023 58 8000 2.6 360 15:57 11.01.2020
742 Clouds 14 1023 58 8000 2.6 360 15:39 11.01.2020
743 Clouds 15 1023 58 8000 1 0 15:20 11.01.2020
744 Clouds 13 1023 62 8000 2.6 80 14:46 11.01.2020
745 Clouds 13 1023 62 8000 2.6 80 14:46 11.01.2020
746 Clouds 13 1024 62 8000 2.6 100 14:25 11.01.2020
747 Clouds 13 1024 62 8000 2.6 100 14:25 11.01.2020
748 Clouds 12 1024 71 7000 2.6 80 13:58 11.01.2020
749 Clouds 12 1024 71 7000 2.6 80 13:38 11.01.2020
750 Clouds 12 1025 66 8000 3.1 80 13:20 11.01.2020
751 Clouds 12 1025 71 7000 2.6 110 12:56 11.01.2020
752 Clouds 12 1025 71 7000 2.6 110 12:37 11.01.2020
753 Clouds 11 1026 76 7000 3.1 100 12:19 11.01.2020
754 Clouds 11 1026 81 7000 3.1 100 11:42 11.01.2020
755 Clouds 11 1026 81 7000 3.1 100 11:24 11.01.2020
756 Clouds 10 1026 87 6000 3.6 100 10:46 11.01.2020
757 Clouds 10 1025 87 6000 2.6 80 10:25 11.01.2020
758 Clouds 10 1025 87 6000 2.6 70 09:43 11.01.2020
759 Clouds 10 1025 81 6000 2.1 60 09:21 11.01.2020
760 Clouds 10 1025 81 6000 2.1 60 09:21 11.01.2020
761 Clouds 10 1025 81 6000 2.6 50 08:43 11.01.2020
762 Clouds 10 1025 81 6000 2.6 50 08:24 11.01.2020
763 Clouds 10 1025 87 8000 2.1 80 07:59 11.01.2020
764 Clouds 10 1025 87 8000 2.1 80 07:41 11.01.2020
765 Clouds 10 1025 87 8000 2.1 50 07:22 11.01.2020
766 Clouds 10 1025 87 8000 2.1 30 06:42 11.01.2020
767 Clouds 10 1025 87 6000 1.5 20 05:22 11.01.2020
768 Clouds 9 1025 93 6000 1.54 31 04:38 11.01.2020
769 Clouds 9 1025 93 6000 0.5 0 04:20 11.01.2020
770 Clouds 9 1025 87 6000 1 0 02:46 11.01.2020
771 Clear 9 1026 93 8000 2.1 90 01:45 11.01.2020
772 Clear 9 1026 87 8000 2.1 70 01:25 11.01.2020
773 Clear 10 1026 87 8000 3.1 60 00:52 11.01.2020
774 Clear 11 1026 81 8000 3.6 60 00:24 11.01.2020
775 Clear 11 1026 81 8000 2.6 70 23:58 10.01.2020
776 Clear 11 1026 81 8000 2.6 70 23:38 10.01.2020
777 Clear 11 1026 81 8000 2.6 70 23:38 10.01.2020
778 Clear 12 1026 81 10000 3.1 50 23:20 10.01.2020
779 Clear 12 1026 81 10000 4.1 40 22:41 10.01.2020
780 Clear 13 1026 76 10000 3.6 50 22:22 10.01.2020
781 Clear 13 1026 76 10000 3.6 30 21:58 10.01.2020
782 Clear 13 1026 76 10000 3.6 30 21:40 10.01.2020
783 Clear 14 1026 54 10000 2.6 60 21:20 10.01.2020
784 Clear 14 1026 54 10000 2.6 60 21:20 10.01.2020
785 Clear 13 1026 54 10000 2.1 70 20:56 10.01.2020
786 Clear 13 1026 54 10000 2.1 70 20:38 10.01.2020
787 Clear 14 1025 50 10000 2.6 70 20:19 10.01.2020
788 Clear 16 1025 48 10000 2.6 40 19:40 10.01.2020
789 Clear 16 1025 48 10000 2.6 40 19:40 10.01.2020
790 Clear 17 1025 39 10000 3.6 20 19:20 10.01.2020
791 Clear 18 1024 39 10000 3.6 30 18:55 10.01.2020
792 Clear 18 1024 39 10000 3.6 30 18:36 10.01.2020
793 Clear 18 1024 39 10000 3.1 350 18:18 10.01.2020
794 Clear 18 1024 39 10000 3.1 350 18:18 10.01.2020
795 Clear 19 1024 39 10000 3.6 10 17:56 10.01.2020
796 Clear 19 1024 39 10000 3.6 10 17:37 10.01.2020
797 Clear 20 1024 34 10000 3.6 350 17:19 10.01.2020
798 Clear 21 1024 30 10000 3.1 320 16:41 10.01.2020
799 Clear 21 1024 35 10000 3.6 330 16:21 10.01.2020
800 Clear 20 1024 37 10000 3.1 350 15:56 10.01.2020
801 Clear 20 1024 37 10000 3.1 350 15:56 10.01.2020
802 Clear 20 1024 37 10000 3.1 350 15:37 10.01.2020
803 Clear 19 1025 39 10000 2.6 360 15:19 10.01.2020
804 Clear 20 1025 34 10000 1.5 0 14:57 10.01.2020
805 Clear 20 1025 34 10000 1.5 0 14:39 10.01.2020
806 Clear 18 1025 39 10000 2.1 120 14:19 10.01.2020
807 Clear 17 1026 48 10000 2.1 120 13:54 10.01.2020
808 Clear 17 1026 48 10000 2.1 120 13:36 10.01.2020
809 Clear 16 1027 55 8000 1.5 90 13:18 10.01.2020
810 Clear 15 1028 62 8000 2.1 110 12:54 10.01.2020
811 Clear 15 1028 62 8000 2.1 110 12:36 10.01.2020
812 Clear 13 1029 71 6000 5.1 120 12:18 10.01.2020
813 Clear 13 1029 71 6000 5.1 120 11:42 10.01.2020
814 Clear 13 1029 71 6000 5.1 120 11:42 10.01.2020
815 Clear 13 1029 71 6000 5.1 120 11:42 10.01.2020
816 Clear 13 1029 71 6000 5.1 120 11:42 10.01.2020
817 Clear 13 1029 71 6000 5.1 120 11:42 10.01.2020
818 Clear 11 1030 81 6000 4.6 110 11:22 10.01.2020
819 Clear 10 1030 81 6000 4.6 100 10:59 10.01.2020
820 Clear 10 1030 81 6000 4.6 100 10:38 10.01.2020
821 Clear 9 1029 81 6000 5.1 110 10:19 10.01.2020
822 Clouds 8 1029 81 6000 4.6 100 09:48 10.01.2020
823 Clouds 6 1028 87 6000 2.6 100 09:27 10.01.2020
824 Clear 5 1028 86 6000 2.1 60 08:59 10.01.2020
825 Clear 5 1028 86 6000 2.1 60 08:38 10.01.2020
826 Clear 6 1028 87 8000 2.1 110 08:20 10.01.2020
827 Clear 5 1028 86 8000 3.1 120 07:41 10.01.2020
828 Clear 5 1027 80 8000 3.1 110 07:22 10.01.2020
829 Clear 6 1027 81 8000 2.1 60 06:43 10.01.2020
830 Clear 6 1027 81 8000 2.6 100 06:24 10.01.2020
831 Clear 8 1027 81 8000 2.1 40 05:33 10.01.2020
832 Clear 8 1027 87 8000 1.5 90 03:34 10.01.2020
833 Clear 8 1027 87 8000 1.5 90 03:34 10.01.2020
834 Clear 8 1027 87 8000 2.6 120 02:57 10.01.2020
835 Clear 8 1027 87 8000 2.6 120 02:36 10.01.2020
836 Clear 10 1028 81 8000 1 0 01:34 10.01.2020
837 Clear 10 1028 81 8000 1.5 50 00:56 10.01.2020
838 Clear 10 1028 81 8000 1.5 50 00:38 10.01.2020
839 Clear 12 1028 76 8000 2.6 50 23:57 09.01.2020
840 Clear 12 1028 76 8000 2.6 50 23:37 09.01.2020
841 Clear 12 1028 71 8000 1.5 60 23:19 09.01.2020
842 Clear 12 1028 71 8000 1.5 60 23:19 09.01.2020
843 Clear 12 1028 71 8000 1.5 50 22:56 09.01.2020
844 Clear 12 1028 71 8000 1.5 50 22:37 09.01.2020
845 Clear 12 1028 71 8000 1.5 50 22:37 09.01.2020
846 Clear 13 1027 66 8000 3.1 50 22:18 09.01.2020
847 Clear 14 1027 62 8000 2.6 30 21:56 09.01.2020
848 Clear 14 1027 62 8000 2.6 30 21:37 09.01.2020
849 Clear 14 1027 44 8000 1.5 30 21:18 09.01.2020
850 Clear 15 1027 41 8000 2.1 30 20:55 09.01.2020
851 Clear 15 1027 41 8000 2.1 30 20:37 09.01.2020
852 Clear 15 1026 47 8000 2.6 10 20:19 09.01.2020
853 Clear 16 1026 44 8000 2.6 360 19:54 09.01.2020
854 Clear 17 1026 39 8000 1.5 10 19:36 09.01.2020
855 Clear 17 1026 39 8000 1.5 10 19:18 09.01.2020
856 Clear 19 1025 32 8000 3.1 10 18:41 09.01.2020
857 Clear 19 1025 32 8000 3.1 10 18:22 09.01.2020
858 Clear 19 1025 32 8000 3.1 340 17:58 09.01.2020
859 Clear 19 1025 32 8000 2.6 320 17:40 09.01.2020
860 Clear 19 1025 32 8000 2.6 320 17:18 09.01.2020
861 Clear 19 1025 32 8000 2.6 320 17:18 09.01.2020
862 Clear 19 1025 37 8000 3.1 330 16:46 09.01.2020
863 Clear 19 1025 32 8000 2.6 10 16:22 09.01.2020
864 Clear 19 1025 32 8000 1.5 0 15:44 09.01.2020
865 Clear 19 1025 34 8000 1.5 0 15:25 09.01.2020
866 Clear 19 1025 34 8000 1 0 14:59 09.01.2020
867 Clear 19 1025 34 8000 1 0 14:41 09.01.2020
868 Clear 18 1026 39 8000 1.5 0 14:19 09.01.2020
869 Clear 17 1026 42 8000 1.5 350 13:57 09.01.2020
870 Clear 16 1027 44 8000 1.5 20 13:38 09.01.2020
871 Clear 16 1027 44 8000 1.5 20 13:19 09.01.2020
872 Clear 16 1027 41 8000 1.5 0 12:57 09.01.2020
873 Clear 14 1027 47 8000 2.1 110 12:38 09.01.2020
874 Clear 14 1027 47 8000 2.1 110 12:18 09.01.2020
875 Clear 14 1027 50 8000 1 0 11:43 09.01.2020
876 Clear 13 1027 50 8000 1 0 11:25 09.01.2020
877 Clear 11 1027 57 8000 1 0 10:59 09.01.2020
878 Clear 6 1026 75 8000 1.5 120 10:41 09.01.2020
879 Clear 6 1026 75 8000 1.5 120 10:21 09.01.2020
880 Clear 6 1026 75 8000 1.5 120 09:49 09.01.2020
881 Clear 4 1026 42 8000 1 0 09:25 09.01.2020
882 Clear 4 1026 80 10000 1 0 08:59 09.01.2020
883 Clear 5 1026 75 8000 1 0 08:40 09.01.2020
884 Clear 5 1026 75 8000 1 0 08:21 09.01.2020
885 Clear 5 1026 75 8000 0.5 0 07:53 09.01.2020
886 Clear 5 1026 75 8000 1 0 07:33 09.01.2020
887 Clear 6 1026 70 8000 1 0 06:52 09.01.2020
888 Clear 6 1026 75 8000 2.1 150 06:32 09.01.2020
889 Clear 6 1026 70 8000 0.5 0 05:52 09.01.2020
890 Clear 5 1026 75 8000 1 0 05:26 09.01.2020
891 Clear 6 1026 70 8000 1.5 290 04:40 09.01.2020
892 Clear 6 1027 70 8000 1 0 03:28 09.01.2020
893 Clear 8 1025 50 0 0.68 120 02:47 09.01.2020
894 Clear 9 1026 47 0 0.42 326 01:42 09.01.2020
895 Clear 9 1027 57 8000 1 0 01:18 09.01.2020
896 Clear 9 1027 57 8000 1 0 01:18 09.01.2020
897 Clear 9 1027 57 8000 1 0 00:38 09.01.2020
898 Clear 9 1027 57 8000 1 0 00:19 09.01.2020
899 Clear 10 1027 53 8000 0.5 0 00:19 09.01.2020
900 Clear 10 1027 53 8000 1 0 23:40 08.01.2020
901 Clear 10 1027 53 8000 1 0 23:22 08.01.2020
902 Clear 11 1027 50 8000 0.5 0 22:56 08.01.2020
903 Clear 11 1027 50 8000 0.5 0 22:56 08.01.2020
904 Clear 13 1027 47 8000 0.5 0 22:37 08.01.2020
905 Clear 13 1027 47 8000 0.5 0 22:18 08.01.2020
906 Clear 13 1027 43 8000 2.1 130 21:55 08.01.2020
907 Clear 14 1027 44 8000 1 0 21:37 08.01.2020
908 Clear 14 1027 44 8000 1 0 21:18 08.01.2020
909 Clear 14 1027 41 8000 1 0 20:41 08.01.2020
910 Clear 15 1026 38 8000 1.5 20 20:21 08.01.2020
911 Clear 16 1026 36 8000 1.5 20 19:59 08.01.2020
912 Clear 17 1026 33 8000 1.5 20 19:38 08.01.2020
913 Clear 17 1026 33 8000 1.5 20 19:20 08.01.2020
914 Clear 18 1026 31 8000 2.1 10 18:58 08.01.2020
915 Clear 19 1026 32 8000 2.1 350 18:39 08.01.2020
916 Clear 19 1026 32 8000 2.1 350 18:19 08.01.2020
917 Clear 19 1026 32 8000 2.1 350 18:19 08.01.2020
918 Clear 19 1025 34 8000 1.5 0 17:57 08.01.2020
919 Clear 19 1025 37 8000 1 0 17:38 08.01.2020
920 Clear 19 1025 37 8000 1 0 17:19 08.01.2020
921 Clear 19 1025 37 8000 1 0 17:19 08.01.2020
922 Clear 20 1025 34 8000 1 0 16:56 08.01.2020
923 Clear 20 1025 34 8000 1 0 16:38 08.01.2020
924 Clear 20 1025 34 8000 1 0 16:18 08.01.2020
925 Clear 19 1025 34 8000 1.5 350 15:45 08.01.2020
926 Clear 19 1026 32 8000 1.5 330 15:21 08.01.2020
927 Clear 19 1026 34 6000 1.5 0 14:59 08.01.2020
928 Clear 18 1026 36 6000 1.5 20 14:40 08.01.2020
929 Clear 18 1026 36 6000 1.5 20 14:40 08.01.2020
930 Clear 18 1026 36 6000 1.5 20 14:21 08.01.2020
931 Clear 18 1027 42 6000 1.5 0 13:41 08.01.2020
932 Clear 16 1027 44 6000 1.5 40 13:22 08.01.2020
933 Clear 16 1027 44 6000 1.5 40 13:22 08.01.2020
934 Clear 16 1028 48 6000 1 0 12:55 08.01.2020
935 Clear 16 1028 48 6000 0.5 0 12:37 08.01.2020
936 Clear 16 1028 48 6000 0.5 0 12:18 08.01.2020
937 Clear 14 1028 50 6000 1 0 11:48 08.01.2020
938 Clear 14 1028 50 6000 1 0 11:48 08.01.2020
939 Clear 12 1028 58 6000 1.5 100 11:19 08.01.2020
940 Clear 10 1028 66 6000 1.5 90 10:59 08.01.2020
941 Clear 10 1028 66 6000 1.5 90 10:59 08.01.2020
942 Clear 9 1028 70 6000 1.5 50 10:40 08.01.2020
943 Clear 9 1028 70 6000 1.5 50 10:21 08.01.2020
944 Clear 9 1028 70 6000 1.5 50 10:21 08.01.2020
945 Clear 6 1027 81 6000 1.5 110 09:43 08.01.2020
946 Clear 4 1027 86 6000 2.1 90 09:20 08.01.2020
947 Clear 5 1026 80 7000 1 0 08:59 08.01.2020
948 Clear 5 1026 80 8000 0.5 0 08:40 08.01.2020
949 Clear 5 1026 80 8000 0.5 0 08:21 08.01.2020
950 Clear 5 1026 80 8000 0.5 0 07:52 08.01.2020
951 Clear 5 1026 80 8000 1 0 07:33 08.01.2020
952 Clear 5 1026 80 8000 2.1 100 06:58 08.01.2020
953 Clear 5 1026 80 10000 1 0 06:40 08.01.2020
954 Clear 6 1026 75 10000 0.5 0 05:55 08.01.2020
955 Clear 6 1026 81 10000 1.5 60 05:25 08.01.2020
956 Clear 6 1026 75 10000 2.1 90 04:36 08.01.2020
957 Clear 7 1026 70 10000 1.5 90 02:46 08.01.2020
958 Clear 7 1026 70 10000 1 0 02:28 08.01.2020
959 Clear 9 1027 66 10000 0.5 0 01:54 08.01.2020
960 Clear 9 1027 66 10000 2.1 170 01:29 08.01.2020
961 Clear 9 1027 61 10000 1 0 00:42 08.01.2020
962 Clear 10 1027 57 10000 1 0 00:21 08.01.2020
963 Clear 10 1027 61 10000 0.5 0 23:45 07.01.2020
964 Clear 11 1027 57 10000 1 0 23:20 07.01.2020
965 Clear 11 1027 57 10000 1 0 22:41 07.01.2020
966 Clear 12 1027 50 10000 1 0 22:21 07.01.2020
967 Clear 12 1027 50 10000 1.5 220 21:58 07.01.2020
968 Clear 13 1027 50 10000 1.5 230 21:40 07.01.2020
969 Clear 13 1027 50 10000 1.5 230 21:21 07.01.2020
970 Clear 13 1027 50 10000 1.5 240 20:57 07.01.2020
971 Clear 13 1027 50 10000 1.5 250 20:39 07.01.2020
972 Clear 13 1027 50 10000 1.5 250 20:21 07.01.2020
973 Clear 14 1026 47 10000 1.5 260 19:56 07.01.2020
974 Clear 15 1026 44 10000 2.1 250 19:37 07.01.2020
975 Clear 15 1026 44 10000 2.1 250 19:18 07.01.2020
976 Clear 15 1026 44 10000 2.1 250 19:18 07.01.2020
977 Clear 16 1026 41 10000 2.6 260 18:55 07.01.2020
978 Clear 17 1026 39 10000 2.1 260 18:37 07.01.2020
979 Clear 17 1026 39 10000 2.1 260 18:18 07.01.2020
980 Clear 17 1026 39 10000 2.1 260 18:18 07.01.2020
981 Clear 17 1026 39 10000 2.1 260 18:18 07.01.2020
982 Clear 18 1025 36 10000 2.6 340 17:41 07.01.2020
983 Clear 18 1025 36 10000 2.6 340 17:22 07.01.2020
984 Clear 18 1025 36 8000 2.6 290 16:58 07.01.2020
985 Clear 18 1025 36 8000 2.1 290 16:38 07.01.2020
986 Clear 18 1025 36 8000 2.1 290 16:19 07.01.2020
987 Clear 18 1025 39 8000 2.1 0 15:59 07.01.2020
988 Clear 18 1025 39 8000 2.1 0 15:41 07.01.2020
989 Clear 18 1025 45 8000 2.1 270 15:23 07.01.2020
990 Clear 18 1026 45 8000 2.6 290 14:56 07.01.2020
991 Clear 17 1026 51 8000 2.1 310 14:37 07.01.2020
992 Clear 17 1026 51 8000 2.1 310 14:19 07.01.2020
993 Clear 16 1027 59 8000 2.1 330 13:40 07.01.2020
994 Clear 16 1027 59 8000 2.1 330 13:19 07.01.2020
995 Clear 15 1028 62 8000 1 0 12:42 07.01.2020
996 Clear 14 1028 62 6000 1.5 0 12:21 07.01.2020
997 Clear 13 1028 66 6000 1.5 310 11:59 07.01.2020
998 Clear 12 1028 66 6000 1 0 11:40 07.01.2020
999 Clear 12 1028 66 6000 1 0 11:21 07.01.2020
1000 Clear 12 1028 62 6000 1 0 10:42 07.01.2020
1001 Clear 10 1028 71 7000 0.5 0 10:24 07.01.2020
1002 Clear 7 1027 87 7000 0.5 0 09:59 07.01.2020
1003 Clear 6 1027 81 7000 1.5 100 09:38 07.01.2020
1004 Clear 6 1027 81 7000 1.5 100 09:20 07.01.2020
1005 Clear 6 1026 87 7000 1 0 08:46 07.01.2020
1006 Clear 7 1026 81 8000 1 0 08:27 07.01.2020
1007 Clouds 7 1026 81 8000 2.6 160 07:54 07.01.2020
1008 Clouds 6 1026 87 8000 1.5 200 07:34 07.01.2020
1009 Clouds 6 1025 87 8000 1.5 240 06:54 07.01.2020
1010 Clouds 6 1025 87 8000 1 0 06:35 07.01.2020
1011 Clouds 6 1025 81 8000 1.5 260 05:57 07.01.2020
1012 Clouds 6 1025 87 8000 0.5 0 05:38 07.01.2020
1013 Clouds 7 1026 81 8000 1 0 03:44 07.01.2020
1014 Clouds 9 1026 76 8000 1 0 02:25 07.01.2020
1015 Clouds 9 1026 76 8000 0.5 0 01:57 07.01.2020
1016 Clouds 10 1026 76 8000 2.1 180 01:34 07.01.2020
1017 Clouds 11 1026 66 8000 1.5 170 00:40 07.01.2020
1018 Clouds 11 1026 66 8000 1.5 170 00:20 07.01.2020
1019 Clouds 10 1026 71 10000 1.5 170 23:55 06.01.2020
1020 Clouds 10 1026 71 10000 0.5 0 23:36 06.01.2020
1021 Clear 10 1026 71 10000 0.5 0 23:18 06.01.2020
1022 Clear 11 1026 66 10000 1 0 22:43 06.01.2020
1023 Clear 11 1026 66 10000 1 0 22:23 06.01.2020
1024 Clear 12 1026 62 10000 1.5 100 21:57 06.01.2020
1025 Clear 12 1025 62 10000 1.5 70 21:39 06.01.2020
1026 Clear 12 1025 62 10000 1.5 70 21:20 06.01.2020
1027 Clear 12 1025 62 10000 1.5 70 21:20 06.01.2020
1028 Clear 12 1025 62 10000 1.5 70 21:20 06.01.2020
1029 Clear 12 1025 62 10000 2.1 90 20:57 06.01.2020
1030 Clear 13 1025 58 8000 2.6 70 20:38 06.01.2020
1031 Clear 13 1025 58 8000 2.6 70 20:20 06.01.2020
1032 Clear 15 1025 51 8000 3.1 70 19:56 06.01.2020
1033 Clouds 16 1024 51 8000 5.1 40 19:38 06.01.2020
1034 Clouds 16 1024 51 8000 5.1 40 19:19 06.01.2020
1035 Clouds 17 1024 48 8000 3.1 40 18:47 06.01.2020
1036 Clouds 17 1024 48 8000 3.1 40 18:47 06.01.2020
1037 Clouds 17 1023 48 8000 4.1 40 18:21 06.01.2020
1038 Clouds 17 1023 51 8000 3.6 30 17:58 06.01.2020
1039 Clouds 17 1023 51 8000 3.1 40 17:38 06.01.2020
1040 Clouds 17 1023 51 8000 3.1 40 17:18 06.01.2020
1041 Clouds 17 1023 55 8000 2.6 50 16:44 06.01.2020
1042 Clear 17 1023 55 8000 2.6 40 16:25 06.01.2020
1043 Clear 17 1023 59 8000 1.5 40 15:59 06.01.2020
1044 Clear 17 1024 55 6000 2.1 40 15:39 06.01.2020
1045 Clear 17 1024 55 6000 2.1 40 15:19 06.01.2020
1046 Clear 16 1024 59 6000 2.6 50 14:57 06.01.2020
1047 Clear 16 1025 59 6000 3.1 50 14:39 06.01.2020
1048 Clear 16 1025 59 6000 3.1 50 14:18 06.01.2020
1049 Clear 15 1025 62 6000 2.6 20 13:41 06.01.2020
1050 Clear 14 1026 67 6000 1.5 0 13:22 06.01.2020
1051 Clear 14 1026 71 6000 1.5 350 12:59 06.01.2020
1052 Clear 14 1026 71 6000 1.5 350 12:41 06.01.2020
1053 Clear 13 1026 76 6000 1 0 12:20 06.01.2020
1054 Clouds 12 1027 76 6000 1.5 40 11:56 06.01.2020
1055 Clouds 12 1027 81 6000 0.5 0 11:38 06.01.2020
1056 Clouds 12 1027 81 6000 0.5 0 11:20 06.01.2020
1057 Clouds 11 1027 81 6000 0.5 0 10:42 06.01.2020
1058 Clouds 11 1027 81 6000 0.5 0 10:42 06.01.2020
1059 Clouds 10 1027 81 6000 0.5 0 10:21 06.01.2020
1060 Clouds 7 1027 93 8000 0.5 0 09:42 06.01.2020
1061 Clouds 5 1026 93 8000 1 0 09:24 06.01.2020
1062 Clouds 6 1026 87 8000 1 0 08:58 06.01.2020
1063 Clouds 6 1026 93 8000 1 0 08:39 06.01.2020
1064 Clouds 6 1026 93 8000 1 0 08:21 06.01.2020
1065 Clouds 6 1026 93 8000 1 0 08:21 06.01.2020
1066 Clouds 5 1026 93 8000 1 0 07:46 06.01.2020
1067 Clear 6 1025 93 8000 1 0 07:21 06.01.2020
1068 Clear 6 1025 93 8000 1 0 07:21 06.01.2020
1069 Clear 7 1025 87 8000 0.5 0 06:41 06.01.2020
1070 Clear 7 1025 93 8000 0.5 0 05:51 06.01.2020
1071 Clear 7 1025 87 8000 2.1 220 05:29 06.01.2020
1072 Clear 8 1025 87 8000 2.1 230 04:25 06.01.2020
1073 Clear 9 1025 87 8000 2.6 230 03:52 06.01.2020
1074 Clear 8 1025 87 8000 2.6 250 02:32 06.01.2020
1075 Clouds 8 1025 87 8000 2.6 250 01:55 06.01.2020
1076 Clouds 8 1025 87 8000 2.6 240 01:32 06.01.2020
1077 Clouds 10 1025 81 8000 3.1 230 00:48 06.01.2020
1078 Clouds 10 1025 81 8000 3.1 230 00:29 06.01.2020
1079 Clouds 10 1025 76 8000 3.1 240 23:59 05.01.2020
1080 Clouds 10 1025 81 8000 2.6 240 23:40 05.01.2020
1081 Clouds 10 1025 81 8000 2.6 240 23:21 05.01.2020
1082 Clouds 9 1025 81 8000 2.6 250 22:40 05.01.2020
1083 Clouds 9 1025 81 8000 2.6 250 22:21 05.01.2020
1084 Clouds 11 1025 76 8000 2.1 260 21:59 05.01.2020
1085 Clouds 11 1025 76 8000 3.1 280 21:40 05.01.2020
1086 Clouds 11 1025 76 8000 3.1 280 21:20 05.01.2020
1087 Clouds 12 1025 71 8000 2.1 260 20:58 05.01.2020
1088 Clouds 12 1024 71 8000 1.5 250 20:39 05.01.2020
1089 Clouds 12 1024 71 8000 1.5 250 20:19 05.01.2020
1090 Clouds 13 1024 66 8000 1.5 270 19:59 05.01.2020
1091 Clouds 14 1024 62 8000 2.1 280 19:39 05.01.2020
1092 Clouds 14 1024 62 8000 2.1 280 19:20 05.01.2020
1093 Clouds 15 1024 62 8000 3.1 270 18:56 05.01.2020
1094 Clouds 16 1024 59 8000 2.6 270 18:38 05.01.2020
1095 Clouds 16 1024 59 8000 2.6 270 18:19 05.01.2020
1096 Clouds 17 1024 55 8000 1.5 0 17:58 05.01.2020
1097 Clouds 17 1024 55 8000 2.1 0 17:39 05.01.2020
1098 Clouds 17 1024 55 8000 2.1 0 17:20 05.01.2020
1099 Clouds 17 1024 55 8000 1.5 330 16:56 05.01.2020
1100 Clouds 17 1024 55 8000 1.5 330 16:56 05.01.2020
1101 Clouds 18 1024 52 8000 1.5 0 16:38 05.01.2020
1102 Clouds 18 1024 52 8000 1.5 0 16:19 05.01.2020
1103 Clouds 17 1024 55 8000 1 0 15:39 05.01.2020
1104 Clouds 17 1024 55 8000 1 0 15:20 05.01.2020
1105 Clouds 17 1024 59 8000 1.5 300 14:56 05.01.2020
1106 Clouds 17 1025 59 8000 1.5 0 14:38 05.01.2020
1107 Clear 17 1025 59 8000 1.5 0 14:20 05.01.2020
1108 Clear 16 1025 59 10000 1.5 0 13:56 05.01.2020
1109 Clear 15 1026 62 8000 1 0 13:38 05.01.2020
1110 Clear 15 1026 62 8000 1 0 13:19 05.01.2020
1111 Clear 15 1026 62 8000 1 0 13:19 05.01.2020
1112 Clear 15 1026 62 8000 1 0 12:55 05.01.2020
1113 Clear 15 1026 62 8000 1 0 12:55 05.01.2020
1114 Clear 14 1027 67 6000 1 0 12:37 05.01.2020
1115 Clear 14 1027 67 6000 1 0 12:18 05.01.2020
1116 Clear 13 1027 66 6000 0.5 0 11:43 05.01.2020
1117 Clear 12 1027 76 6000 0.5 0 11:20 05.01.2020
1118 Clear 10 1027 81 6000 1 0 10:58 05.01.2020
1119 Clear 9 1027 81 6000 1 0 10:39 05.01.2020
1120 Clear 9 1027 81 6000 1 0 10:19 05.01.2020
1121 Clear 7 1026 87 8000 1 0 09:42 05.01.2020
1122 Clear 6 1026 87 8000 1.5 90 09:22 05.01.2020
1123 Clear 6 1026 87 7000 1 0 08:50 05.01.2020
1124 Clear 6 1026 87 10000 1 0 08:31 05.01.2020
1125 Clear 7 1026 87 10000 1.5 260 07:59 05.01.2020
1126 Clear 6 1026 87 10000 1.5 260 07:39 05.01.2020
1127 Clear 6 1026 87 10000 1.5 260 07:20 05.01.2020
1128 Clear 7 1026 87 10000 1 0 06:21 05.01.2020
1129 Clear 6 1026 87 10000 1 0 05:34 05.01.2020
1130 Clear 7 1027 87 10000 0.5 0 04:48 05.01.2020
1131 Clear 8 1027 81 10000 1.5 240 04:18 05.01.2020
1132 Clear 8 1027 81 10000 1.5 240 04:18 05.01.2020
1133 Clear 8 1027 87 10000 0.5 0 02:50 05.01.2020
1134 Clear 9 1027 81 10000 0.5 0 02:32 05.01.2020
1135 Clear 9 1027 81 10000 0.5 0 01:49 05.01.2020
1136 Clear 10 1027 76 10000 1 0 01:19 05.01.2020
1137 Clear 9 1027 87 10000 0.5 0 00:55 05.01.2020
1138 Clear 10 1028 81 10000 1 0 00:36 05.01.2020
1139 Clear 10 1028 81 10000 1 0 00:18 05.01.2020
1140 Clear 12 1028 76 10000 1 0 23:40 04.01.2020
1141 Clear 12 1028 76 10000 1 0 23:20 04.01.2020
1142 Clear 13 1027 71 10000 1 0 22:40 04.01.2020
1143 Clear 13 1027 71 10000 1 0 22:22 04.01.2020
1144 Clear 13 1027 71 8000 1 0 21:58 04.01.2020
1145 Clear 13 1027 71 8000 1.5 280 21:40 04.01.2020
1146 Clear 13 1027 71 8000 1.5 280 21:22 04.01.2020
1147 Clear 13 1027 71 8000 1.5 280 20:59 04.01.2020
1148 Clear 14 1027 67 8000 2.1 280 20:40 04.01.2020
1149 Clear 14 1027 67 8000 2.1 280 20:22 04.01.2020
1150 Clear 14 1027 67 8000 2.1 270 19:57 04.01.2020
1151 Clear 15 1027 62 8000 2.1 260 19:38 04.01.2020
1152 Clear 15 1027 62 8000 2.1 260 19:20 04.01.2020
1153 Clear 17 1027 55 8000 2.1 280 18:56 04.01.2020
1154 Clear 18 1027 55 8000 1.5 300 18:37 04.01.2020
1155 Clear 18 1027 55 8000 1.5 300 18:19 04.01.2020
1156 Clear 18 1027 52 8000 1.5 320 17:41 04.01.2020
1157 Clear 18 1027 55 8000 2.1 0 17:23 04.01.2020
1158 Clear 18 1027 55 8000 2.6 320 16:59 04.01.2020
1159 Clear 18 1027 55 8000 2.1 310 16:40 04.01.2020
1160 Clear 18 1027 55 8000 2.1 310 16:21 04.01.2020
1161 Clear 18 1027 52 8000 2.1 340 15:56 04.01.2020
1162 Clear 17 1027 55 8000 2.6 310 15:38 04.01.2020
1163 Clear 17 1027 55 8000 2.6 310 15:18 04.01.2020
1164 Clear 18 1028 55 8000 1.5 320 14:42 04.01.2020
1165 Clear 18 1028 55 8000 1.5 320 14:42 04.01.2020
1166 Clouds 17 1028 59 8000 1.5 0 14:20 04.01.2020
1167 Clouds 16 1029 63 8000 1.5 320 13:59 04.01.2020
1168 Clouds 16 1029 63 8000 1.5 280 13:38 04.01.2020
1169 Clouds 16 1029 63 8000 1.5 280 13:19 04.01.2020
1170 Clouds 15 1030 62 8000 1 0 12:57 04.01.2020
1171 Clouds 14 1030 71 8000 1 0 12:39 04.01.2020
1172 Clouds 14 1030 71 8000 1 0 12:19 04.01.2020
1173 Clouds 14 1030 71 8000 1 0 11:57 04.01.2020
1174 Clouds 14 1030 71 8000 1 0 11:57 04.01.2020
1175 Clouds 12 1031 81 8000 1 0 11:38 04.01.2020
1176 Clouds 12 1031 81 8000 1 0 11:38 04.01.2020
1177 Clouds 12 1031 81 8000 1 0 11:18 04.01.2020
1178 Clouds 11 1030 71 8000 0.5 0 10:41 04.01.2020
1179 Clouds 11 1030 71 8000 0.5 0 10:22 04.01.2020
1180 Clouds 9 1030 81 8000 0.33 313 09:48 04.01.2020
1181 Clouds 6 1030 87 8000 0.5 0 09:26 04.01.2020
1182 Clouds 6 1030 81 8000 0.5 0 08:49 04.01.2020
1183 Clouds 7 1030 81 8000 0.5 0 08:29 04.01.2020
1184 Clouds 6 1029 87 8000 1 0 07:59 04.01.2020
1185 Clouds 7 1029 81 8000 1 0 07:40 04.01.2020
1186 Clouds 7 1029 87 8000 0.5 0 06:46 04.01.2020
1187 Clouds 7 1029 81 8000 1.5 30 05:59 04.01.2020
1188 Clouds 7 1029 87 8000 1 0 04:53 04.01.2020
1189 Clouds 8 1029 81 8000 1 0 04:32 04.01.2020
1190 Clouds 9 1030 76 8000 1 0 03:37 04.01.2020
1191 Clouds 9 1030 76 8000 1 0 03:18 04.01.2020
1192 Clouds 10 1030 76 8000 2.6 170 02:18 04.01.2020
1193 Clouds 9 1030 81 8000 0.5 0 01:51 04.01.2020
1194 Clouds 9 1031 81 8000 1 0 01:30 04.01.2020
1195 Clouds 11 1031 76 8000 1.5 240 00:29 04.01.2020
1196 Clouds 12 1031 71 8000 2.1 220 23:59 03.01.2020
1197 Clouds 12 1031 71 8000 2.1 230 23:37 03.01.2020
1198 Clouds 12 1031 71 8000 2.1 230 23:19 03.01.2020
1199 Clouds 13 1031 66 8000 2.6 230 22:41 03.01.2020
1200 Clouds 13 1031 66 8000 2.6 230 22:19 03.01.2020
1201 Clouds 13 1031 66 8000 2.1 230 21:58 03.01.2020
1202 Clouds 13 1031 66 10000 2.1 230 21:38 03.01.2020
1203 Clouds 13 1031 66 10000 2.1 230 21:38 03.01.2020
1204 Clouds 13 1031 66 10000 2.1 230 21:19 03.01.2020
1205 Clouds 13 1031 66 10000 2.1 230 21:19 03.01.2020
1206 Clouds 12 1031 71 10000 2.1 240 20:56 03.01.2020
1207 Clouds 14 1031 67 10000 2.1 260 20:38 03.01.2020
1208 Clouds 14 1031 67 10000 2.1 260 20:18 03.01.2020
1209 Clouds 14 1030 67 10000 2.1 280 19:55 03.01.2020
1210 Clouds 15 1030 62 10000 2.6 280 19:37 03.01.2020
1211 Clouds 15 1030 62 10000 2.6 280 19:18 03.01.2020
1212 Clouds 18 1030 48 10000 1.5 300 18:40 03.01.2020
1213 Clouds 18 1030 48 10000 1.5 300 18:21 03.01.2020
1214 Clouds 19 1030 45 10000 1.5 300 17:54 03.01.2020
1215 Clouds 20 1030 42 10000 1.5 330 17:36 03.01.2020
1216 Clouds 20 1030 42 10000 1.5 330 17:18 03.01.2020
1217 Clouds 19 1030 42 10000 2.1 270 16:42 03.01.2020
1218 Clouds 19 1030 45 8000 1.5 290 16:22 03.01.2020
1219 Clouds 19 1030 45 8000 1.5 290 15:43 03.01.2020
1220 Clouds 19 1030 45 8000 1 0 15:19 03.01.2020
1221 Clouds 19 1030 45 8000 1 0 15:19 03.01.2020
1222 Clouds 19 1030 45 8000 1.5 330 14:56 03.01.2020
1223 Clouds 18 1031 48 8000 1.5 340 14:37 03.01.2020
1224 Clouds 18 1031 48 8000 1.5 340 14:19 03.01.2020
1225 Clouds 17 1031 51 8000 1.5 10 13:41 03.01.2020
1226 Clouds 16 1032 51 8000 1.5 330 13:23 03.01.2020
1227 Clouds 16 1032 51 8000 1.5 300 12:56 03.01.2020
1228 Clouds 16 1032 48 8000 0.5 0 12:38 03.01.2020
1229 Clouds 16 1032 48 8000 0.5 0 12:19 03.01.2020
1230 Clouds 15 1033 51 8000 1 0 11:42 03.01.2020
1231 Clouds 13 1033 58 8000 1 0 11:18 03.01.2020
1232 Clouds 11 1032 62 8000 2.1 100 10:43 03.01.2020
1233 Clouds 10 1032 66 8000 1.5 90 10:24 03.01.2020
1234 Clouds 8 1031 75 8000 1 0 09:57 03.01.2020
1235 Clouds 7 1031 75 8000 0.5 0 09:38 03.01.2020
1236 Clouds 7 1031 75 8000 0.5 0 09:20 03.01.2020
1237 Clouds 6 1031 81 8000 1.5 90 08:54 03.01.2020
1238 Clouds 5 1030 80 8000 2.1 90 08:36 03.01.2020
1239 Clouds 5 1030 80 8000 2.1 90 08:18 03.01.2020
1240 Clouds 7 1030 75 8000 1.5 100 07:39 03.01.2020
1241 Clouds 7 1030 75 8000 1.5 100 07:18 03.01.2020
1242 Clouds 7 1030 81 10000 0.5 0 06:42 03.01.2020
1243 Clouds 7 1030 75 10000 1 0 06:23 03.01.2020
1244 Clouds 7 1030 75 10000 0.5 0 05:20 03.01.2020
1245 Clouds 10 1030 76 10000 2.6 210 03:45 03.01.2020
1246 Clouds 9 1030 81 10000 2.1 230 02:54 03.01.2020
1247 Clouds 10 1030 81 10000 3.1 230 01:54 03.01.2020
1248 Clouds 10 1030 76 10000 3.1 230 01:36 03.01.2020
1249 Clouds 10 1030 76 10000 3.1 230 01:36 03.01.2020
1250 Clouds 11 1030 71 10000 3.6 230 00:46 03.01.2020
1251 Clouds 10 1031 71 10000 3.1 240 00:26 03.01.2020
1252 Clouds 11 1030 53 10000 2.1 240 23:39 02.01.2020
1253 Clear 11 1030 53 10000 2.1 240 23:21 02.01.2020
1254 Clear 12 1030 50 10000 2.1 250 22:59 02.01.2020
1255 Clear 12 1030 50 10000 2.1 250 22:41 02.01.2020
1256 Clear 14 1030 44 10000 3.1 220 22:20 02.01.2020
1257 Clear 12 1030 50 10000 2.1 240 21:57 02.01.2020
1258 Clear 12 1030 50 10000 2.1 240 21:38 02.01.2020
1259 Clear 12 1030 50 10000 2.1 240 21:19 02.01.2020
1260 Clear 14 1030 44 10000 2.1 260 20:56 02.01.2020
1261 Clear 14 1029 44 10000 1.5 260 20:37 02.01.2020
1262 Clouds 14 1029 44 10000 1.5 260 20:19 02.01.2020
1263 Clouds 15 1029 41 10000 2.1 270 19:54 02.01.2020
1264 Clouds 15 1029 41 10000 2.1 270 19:54 02.01.2020
1265 Clouds 16 1029 38 10000 2.6 270 19:36 02.01.2020
1266 Clouds 16 1029 38 10000 2.6 270 19:18 02.01.2020
1267 Clouds 16 1029 38 10000 2.6 270 19:18 02.01.2020
1268 Clouds 17 1029 36 10000 3.1 270 18:43 02.01.2020
1269 Clouds 19 1028 32 10000 2.1 300 18:25 02.01.2020
1270 Clouds 20 1028 30 10000 2.1 300 17:59 02.01.2020
1271 Clouds 20 1028 32 10000 1.5 0 17:39 02.01.2020
1272 Clear 20 1028 32 10000 1.5 0 17:21 02.01.2020
1273 Clear 20 1028 32 10000 1.5 350 16:59 02.01.2020
1274 Clear 20 1028 32 10000 1.5 330 16:41 02.01.2020
1275 Clear 20 1028 32 10000 1.5 330 16:20 02.01.2020
1276 Clear 20 1028 30 10000 1.5 0 15:58 02.01.2020
1277 Clear 20 1029 32 10000 1 0 15:40 02.01.2020
1278 Clear 20 1029 32 10000 1 0 15:22 02.01.2020
1279 Clear 19 1029 34 10000 2.1 350 14:57 02.01.2020
1280 Clear 19 1030 37 10000 1 0 14:36 02.01.2020
1281 Clear 19 1030 37 10000 1 0 14:18 02.01.2020
1282 Clear 18 1030 39 10000 1 0 13:50 02.01.2020
1283 Clear 17 1030 42 10000 1.5 10 13:31 02.01.2020
1284 Clear 17 1031 42 10000 1.5 60 12:46 02.01.2020
1285 Clear 16 1031 44 10000 1 0 12:28 02.01.2020
1286 Clear 16 1031 48 10000 0.5 0 11:59 02.01.2020
1287 Clear 16 1031 48 10000 0.5 0 11:40 02.01.2020
1288 Clear 16 1031 48 10000 0.5 0 11:20 02.01.2020
1289 Clear 13 1031 50 10000 1 0 10:45 02.01.2020
1290 Clear 10 1031 61 10000 1 0 10:26 02.01.2020
1291 Clear 9 1031 61 10000 1 0 09:52 02.01.2020
1292 Clear 7 1030 65 10000 1 0 09:33 02.01.2020
1293 Clear 7 1030 65 10000 1 0 08:48 02.01.2020
1294 Clear 8 1030 61 10000 2.6 160 08:27 02.01.2020
1295 Clear 8 1030 61 10000 2.6 170 07:54 02.01.2020
1296 Clear 6 1029 70 10000 1.5 130 07:31 02.01.2020
1297 Clear 6 1029 70 10000 0.5 0 06:55 02.01.2020
1298 Clear 6 1029 63 10000 0.5 0 06:36 02.01.2020
1299 Clear 6 1029 63 10000 0.5 0 06:36 02.01.2020
1300 Clear 8 1029 63 10000 2.1 180 05:36 02.01.2020
1301 Clear 8 1029 61 10000 1.5 160 04:33 02.01.2020
1302 Clear 9 1029 57 10000 1 0 02:55 02.01.2020
1303 Clear 8 1029 65 10000 2.1 110 02:20 02.01.2020
1304 Clear 9 1029 61 10000 1 0 01:46 02.01.2020
1305 Clear 10 1029 53 10000 0.5 0 01:19 02.01.2020
1306 Clear 12 1030 46 10000 1 0 00:34 02.01.2020
1307 Clear 11 1030 50 10000 0.5 0 23:58 01.01.2020
1308 Clear 12 1030 46 10000 3.1 180 23:40 01.01.2020
1309 Clear 12 1030 46 10000 3.1 180 23:19 01.01.2020
1310 Clear 12 1030 46 10000 1 0 22:38 01.01.2020
1311 Clear 12 1030 46 10000 1 0 22:20 01.01.2020
1312 Clear 12 1030 46 10000 1 0 22:20 01.01.2020
1313 Clear 12 1030 46 10000 1 0 22:20 01.01.2020
1314 Clear 12 1030 46 10000 1 0 21:56 01.01.2020
1315 Clear 13 1030 43 10000 1 0 21:38 01.01.2020
1316 Clear 13 1030 43 10000 1 0 21:19 01.01.2020
1317 Clear 14 1030 41 10000 2.1 270 20:55 01.01.2020
1318 Clear 15 1030 38 10000 2.6 270 20:37 01.01.2020
1319 Clear 15 1030 38 10000 2.6 270 20:19 01.01.2020
1320 Clear 17 1030 33 10000 2.6 260 19:55 01.01.2020
1321 Clear 17 1030 33 10000 2.6 260 19:55 01.01.2020
1322 Clear 17 1030 33 10000 2.6 260 19:37 01.01.2020
1323 Clear 17 1030 33 10000 2.6 260 19:19 01.01.2020
1324 Clear 18 1030 31 10000 2.1 270 18:55 01.01.2020
1325 Clear 19 1030 31 10000 3.1 280 18:36 01.01.2020
1326 Clear 19 1030 31 10000 3.1 280 18:36 01.01.2020
1327 Clear 19 1030 31 10000 3.1 280 18:36 01.01.2020
1328 Clear 19 1030 31 10000 3.1 280 18:18 01.01.2020
1329 Clear 20 1030 31 10000 3.6 290 17:56 01.01.2020
1330 Clear 20 1030 31 10000 3.6 290 17:56 01.01.2020
1331 Clear 21 1030 26 10000 3.1 280 17:37 01.01.2020
1332 Clear 21 1030 26 10000 3.1 280 17:18 01.01.2020
1333 Clear 21 1030 19 10000 3.6 300 16:40 01.01.2020
1334 Clear 21 1030 19 10000 3.6 300 16:22 01.01.2020
1335 Clear 21 1030 26 10000 3.1 320 15:58 01.01.2020
1336 Clear 21 1030 26 10000 3.1 300 15:39 01.01.2020
1337 Clear 21 1030 26 10000 3.1 300 15:21 01.01.2020
1338 Clear 21 1030 19 10000 2.6 310 14:58 01.01.2020
1339 Clear 21 1030 28 10000 2.6 300 14:40 01.01.2020
1340 Clear 21 1030 28 10000 2.6 300 14:21 01.01.2020
1341 Clear 21 1030 28 10000 2.6 300 14:21 01.01.2020
1342 Clear 20 1031 30 10000 1.5 0 13:56 01.01.2020
1343 Clear 20 1031 32 10000 1.5 0 13:37 01.01.2020
1344 Clear 20 1031 32 10000 1.5 0 13:37 01.01.2020
1345 Clear 20 1031 32 10000 1.5 0 13:37 01.01.2020
1346 Clear 20 1031 32 10000 1.5 0 13:18 01.01.2020
1347 Clear 19 1032 32 10000 1.5 290 12:55 01.01.2020
1348 Clear 19 1032 34 10000 1 0 12:37 01.01.2020
1349 Clear 19 1032 34 10000 1 0 12:18 01.01.2020
1350 Clear 19 1032 32 10000 0.5 0 11:43 01.01.2020
1351 Clear 17 1032 42 10000 0.5 0 11:22 01.01.2020
1352 Clear 14 1032 50 10000 1 0 10:59 01.01.2020
1353 Clear 11 1031 57 10000 1.5 100 10:40 01.01.2020
1354 Clear 11 1031 57 10000 1.5 100 10:20 01.01.2020
1355 Clear 11 1031 57 10000 1.5 100 10:20 01.01.2020
1356 Clear 9 1031 66 10000 2.6 90 09:56 01.01.2020
1357 Clear 6 1030 75 10000 2.6 90 09:37 01.01.2020
1358 Clear 6 1030 75 10000 2.6 90 09:18 01.01.2020
1359 Clear 7 1030 70 10000 1.5 80 08:55 01.01.2020
1360 Clear 7 1030 65 10000 1 0 08:36 01.01.2020
1361 Clear 7 1030 65 10000 1 0 08:36 01.01.2020
1362 Clear 7 1030 65 10000 1 0 08:36 01.01.2020
1363 Clear 7 1030 65 10000 1 0 08:36 01.01.2020
1364 Clear 7 1030 65 10000 1 0 08:18 01.01.2020
1365 Clear 8 1030 61 10000 2.1 130 07:48 01.01.2020
1366 Clear 8 1029 65 10000 1 0 07:30 01.01.2020
1367 Clear 7 1029 70 10000 1 0 06:44 01.01.2020
1368 Clear 7 1029 70 10000 2.1 90 06:20 01.01.2020
1369 Clear 8 1029 61 10000 1 0 04:44 01.01.2020
1370 Clear 10 1029 53 10000 1 0 03:43 01.01.2020
1371 Clear 9 1028 57 10000 2.6 180 03:22 01.01.2020
1372 Clear 11 1028 50 10000 3.6 180 02:55 01.01.2020
1373 Clear 11 1029 50 10000 2.1 190 02:32 01.01.2020
1374 Clear 11 1029 53 10000 1.5 200 01:45 01.01.2020
1375 Clear 11 1029 53 10000 1 0 01:24 01.01.2020
1376 Clear 10 1029 57 10000 1 0 00:57 01.01.2020
1377 Clear 11 1029 53 10000 1 0 00:37 01.01.2020
1378 Clear 11 1029 53 10000 1 0 00:19 01.01.2020
1379 Clear 13 1029 47 10000 1 0 23:40 31.12.2019
1380 Clear 13 1029 47 10000 1 0 23:21 31.12.2019
1381 Clear 13 1028 50 10000 1 0 22:57 31.12.2019
1382 Clear 13 1028 47 10000 1.5 230 22:38 31.12.2019
1383 Clear 13 1028 47 10000 1.5 230 22:18 31.12.2019
1384 Clear 14 1028 44 10000 1.5 240 21:54 31.12.2019
1385 Clear 15 1028 41 10000 1 0 21:36 31.12.2019
1386 Clear 15 1028 41 10000 1 0 21:18 31.12.2019
1387 Clear 16 1028 38 10000 1.5 240 20:40 31.12.2019
1388 Clear 16 1028 38 10000 1.5 240 20:21 31.12.2019
1389 Clear 17 1027 36 10000 1.5 250 19:59 31.12.2019
1390 Clear 17 1027 36 10000 1.5 250 19:40 31.12.2019
1391 Clear 17 1027 36 10000 1.5 250 19:22 31.12.2019
1392 Clear 18 1027 34 10000 2.6 280 18:57 31.12.2019
1393 Clear 20 1027 28 10000 2.6 290 18:39 31.12.2019
1394 Clear 20 1027 28 10000 2.6 290 18:19 31.12.2019
1395 Clear 21 1027 26 10000 2.6 310 17:56 31.12.2019
1396 Clear 21 1026 32 10000 3.1 290 17:37 31.12.2019
1397 Clear 21 1026 22 10000 3.1 290 17:19 31.12.2019
1398 Clear 21 1026 26 10000 3.6 310 16:56 31.12.2019
1399 Clear 21 1026 26 10000 3.1 320 16:37 31.12.2019
1400 Clear 21 1026 26 10000 3.1 320 16:19 31.12.2019
1401 Clear 21 1026 26 10000 3.6 300 15:56 31.12.2019
1402 Clear 21 1026 26 10000 4.1 290 15:38 31.12.2019
1403 Clear 21 1026 26 10000 4.1 290 15:20 31.12.2019
1404 Clear 21 1027 26 10000 5.1 280 14:56 31.12.2019
1405 Clear 21 1027 30 10000 3.6 280 14:37 31.12.2019
1406 Clear 21 1027 30 10000 3.6 280 14:19 31.12.2019
1407 Clear 20 1027 37 10000 2.6 290 13:56 31.12.2019
1408 Clear 19 1028 37 10000 2.6 270 13:38 31.12.2019
1409 Clear 19 1028 37 10000 2.6 270 13:20 31.12.2019
1410 Clear 18 1028 42 10000 2.1 270 12:56 31.12.2019
1411 Clear 17 1028 45 10000 2.6 280 12:38 31.12.2019
1412 Clear 17 1028 45 10000 2.6 280 12:19 31.12.2019
1413 Clear 17 1029 45 10000 2.6 290 11:55 31.12.2019
1414 Clear 16 1029 44 10000 2.6 260 11:37 31.12.2019
1415 Clear 16 1029 44 10000 2.6 260 11:37 31.12.2019
1416 Clear 16 1029 44 10000 2.6 260 11:19 31.12.2019
1417 Clear 15 1028 41 10000 0.5 0 10:56 31.12.2019
1418 Clear 13 1028 47 10000 0.5 0 10:37 31.12.2019
1419 Clear 13 1028 47 10000 0.5 0 10:19 31.12.2019
1420 Clear 9 1028 61 10000 1 0 09:58 31.12.2019
1421 Clear 7 1027 34 10000 1 0 09:38 31.12.2019
1422 Clear 7 1027 34 10000 1 0 09:19 31.12.2019
1423 Clear 7 1027 56 10000 1 0 08:43 31.12.2019
1424 Clear 9 1027 49 10000 1 0 08:23 31.12.2019
1425 Clear 9 1026 42 10000 1.5 160 07:58 31.12.2019
1426 Clear 7 1026 42 10000 1 0 07:40 31.12.2019
1427 Clear 7 1026 42 10000 1 0 07:19 31.12.2019
1428 Clear 9 1025 57 8000 2.6 180 06:41 31.12.2019
1429 Clear 7 1025 70 8000 1 0 05:45 31.12.2019
1430 Clear 8 1025 61 8000 1.5 170 04:27 31.12.2019
1431 Clear 9 1025 57 8000 1.5 240 03:24 31.12.2019
1432 Clear 9 1025 57 8000 1 0 02:36 31.12.2019
1433 Clear 10 1025 53 8000 1 0 01:53 31.12.2019
1434 Clear 10 1025 53 8000 1 0 01:32 31.12.2019
1435 Clear 11 1025 53 8000 1.5 160 00:56 31.12.2019
1436 Clear 12 1025 46 8000 0.5 0 00:37 31.12.2019
1437 Clear 12 1025 46 8000 0.5 0 00:18 31.12.2019
1438 Clear 12 1025 46 8000 0.5 0 00:18 31.12.2019
1439 Clear 13 1025 43 8000 1 0 23:55 30.12.2019
1440 Clear 14 1025 41 8000 1 0 23:36 30.12.2019
1441 Clear 14 1025 41 8000 1 0 23:18 30.12.2019
1442 Clear 13 1025 47 10000 0.5 0 22:55 30.12.2019
1443 Clear 13 1025 47 10000 0.5 0 22:55 30.12.2019
1444 Clear 14 1025 47 10000 1 0 22:36 30.12.2019
1445 Clear 14 1025 47 10000 1 0 22:18 30.12.2019
1446 Clear 14 1025 44 10000 0.5 0 21:55 30.12.2019
1447 Clear 14 1025 44 10000 0.5 0 21:55 30.12.2019
1448 Clear 14 1025 44 10000 0.5 0 21:55 30.12.2019
1449 Clear 15 1024 41 10000 0.5 0 21:37 30.12.2019
1450 Clear 15 1024 41 10000 0.5 0 21:18 30.12.2019
1451 Clear 15 1024 44 10000 1 0 20:54 30.12.2019
1452 Clear 17 1024 36 10000 0.5 0 20:36 30.12.2019
1453 Clear 17 1024 36 10000 0.5 0 20:18 30.12.2019
1454 Clear 19 1024 32 10000 1 0 19:55 30.12.2019
1455 Clear 20 1024 30 10000 2.1 290 19:36 30.12.2019
1456 Clear 20 1024 30 10000 2.1 290 19:18 30.12.2019
1457 Clear 20 1024 30 10000 2.1 290 19:18 30.12.2019
1458 Clear 23 1024 26 10000 1 0 18:41 30.12.2019
1459 Clear 24 1024 26 10000 0.5 0 18:21 30.12.2019
1460 Clear 25 1024 17 10000 0.5 0 17:59 30.12.2019
1461 Clear 25 1024 16 8000 1 0 17:41 30.12.2019
1462 Clear 25 1024 16 8000 1 0 17:20 30.12.2019
1463 Clear 25 1024 17 8000 1 0 16:59 30.12.2019
1464 Clear 24 1024 19 8000 2.1 350 16:40 30.12.2019
1465 Clear 24 1024 19 8000 2.1 350 16:20 30.12.2019
1466 Clear 24 1024 19 8000 1.5 350 15:57 30.12.2019
1467 Clear 24 1024 19 8000 1.5 0 15:38 30.12.2019
1468 Clear 24 1024 19 8000 1.5 0 15:19 30.12.2019
1469 Clear 24 1024 22 8000 1.5 0 14:55 30.12.2019
1470 Clear 23 1024 15 8000 1.5 20 14:37 30.12.2019
1471 Clear 23 1024 17 8000 1.5 20 14:18 30.12.2019
1472 Clear 22 1025 21 6000 1 0 13:42 30.12.2019
1473 Clear 22 1025 21 6000 1 0 13:23 30.12.2019
1474 Clear 21 1026 17 6000 0.5 0 12:58 30.12.2019
1475 Clear 20 1026 28 6000 0.5 0 12:40 30.12.2019
1476 Clear 20 1026 28 6000 0.5 0 12:19 30.12.2019
1477 Clear 18 1026 34 6000 0.5 0 11:56 30.12.2019
1478 Clear 16 1026 38 6000 1 0 11:37 30.12.2019
1479 Clear 16 1026 38 6000 1 0 11:18 30.12.2019
1480 Clear 14 1026 50 6000 1 0 10:42 30.12.2019
1481 Clear 14 1026 50 6000 1 0 10:42 30.12.2019
1482 Clear 11 1026 57 8000 1.5 80 10:20 30.12.2019
1483 Clear 8 1026 65 8000 1.5 90 09:44 30.12.2019
1484 Clear 6 1025 70 8000 2.1 50 09:22 30.12.2019
1485 Clear 6 1025 70 8000 1.5 100 08:58 30.12.2019
1486 Clear 5 1025 75 8000 2.6 90 08:39 30.12.2019
1487 Clear 5 1025 75 8000 2.6 90 08:21 30.12.2019
1488 Clear 6 1025 70 8000 1 0 07:49 30.12.2019
1489 Clear 6 1025 70 8000 2.6 90 07:25 30.12.2019
1490 Clear 7 1024 65 8000 1 0 06:39 30.12.2019
1491 Clear 7 1025 70 8000 1.5 90 04:32 30.12.2019
1492 Clear 8 1025 61 8000 1 0 03:51 30.12.2019
1493 Clear 8 1025 61 8000 2.1 160 02:47 30.12.2019
1494 Clear 9 1026 61 8000 0.5 0 02:29 30.12.2019
1495 Clear 9 1026 61 8000 2.1 100 01:43 30.12.2019
1496 Clear 9 1026 61 8000 2.6 100 01:19 30.12.2019
1497 Clear 10 1026 53 8000 2.1 90 00:42 30.12.2019
1498 Clear 14 1026 35 8000 1 0 23:58 29.12.2019
1499 Clear 15 1025 35 8000 3.1 190 23:38 29.12.2019
1500 Clear 15 1025 34 8000 3.1 190 23:19 29.12.2019
1501 Clear 14 1025 41 8000 1.5 160 22:41 29.12.2019
1502 Clear 14 1025 41 8000 1.5 160 22:22 29.12.2019
1503 Clear 15 1025 38 8000 1 0 21:56 29.12.2019
1504 Clear 16 1025 36 8000 1 0 21:38 29.12.2019
1505 Clear 16 1025 36 8000 1 0 21:19 29.12.2019
1506 Clear 17 1025 33 8000 1.5 250 20:56 29.12.2019
1507 Clear 18 1024 31 8000 2.6 250 20:38 29.12.2019
1508 Clear 18 1024 31 8000 2.6 250 20:18 29.12.2019
1509 Clear 19 1024 23 8000 1.5 260 19:56 29.12.2019
1510 Clear 20 1024 24 8000 1.5 280 19:38 29.12.2019
1511 Clear 20 1024 24 8000 1.5 280 19:19 29.12.2019
1512 Clear 22 1024 19 8000 1.5 270 18:55 29.12.2019
1513 Clear 24 1024 19 8000 1.5 260 18:37 29.12.2019
1514 Clear 24 1024 19 8000 1.5 260 18:18 29.12.2019
1515 Clear 25 1023 17 8000 1 0 17:56 29.12.2019
1516 Clear 26 1023 15 8000 1 0 17:38 29.12.2019
1517 Clear 26 1023 15 8000 1 0 17:19 29.12.2019
1518 Clear 25 1023 15 8000 1.5 360 16:56 29.12.2019
1519 Clear 25 1023 17 8000 1.5 360 16:36 29.12.2019
1520 Clear 25 1023 17 8000 1.5 360 16:18 29.12.2019
1521 Clear 26 1023 13 8000 0.5 0 15:56 29.12.2019
1522 Clear 26 1023 13 8000 0.5 0 15:56 29.12.2019
1523 Clear 25 1024 13 8000 1 0 15:38 29.12.2019
1524 Clear 25 1024 13 8000 1 0 15:18 29.12.2019
1525 Clear 24 1024 23 8000 1.5 330 14:55 29.12.2019
1526 Clear 24 1024 23 8000 1 0 14:37 29.12.2019
1527 Clear 24 1024 23 8000 1 0 14:18 29.12.2019
1528 Clear 22 1025 28 8000 1.5 20 13:41 29.12.2019
1529 Clear 23 1024 25 8000 2.1 360 13:41 29.12.2019
1530 Clear 22 1025 28 8000 1.5 20 13:22 29.12.2019
1531 Clear 21 1025 28 8000 1 0 12:59 29.12.2019
1532 Clear 19 1026 34 8000 1.5 100 12:41 29.12.2019
1533 Clear 19 1026 34 8000 1.5 100 12:22 29.12.2019
1534 Clear 17 1026 36 8000 1.5 80 11:54 29.12.2019
1535 Clear 16 1026 38 8000 1 0 11:36 29.12.2019
1536 Clear 16 1026 38 8000 1 0 11:18 29.12.2019
1537 Clear 13 1026 50 8000 1.5 50 10:41 29.12.2019
1538 Clear 12 1025 54 8000 1 0 10:20 29.12.2019
1539 Clear 8 1025 65 8000 2.1 70 09:54 29.12.2019
1540 Clear 7 1025 65 10000 1 0 09:36 29.12.2019
1541 Clear 7 1025 65 10000 1 0 09:18 29.12.2019
1542 Clear 6 1025 70 10000 2.1 100 08:44 29.12.2019
1543 Clear 6 1025 70 10000 2.1 100 08:24 29.12.2019
1544 Clear 7 1025 70 10000 2.6 110 07:54 29.12.2019
1545 Clear 6 1024 75 10000 2.6 60 07:27 29.12.2019
1546 Clear 7 1024 65 10000 1.5 100 06:53 29.12.2019
1547 Clear 7 1024 65 10000 1.5 100 06:23 29.12.2019
1548 Clear 7 1024 70 10000 1 0 05:48 29.12.2019
1549 Clear 7 1024 65 10000 2.6 110 04:34 29.12.2019
1550 Clear 12 1023 46 10000 1.5 150 03:40 29.12.2019
1551 Clear 9 1023 61 10000 1 0 02:49 29.12.2019
1552 Clear 8 1023 70 10000 2.1 110 02:19 29.12.2019
1553 Clear 9 1024 61 10000 1.5 100 01:31 29.12.2019
1554 Clear 9 1024 61 10000 1.5 100 01:31 29.12.2019
1555 Clear 10 1024 57 10000 0.5 0 00:51 29.12.2019
1556 Clear 13 1024 43 10000 0.5 0 00:25 29.12.2019
1557 Clear 13 1024 47 10000 1.5 150 23:56 28.12.2019
1558 Clear 13 1024 47 10000 0.5 0 23:37 28.12.2019
1559 Clear 13 1024 47 10000 0.5 0 23:18 28.12.2019
1560 Clear 15 1023 38 8000 1 0 22:38 28.12.2019
1561 Clear 15 1023 38 8000 1 0 22:38 28.12.2019
1562 Clear 15 1023 38 8000 1 0 22:19 28.12.2019
1563 Clear 15 1023 38 8000 0.5 0 21:57 28.12.2019
1564 Clear 15 1023 38 8000 0.5 0 21:57 28.12.2019
1565 Clear 17 1023 33 8000 2.1 120 21:38 28.12.2019
1566 Clear 17 1023 33 8000 2.1 120 21:38 28.12.2019
1567 Clear 17 1023 33 8000 2.1 120 21:20 28.12.2019
1568 Clear 18 1023 31 8000 1.5 100 20:55 28.12.2019
1569 Clear 18 1023 31 8000 1.5 100 20:55 28.12.2019
1570 Clear 19 1023 34 8000 1 0 20:36 28.12.2019
1571 Clear 19 1023 25 8000 1 0 20:18 28.12.2019
1572 Clear 20 1023 25 8000 1 0 19:54 28.12.2019
1573 Clear 22 1022 21 8000 1.5 20 19:36 28.12.2019
1574 Clear 22 1022 21 8000 1.5 20 19:18 28.12.2019
1575 Clear 23 1022 20 8000 1.5 30 18:42 28.12.2019
1576 Clear 25 1022 17 8000 1.5 10 18:20 28.12.2019
1577 Clear 27 1022 18 8000 0.5 0 17:59 28.12.2019
1578 Clear 27 1022 18 8000 1 0 17:40 28.12.2019
1579 Clear 27 1022 18 8000 1 0 17:21 28.12.2019
1580 Clear 27 1022 18 8000 0.5 0 16:51 28.12.2019
1581 Clear 26 1022 14 8000 1.5 40 16:27 28.12.2019
1582 Clear 26 1022 16 8000 2.1 20 15:58 28.12.2019
1583 Clear 25 1022 14 8000 2.1 10 15:39 28.12.2019
1584 Clear 25 1022 14 8000 2.1 10 15:21 28.12.2019
1585 Clear 25 1022 14 8000 2.1 10 15:21 28.12.2019
1586 Clear 25 1022 14 8000 2.1 10 15:21 28.12.2019
1587 Clear 25 1022 14 8000 2.1 10 15:21 28.12.2019
1588 Clear 25 1022 14 8000 1.5 350 14:47 28.12.2019
1589 Clear 24 1022 23 8000 1.5 350 14:26 28.12.2019
1590 Clear 23 1023 27 8000 2.1 20 13:58 28.12.2019
1591 Clear 22 1023 30 8000 2.1 40 13:39 28.12.2019
1592 Clear 22 1023 30 8000 2.1 40 13:20 28.12.2019
1593 Clear 22 1024 33 8000 2.1 40 12:56 28.12.2019
1594 Clear 20 1024 37 8000 2.1 50 12:37 28.12.2019
1595 Clear 20 1024 37 8000 2.1 50 12:19 28.12.2019
1596 Clear 16 1025 44 8000 2.1 90 11:40 28.12.2019
1597 Clear 16 1025 44 8000 2.1 90 11:21 28.12.2019
1598 Clear 14 1025 54 10000 2.1 80 10:55 28.12.2019
1599 Clear 11 1024 62 10000 1.5 70 10:36 28.12.2019
1600 Clear 11 1024 62 10000 1.5 70 10:18 28.12.2019
1601 Clear 9 1024 70 10000 2.1 90 09:45 28.12.2019
1602 Clear 7 1024 70 10000 1.5 80 09:23 28.12.2019
1603 Clear 7 1024 70 10000 2.1 90 08:57 28.12.2019
1604 Clear 7 1023 70 10000 1.5 140 08:38 28.12.2019
1605 Clear 7 1023 70 10000 1.5 140 08:19 28.12.2019
1606 Clear 12 1024 31 0 0.24 144 07:41 28.12.2019
1607 Clear 12 1024 31 0 0.24 144 06:55 28.12.2019
1608 Clear 12 1024 31 0 0.24 144 05:40 28.12.2019
1609 Clear 13 1023 33 0 0.69 117 03:48 28.12.2019
1610 Clear 11 1023 57 10000 1 0 02:50 28.12.2019
1611 Clear 11 1023 57 10000 1 0 02:19 28.12.2019
1612 Clear 11 1023 57 10000 1 0 01:50 28.12.2019
1613 Clear 14 1023 44 10000 2.6 180 01:21 28.12.2019
1614 Clear 12 1023 58 10000 2.1 130 00:42 28.12.2019
1615 Clear 10 1024 66 10000 1.5 60 00:23 28.12.2019
1616 Clear 12 1023 54 10000 1.5 110 23:45 27.12.2019
1617 Clouds 11 1023 62 10000 1.5 140 23:21 27.12.2019
1618 Clouds 13 1023 50 10000 1 0 22:59 27.12.2019
1619 Clouds 16 1023 38 10000 1.5 150 22:39 27.12.2019
1620 Clouds 16 1023 38 10000 1.5 150 22:21 27.12.2019
1621 Clouds 16 1023 38 10000 2.1 180 21:59 27.12.2019
1622 Clouds 16 1023 34 10000 1 0 21:40 27.12.2019
1623 Clouds 16 1023 34 10000 1 0 21:22 27.12.2019
1624 Clouds 18 1023 36 10000 1.5 170 20:42 27.12.2019
1625 Clear 18 1023 36 10000 1.5 170 20:24 27.12.2019
1626 Clouds 19 1023 32 10000 1.5 200 19:55 27.12.2019
1627 Clouds 20 1022 32 10000 2.6 230 19:36 27.12.2019
1628 Clouds 20 1022 32 10000 2.6 230 19:18 27.12.2019
1629 Clouds 23 1022 23 10000 2.6 260 18:42 27.12.2019
1630 Clouds 23 1022 23 10000 2.6 260 18:24 27.12.2019
1631 Clouds 24 1022 28 10000 2.6 290 18:00 27.12.2019
1632 Clouds 24 1022 28 10000 2.6 290 17:41 27.12.2019
1633 Clouds 24 1021 23 10000 2.6 310 17:20 27.12.2019
1634 Clouds 24 1021 23 10000 3.1 310 16:59 27.12.2019
1635 Clouds 24 1021 23 10000 3.1 310 16:59 27.12.2019
1636 Clouds 25 1021 22 10000 3.6 290 16:41 27.12.2019
1637 Clouds 25 1021 22 10000 3.6 290 16:22 27.12.2019
1638 Clouds 24 1021 31 10000 2.1 330 15:56 27.12.2019
1639 Clouds 23 1021 33 10000 1.5 340 15:37 27.12.2019
1640 Clouds 23 1021 33 10000 1.5 340 15:18 27.12.2019
1641 Clouds 23 1021 33 10000 1 0 14:55 27.12.2019
1642 Clouds 23 1021 33 10000 1 0 14:36 27.12.2019
1643 Clouds 23 1021 33 10000 1 0 14:18 27.12.2019
1644 Clouds 23 1022 31 10000 1 0 13:43 27.12.2019
1645 Clouds 22 1022 33 10000 1 0 13:22 27.12.2019
1646 Clouds 21 1023 35 10000 0.5 0 12:48 27.12.2019
1647 Clouds 20 1023 42 10000 1 0 12:29 27.12.2019
1648 Clouds 20 1023 37 10000 0.5 0 11:59 27.12.2019
1649 Clouds 20 1023 37 10000 0.5 0 11:41 27.12.2019
1650 Clouds 19 1023 45 10000 0.5 0 11:20 27.12.2019
1651 Clouds 15 1023 58 10000 1 0 10:46 27.12.2019
1652 Clouds 14 1023 62 10000 1 0 10:24 27.12.2019
1653 Clouds 9 1022 76 10000 1.5 90 09:55 27.12.2019
1654 Clouds 8 1022 75 10000 2.6 80 09:37 27.12.2019
1655 Clouds 8 1022 75 10000 2.6 80 09:19 27.12.2019
1656 Clouds 8 1022 75 10000 2.6 80 09:19 27.12.2019
1657 Clouds 9 1022 76 10000 1.5 110 08:43 27.12.2019
1658 Clouds 8 1022 81 10000 2.1 110 08:25 27.12.2019
1659 Clouds 10 1021 76 10000 2.6 110 07:38 27.12.2019
1660 Clouds 10 1021 76 10000 2.6 110 07:19 27.12.2019
1661 Clouds 10 1021 76 10000 1 0 06:25 27.12.2019
1662 Clouds 11 1022 71 10000 1 0 04:39 27.12.2019
1663 Clouds 12 1022 71 8000 1.5 100 02:28 27.12.2019
1664 Clouds 11 1022 76 8000 1.5 70 01:44 27.12.2019
1665 Clouds 12 1022 71 8000 2.1 110 01:21 27.12.2019
1666 Clouds 12 1022 71 8000 1.5 100 00:47 27.12.2019
1667 Clouds 13 1022 71 8000 0.5 0 00:25 27.12.2019
1668 Clouds 12 1022 76 8000 1.5 80 23:56 26.12.2019
1669 Clouds 13 1022 66 8000 1 0 23:37 26.12.2019
1670 Clouds 13 1022 66 8000 1 0 23:19 26.12.2019
1671 Clouds 13 1022 71 8000 1.5 120 22:40 26.12.2019
1672 Clouds 13 1022 71 8000 1.5 120 22:18 26.12.2019
1673 Clouds 17 1022 59 6000 2.1 160 21:40 26.12.2019
1674 Clouds 17 1022 59 6000 2.1 160 21:21 26.12.2019
1675 Clouds 16 1022 59 6000 1 0 20:58 26.12.2019
1676 Clouds 17 1022 55 10000 1 0 20:39 26.12.2019
1677 Clouds 17 1022 55 10000 1 0 20:21 26.12.2019
1678 Clouds 18 1022 52 10000 0.5 0 19:56 26.12.2019
1679 Clouds 19 1022 45 10000 1 0 19:38 26.12.2019
1680 Clouds 19 1022 45 10000 1 0 19:19 26.12.2019
1681 Clouds 21 1022 40 10000 1.5 340 18:56 26.12.2019
1682 Clouds 22 1022 37 10000 1.5 310 18:36 26.12.2019
1683 Clouds 22 1022 37 10000 1.5 310 18:18 26.12.2019
1684 Clouds 23 1021 35 8000 1 0 17:41 26.12.2019
1685 Clouds 23 1022 35 10000 1 0 17:41 26.12.2019
1686 Clouds 23 1021 35 8000 1 0 17:21 26.12.2019
1687 Clouds 24 1021 33 8000 1 0 16:50 26.12.2019
1688 Clouds 23 1021 33 8000 1 0 16:27 26.12.2019
1689 Clouds 23 1021 33 7000 1 0 15:57 26.12.2019
1690 Clouds 23 1021 33 7000 1 0 15:38 26.12.2019
1691 Clouds 23 1021 33 7000 1 0 15:19 26.12.2019
1692 Clouds 22 1021 35 7000 1.5 320 14:41 26.12.2019
1693 Clouds 22 1022 35 7000 1 0 14:23 26.12.2019
1694 Clouds 21 1022 37 7000 1 0 13:55 26.12.2019
1695 Clouds 20 1023 40 8000 1 0 13:36 26.12.2019
1696 Clouds 20 1023 40 8000 1 0 13:18 26.12.2019
1697 Clouds 20 1023 40 8000 1 0 13:18 26.12.2019
1698 Clouds 19 1023 39 8000 1 0 12:44 26.12.2019
1699 Clouds 19 1023 42 8000 1 0 12:24 26.12.2019
1700 Clouds 17 1023 48 8000 1 0 11:59 26.12.2019
1701 Clouds 15 1023 54 8000 0.5 0 11:40 26.12.2019
1702 Clouds 15 1023 54 8000 0.5 0 11:40 26.12.2019
1703 Clouds 15 1023 54 8000 0.5 0 11:21 26.12.2019
1704 Clouds 13 1023 66 8000 1 0 10:50 26.12.2019
1705 Clouds 11 1023 71 8000 1 0 10:26 26.12.2019
1706 Clouds 11 1023 66 8000 1.5 50 09:55 26.12.2019
1707 Clouds 10 1023 71 10000 0.5 0 09:33 26.12.2019
1708 Clouds 11 1022 66 10000 0.5 0 08:59 26.12.2019
1709 Clouds 11 1022 66 10000 0.5 0 08:39 26.12.2019
1710 Clouds 11 1022 66 10000 0.5 0 08:20 26.12.2019
1711 Clouds 10 1022 71 10000 1 0 07:38 26.12.2019
1712 Clouds 10 1022 71 10000 1 0 07:19 26.12.2019
1713 Clouds 10 1021 66 10000 1 0 06:37 26.12.2019
1714 Clouds 10 1021 66 10000 1 0 06:19 26.12.2019
1715 Clouds 11 1022 66 10000 3.1 110 05:41 26.12.2019
1716 Clouds 10 1022 71 10000 2.1 90 04:33 26.12.2019
1717 Clouds 10 1022 76 10000 1.5 120 03:31 26.12.2019
1718 Clouds 10 1022 76 10000 2.1 120 02:46 26.12.2019
1719 Clouds 10 1023 71 10000 2.6 90 02:27 26.12.2019
1720 Clouds 10 1023 71 10000 2.1 110 01:44 26.12.2019
1721 Clouds 12 1023 66 10000 1 0 01:24 26.12.2019
1722 Clouds 12 1023 62 10000 2.1 50 00:44 26.12.2019
1723 Clouds 12 1023 66 10000 2.6 90 00:23 26.12.2019
1724 Clouds 12 1023 66 10000 2.6 90 00:23 26.12.2019
1725 Clouds 13 1024 58 8000 1.5 90 23:57 25.12.2019
1726 Clouds 15 1024 51 8000 1 0 23:37 25.12.2019
1727 Clouds 15 1024 51 8000 1 0 23:18 25.12.2019
1728 Clouds 16 1024 48 8000 3.1 180 22:56 25.12.2019
1729 Clouds 16 1025 48 8000 2.6 190 22:37 25.12.2019
1730 Clouds 16 1025 48 8000 2.6 190 22:18 25.12.2019
1731 Clouds 17 1025 45 8000 0.5 0 21:55 25.12.2019
1732 Clouds 19 1025 39 8000 3.1 210 21:37 25.12.2019
1733 Clouds 19 1025 39 8000 3.1 210 21:18 25.12.2019
1734 Clouds 18 1025 45 8000 2.6 230 20:40 25.12.2019
1735 Clear 18 1025 45 8000 2.6 230 20:20 25.12.2019
1736 Clear 20 1024 37 8000 3.1 230 19:57 25.12.2019
1737 Clear 20 1024 40 8000 2.1 220 19:39 25.12.2019
1738 Clear 20 1024 40 8000 2.1 220 19:21 25.12.2019
1739 Clear 22 1024 37 10000 4.1 260 18:39 25.12.2019
1740 Clear 22 1024 37 10000 4.1 260 18:20 25.12.2019
1741 Clear 22 1024 37 10000 4.1 260 18:20 25.12.2019
1742 Clear 24 1024 33 10000 4.1 270 17:57 25.12.2019
1743 Clear 24 1024 29 10000 4.6 280 17:36 25.12.2019
1744 Clear 24 1024 29 10000 4.6 280 17:18 25.12.2019
1745 Clear 26 1023 24 10000 4.6 280 16:39 25.12.2019
1746 Clear 26 1023 24 10000 4.6 280 16:20 25.12.2019
1747 Clear 25 1023 23 10000 5.1 280 15:58 25.12.2019
1748 Clear 25 1023 27 10000 4.1 280 15:40 25.12.2019
1749 Clear 25 1023 27 10000 4.1 280 15:21 25.12.2019
1750 Clear 25 1023 31 10000 3.1 290 14:59 25.12.2019
1751 Clear 25 1024 27 8000 3.6 270 14:40 25.12.2019
1752 Clear 25 1024 27 8000 3.6 270 14:40 25.12.2019
1753 Clouds 25 1024 27 8000 3.6 270 14:21 25.12.2019
1754 Clouds 25 1024 31 8000 2.1 0 13:57 25.12.2019
1755 Clouds 23 1025 35 8000 2.1 320 13:38 25.12.2019
1756 Clouds 23 1025 35 8000 2.1 320 13:19 25.12.2019
1757 Clouds 22 1025 40 6000 1 0 12:42 25.12.2019
1758 Clouds 22 1025 40 6000 1 0 12:21 25.12.2019
1759 Clouds 19 1025 48 6000 2.1 100 11:57 25.12.2019
1760 Clouds 18 1025 48 6000 1 0 11:39 25.12.2019
1761 Clouds 18 1025 48 6000 1 0 11:18 25.12.2019
1762 Clouds 14 1024 62 6000 1 0 10:38 25.12.2019
1763 Clouds 14 1024 62 6000 1 0 10:20 25.12.2019
1764 Clouds 11 1024 76 6000 1.5 90 09:51 25.12.2019
1765 Clouds 10 1024 71 8000 1.5 70 09:32 25.12.2019
1766 Clouds 9 1024 76 8000 2.6 80 08:51 25.12.2019
1767 Clouds 9 1023 76 8000 2.1 90 08:31 25.12.2019
1768 Clouds 9 1023 76 8000 2.1 90 08:31 25.12.2019
1769 Clouds 12 1023 58 8000 1 0 07:53 25.12.2019
1770 Clouds 11 1023 66 8000 1 0 07:34 25.12.2019
1771 Clouds 12 1023 62 8000 2.1 180 06:58 25.12.2019
1772 Clouds 11 1023 66 8000 2.1 0 06:23 25.12.2019
1773 Clouds 10 1023 76 8000 0.5 0 05:31 25.12.2019
1774 Clouds 10 1023 76 8000 1.5 100 04:39 25.12.2019
1775 Clouds 10 1023 76 8000 1.5 100 04:20 25.12.2019
1776 Clouds 10 1023 81 8000 2.1 100 03:43 25.12.2019
1777 Clouds 13 1023 62 8000 1 0 02:56 25.12.2019
1778 Clouds 12 1023 71 8000 1.5 150 02:27 25.12.2019
1779 Clouds 12 1023 71 8000 0.5 0 01:26 25.12.2019
1780 Clouds 12 1023 76 8000 1 0 00:56 25.12.2019
1781 Clouds 12 1024 76 8000 1.5 100 00:33 25.12.2019
1782 Clouds 13 1024 71 8000 1 0 23:58 24.12.2019
1783 Clouds 13 1024 71 8000 2.1 90 23:39 24.12.2019
1784 Clouds 13 1024 71 8000 2.1 90 23:20 24.12.2019
1785 Clouds 16 1024 51 8000 1 0 22:41 24.12.2019
1786 Clouds 16 1024 59 8000 1 0 22:23 24.12.2019
1787 Clouds 16 1024 59 8000 1.5 160 21:45 24.12.2019
1788 Clouds 16 1024 59 8000 2.1 160 21:24 24.12.2019
1789 Clouds 18 1024 52 8000 1 0 20:59 24.12.2019
1790 Clouds 18 1024 52 8000 1 0 20:41 24.12.2019
1791 Clouds 19 1024 48 8000 1 0 20:19 24.12.2019
1792 Clouds 18 1023 55 8000 2.1 170 19:45 24.12.2019
1793 Clouds 19 1023 52 8000 1 0 19:22 24.12.2019
1794 Clouds 22 1023 43 8000 1.94 10 18:58 24.12.2019
1795 Clouds 23 1023 40 8000 0.5 0 18:40 24.12.2019
1796 Clouds 23 1023 40 8000 0.5 0 18:18 24.12.2019
1797 Clouds 23 1023 35 8000 0.5 0 17:42 24.12.2019
1798 Clouds 24 1023 31 8000 1.5 320 17:21 24.12.2019
1799 Clouds 26 1023 29 8000 1.5 320 16:57 24.12.2019
1800 Clouds 26 1023 29 8000 1.5 320 16:38 24.12.2019
1801 Clouds 26 1023 29 8000 1.5 320 16:20 24.12.2019
1802 Clouds 26 1023 29 8000 2.6 290 15:56 24.12.2019
1803 Clouds 26 1023 27 8000 2.6 320 15:36 24.12.2019
1804 Clouds 26 1023 27 8000 2.6 320 15:18 24.12.2019
1805 Clouds 26 1024 29 8000 2.6 310 14:56 24.12.2019
1806 Clouds 25 1024 36 8000 1.5 340 14:38 24.12.2019
1807 Clouds 25 1024 36 8000 1.5 340 14:20 24.12.2019
1808 Clouds 24 1024 36 10000 1 0 13:55 24.12.2019
1809 Clouds 24 1024 36 10000 1 0 13:55 24.12.2019
1810 Clouds 24 1025 38 8000 1.5 50 13:37 24.12.2019
1811 Clouds 24 1025 38 8000 1.5 50 13:19 24.12.2019
1812 Clouds 24 1025 38 8000 1.5 50 13:19 24.12.2019
1813 Clouds 22 1025 40 8000 1 0 12:55 24.12.2019
1814 Clouds 21 1025 46 8000 1.5 70 12:36 24.12.2019
1815 Clouds 21 1025 46 8000 1.5 70 12:18 24.12.2019
1816 Clouds 19 1025 52 8000 1.5 80 11:55 24.12.2019
1817 Clouds 17 1025 55 8000 2.1 80 11:36 24.12.2019
1818 Clouds 17 1025 55 8000 2.1 80 11:18 24.12.2019
1819 Clouds 15 1025 62 8000 2.1 90 10:55 24.12.2019
1820 Clouds 13 1025 66 8000 2.1 80 10:37 24.12.2019
1821 Clouds 13 1025 66 8000 2.1 80 10:19 24.12.2019
1822 Clouds 11 1025 76 8000 2.1 60 09:54 24.12.2019
1823 Clouds 9 1025 81 8000 2.1 80 09:36 24.12.2019
1824 Clouds 18 1026 35 0 1.03 168 09:18 24.12.2019
1825 Clouds 9 1024 87 10000 2.1 100 08:43 24.12.2019
1826 Clouds 9 1024 81 10000 2.1 90 08:20 24.12.2019
1827 Clouds 12 1024 76 10000 2.1 130 07:45 24.12.2019
1828 Clouds 10 1024 81 10000 2.1 100 07:25 24.12.2019
1829 Clouds 11 1024 81 10000 3.1 100 06:57 24.12.2019
1830 Clouds 13 1025 48 0 0.66 148 06:38 24.12.2019
1831 Clouds 10 1024 81 10000 2.1 90 06:18 24.12.2019
1832 Clouds 12 1024 71 10000 1 0 05:20 24.12.2019
1833 Clouds 11 1024 76 10000 2.1 80 04:44 24.12.2019
1834 Clouds 13 1024 66 10000 0.5 0 03:50 24.12.2019
1835 Clouds 13 1025 66 10000 1 0 02:59 24.12.2019
1836 Clouds 14 1025 62 10000 1 0 02:21 24.12.2019
1837 Clouds 15 1025 58 10000 1.5 190 01:42 24.12.2019
1838 Clouds 15 1025 58 10000 1.5 180 01:20 24.12.2019
1839 Clouds 15 1025 58 10000 0.5 0 00:43 24.12.2019
1840 Clouds 15 1025 58 10000 1 0 00:23 24.12.2019
1841 Clouds 16 1025 55 10000 0.5 0 23:55 23.12.2019
1842 Clouds 16 1025 55 10000 0.5 0 23:37 23.12.2019
1843 Clouds 16 1025 55 10000 0.5 0 23:19 23.12.2019
1844 Clouds 16 1025 55 10000 0.5 0 23:19 23.12.2019
1845 Clouds 15 1025 58 10000 1 0 22:55 23.12.2019
1846 Clouds 15 1025 58 10000 1 0 22:55 23.12.2019
1847 Clouds 16 1025 55 8000 1.5 170 22:36 23.12.2019
1848 Clouds 16 1025 55 8000 1.5 170 22:36 23.12.2019
1849 Clouds 16 1025 55 8000 1.5 170 22:18 23.12.2019
1850 Clouds 17 1026 49 0 1.58 240 21:55 23.12.2019
1851 Clouds 17 1026 49 0 1.58 240 21:36 23.12.2019
1852 Clouds 17 1026 49 0 1.58 240 21:18 23.12.2019
1853 Clouds 17 1026 49 0 1.58 240 20:56 23.12.2019
1854 Clouds 17 1026 49 0 1.58 240 20:38 23.12.2019
1855 Clouds 18 1025 47 0 1.42 265 20:18 23.12.2019
1856 Clouds 21 1024 43 8000 3.6 260 19:54 23.12.2019
1857 Clouds 21 1024 43 8000 3.6 260 19:36 23.12.2019
1858 Clouds 21 1024 43 8000 3.6 260 19:18 23.12.2019
1859 Clouds 22 1024 43 8000 3.6 260 18:55 23.12.2019
1860 Clouds 23 1024 43 8000 4.1 260 18:36 23.12.2019
1861 Clouds 23 1024 43 8000 4.1 260 18:18 23.12.2019
1862 Clouds 24 1024 41 8000 4.1 240 17:55 23.12.2019
1863 Clouds 18 1025 47 0 1.42 265 17:37 23.12.2019
1864 Clouds 18 1025 47 0 1.42 265 17:37 23.12.2019
1865 Clouds 24 1024 41 8000 3.6 250 17:18 23.12.2019
1866 Clouds 24 1024 44 8000 3.1 260 16:42 23.12.2019
1867 Clouds 24 1024 44 8000 3.1 260 16:19 23.12.2019
1868 Clouds 24 1024 44 8000 3.1 260 16:19 23.12.2019
1869 Clouds 24 1024 44 8000 2.6 260 15:58 23.12.2019
1870 Clouds 24 1024 44 8000 2.6 260 15:38 23.12.2019
1871 Clouds 24 1024 44 8000 2.6 260 15:19 23.12.2019
1872 Clouds 23 1024 46 8000 3.1 280 14:58 23.12.2019
1873 Clouds 23 1025 49 8000 1.5 0 14:39 23.12.2019
1874 Clouds 23 1025 49 8000 1.5 0 14:21 23.12.2019
1875 Clouds 21 1025 56 8000 2.1 340 13:58 23.12.2019
1876 Clouds 20 1025 56 8000 2.1 360 13:40 23.12.2019
1877 Clouds 20 1025 56 8000 2.1 360 13:21 23.12.2019
1878 Clouds 21 1026 52 8000 3.1 310 12:55 23.12.2019
1879 Clouds 20 1026 56 8000 2.6 260 12:37 23.12.2019
1880 Clouds 20 1026 56 8000 2.6 260 12:19 23.12.2019
1881 Clouds 19 1026 55 8000 3.1 220 11:44 23.12.2019
1882 Clouds 18 1026 59 8000 1.5 190 11:25 23.12.2019
1883 Clouds 16 1026 63 8000 2.1 150 10:56 23.12.2019
1884 Clouds 15 1026 72 8000 1 0 10:38 23.12.2019
1885 Clouds 15 1026 72 8000 1 0 10:20 23.12.2019
1886 Clouds 12 1026 87 10000 0.5 0 09:59 23.12.2019
1887 Clouds 9 1026 93 10000 0.5 0 09:39 23.12.2019
1888 Clouds 9 1026 93 10000 0.5 0 09:20 23.12.2019
1889 Clouds 9 1025 93 10000 1.5 80 08:55 23.12.2019
1890 Clouds 17 1026 47 0 0.44 50 08:37 23.12.2019
1891 Clouds 9 1025 93 10000 1.5 80 08:18 23.12.2019
1892 Clouds 9 1025 93 10000 1.5 80 07:43 23.12.2019
1893 Clouds 9 1025 93 10000 1.5 80 07:20 23.12.2019
1894 Clouds 10 1024 87 10000 1 0 06:51 23.12.2019
1895 Clouds 9 1024 93 10000 1.5 110 06:24 23.12.2019
1896 Clouds 9 1024 93 10000 1.5 90 05:49 23.12.2019
1897 Clouds 10 1024 93 10000 1 0 05:22 23.12.2019
1898 Clouds 10 1024 93 10000 2.1 100 04:20 23.12.2019
1899 Clouds 11 1025 93 10000 2.1 130 02:55 23.12.2019
1900 Clouds 11 1025 87 10000 2.1 80 02:28 23.12.2019
1901 Clouds 11 1025 87 10000 2.1 70 01:55 23.12.2019
1902 Clouds 12 1026 93 10000 2.1 110 01:36 23.12.2019
1903 Clouds 12 1026 93 10000 2.1 110 01:18 23.12.2019
1904 Clouds 12 1026 87 10000 1.5 70 00:35 23.12.2019
1905 Clouds 13 1026 87 10000 2.1 50 23:58 22.12.2019
1906 Clouds 14 1026 82 10000 1 0 23:39 22.12.2019
1907 Clouds 14 1026 82 10000 1 0 23:20 22.12.2019
1908 Clouds 14 1026 82 10000 2.1 110 22:58 22.12.2019
1909 Clouds 15 1026 82 10000 1.5 80 22:38 22.12.2019
1910 Clouds 15 1026 82 10000 1.5 80 22:19 22.12.2019
1911 Clouds 15 1026 87 10000 2.6 90 21:57 22.12.2019
1912 Clouds 16 1026 82 10000 2.6 70 21:39 22.12.2019
1913 Clouds 16 1026 82 10000 2.6 70 21:20 22.12.2019
1914 Clouds 18 1025 68 8000 2.6 50 20:56 22.12.2019
1915 Clouds 18 1025 68 8000 2.6 50 20:38 22.12.2019
1916 Clouds 18 1025 68 8000 2.6 50 20:18 22.12.2019
1917 Clouds 18 1025 68 8000 2.6 40 19:41 22.12.2019
1918 Clouds 18 1025 68 8000 2.6 40 19:21 22.12.2019
1919 Clouds 20 1025 60 10000 3.1 50 18:58 22.12.2019
1920 Clouds 21 1025 52 10000 4.6 40 18:38 22.12.2019
1921 Clouds 21 1025 52 10000 4.6 40 18:19 22.12.2019
1922 Clouds 23 1025 46 10000 4.1 50 17:55 22.12.2019
1923 Clouds 23 1025 46 10000 4.1 50 17:37 22.12.2019
1924 Clouds 23 1025 46 10000 4.1 50 17:18 22.12.2019
1925 Clouds 23 1025 46 10000 4.1 70 16:56 22.12.2019
1926 Clouds 23 1025 46 10000 4.1 70 16:56 22.12.2019
1927 Clouds 23 1025 46 10000 4.1 70 16:37 22.12.2019
1928 Clouds 23 1025 46 10000 4.1 70 16:19 22.12.2019
1929 Clouds 23 1025 46 10000 3.1 40 15:54 22.12.2019
1930 Clouds 23 1025 46 10000 2.6 40 15:36 22.12.2019
1931 Clouds 23 1025 46 10000 2.6 40 15:18 22.12.2019
1932 Clouds 21 1026 56 10000 3.1 60 14:39 22.12.2019
1933 Clear 21 1026 56 10000 3.1 60 14:19 22.12.2019
1934 Clear 20 1026 60 10000 3.1 40 13:56 22.12.2019
1935 Clear 19 1026 59 10000 3.6 30 13:38 22.12.2019
1936 Clear 19 1026 59 10000 3.6 30 13:20 22.12.2019
1937 Clear 19 1027 59 10000 2.6 40 12:57 22.12.2019
1938 Clear 18 1027 63 10000 2.1 40 12:39 22.12.2019
1939 Clear 18 1027 63 10000 2.1 40 12:20 22.12.2019
1940 Clear 18 1027 63 10000 2.1 40 12:20 22.12.2019
1941 Clear 16 1027 67 10000 2.6 40 11:59 22.12.2019
1942 Clear 16 1027 67 10000 1.5 30 11:39 22.12.2019
1943 Clear 16 1027 67 10000 1.5 30 11:20 22.12.2019
1944 Clear 14 1026 76 10000 2.6 90 10:58 22.12.2019
1945 Clear 13 1026 82 10000 2.6 90 10:40 22.12.2019
1946 Clear 13 1026 82 10000 2.6 90 10:40 22.12.2019
1947 Clear 13 1026 82 10000 2.6 90 10:20 22.12.2019
1948 Clear 11 1026 87 10000 1.5 50 09:58 22.12.2019
1949 Clear 10 1026 93 10000 2.1 50 09:40 22.12.2019
1950 Clear 10 1026 93 10000 2.1 50 09:21 22.12.2019
1951 Clear 9 1025 93 10000 2.1 110 08:45 22.12.2019
1952 Clear 9 1025 93 10000 2.1 110 08:23 22.12.2019
1953 Clear 10 1025 87 10000 2.1 30 07:52 22.12.2019
1954 Clear 9 1025 93 10000 0.5 0 07:22 22.12.2019
1955 Clear 9 1025 93 10000 1.5 70 06:57 22.12.2019
1956 Clear 9 1025 93 10000 1.5 90 06:30 22.12.2019
1957 Clear 9 1025 93 10000 2.1 80 05:43 22.12.2019
1958 Clouds 10 1025 87 10000 1.5 80 05:21 22.12.2019
1959 Clouds 10 1025 93 10000 1.5 100 04:27 22.12.2019
1960 Clouds 10 1025 93 10000 1.5 50 03:28 22.12.2019
1961 Clouds 11 1025 87 10000 2.1 100 02:35 22.12.2019
1962 Clear 11 1026 87 10000 1.5 100 01:33 22.12.2019
1963 Clear 12 1026 87 10000 1.5 40 00:59 22.12.2019
1964 Clear 12 1026 87 10000 1.5 40 00:41 22.12.2019
1965 Clear 12 1027 87 10000 1.5 100 00:21 22.12.2019
1966 Clear 12 1027 87 10000 1 0 23:42 21.12.2019
1967 Clear 13 1027 82 10000 1.5 120 23:24 21.12.2019
1968 Clear 14 1027 82 8000 1 0 22:58 21.12.2019
1969 Clear 13 1027 87 8000 2.1 160 22:39 21.12.2019
1970 Clear 13 1027 87 8000 2.1 160 22:19 21.12.2019
1971 Clear 15 1027 77 8000 0.5 0 21:56 21.12.2019
1972 Clear 14 1026 82 8000 1.14 73 21:37 21.12.2019
1973 Clear 14 1026 82 8000 1.14 73 21:19 21.12.2019
1974 Clear 15 1026 77 8000 1 0 20:57 21.12.2019
1975 Clear 16 1026 72 10000 1 0 20:38 21.12.2019
1976 Clear 16 1026 72 10000 1 0 20:20 21.12.2019
1977 Clear 16 1025 72 10000 1.5 300 19:57 21.12.2019
1978 Clear 16 1025 72 10000 1.5 300 19:57 21.12.2019
1979 Clear 17 1025 67 10000 1.5 320 19:39 21.12.2019
1980 Clear 17 1025 67 10000 1.5 320 19:19 21.12.2019
1981 Clear 19 1024 59 10000 2.1 300 18:42 21.12.2019
1982 Clear 19 1024 59 10000 2.1 300 18:23 21.12.2019
1983 Clear 19 1024 59 10000 2.1 300 17:57 21.12.2019
1984 Clear 20 1024 56 10000 1 0 17:39 21.12.2019
1985 Clear 20 1024 56 10000 1 0 17:20 21.12.2019
1986 Clear 20 1024 56 10000 1 0 16:57 21.12.2019
1987 Clear 20 1024 56 10000 1 0 16:57 21.12.2019
1988 Clear 20 1024 60 10000 1.5 280 16:39 21.12.2019
1989 Clear 20 1024 60 10000 1.5 280 16:18 21.12.2019
1990 Clear 19 1024 59 10000 2.6 0 15:56 21.12.2019
1991 Clear 20 1024 60 10000 1 0 15:37 21.12.2019
1992 Clear 20 1024 60 10000 1 0 15:19 21.12.2019
1993 Clear 18 1024 63 10000 2.1 350 14:44 21.12.2019
1994 Clear 18 1024 63 10000 2.1 350 14:25 21.12.2019
1995 Clouds 18 1024 63 10000 2.6 360 13:59 21.12.2019
1996 Clouds 18 1024 63 10000 2.1 330 13:40 21.12.2019
1997 Clouds 18 1024 63 10000 2.1 330 13:20 21.12.2019
1998 Clouds 20 1025 56 10000 1 0 12:57 21.12.2019
1999 Clouds 18 1025 63 10000 1 0 12:39 21.12.2019
2000 Clouds 18 1025 63 10000 1 0 12:21 21.12.2019
2001 Clouds 16 1025 67 10000 2.1 130 11:57 21.12.2019
2002 Clouds 16 1026 67 10000 1 0 11:39 21.12.2019
2003 Clouds 16 1026 67 10000 1 0 11:21 21.12.2019
2004 Clouds 12 1025 87 8000 2.1 110 10:42 21.12.2019
2005 Clouds 12 1025 87 8000 2.1 110 10:23 21.12.2019
2006 Clouds 11 1025 87 8000 2.1 100 09:59 21.12.2019
2007 Clouds 9 1024 87 8000 1.5 80 09:41 21.12.2019
2008 Clouds 9 1024 87 8000 1.5 80 09:20 21.12.2019
2009 Clouds 9 1024 87 8000 0.5 0 08:53 21.12.2019
2010 Clouds 10 1023 87 8000 0.5 0 08:27 21.12.2019
2011 Clouds 11 1023 87 8000 3.6 170 07:59 21.12.2019
2012 Clouds 11 1023 87 8000 3.6 170 07:41 21.12.2019
2013 Clouds 11 1023 87 8000 3.6 170 07:21 21.12.2019
2014 Clouds 9 1023 93 8000 0.5 0 06:42 21.12.2019
2015 Clouds 9 1023 93 8000 0.5 0 06:42 21.12.2019
2016 Clouds 9 1023 93 8000 0.5 0 06:24 21.12.2019
2017 Clouds 9 1023 93 8000 0.5 0 05:43 21.12.2019
2018 Clouds 9 1023 93 8000 1.5 260 04:56 21.12.2019
2019 Clouds 11 1022 87 8000 0.5 0 03:56 21.12.2019
2020 Clouds 12 1023 87 8000 1 0 02:39 21.12.2019
2021 Clouds 11 1023 87 8000 1.5 120 01:53 21.12.2019
2022 Clouds 11 1023 87 8000 1.5 110 01:27 21.12.2019
2023 Clouds 12 1023 87 8000 1.5 120 00:50 21.12.2019
2024 Clouds 13 1023 82 8000 1 0 00:28 21.12.2019
2025 Clouds 14 1023 82 8000 2.1 180 23:55 20.12.2019
2026 Clouds 14 1023 76 8000 1.5 200 23:36 20.12.2019
2027 Clouds 14 1023 76 8000 1.5 200 23:18 20.12.2019
2028 Clouds 15 1023 77 8000 1 0 22:40 20.12.2019
2029 Clouds 15 1023 77 8000 1 0 22:21 20.12.2019
2030 Clouds 15 1023 77 8000 2.6 200 21:57 20.12.2019
2031 Clouds 15 1023 77 10000 2.1 210 21:39 20.12.2019
2032 Clouds 15 1023 77 10000 2.1 210 21:39 20.12.2019
2033 Clouds 15 1023 77 10000 2.1 210 21:18 20.12.2019
2034 Clouds 15 1023 77 10000 2.6 290 20:39 20.12.2019
2035 Clouds 15 1023 77 10000 2.6 290 20:19 20.12.2019
2036 Clouds 16 1022 77 10000 1.5 310 19:57 20.12.2019
2037 Clouds 16 1022 77 10000 1.5 310 19:39 20.12.2019
2038 Clouds 16 1022 77 10000 1.5 310 19:19 20.12.2019
2039 Clouds 17 1022 72 10000 2.6 290 18:42 20.12.2019
2040 Clouds 17 1022 72 10000 2.6 290 18:24 20.12.2019
2041 Clouds 18 1022 68 10000 3.1 290 17:58 20.12.2019
2042 Clouds 19 1021 59 10000 3.1 270 17:40 20.12.2019
2043 Clouds 19 1021 59 10000 3.1 270 17:21 20.12.2019
2044 Clouds 19 1021 59 10000 3.1 270 17:21 20.12.2019
2045 Clouds 19 1022 59 10000 3.1 280 16:59 20.12.2019
2046 Clouds 19 1022 59 10000 3.1 280 16:39 20.12.2019
2047 Clouds 19 1022 59 10000 3.6 280 16:20 20.12.2019
2048 Clouds 19 1021 59 10000 3.1 290 15:56 20.12.2019
2049 Clouds 18 1022 63 10000 4.6 280 15:38 20.12.2019
2050 Clouds 18 1022 63 10000 4.6 280 15:19 20.12.2019
2051 Clouds 18 1022 63 10000 5.1 290 14:43 20.12.2019
2052 Clouds 18 1022 63 10000 3.6 300 14:25 20.12.2019
2053 Clouds 17 1022 63 10000 3.6 310 13:59 20.12.2019
2054 Clouds 17 1022 63 10000 3.6 310 13:41 20.12.2019
2055 Clouds 17 1022 67 8000 1 0 13:20 20.12.2019
2056 Clouds 17 1022 67 8000 1 0 12:57 20.12.2019
2057 Clouds 17 1022 67 8000 1 0 12:37 20.12.2019
2058 Clouds 15 1022 77 8000 1 0 12:19 20.12.2019
2059 Clouds 15 1023 77 8000 1 0 11:58 20.12.2019
2060 Clouds 15 1023 77 8000 1 0 11:39 20.12.2019
2061 Clouds 13 1023 82 8000 1 0 11:19 20.12.2019
2062 Clouds 13 1023 82 8000 1 0 10:57 20.12.2019
2063 Clouds 13 1023 82 8000 1 0 10:39 20.12.2019
2064 Clouds 12 1023 87 6000 1 0 10:20 20.12.2019
2065 Clouds 10 1022 93 6000 1.5 110 09:44 20.12.2019
2066 Clouds 10 1022 93 6000 1.5 110 09:44 20.12.2019
2067 Clouds 9 1022 100 6000 1.5 50 09:22 20.12.2019
2068 Clouds 9 1022 100 6000 1.5 30 08:59 20.12.2019
2069 Clouds 9 1022 100 6000 1.5 30 08:41 20.12.2019
2070 Clouds 9 1021 93 10000 2.1 80 08:22 20.12.2019
2071 Clouds 10 1022 93 10000 1 0 07:58 20.12.2019
2072 Clouds 10 1022 93 10000 1 0 07:39 20.12.2019
2073 Clouds 10 1022 93 10000 1 0 07:18 20.12.2019
2074 Clouds 10 1022 93 10000 1 0 06:48 20.12.2019
2075 Clouds 11 1022 93 10000 2.1 150 06:30 20.12.2019
2076 Clouds 10 1022 100 10000 2.1 180 05:49 20.12.2019
2077 Clouds 10 1022 93 10000 1 0 05:25 20.12.2019
2078 Clouds 11 1022 93 10000 0.5 0 03:50 20.12.2019
2079 Clouds 11 1022 93 10000 1 0 03:29 20.12.2019
2080 Clouds 12 1022 87 10000 0.5 0 02:38 20.12.2019
2081 Clouds 13 1022 87 10000 1.5 160 01:36 20.12.2019
2082 Clouds 13 1023 87 10000 2.1 230 00:59 20.12.2019
2083 Clouds 13 1023 87 10000 2.1 230 00:40 20.12.2019
2084 Clouds 13 1023 87 10000 0.5 0 00:19 20.12.2019
2085 Clouds 14 1023 87 10000 2.1 230 23:42 19.12.2019
2086 Clouds 13 1023 93 10000 1 0 23:23 19.12.2019
2087 Clouds 14 1023 87 10000 2.1 240 22:56 19.12.2019
2088 Clouds 14 1023 87 10000 2.1 240 22:36 19.12.2019
2089 Clouds 15 1023 82 10000 1 0 22:18 19.12.2019
2090 Clouds 15 1022 82 10000 1.5 240 21:42 19.12.2019
2091 Clouds 15 1022 82 10000 1.5 260 21:20 19.12.2019
2092 Clouds 15 1022 82 10000 2.1 280 20:59 19.12.2019
2093 Clouds 15 1022 82 10000 2.1 280 20:39 19.12.2019
2094 Clouds 16 1022 77 10000 1.5 250 20:21 19.12.2019
2095 Clouds 17 1021 72 10000 2.1 300 19:59 19.12.2019
2096 Clouds 17 1021 72 10000 2.1 300 19:40 19.12.2019
2097 Clouds 17 1021 72 10000 3.1 320 19:20 19.12.2019
2098 Clouds 19 1020 59 10000 3.6 320 19:00 19.12.2019
2099 Clouds 19 1020 59 10000 3.6 320 18:41 19.12.2019
2100 Clouds 20 1020 56 10000 2.1 320 18:21 19.12.2019
2101 Clouds 21 1020 52 10000 1.5 310 17:57 19.12.2019
2102 Clouds 21 1020 52 10000 1.5 310 17:39 19.12.2019
2103 Clouds 22 1019 49 10000 1.5 40 17:19 19.12.2019
2104 Clouds 21 1019 52 10000 2.1 40 16:57 19.12.2019
2105 Clouds 21 1019 52 10000 2.1 40 16:38 19.12.2019
2106 Clouds 21 1019 49 10000 2.1 340 16:20 19.12.2019
2107 Clouds 21 1019 49 10000 2.1 40 15:58 19.12.2019
2108 Clouds 21 1019 49 10000 2.1 40 15:39 19.12.2019
2109 Clouds 20 1019 56 8000 3.6 100 15:19 19.12.2019
2110 Clouds 19 1020 63 8000 2.1 0 14:58 19.12.2019
2111 Clouds 19 1020 63 8000 2.1 0 14:40 19.12.2019
2112 Clouds 19 1021 63 6000 2.6 120 14:18 19.12.2019
2113 Clouds 18 1022 68 6000 2.1 140 13:54 19.12.2019
2114 Clouds 17 1023 72 6000 1.5 140 13:36 19.12.2019
2115 Clear 17 1023 72 6000 1.5 140 13:18 19.12.2019
2116 Clear 17 1024 72 6000 1 0 12:54 19.12.2019
2117 Clear 17 1024 72 6000 1 0 12:36 19.12.2019
2118 Clear 15 1024 77 6000 1.5 300 12:18 19.12.2019
2119 Clear 15 1024 77 6000 1.5 300 12:18 19.12.2019
2120 Clear 15 1024 77 6000 1.5 300 12:18 19.12.2019
2121 Clear 15 1024 77 6000 1.5 300 12:18 19.12.2019
2122 Clear 15 1024 77 6000 1.5 300 12:18 19.12.2019
2123 Clear 15 1024 77 6000 1 0 11:42 19.12.2019
2124 Clear 14 1023 76 6000 1 0 11:20 19.12.2019
2125 Clear 13 1023 82 6000 1.5 320 10:59 19.12.2019
2126 Clear 13 1023 82 6000 1.5 320 10:38 19.12.2019
2127 Clear 11 1022 93 6000 1.5 60 10:20 19.12.2019
2128 Clear 10 1022 93 6000 1.5 70 09:57 19.12.2019
2129 Clear 10 1022 93 6000 1.5 70 09:38 19.12.2019
2130 Clear 9 1021 93 6000 2.1 120 09:19 19.12.2019
2131 Clear 9 1022 100 8000 1.5 50 08:55 19.12.2019
2132 Clear 9 1022 100 8000 1.5 50 08:37 19.12.2019
2133 Clouds 9 1021 93 10000 2.6 90 08:18 19.12.2019
2134 Clouds 10 1021 93 8000 3.6 150 07:54 19.12.2019
2135 Clouds 10 1021 93 8000 3.6 150 07:36 19.12.2019
2136 Clouds 9 1022 93 8000 1 0 07:18 19.12.2019
2137 Clouds 10 1022 93 8000 1.5 150 06:42 19.12.2019
2138 Clouds 9 1022 93 8000 1 0 06:24 19.12.2019
2139 Clouds 9 1022 100 8000 0.5 0 05:47 19.12.2019
2140 Clouds 9 1022 100 8000 0.5 0 05:27 19.12.2019
2141 Clouds 9 1022 100 8000 0.5 0 03:58 19.12.2019
2142 Clouds 10 1022 93 8000 1.5 290 02:30 19.12.2019
2143 Clouds 11 1022 93 8000 1.5 120 01:27 19.12.2019
2144 Clouds 12 1022 87 10000 1 0 00:59 19.12.2019
2145 Clouds 12 1022 87 10000 1 0 00:39 19.12.2019
2146 Clouds 12 1022 87 10000 1 0 00:39 19.12.2019
2147 Clouds 12 1023 93 10000 3.6 170 00:19 19.12.2019
2148 Clouds 12 1023 93 10000 3.6 170 00:19 19.12.2019
2149 Clouds 13 1023 87 10000 3.1 180 23:45 18.12.2019
2150 Clouds 13 1023 87 10000 2.6 180 23:19 18.12.2019
2151 Clouds 13 1023 87 10000 2.1 190 22:58 18.12.2019
2152 Clouds 13 1023 87 10000 2.1 190 22:40 18.12.2019
2153 Clouds 13 1023 87 10000 2.1 190 22:40 18.12.2019
2154 Clouds 13 1023 93 10000 1.5 180 22:22 18.12.2019
2155 Clouds 13 1023 93 10000 1.5 180 21:59 18.12.2019
2156 Clouds 13 1023 93 10000 1.5 180 21:41 18.12.2019
2157 Clouds 13 1023 93 10000 1.5 210 21:21 18.12.2019
2158 Clouds 13 1023 93 10000 1.5 210 21:21 18.12.2019
2159 Clouds 13 1022 87 10000 2.1 240 20:57 18.12.2019
2160 Clouds 13 1022 87 10000 2.1 240 20:39 18.12.2019
2161 Clouds 13 1022 93 10000 1.5 260 20:20 18.12.2019
2162 Clouds 14 1022 87 10000 3.1 290 19:57 18.12.2019
2163 Clouds 14 1022 87 10000 3.1 290 19:39 18.12.2019
2164 Clouds 15 1021 82 10000 3.6 280 19:19 18.12.2019
2165 Clouds 16 1021 77 10000 3.1 290 18:56 18.12.2019
2166 Clouds 16 1021 77 10000 3.1 290 18:38 18.12.2019
2167 Clouds 17 1021 72 10000 2.6 280 18:20 18.12.2019
2168 Clouds 18 1021 63 10000 1.5 310 17:55 18.12.2019
2169 Clouds 18 1021 63 10000 1.5 310 17:55 18.12.2019
2170 Clouds 18 1020 63 10000 1.5 0 17:37 18.12.2019
2171 Clouds 18 1020 63 10000 1.5 0 17:19 18.12.2019
2172 Clouds 19 1020 59 10000 2.1 310 16:42 18.12.2019
2173 Clouds 19 1020 59 10000 1.5 350 16:24 18.12.2019
2174 Clouds 18 1020 59 10000 1.5 0 15:59 18.12.2019
2175 Clouds 18 1020 59 10000 1.5 280 15:39 18.12.2019
2176 Clouds 18 1020 59 10000 1.5 280 15:21 18.12.2019
2177 Clouds 18 1020 55 10000 2.1 290 14:57 18.12.2019
2178 Clear 18 1020 49 0 3.51 298 14:39 18.12.2019
2179 Clear 16 1021 46 0 1.95 289 14:19 18.12.2019
2180 Clouds 16 1022 63 10000 2.1 240 13:55 18.12.2019
2181 Clouds 16 1022 63 10000 2.1 240 13:37 18.12.2019
2182 Clouds 16 1022 63 10000 2.1 240 13:19 18.12.2019
2183 Clear 14 1022 67 8000 1.5 340 12:54 18.12.2019
2184 Clear 14 1022 67 8000 1.5 340 12:36 18.12.2019
2185 Clear 14 1022 67 8000 1.5 340 12:18 18.12.2019
2186 Clear 14 1022 67 8000 2.1 350 11:54 18.12.2019
2187 Clear 17 1021 43 0 1.58 301 11:36 18.12.2019
2188 Clear 13 1021 51 0 0.63 157 11:18 18.12.2019
2189 Clear 13 1021 51 0 0.63 157 10:54 18.12.2019
2190 Clear 13 1021 51 0 0.63 157 10:36 18.12.2019
2191 Clear 6 1020 93 0 1.5 80 10:18 18.12.2019
2192 Clear 6 1020 93 0 1.5 80 09:21 18.12.2019
2193 Clear 5 1020 93 10000 2.1 90 08:57 18.12.2019
2194 Clear 5 1020 93 10000 2.1 90 08:57 18.12.2019
2195 Clear 5 1020 93 10000 2.1 90 08:39 18.12.2019
2196 Clear 5 1020 93 10000 2.1 90 08:20 18.12.2019
2197 Clear 5 1019 93 10000 2.1 80 07:42 18.12.2019
2198 Clear 5 1019 93 10000 2.1 80 07:21 18.12.2019
2199 Clear 6 1018 87 10000 2.1 80 06:53 18.12.2019
2200 Clear 6 1018 87 10000 2.1 80 06:26 18.12.2019
2201 Clear 6 1019 87 10000 2.6 80 05:43 18.12.2019
2202 Clear 6 1019 93 10000 1.5 60 04:37 18.12.2019
2203 Clear 7 1019 87 10000 1.5 70 02:50 18.12.2019
2204 Clear 7 1019 87 10000 1.5 70 02:30 18.12.2019
2205 Clouds 7 1020 93 10000 2.1 80 01:47 18.12.2019
2206 Clouds 7 1020 93 10000 2.1 80 01:29 18.12.2019
2207 Clouds 7 1020 93 10000 2.1 90 00:59 18.12.2019
2208 Clouds 8 1020 87 10000 1.5 100 00:40 18.12.2019
2209 Clouds 8 1020 87 10000 1.5 100 00:21 18.12.2019
2210 Clouds 8 1020 87 10000 2.1 110 23:54 17.12.2019
2211 Clouds 9 1020 81 10000 1 0 23:36 17.12.2019
2212 Clouds 9 1020 81 10000 1 0 23:18 17.12.2019
2213 Clouds 10 1020 81 10000 1.5 170 22:54 17.12.2019
2214 Clouds 10 1019 81 10000 1.5 160 22:36 17.12.2019
2215 Clouds 10 1019 81 10000 1.5 160 22:18 17.12.2019
2216 Clouds 10 1019 81 10000 0.5 0 21:55 17.12.2019
2217 Clouds 10 1019 76 10000 0.5 0 21:36 17.12.2019
2218 Clouds 10 1019 76 10000 0.5 0 21:18 17.12.2019
2219 Clouds 12 1019 71 0 2.1 220 20:40 17.12.2019
2220 Clouds 12 1019 71 0 2.1 220 20:19 17.12.2019
2221 Clouds 12 1019 71 0 1.5 230 19:59 17.12.2019
2222 Clouds 13 1019 66 0 2.1 0 19:41 17.12.2019
2223 Clouds 13 1019 66 0 2.1 0 19:20 17.12.2019
2224 Clouds 13 1018 66 0 3.1 210 18:58 17.12.2019
2225 Clouds 13 1018 66 0 3.1 200 18:39 17.12.2019
2226 Clouds 13 1018 66 0 3.1 200 18:21 17.12.2019
2227 Clouds 13 1018 66 0 3.1 210 17:56 17.12.2019
2228 Clouds 13 1018 62 0 4.6 250 17:38 17.12.2019
2229 Clouds 13 1018 62 0 4.6 250 17:18 17.12.2019
2230 Clouds 14 1017 58 10000 5.1 230 16:55 17.12.2019
2231 Clouds 14 1017 58 10000 6.2 220 16:37 17.12.2019
2232 Clouds 14 1017 58 10000 6.2 220 16:37 17.12.2019
2233 Clouds 14 1017 58 10000 6.2 220 16:18 17.12.2019
2234 Clouds 13 1016 62 10000 5.7 210 15:54 17.12.2019
2235 Clouds 13 1016 62 10000 5.1 210 15:36 17.12.2019
2236 Clouds 13 1016 62 10000 5.1 210 15:18 17.12.2019
2237 Clouds 14 1016 62 10000 4.6 230 14:54 17.12.2019
2238 Clouds 13 1016 66 10000 4.6 240 14:36 17.12.2019
2239 Clouds 13 1016 66 10000 4.6 240 14:18 17.12.2019
2240 Clouds 13 1017 71 10000 4.1 230 13:41 17.12.2019
2241 Clouds 13 1017 71 10000 4.1 230 13:19 17.12.2019
2242 Clouds 12 1017 76 8000 4.6 220 12:59 17.12.2019
2243 Clouds 12 1017 76 8000 4.6 220 12:59 17.12.2019
2244 Clouds 11 1017 81 8000 5.7 230 12:39 17.12.2019
2245 Clouds 11 1017 81 8000 5.7 230 12:18 17.12.2019
2246 Clouds 10 1017 87 8000 6.2 230 11:58 17.12.2019
2247 Clouds 9 1016 87 8000 4.6 220 11:37 17.12.2019
2248 Clouds 9 1016 87 8000 4.6 220 11:18 17.12.2019
2249 Clouds 8 1016 93 8000 4.6 220 10:58 17.12.2019
2250 Clouds 8 1015 93 8000 3.6 220 10:39 17.12.2019
2251 Clouds 8 1015 93 8000 3.6 220 10:20 17.12.2019
2252 Rain 7 1014 93 8000 3.1 220 09:58 17.12.2019
2253 Rain 7 1014 93 8000 3.1 220 09:40 17.12.2019
2254 Rain 7 1014 93 8000 3.1 220 09:19 17.12.2019
2255 Rain 7 1014 93 8000 1.5 270 08:55 17.12.2019
2256 Rain 7 1013 93 8000 1.5 250 08:37 17.12.2019
2257 Rain 7 1013 93 8000 1.5 250 08:19 17.12.2019
2258 Rain 7 1013 93 8000 4.6 230 07:45 17.12.2019
2259 Rain 7 1012 93 8000 5.7 220 07:24 17.12.2019
2260 Rain 7 1011 87 8000 5.7 220 06:55 17.12.2019
2261 Rain 7 1011 93 8000 4.6 220 06:32 17.12.2019
2262 Rain 7 1011 87 8000 6.7 240 05:52 17.12.2019
2263 Rain 7 1011 87 8000 6.7 240 05:32 17.12.2019
2264 Rain 7 1010 87 8000 7.7 230 04:25 17.12.2019
2265 Clouds 7 1010 93 8000 6.7 220 02:33 17.12.2019
2266 Clouds 7 1010 93 8000 5.7 220 01:50 17.12.2019
2267 Clouds 7 1010 87 8000 6.2 220 00:56 17.12.2019
2268 Rain 7 1010 93 8000 9.3 270 00:36 17.12.2019
2269 Rain 7 1010 93 8000 9.3 270 00:18 17.12.2019
2270 Clouds 9 1009 76 8000 8.2 280 23:40 16.12.2019
2271 Clouds 9 1009 76 8000 8.2 280 23:19 16.12.2019
2272 Clouds 10 1009 71 8000 8.2 240 22:55 16.12.2019
2273 Clouds 10 1008 66 8000 9.8 240 22:37 16.12.2019
2274 Clouds 10 1008 66 8000 9.8 240 22:19 16.12.2019
2275 Clouds 9 1008 76 8000 10.3 240 21:54 16.12.2019
2276 Clouds 9 1008 76 8000 15.9 240 21:36 16.12.2019
2277 Clouds 9 1008 76 8000 15.9 240 21:36 16.12.2019
2278 Clouds 9 1008 76 8000 15.9 240 21:18 16.12.2019
2279 Clouds 9 1008 81 8000 10.8 270 20:56 16.12.2019
2280 Clouds 10 1008 81 8000 8.2 280 20:37 16.12.2019
2281 Clouds 10 1008 81 8000 8.2 280 20:19 16.12.2019
2282 Rain 10 1008 93 8000 8.2 250 19:55 16.12.2019
2283 Rain 11 1007 87 8000 7.7 260 19:36 16.12.2019
2284 Rain 11 1007 87 8000 7.7 260 19:18 16.12.2019
2285 Rain 11 1007 81 8000 6.2 260 18:55 16.12.2019
2286 Rain 11 1006 81 8000 10.3 250 18:37 16.12.2019
2287 Rain 11 1006 81 8000 10.3 250 18:18 16.12.2019
2288 Rain 10 1006 73 0 12.39 258 17:56 16.12.2019
2289 Clouds 13 1004 66 5000 16.5 270 17:37 16.12.2019
2290 Clouds 13 1004 66 5000 16.5 270 17:19 16.12.2019
2291 Sand 18 1001 39 600 12.3 280 16:54 16.12.2019
2292 Sand 17 1002 48 3000 7.7 300 16:36 16.12.2019
2293 Sand 17 1002 48 3000 7.7 300 16:18 16.12.2019
2294 Sand 16 1002 55 1200 9.3 300 15:55 16.12.2019
2295 Sand 16 1002 55 1200 9.3 300 15:55 16.12.2019
2296 Sand 17 1002 51 1200 8.7 310 15:37 16.12.2019
2297 Sand 17 1002 51 1200 8.7 310 15:37 16.12.2019
2298 Sand 17 1002 51 1200 8.7 310 15:19 16.12.2019
2299 Clouds 22 1002 24 6000 3.1 340 14:54 16.12.2019
2300 Sand 21 1002 30 3000 3.6 330 14:36 16.12.2019
2301 Sand 21 1002 30 3000 3.6 330 14:18 16.12.2019
2302 Sand 21 1002 30 3000 3.6 330 14:18 16.12.2019
2303 Clouds 19 1005 42 10000 5.1 310 13:38 16.12.2019
2304 Clouds 19 1005 42 10000 5.1 310 13:20 16.12.2019
2305 Clouds 18 1006 42 10000 5.7 300 12:59 16.12.2019
2306 Clouds 18 1006 36 10000 6.2 300 12:40 16.12.2019
2307 Clouds 18 1006 36 10000 6.2 300 12:20 16.12.2019
2308 Clouds 21 1006 22 10000 9.3 220 11:59 16.12.2019
2309 Clouds 21 1006 22 10000 9.3 220 11:59 16.12.2019
2310 Clouds 22 1005 15 10000 8.2 200 11:41 16.12.2019
2311 Clouds 22 1005 15 10000 8.2 200 11:22 16.12.2019
2312 Clouds 22 1005 14 8000 8.2 200 10:59 16.12.2019
2313 Clouds 21 1005 15 8000 7.7 190 10:40 16.12.2019
2314 Clouds 21 1005 15 8000 7.7 190 10:40 16.12.2019
2315 Clouds 21 1005 15 8000 7.7 190 10:20 16.12.2019
2316 Clouds 21 1006 15 8000 9.3 190 09:46 16.12.2019
2317 Clouds 21 1006 15 8000 8.2 200 09:28 16.12.2019
2318 Clouds 21 1006 16 8000 8.2 190 08:58 16.12.2019
2319 Clouds 20 1006 18 10000 8.2 190 08:38 16.12.2019
2320 Clouds 20 1006 18 10000 8.2 190 08:19 16.12.2019
2321 Clouds 21 1007 18 10000 6.2 200 07:49 16.12.2019
2322 Clouds 20 1007 19 10000 5.7 200 07:30 16.12.2019
2323 Clouds 12 1008 66 10000 2.1 100 06:46 16.12.2019
2324 Clouds 12 1008 66 10000 2.1 100 06:26 16.12.2019
2325 Clouds 12 1008 66 10000 2.1 90 05:56 16.12.2019
2326 Clouds 12 1009 66 10000 2.6 60 05:35 16.12.2019
2327 Clouds 13 1009 66 10000 2.6 100 04:33 16.12.2019
2328 Clouds 12 1011 71 10000 2.1 90 02:49 16.12.2019
2329 Clouds 12 1012 71 10000 0.5 0 01:45 16.12.2019
2330 Clouds 14 1013 62 10000 1 0 00:55 16.12.2019
2331 Clouds 14 1013 62 10000 0.5 0 00:36 16.12.2019
2332 Clouds 14 1013 62 10000 0.5 0 00:18 16.12.2019
2333 Clouds 14 1013 62 10000 1 0 23:40 15.12.2019
2334 Clouds 14 1013 62 10000 1 0 23:22 15.12.2019
2335 Clouds 14 1013 58 10000 0.5 0 22:56 15.12.2019
2336 Clouds 15 1013 54 10000 1.5 200 22:38 15.12.2019
2337 Clouds 15 1013 54 10000 1.5 200 22:19 15.12.2019
2338 Clouds 15 1013 51 10000 1 0 21:57 15.12.2019
2339 Clouds 16 1013 48 8000 1 0 21:38 15.12.2019
2340 Clouds 16 1013 48 8000 1 0 21:19 15.12.2019
2341 Clouds 17 1013 45 10000 1.5 280 20:57 15.12.2019
2342 Clouds 18 1014 42 10000 1.5 310 20:38 15.12.2019
2343 Clouds 18 1014 42 10000 1.5 310 20:19 15.12.2019
2344 Clouds 18 1014 42 10000 1.5 300 19:57 15.12.2019
2345 Clouds 20 1014 37 10000 2.1 300 19:39 15.12.2019
2346 Clouds 20 1014 37 10000 2.1 300 19:39 15.12.2019
2347 Clouds 20 1014 37 10000 2.1 300 19:19 15.12.2019
2348 Clouds 20 1014 37 10000 2.1 300 18:57 15.12.2019
2349 Clouds 22 1014 35 10000 1 0 18:38 15.12.2019
2350 Clouds 22 1014 35 10000 1.5 340 18:18 15.12.2019
2351 Clouds 22 1014 35 10000 1.5 340 17:56 15.12.2019
2352 Clouds 23 1014 31 10000 1.5 360 17:37 15.12.2019
2353 Clouds 23 1014 31 10000 1.5 360 17:19 15.12.2019
2354 Clouds 23 1014 31 10000 2.1 40 16:56 15.12.2019
2355 Clouds 23 1014 31 10000 1.5 50 16:38 15.12.2019
2356 Clouds 23 1014 31 10000 1.5 50 16:20 15.12.2019
2357 Clouds 23 1014 31 10000 1 0 15:55 15.12.2019
2358 Clouds 23 1014 31 10000 1 0 15:55 15.12.2019
2359 Clouds 23 1015 31 8000 1 0 15:37 15.12.2019
2360 Clouds 23 1015 31 8000 1 0 15:18 15.12.2019
2361 Clouds 23 1015 33 8000 1 0 14:55 15.12.2019
2362 Clouds 22 1016 40 8000 1 0 14:36 15.12.2019
2363 Clear 22 1016 40 8000 1 0 14:18 15.12.2019
2364 Clear 20 1016 42 8000 1.5 310 13:54 15.12.2019
2365 Clear 20 1017 49 8000 1.5 0 13:36 15.12.2019
2366 Clear 20 1017 49 8000 1.5 0 13:18 15.12.2019
2367 Clear 20 1017 49 8000 1.5 0 13:18 15.12.2019
2368 Clear 20 1017 49 8000 1.5 0 12:55 15.12.2019
2369 Clear 18 1018 52 8000 1.5 60 12:37 15.12.2019
2370 Clear 18 1018 52 8000 1.5 60 12:37 15.12.2019
2371 Clear 18 1018 52 8000 1.5 60 12:19 15.12.2019
2372 Clear 15 1019 58 8000 2.6 90 11:38 15.12.2019
2373 Clear 15 1019 58 8000 2.6 90 11:19 15.12.2019
2374 Clear 14 1019 58 8000 2.6 100 10:58 15.12.2019
2375 Clear 12 1019 66 8000 1 0 10:39 15.12.2019
2376 Clear 12 1019 66 8000 1 0 10:19 15.12.2019
2377 Clear 10 1019 71 8000 1.5 90 09:58 15.12.2019
2378 Clear 8 1018 81 8000 2.1 80 09:37 15.12.2019
2379 Clear 8 1018 81 8000 2.1 80 09:19 15.12.2019
2380 Clear 8 1018 75 8000 2.6 80 08:55 15.12.2019
2381 Clear 7 1018 81 8000 2.6 90 08:36 15.12.2019
2382 Clear 7 1018 81 8000 2.6 90 08:18 15.12.2019
2383 Clear 9 1019 76 8000 2.1 50 07:47 15.12.2019
2384 Clear 8 1018 81 8000 2.6 90 07:28 15.12.2019
2385 Clear 9 1019 76 8000 2.1 90 06:26 15.12.2019
2386 Clear 8 1019 81 8000 1.5 110 05:42 15.12.2019
2387 Clear 8 1019 81 8000 1.5 110 05:21 15.12.2019
2388 Clear 9 1019 81 8000 2.1 110 04:21 15.12.2019
2389 Clear 9 1020 81 8000 1.5 80 02:55 15.12.2019
2390 Clear 10 1020 76 8000 1 0 02:32 15.12.2019
2391 Clouds 13 1020 62 8000 1.5 200 01:41 15.12.2019
2392 Clouds 13 1020 62 8000 1.5 200 01:19 15.12.2019
2393 Clouds 14 1021 62 8000 2.1 190 00:49 15.12.2019
2394 Clouds 15 1021 62 8000 3.6 220 00:31 15.12.2019
2395 Clouds 14 1021 71 8000 3.6 220 23:54 14.12.2019
2396 Clouds 12 1020 76 8000 2.6 250 23:36 14.12.2019
2397 Clouds 12 1020 76 8000 2.6 250 23:18 14.12.2019
2398 Clouds 13 1020 71 8000 1 0 22:41 14.12.2019
2399 Clouds 13 1020 71 8000 1 0 22:22 14.12.2019
2400 Clouds 14 1020 67 8000 0.5 0 21:58 14.12.2019
2401 Clouds 16 1020 59 8000 0.5 0 21:40 14.12.2019
2402 Clouds 16 1020 59 8000 0.5 0 21:20 14.12.2019
2403 Clouds 16 1020 59 8000 1.5 180 20:59 14.12.2019
2404 Clouds 17 1020 55 8000 0.5 0 20:41 14.12.2019
2405 Clouds 17 1020 55 8000 0.5 0 20:20 14.12.2019
2406 Clouds 18 1020 55 10000 1 0 19:59 14.12.2019
2407 Clouds 18 1020 52 10000 1 0 19:39 14.12.2019
2408 Clouds 18 1020 52 10000 1 0 19:39 14.12.2019
2409 Clouds 18 1020 52 10000 1 0 19:20 14.12.2019
2410 Clouds 20 1020 45 10000 1.5 310 18:56 14.12.2019
2411 Clouds 21 1020 43 10000 1.5 300 18:38 14.12.2019
2412 Clouds 21 1020 43 10000 1.5 300 18:20 14.12.2019
2413 Clouds 22 1020 40 0 3.1 270 17:44 14.12.2019
2414 Clouds 22 1020 40 0 3.1 270 17:24 14.12.2019
2415 Clear 22 1020 40 10000 3.6 270 16:59 14.12.2019
2416 Clear 22 1020 40 10000 3.6 270 16:40 14.12.2019
2417 Clear 22 1020 40 10000 3.6 270 16:19 14.12.2019
2418 Clear 22 1020 40 10000 3.1 260 15:54 14.12.2019
2419 Clear 22 1020 43 10000 2.6 310 15:36 14.12.2019
2420 Clear 22 1020 43 10000 2.6 310 15:36 14.12.2019
2421 Clear 22 1020 43 10000 2.6 310 15:18 14.12.2019
2422 Clear 20 1021 45 10000 1.5 350 14:40 14.12.2019
2423 Clear 20 1021 45 10000 1.5 350 14:21 14.12.2019
2424 Clear 21 1021 43 10000 1 0 13:59 14.12.2019
2425 Clear 19 1022 52 10000 1.5 320 13:41 14.12.2019
2426 Clear 19 1022 52 10000 1.5 320 13:19 14.12.2019
2427 Clear 19 1022 52 10000 1 0 12:56 14.12.2019
2428 Clear 17 1023 55 10000 1 0 12:37 14.12.2019
2429 Clear 17 1023 55 10000 1 0 12:19 14.12.2019
2430 Clear 16 1023 55 10000 1.5 40 11:56 14.12.2019
2431 Clear 15 1023 58 10000 1 0 11:37 14.12.2019
2432 Clear 15 1023 58 10000 1 0 11:18 14.12.2019
2433 Clear 14 1023 58 10000 1 0 10:56 14.12.2019
2434 Clear 13 1023 62 10000 1 0 10:38 14.12.2019
2435 Clear 13 1023 62 10000 1 0 10:19 14.12.2019
2436 Clear 10 1023 76 10000 0.5 0 09:43 14.12.2019
2437 Clear 9 1023 76 10000 0.5 0 09:21 14.12.2019
2438 Clear 8 1022 81 10000 1 0 08:56 14.12.2019
2439 Clear 7 1022 87 10000 1.5 130 08:38 14.12.2019
2440 Clear 7 1022 87 10000 1.5 130 08:19 14.12.2019
2441 Clouds 8 1022 81 8000 1.5 90 07:40 14.12.2019
2442 Clouds 8 1022 81 8000 1.5 90 07:21 14.12.2019
2443 Clouds 8 1022 81 8000 0.5 0 06:45 14.12.2019
2444 Clouds 8 1022 81 8000 1 0 06:22 14.12.2019
2445 Clouds 8 1022 81 8000 1 0 05:43 14.12.2019
2446 Clouds 10 1023 71 8000 2.1 230 03:44 14.12.2019
2447 Clear 12 1023 66 10000 0.5 0 02:23 14.12.2019
2448 Clear 12 1023 62 10000 1 0 01:44 14.12.2019
2449 Clear 10 1023 66 10000 1 0 01:20 14.12.2019
2450 Clear 12 1023 62 10000 0.5 0 00:41 14.12.2019
2451 Clear 12 1023 62 10000 0.5 0 00:20 14.12.2019
2452 Clear 14 1023 50 10000 1 0 23:41 13.12.2019
2453 Clear 14 1023 50 10000 1 0 23:19 13.12.2019
2454 Clear 14 1023 50 10000 0.5 0 22:57 13.12.2019
2455 Clear 14 1023 50 10000 1 0 22:38 13.12.2019
2456 Clear 14 1023 50 10000 1 0 22:18 13.12.2019
2457 Clear 15 1023 51 10000 2.6 90 21:44 13.12.2019
2458 Clear 15 1023 51 10000 2.6 90 21:22 13.12.2019
2459 Clear 15 1023 47 10000 2.6 80 20:59 13.12.2019
2460 Clear 16 1023 48 10000 2.6 70 20:40 13.12.2019
2461 Clear 16 1023 48 10000 2.6 70 20:20 13.12.2019
2462 Clear 17 1023 42 10000 2.1 60 19:56 13.12.2019
2463 Clear 17 1023 42 10000 2.1 60 19:38 13.12.2019
2464 Clear 18 1023 39 10000 2.6 80 19:19 13.12.2019
2465 Clear 19 1023 37 10000 3.1 70 18:55 13.12.2019
2466 Clear 19 1023 37 10000 3.1 70 18:36 13.12.2019
2467 Clear 21 1023 30 10000 4.1 60 18:18 13.12.2019
2468 Clear 22 1023 24 10000 3.6 70 17:40 13.12.2019
2469 Clear 23 1023 17 10000 4.6 50 17:19 13.12.2019
2470 Clear 23 1023 16 10000 4.1 50 16:57 13.12.2019
2471 Clear 23 1023 16 10000 4.1 50 16:57 13.12.2019
2472 Clear 23 1023 17 10000 3.6 70 16:38 13.12.2019
2473 Clear 23 1023 17 10000 3.6 70 16:20 13.12.2019
2474 Clear 22 1023 33 10000 4.1 50 15:43 13.12.2019
2475 Clear 22 1023 33 10000 4.1 50 15:22 13.12.2019
2476 Clear 20 1024 40 10000 4.1 70 14:57 13.12.2019
2477 Clear 21 1025 40 10000 4.1 80 14:38 13.12.2019
2478 Clear 21 1025 40 10000 4.1 80 14:19 13.12.2019
2479 Clear 19 1025 48 10000 4.1 90 13:44 13.12.2019
2480 Clear 18 1026 52 10000 4.6 70 13:26 13.12.2019
2481 Clear 16 1027 63 10000 4.1 50 12:58 13.12.2019
2482 Clear 16 1027 63 10000 4.1 50 12:40 13.12.2019
2483 Clear 15 1027 62 10000 4.1 70 12:19 13.12.2019
2484 Clear 14 1027 67 10000 4.1 70 11:45 13.12.2019
2485 Clear 12 1027 76 10000 3.6 70 11:26 13.12.2019
2486 Clear 11 1027 76 10000 4.1 90 10:57 13.12.2019
2487 Clear 11 1027 76 10000 4.1 90 10:39 13.12.2019
2488 Clear 10 1027 76 10000 4.1 110 10:21 13.12.2019
2489 Clear 9 1027 81 10000 4.1 100 09:42 13.12.2019
2490 Clear 8 1027 87 10000 3.1 80 09:21 13.12.2019
2491 Clear 7 1027 87 10000 3.1 90 08:55 13.12.2019
2492 Clear 7 1027 87 10000 3.1 90 08:36 13.12.2019
2493 Clear 7 1027 87 10000 3.6 90 08:18 13.12.2019
2494 Clear 7 1027 87 10000 2.6 90 07:42 13.12.2019
2495 Clear 7 1027 87 10000 2.1 70 07:19 13.12.2019
2496 Clear 7 1026 93 10000 2.1 90 06:39 13.12.2019
2497 Clear 8 1026 87 10000 2.6 70 06:20 13.12.2019
2498 Clear 8 1026 87 10000 3.1 90 05:37 13.12.2019
2499 Clear 8 1027 87 10000 3.1 90 05:19 13.12.2019
2500 Clear 8 1027 87 10000 2.6 100 03:55 13.12.2019
2501 Clear 9 1027 81 10000 3.1 90 02:48 13.12.2019
2502 Clear 9 1027 87 10000 3.1 80 02:30 13.12.2019
2503 Clear 9 1027 81 10000 2.6 60 01:34 13.12.2019
2504 Clear 9 1027 87 10000 2.1 70 00:50 13.12.2019
2505 Clear 10 1028 81 10000 2.6 90 00:28 13.12.2019
2506 Clear 11 1028 76 10000 3.1 70 23:43 12.12.2019
2507 Clear 12 1028 71 10000 4.1 60 23:25 12.12.2019
2508 Clear 12 1028 71 10000 4.1 70 22:56 12.12.2019
2509 Clear 12 1028 71 10000 4.1 70 22:38 12.12.2019
2510 Clear 12 1028 71 10000 4.1 70 22:38 12.12.2019
2511 Clear 12 1028 71 10000 3.1 70 22:20 12.12.2019
2512 Clear 13 1028 66 10000 4.6 60 21:56 12.12.2019
2513 Clear 13 1028 66 10000 4.6 60 21:37 12.12.2019
2514 Clear 14 1028 62 10000 5.7 50 21:19 12.12.2019
2515 Clear 15 1027 62 10000 4.6 40 20:58 12.12.2019
2516 Clear 15 1027 62 10000 4.6 40 20:40 12.12.2019
2517 Clear 15 1025 52 0 4.93 25 20:21 12.12.2019
2518 Clear 17 1026 55 10000 3.1 50 19:56 12.12.2019
2519 Clear 17 1026 55 10000 3.1 50 19:37 12.12.2019
2520 Clear 17 1026 55 10000 3.1 50 19:18 12.12.2019
2521 Clear 17 1026 55 10000 3.1 50 19:18 12.12.2019
2522 Clear 17 1026 55 10000 3.1 50 18:55 12.12.2019
2523 Clear 17 1026 55 10000 3.1 50 18:37 12.12.2019
2524 Clear 18 1026 52 10000 3.6 50 18:19 12.12.2019
2525 Clear 18 1026 52 10000 4.1 40 17:56 12.12.2019
2526 Clear 18 1026 52 10000 4.1 40 17:38 12.12.2019
2527 Clear 19 1026 48 10000 4.1 60 17:19 12.12.2019
2528 Clear 19 1026 48 10000 3.6 30 16:54 12.12.2019
2529 Clear 19 1026 48 10000 3.6 30 16:36 12.12.2019
2530 Clear 19 1026 45 10000 3.6 30 16:18 12.12.2019
2531 Clear 19 1026 48 10000 4.1 20 15:42 12.12.2019
2532 Clear 19 1026 52 10000 3.1 20 15:20 12.12.2019
2533 Clear 18 1026 55 10000 2.1 40 14:57 12.12.2019
2534 Clear 18 1026 55 10000 2.1 40 14:57 12.12.2019
2535 Clear 18 1026 55 10000 2.1 40 14:37 12.12.2019
2536 Clouds 17 1026 59 10000 2.6 40 14:19 12.12.2019
2537 Clouds 17 1026 59 10000 3.1 30 13:55 12.12.2019
2538 Clouds 17 1026 59 10000 3.1 30 13:37 12.12.2019
2539 Clear 16 1027 63 10000 3.1 20 13:18 12.12.2019
2540 Clear 16 1028 63 10000 2.1 30 12:55 12.12.2019
2541 Clear 16 1028 63 10000 2.1 30 12:36 12.12.2019
2542 Clear 15 1028 67 10000 2.6 40 12:18 12.12.2019
2543 Clear 14 1028 67 10000 2.6 110 11:40 12.12.2019
2544 Clear 13 1028 71 10000 2.1 90 11:22 12.12.2019
2545 Clear 12 1028 76 10000 2.6 70 10:59 12.12.2019
2546 Clear 12 1028 76 10000 2.6 70 10:59 12.12.2019
2547 Clear 12 1028 76 10000 2.6 70 10:41 12.12.2019
2548 Clear 11 1028 81 10000 2.6 50 10:22 12.12.2019
2549 Clear 10 1028 81 10000 2.1 40 09:57 12.12.2019
2550 Clear 10 1028 81 10000 2.1 40 09:39 12.12.2019
2551 Clear 9 1027 87 10000 1.5 100 09:20 12.12.2019
2552 Clear 7 1027 93 10000 2.1 120 08:50 12.12.2019
2553 Clear 8 1027 87 10000 1.5 110 08:29 12.12.2019
2554 Clear 8 1027 87 10000 1.5 110 07:59 12.12.2019
2555 Clear 8 1027 87 10000 1.5 110 07:39 12.12.2019
2556 Clear 9 1027 87 10000 1.5 40 07:21 12.12.2019
2557 Clear 8 1027 87 10000 1 0 06:42 12.12.2019
2558 Clear 9 1027 87 10000 0.5 0 06:23 12.12.2019
2559 Clear 9 1027 87 10000 1 0 05:34 12.12.2019
2560 Clear 9 1027 87 10000 2.1 100 04:48 12.12.2019
2561 Clear 10 1027 87 10000 2.1 80 02:44 12.12.2019
2562 Clear 10 1027 81 10000 2.6 90 02:25 12.12.2019
2563 Clear 11 1027 76 10000 2.1 40 01:59 12.12.2019
2564 Clear 12 1027 71 10000 1.5 30 01:36 12.12.2019
2565 Clear 13 1027 71 10000 2.1 30 00:50 12.12.2019
2566 Clear 12 1027 76 10000 2.6 60 00:22 12.12.2019
2567 Clear 11 1027 81 10000 1 0 23:58 11.12.2019
2568 Clear 11 1027 81 10000 1 0 23:39 11.12.2019
2569 Clear 12 1027 76 10000 2.1 80 23:19 11.12.2019
2570 Clear 13 1026 66 10000 2.1 80 22:56 11.12.2019
2571 Clear 13 1026 66 10000 2.1 80 22:38 11.12.2019
2572 Clear 13 1026 66 10000 3.1 110 22:19 11.12.2019
2573 Clear 14 1027 67 10000 3.1 100 21:55 11.12.2019
2574 Clear 14 1027 67 10000 3.1 100 21:36 11.12.2019
2575 Clear 15 1026 58 10000 2.6 80 21:18 11.12.2019
2576 Clear 16 1026 55 10000 2.6 60 20:55 11.12.2019
2577 Clear 16 1026 55 10000 2.6 60 20:37 11.12.2019
2578 Clear 18 1026 48 10000 2.6 40 20:18 11.12.2019
2579 Clear 18 1026 48 10000 2.6 40 19:43 11.12.2019
2580 Clear 18 1026 45 10000 2.1 20 19:23 11.12.2019
2581 Clear 19 1026 45 10000 1.5 30 18:59 11.12.2019
2582 Clear 19 1026 45 10000 1.5 30 18:40 11.12.2019
2583 Clear 21 1026 40 10000 1.5 20 18:20 11.12.2019
2584 Clear 21 1026 43 10000 1 0 17:57 11.12.2019
2585 Clear 21 1026 43 10000 1 0 17:38 11.12.2019
2586 Clear 21 1026 46 10000 1.5 320 17:18 11.12.2019
2587 Clear 22 1026 43 10000 1 0 16:56 11.12.2019
2588 Clear 22 1026 43 10000 1 0 16:37 11.12.2019
2589 Clear 21 1026 46 10000 2.1 340 16:19 11.12.2019
2590 Clear 21 1026 49 10000 2.1 0 15:57 11.12.2019
2591 Clear 21 1026 49 10000 2.1 0 15:37 11.12.2019
2592 Clear 21 1026 49 10000 1.5 0 15:19 11.12.2019
2593 Clear 20 1026 52 10000 1 0 14:55 11.12.2019
2594 Clear 20 1026 52 10000 1 0 14:55 11.12.2019
2595 Clear 20 1026 52 10000 1 0 14:37 11.12.2019
2596 Clear 20 1026 52 10000 1 0 14:37 11.12.2019
2597 Clear 19 1027 52 10000 2.1 330 14:18 11.12.2019
2598 Clear 19 1027 55 10000 2.1 350 13:44 11.12.2019
2599 Clear 18 1027 39 0 2.16 358 13:23 11.12.2019
2600 Clear 18 1027 39 0 2.27 2 12:59 11.12.2019
2601 Clear 18 1027 39 0 2.27 2 12:39 11.12.2019
2602 Clear 18 1027 39 0 2.27 2 12:21 11.12.2019
2603 Clear 18 1027 39 0 2.27 2 11:58 11.12.2019
2604 Clear 18 1027 39 0 2.27 2 11:39 11.12.2019
2605 Clear 15 1027 48 0 0.99 49 11:19 11.12.2019
2606 Clear 11 1028 87 10000 0.5 0 10:59 11.12.2019
2607 Clear 11 1028 87 10000 0.5 0 10:39 11.12.2019
2608 Clear 11 1028 87 10000 0.5 0 10:21 11.12.2019
2609 Clear 11 1028 87 10000 0.5 0 09:56 11.12.2019
2610 Clear 11 1028 87 10000 0.5 0 09:38 11.12.2019
2611 Clear 8 1028 93 10000 0.5 0 09:19 11.12.2019
2612 Clear 7 1027 93 10000 0.5 0 08:55 11.12.2019
2613 Clear 8 1027 87 10000 0.5 0 08:36 11.12.2019
2614 Clear 8 1027 87 10000 0.5 0 08:18 11.12.2019
2615 Clear 7 1026 93 10000 1 0 07:42 11.12.2019
2616 Clear 7 1026 93 10000 1 0 07:23 11.12.2019
2617 Clear 8 1026 93 10000 1.5 90 06:46 11.12.2019
2618 Clear 9 1026 87 10000 2.1 90 06:24 11.12.2019
2619 Clear 8 1026 87 10000 2.1 120 05:54 11.12.2019
2620 Clear 9 1026 87 10000 1 0 05:33 11.12.2019
2621 Clear 9 1026 87 10000 1 0 04:49 11.12.2019
2622 Clear 11 1026 81 10000 1 0 03:19 11.12.2019
2623 Clear 12 1026 76 10000 2.1 180 02:35 11.12.2019
2624 Clear 11 1026 81 10000 0.5 0 01:22 11.12.2019
2625 Clear 12 1026 76 10000 1 0 00:37 11.12.2019
2626 Clear 13 1026 76 10000 1 0 00:18 11.12.2019
2627 Clear 12 1026 81 10000 1 0 23:43 10.12.2019
2628 Clear 13 1026 76 10000 2.1 90 23:23 10.12.2019
2629 Clear 14 1026 71 10000 3.1 100 22:56 10.12.2019
2630 Clear 13 1026 82 10000 2.6 90 22:38 10.12.2019
2631 Clear 13 1026 82 10000 2.6 90 22:20 10.12.2019
2632 Clear 14 1026 76 0 2.6 100 21:54 10.12.2019
2633 Clear 14 1026 76 0 2.6 100 21:54 10.12.2019
2634 Clear 14 1026 76 0 2.6 100 21:36 10.12.2019
2635 Clear 15 1026 72 10000 2.1 70 21:18 10.12.2019
2636 Clear 16 1026 63 10000 2.1 60 20:55 10.12.2019
2637 Clear 16 1026 63 10000 2.1 60 20:55 10.12.2019
2638 Clear 16 1026 63 10000 2.1 60 20:36 10.12.2019
2639 Clear 17 1025 63 10000 2.6 50 20:18 10.12.2019
2640 Clear 18 1025 55 10000 2.1 40 19:42 10.12.2019
2641 Clear 19 1025 52 10000 2.1 20 19:24 10.12.2019
2642 Clear 20 1025 49 10000 0.5 0 18:57 10.12.2019
2643 Clear 20 1025 49 10000 0.5 0 18:38 10.12.2019
2644 Clear 21 1025 49 10000 1 0 18:19 10.12.2019
2645 Clear 22 1024 43 10000 1.5 50 17:54 10.12.2019
2646 Clear 22 1024 43 10000 1.5 50 17:36 10.12.2019
2647 Clear 23 1024 43 10000 1 0 17:18 10.12.2019
2648 Clear 22 1024 46 10000 1 0 16:41 10.12.2019
2649 Clear 22 1025 46 10000 1 0 16:20 10.12.2019
2650 Clear 21 1025 49 10000 2.1 0 15:40 10.12.2019
2651 Clear 21 1025 43 10000 2.6 10 15:19 10.12.2019
2652 Clear 20 1025 42 10000 2.1 10 14:59 10.12.2019
2653 Clear 20 1025 42 10000 2.1 10 14:41 10.12.2019
2654 Clear 20 1025 45 10000 2.1 0 14:23 10.12.2019
2655 Clear 19 1026 45 10000 1.5 350 13:59 10.12.2019
2656 Clear 19 1026 45 10000 1.5 350 13:40 10.12.2019
2657 Clear 19 1027 48 10000 2.1 10 13:20 10.12.2019
2658 Clear 19 1027 52 10000 0.5 0 12:55 10.12.2019
2659 Clear 19 1027 52 10000 0.5 0 12:36 10.12.2019
2660 Clear 17 1027 51 10000 1 0 12:18 10.12.2019
2661 Clear 16 1027 55 10000 1 0 11:40 10.12.2019
2662 Clear 15 1028 58 10000 1 0 11:22 10.12.2019
2663 Clear 15 1027 43 0 0.39 145 10:55 10.12.2019
2664 Clear 15 1027 43 0 0.39 145 10:36 10.12.2019
2665 Clear 15 1027 43 0 0.39 145 10:18 10.12.2019
2666 Clear 15 1027 43 0 0.39 145 09:54 10.12.2019
2667 Clear 15 1027 43 0 0.39 145 09:36 10.12.2019
2668 Clear 7 1027 93 10000 1.5 130 09:18 10.12.2019
2669 Clear 7 1027 93 10000 1.5 130 08:41 10.12.2019
2670 Clear 7 1027 93 10000 1.5 130 08:22 10.12.2019
2671 Clear 7 1027 93 10000 2.1 100 07:57 10.12.2019
2672 Clear 7 1027 93 10000 2.1 100 07:39 10.12.2019
2673 Clear 7 1027 93 10000 1.5 90 07:20 10.12.2019
2674 Clear 9 1026 81 10000 1 0 06:46 10.12.2019
2675 Clear 9 1026 81 10000 1.5 150 06:19 10.12.2019
2676 Clear 9 1026 81 10000 1.5 150 06:19 10.12.2019
2677 Clear 9 1026 81 10000 1.5 130 05:52 10.12.2019
2678 Clear 9 1026 81 10000 1 0 04:50 10.12.2019
2679 Clear 11 1027 81 10000 2.1 140 03:32 10.12.2019
2680 Clear 9 1027 87 10000 1.5 110 02:40 10.12.2019
2681 Clear 10 1027 81 10000 2.1 90 01:44 10.12.2019
2682 Clear 11 1027 76 10000 1.5 90 01:20 10.12.2019
2683 Clear 11 1027 76 10000 1.5 90 00:40 10.12.2019
2684 Clear 12 1027 71 10000 1.5 70 00:19 10.12.2019
2685 Clear 12 1027 71 0 1.5 10 23:41 09.12.2019
2686 Clear 12 1027 71 0 1.5 10 23:41 09.12.2019
2687 Clear 13 1027 71 10000 1 0 23:22 09.12.2019
2688 Clear 13 1027 71 10000 1 0 22:58 09.12.2019
2689 Clear 13 1027 71 10000 1 0 22:39 09.12.2019
2690 Clear 12 1027 76 10000 1 0 22:19 09.12.2019
2691 Clear 13 1028 66 10000 1.5 90 21:56 09.12.2019
2692 Clear 13 1028 66 10000 1.5 90 21:38 09.12.2019
2693 Clear 15 1027 54 10000 1 0 21:18 09.12.2019
2694 Clear 15 1027 58 10000 1.5 110 20:56 09.12.2019
2695 Clear 15 1027 58 10000 1.5 110 20:38 09.12.2019
2696 Clear 16 1027 51 10000 1.5 60 20:19 09.12.2019
2697 Clear 16 1027 55 10000 1.5 60 19:55 09.12.2019
2698 Clear 18 1026 48 10000 2.6 70 19:37 09.12.2019
2699 Clear 18 1026 48 10000 2.6 70 19:19 09.12.2019
2700 Clear 18 1026 48 10000 2.6 70 18:56 09.12.2019
2701 Clear 18 1026 48 10000 2.6 70 18:37 09.12.2019
2702 Clear 19 1026 45 10000 3.1 70 18:19 09.12.2019
2703 Clear 20 1026 42 10000 3.6 60 17:57 09.12.2019
2704 Clear 20 1026 42 10000 3.6 60 17:38 09.12.2019
2705 Clear 21 1026 40 10000 3.1 60 17:19 09.12.2019
2706 Clear 21 1026 40 10000 3.1 60 16:56 09.12.2019
2707 Clear 21 1026 40 10000 3.1 60 16:37 09.12.2019
2708 Clear 20 1026 49 10000 3.1 70 16:18 09.12.2019
2709 Clear 20 1026 49 10000 3.1 70 15:55 09.12.2019
2710 Clear 20 1026 49 10000 3.1 70 15:36 09.12.2019
2711 Clear 20 1026 49 10000 3.1 70 15:36 09.12.2019
2712 Clear 20 1027 45 10000 3.1 80 15:18 09.12.2019
2713 Clear 20 1027 49 8000 3.6 60 14:42 09.12.2019
2714 Clear 19 1028 52 8000 4.1 70 14:19 09.12.2019
2715 Clear 19 1028 52 8000 2.1 70 13:58 09.12.2019
2716 Clear 19 1028 52 8000 2.1 70 13:38 09.12.2019
2717 Clear 17 1029 55 8000 2.6 50 13:19 09.12.2019
2718 Clear 17 1029 59 8000 2.1 20 12:56 09.12.2019
2719 Clear 17 1029 59 8000 2.1 20 12:38 09.12.2019
2720 Clear 16 1029 63 8000 1 0 12:19 09.12.2019
2721 Clear 15 1030 67 8000 2.1 110 11:57 09.12.2019
2722 Clear 15 1030 67 8000 2.1 110 11:37 09.12.2019
2723 Clear 14 1030 71 8000 1.5 70 11:18 09.12.2019
2724 Clear 13 1030 76 8000 1.5 60 10:41 09.12.2019
2725 Clear 11 1029 87 8000 1.5 80 10:20 09.12.2019
2726 Clear 11 1029 87 8000 1.5 80 10:20 09.12.2019
2727 Clear 10 1029 87 8000 1.5 100 09:59 09.12.2019
2728 Clear 10 1029 87 8000 1.5 100 09:41 09.12.2019
2729 Clear 10 1029 87 8000 1.5 100 09:41 09.12.2019
2730 Clear 8 1029 93 8000 1.5 100 09:21 09.12.2019
2731 Clear 8 1029 93 8000 1 0 08:54 09.12.2019
2732 Clear 8 1029 93 8000 1 0 08:36 09.12.2019
2733 Clear 8 1028 93 8000 1.5 150 08:18 09.12.2019
2734 Clear 8 1028 93 8000 1.5 150 08:18 09.12.2019
2735 Clear 7 1028 93 8000 1.5 130 07:42 09.12.2019
2736 Clear 8 1028 87 8000 2.1 80 07:23 09.12.2019
2737 Clear 9 1028 93 8000 0.5 0 06:47 09.12.2019
2738 Clear 8 1027 93 8000 1 0 06:25 09.12.2019
2739 Clear 9 1027 93 8000 1 0 05:29 09.12.2019
2740 Clear 8 1027 93 8000 2.1 100 04:46 09.12.2019
2741 Clear 9 1028 93 8000 2.6 90 03:21 09.12.2019
2742 Clear 10 1027 93 10000 2.1 100 02:24 09.12.2019
2743 Clear 10 1028 87 10000 2.1 90 01:44 09.12.2019
2744 Clear 11 1028 87 10000 1 0 00:51 09.12.2019
2745 Clear 11 1028 87 10000 1.5 110 00:31 09.12.2019
2746 Clear 12 1028 81 10000 2.1 30 23:43 08.12.2019
2747 Clear 12 1028 81 10000 1 0 23:24 08.12.2019
2748 Clear 12 1028 81 10000 1 0 23:24 08.12.2019
2749 Clear 12 1028 87 10000 1.5 120 22:58 08.12.2019
2750 Clear 12 1028 87 10000 1.5 120 22:39 08.12.2019
2751 Clear 13 1028 82 10000 2.1 120 22:20 08.12.2019
2752 Clear 12 1028 87 10000 2.5 84 21:58 08.12.2019
2753 Clear 12 1028 87 10000 2.5 84 21:40 08.12.2019
2754 Clear 13 1027 62 0 2.5 84 21:22 08.12.2019
2755 Clear 13 1027 62 0 2.5 84 20:57 08.12.2019
2756 Clear 13 1027 62 0 2.5 84 20:38 08.12.2019
2757 Clear 17 1026 63 10000 3.1 40 20:20 08.12.2019
2758 Clear 17 1026 63 10000 3.1 40 19:59 08.12.2019
2759 Clear 17 1026 63 10000 3.1 40 19:41 08.12.2019
2760 Clear 17 1026 63 10000 3.1 40 19:23 08.12.2019
2761 Clouds 17 1026 63 10000 2.6 60 18:55 08.12.2019
2762 Clouds 17 1026 63 10000 2.6 60 18:55 08.12.2019
2763 Clouds 17 1026 63 10000 2.6 60 18:37 08.12.2019
2764 Clouds 18 1026 59 10000 2.6 60 18:19 08.12.2019
2765 Clouds 19 1025 55 10000 2.6 30 17:57 08.12.2019
2766 Clouds 19 1025 55 10000 2.6 30 17:38 08.12.2019
2767 Clouds 19 1025 55 10000 2.6 40 17:20 08.12.2019
2768 Clouds 19 1025 55 10000 2.6 40 17:20 08.12.2019
2769 Clouds 19 1025 55 10000 2.6 40 17:20 08.12.2019
2770 Clouds 19 1025 55 10000 3.1 70 16:57 08.12.2019
2771 Clouds 19 1025 55 10000 3.1 70 16:39 08.12.2019
2772 Clouds 19 1025 52 10000 3.1 60 16:20 08.12.2019
2773 Clouds 19 1025 55 10000 2.6 50 15:55 08.12.2019
2774 Clouds 19 1025 55 10000 2.6 50 15:36 08.12.2019
2775 Clouds 19 1025 55 10000 2.1 50 15:18 08.12.2019
2776 Clouds 18 1026 63 0 3.1 60 14:43 08.12.2019
2777 Clouds 18 1026 59 0 3.1 50 14:24 08.12.2019
2778 Clouds 17 1026 63 0 2.1 40 13:58 08.12.2019
2779 Clouds 17 1026 63 0 2.1 40 13:40 08.12.2019
2780 Clear 17 1027 63 10000 2.6 70 13:21 08.12.2019
2781 Clear 16 1027 67 10000 3.6 90 12:56 08.12.2019
2782 Clear 16 1027 67 10000 3.6 90 12:38 08.12.2019
2783 Clear 15 1027 67 10000 2.6 80 12:18 08.12.2019
2784 Clear 15 1028 67 10000 2.6 70 11:55 08.12.2019
2785 Clear 15 1028 67 10000 2.6 70 11:37 08.12.2019
2786 Clear 15 1027 72 10000 1 0 11:19 08.12.2019
2787 Clear 15 1027 72 10000 1 0 11:19 08.12.2019
2788 Clear 15 1027 72 10000 1 0 11:19 08.12.2019
2789 Clear 13 1027 82 10000 1.5 80 10:40 08.12.2019
2790 Clear 12 1027 87 10000 1.5 70 10:21 08.12.2019
2791 Clear 10 1026 93 10000 1 0 09:58 08.12.2019
2792 Clear 10 1026 93 10000 1 0 09:39 08.12.2019
2793 Clear 8 1026 93 10000 1.5 70 09:20 08.12.2019
2794 Clear 8 1026 93 10000 1.5 70 09:20 08.12.2019
2795 Clear 8 1025 93 10000 2.1 80 08:59 08.12.2019
2796 Clear 8 1025 93 10000 2.1 80 08:39 08.12.2019
2797 Clear 8 1025 93 10000 2.6 90 08:21 08.12.2019
2798 Clear 8 1025 93 10000 2.6 90 08:21 08.12.2019
2799 Clouds 8 1025 93 8000 2.1 70 07:45 08.12.2019
2800 Clouds 8 1025 93 8000 2.1 80 07:20 08.12.2019
2801 Clouds 8 1024 100 6000 2.1 60 06:52 08.12.2019
2802 Clouds 9 1024 93 6000 1.5 80 06:23 08.12.2019
2803 Clouds 9 1024 93 6000 2.1 110 05:52 08.12.2019
2804 Clouds 9 1024 93 6000 1 0 05:18 08.12.2019
2805 Clouds 10 1025 93 7000 0.5 0 03:54 08.12.2019
2806 Clouds 10 1025 93 7000 0.5 0 03:36 08.12.2019
2807 Clouds 11 1025 93 7000 1 0 02:40 08.12.2019
2808 Clouds 11 1025 93 7000 1 0 01:56 08.12.2019
2809 Clouds 11 1025 87 8000 0.5 0 01:33 08.12.2019
2810 Clouds 11 1025 87 10000 0.5 0 00:42 08.12.2019
2811 Clouds 12 1025 87 10000 1.5 120 00:21 08.12.2019
2812 Clouds 12 1025 87 10000 1 0 23:55 07.12.2019
2813 Clouds 12 1025 87 10000 1 0 23:36 07.12.2019
2814 Clouds 12 1025 87 10000 1 0 23:18 07.12.2019
2815 Clouds 13 1024 82 10000 1 0 22:54 07.12.2019
2816 Clouds 13 1024 82 10000 1 0 22:54 07.12.2019
2817 Clouds 13 1024 82 10000 1 0 22:36 07.12.2019
2818 Clouds 13 1024 82 10000 1 0 22:36 07.12.2019
2819 Clouds 13 1024 82 10000 1.5 100 22:18 07.12.2019
2820 Clouds 13 1024 82 10000 1.5 90 21:54 07.12.2019
2821 Clouds 13 1024 82 10000 1.5 90 21:36 07.12.2019
2822 Clouds 13 1024 82 10000 1.5 90 21:18 07.12.2019
2823 Clouds 14 1023 82 10000 1 0 20:37 07.12.2019
2824 Clouds 16 1023 67 10000 1 0 20:19 07.12.2019
2825 Clouds 16 1023 67 10000 1 0 19:57 07.12.2019
2826 Clouds 16 1023 67 10000 1 0 19:38 07.12.2019
2827 Clouds 16 1023 67 10000 1 0 19:20 07.12.2019
2828 Clouds 17 1022 63 10000 1.5 10 18:55 07.12.2019
2829 Clouds 17 1022 59 10000 2.1 10 18:36 07.12.2019
2830 Clouds 17 1022 59 10000 2.1 10 18:18 07.12.2019
2831 Clouds 18 1022 59 10000 2.6 10 17:42 07.12.2019
2832 Clouds 18 1022 59 10000 2.6 360 17:24 07.12.2019
2833 Clouds 18 1022 59 10000 2.6 0 16:58 07.12.2019
2834 Clouds 18 1022 59 10000 2.6 0 16:39 07.12.2019
2835 Clouds 18 1021 59 10000 3.1 330 16:21 07.12.2019
2836 Clouds 18 1021 59 8000 2.6 340 15:57 07.12.2019
2837 Clouds 18 1021 59 8000 2.6 340 15:38 07.12.2019
2838 Clouds 18 1021 63 8000 1.5 0 15:20 07.12.2019
2839 Clouds 17 1021 63 8000 2.1 330 14:42 07.12.2019
2840 Clouds 17 1022 67 8000 1.5 360 14:19 07.12.2019
2841 Clouds 17 1022 63 8000 1.5 330 13:58 07.12.2019
2842 Clouds 17 1022 63 8000 1.5 330 13:58 07.12.2019
2843 Clouds 17 1022 63 8000 1.5 330 13:39 07.12.2019
2844 Clouds 16 1023 67 8000 2.1 350 13:19 07.12.2019
2845 Clouds 16 1023 67 8000 1.5 0 12:41 07.12.2019
2846 Clouds 16 1023 67 8000 1.5 80 12:23 07.12.2019
2847 Clouds 16 1023 67 8000 1.5 120 11:59 07.12.2019
2848 Clouds 16 1023 67 8000 1.5 120 11:41 07.12.2019
2849 Clouds 14 1023 82 8000 2.1 140 11:22 07.12.2019
2850 Clouds 13 1023 82 8000 1.5 150 10:39 07.12.2019
2851 Clouds 12 1022 87 6000 1.5 170 10:20 07.12.2019
2852 Clouds 12 1022 87 6000 1.5 140 09:59 07.12.2019
2853 Clouds 12 1022 87 6000 1.5 140 09:38 07.12.2019
2854 Clouds 12 1022 87 6000 1.5 140 09:38 07.12.2019
2855 Clouds 11 1022 93 6000 1.5 140 09:20 07.12.2019
2856 Clouds 11 1021 93 6000 3.1 150 08:45 07.12.2019
2857 Clouds 11 1021 93 6000 3.1 150 08:21 07.12.2019
2858 Clouds 11 1020 93 8000 2.6 100 07:47 07.12.2019
2859 Clouds 11 1020 93 8000 2.6 100 07:28 07.12.2019
2860 Clouds 11 1020 93 8000 2.1 90 06:52 07.12.2019
2861 Clouds 11 1019 93 8000 2.1 30 06:25 07.12.2019
2862 Clouds 11 1019 93 8000 1.5 310 05:44 07.12.2019
2863 Clouds 11 1019 93 8000 2.1 320 04:41 07.12.2019
2864 Clouds 12 1019 87 8000 3.6 150 03:49 07.12.2019
2865 Clouds 12 1019 87 8000 4.6 120 02:22 07.12.2019
2866 Clouds 12 1019 93 8000 5.1 110 01:37 07.12.2019
2867 Clouds 12 1019 93 8000 1.5 40 01:18 07.12.2019
2868 Clouds 12 1019 87 8000 2.1 350 00:21 07.12.2019
2869 Clouds 12 1019 87 8000 1 0 23:57 06.12.2019
2870 Clouds 12 1019 87 8000 1 0 23:38 06.12.2019
2871 Clouds 11 1018 93 10000 1.5 280 23:19 06.12.2019
2872 Clouds 11 1018 93 10000 2.6 250 22:39 06.12.2019
2873 Clouds 12 1018 87 10000 3.1 250 22:21 06.12.2019
2874 Thunderstorm 12 1018 87 8000 3.6 210 21:58 06.12.2019
2875 Thunderstorm 12 1018 87 8000 3.6 210 21:39 06.12.2019
2876 Clouds 12 1018 87 8000 4.6 200 21:20 06.12.2019
2877 Thunderstorm 12 1017 87 6000 3.6 210 20:45 06.12.2019
2878 Thunderstorm 12 1017 87 6000 3.6 210 20:25 06.12.2019
2879 Thunderstorm 12 1016 87 6000 3.6 180 19:59 06.12.2019
2880 Thunderstorm 12 1016 87 6000 3.6 180 19:40 06.12.2019
2881 Thunderstorm 13 1016 82 8000 2.6 130 19:22 06.12.2019
2882 Thunderstorm 13 1016 82 8000 2.6 130 19:22 06.12.2019
2883 Thunderstorm 13 1016 82 8000 2.6 130 19:22 06.12.2019
2884 Thunderstorm 13 1016 82 8000 2.6 130 18:58 06.12.2019
2885 Thunderstorm 13 1016 82 8000 2.6 130 18:40 06.12.2019
2886 Thunderstorm 14 1015 71 8000 5.1 80 18:20 06.12.2019
2887 Thunderstorm 16 1014 63 8000 4.1 10 17:56 06.12.2019
2888 Clouds 16 1014 67 8000 3.1 350 17:38 06.12.2019
2889 Clouds 16 1014 67 8000 3.1 350 17:19 06.12.2019
2890 Clouds 16 1014 67 8000 3.1 350 17:19 06.12.2019
2891 Clouds 17 1014 67 8000 3.1 300 16:43 06.12.2019
2892 Clouds 17 1014 72 8000 3.6 270 16:25 06.12.2019
2893 Clouds 17 1014 67 8000 2.1 320 15:59 06.12.2019
2894 Clouds 17 1014 67 8000 2.1 320 15:41 06.12.2019
2895 Clouds 17 1014 67 8000 2.6 360 15:19 06.12.2019
2896 Clouds 17 1014 67 8000 2.1 350 14:57 06.12.2019
2897 Clouds 17 1014 67 8000 2.1 350 14:38 06.12.2019
2898 Clouds 17 1014 67 8000 2.1 350 14:38 06.12.2019
2899 Clouds 17 1014 67 8000 1 0 14:19 06.12.2019
2900 Clouds 17 1015 72 6000 1 0 13:43 06.12.2019
2901 Clouds 17 1015 72 6000 1 0 13:25 06.12.2019
2902 Clouds 16 1015 77 6000 1 0 12:43 06.12.2019
2903 Clouds 16 1016 77 6000 1 0 12:23 06.12.2019
2904 Clouds 15 1016 77 6000 0.5 0 11:58 06.12.2019
2905 Clouds 15 1016 77 6000 0.5 0 11:39 06.12.2019
2906 Clouds 14 1016 87 6000 1.5 30 11:20 06.12.2019
2907 Clouds 14 1016 87 6000 2.1 80 10:43 06.12.2019
2908 Mist 12 1015 93 4000 2.1 90 10:21 06.12.2019
2909 Mist 12 1015 93 4000 2.1 90 09:58 06.12.2019
2910 Mist 12 1015 93 4000 2.1 90 09:37 06.12.2019
2911 Mist 12 1015 93 4000 2.1 90 09:37 06.12.2019
2912 Mist 12 1015 93 4000 1.5 70 09:19 06.12.2019
2913 Clouds 12 1015 93 6000 1 0 08:45 06.12.2019
2914 Clouds 12 1014 93 6000 2.1 150 08:27 06.12.2019
2915 Rain 11 1014 93 6000 0.5 0 07:56 06.12.2019
2916 Rain 11 1014 93 6000 0.5 0 07:36 06.12.2019
2917 Rain 11 1014 93 6000 0.5 0 07:18 06.12.2019
2918 Clouds 11 1013 93 8000 0.5 0 06:29 06.12.2019
2919 Clouds 10 1014 87 0 0.56 215 05:53 06.12.2019
2920 Clouds 10 1014 87 0 0.56 215 05:34 06.12.2019
2921 Clouds 12 1013 93 8000 2.1 210 02:19 06.12.2019
2922 Rain 11 1013 93 5000 2.1 260 01:30 06.12.2019
2923 Rain 11 1014 93 6000 2.6 220 00:41 06.12.2019
2924 Rain 11 1014 93 6000 2.6 220 00:20 06.12.2019
2925 Clouds 12 1013 87 10000 3.6 260 23:47 05.12.2019
2926 Clouds 12 1013 87 10000 3.6 260 23:19 05.12.2019
2927 Clouds 12 1013 87 10000 2.6 260 22:57 05.12.2019
2928 Clouds 12 1013 87 10000 2.6 260 22:38 05.12.2019
2929 Clouds 12 1013 87 10000 2.6 260 22:18 05.12.2019
2930 Clouds 13 1012 82 10000 2.6 270 21:44 05.12.2019
2931 Clouds 13 1012 82 10000 2.6 270 21:25 05.12.2019
2932 Clouds 13 1011 82 10000 2.6 270 20:59 05.12.2019
2933 Clouds 13 1011 82 10000 2.6 270 20:40 05.12.2019
2934 Clouds 13 1011 82 10000 2.6 270 20:40 05.12.2019
2935 Clouds 13 1011 82 10000 2.6 270 20:21 05.12.2019
2936 Clouds 15 1010 67 10000 4.6 250 19:58 05.12.2019
2937 Clouds 15 1010 67 10000 4.6 250 19:58 05.12.2019
2938 Clouds 15 1010 67 10000 4.6 250 19:58 05.12.2019
2939 Clouds 15 1010 67 10000 4.6 250 19:40 05.12.2019
2940 Clouds 15 1010 67 10000 4.6 250 19:20 05.12.2019
2941 Clouds 15 1010 67 10000 4.6 250 18:57 05.12.2019
2942 Clouds 16 1009 67 10000 4.6 280 18:37 05.12.2019
2943 Clouds 16 1009 67 10000 4.6 280 18:19 05.12.2019
2944 Clouds 18 1008 52 10000 3.1 330 17:39 05.12.2019
2945 Clouds 18 1008 52 10000 3.1 330 17:20 05.12.2019
2946 Clouds 18 1008 55 10000 3.1 310 16:57 05.12.2019
2947 Clouds 18 1008 52 10000 3.1 340 16:39 05.12.2019
2948 Clouds 18 1008 52 10000 3.1 340 16:21 05.12.2019
2949 Clouds 18 1008 52 10000 3.1 340 16:21 05.12.2019
2950 Clouds 19 1008 45 10000 2.1 350 15:56 05.12.2019
2951 Clouds 19 1008 45 10000 3.1 20 15:38 05.12.2019
2952 Clouds 19 1008 45 10000 3.1 20 15:19 05.12.2019
2953 Clouds 19 1008 48 10000 3.6 40 14:55 05.12.2019
2954 Clouds 19 1008 52 10000 3.1 50 14:37 05.12.2019
2955 Clouds 19 1008 52 10000 3.1 50 14:18 05.12.2019
2956 Clouds 18 1009 55 8000 3.6 70 13:56 05.12.2019
2957 Clouds 18 1009 55 8000 3.6 70 13:38 05.12.2019
2958 Clouds 18 1009 55 8000 3.6 70 13:18 05.12.2019
2959 Clouds 16 1010 63 8000 4.1 70 12:43 05.12.2019
2960 Clouds 16 1010 63 8000 4.1 70 12:24 05.12.2019
2961 Clouds 14 1010 67 8000 4.1 90 11:59 05.12.2019
2962 Clouds 14 1010 71 8000 4.1 80 11:38 05.12.2019
2963 Clouds 14 1010 71 8000 4.1 80 11:38 05.12.2019
2964 Clouds 14 1010 71 8000 4.1 80 11:20 05.12.2019
2965 Clouds 14 1010 71 8000 4.1 80 10:57 05.12.2019
2966 Clouds 14 1009 71 8000 3.6 80 10:38 05.12.2019
2967 Clouds 14 1009 71 8000 3.6 80 10:18 05.12.2019
2968 Clouds 12 1010 75 0 3.82 81 09:46 05.12.2019
2969 Clouds 12 1010 75 0 3.82 81 09:24 05.12.2019
2970 Clouds 12 1010 75 0 3.82 81 08:59 05.12.2019
2971 Clouds 12 1010 75 0 3.82 81 08:39 05.12.2019
2972 Clouds 11 1009 87 8000 3.1 90 08:20 05.12.2019
2973 Clouds 11 1009 87 8000 3.1 90 07:56 05.12.2019
2974 Clouds 11 1009 87 8000 3.1 90 07:36 05.12.2019
2975 Clouds 11 1009 87 8000 3.1 90 07:18 05.12.2019
2976 Clouds 11 1009 87 8000 2.1 100 06:41 05.12.2019
2977 Clouds 11 1009 87 8000 2.1 100 06:20 05.12.2019
2978 Clouds 11 1009 87 8000 0.5 0 05:47 05.12.2019
2979 Clouds 12 1010 87 8000 2.1 70 05:23 05.12.2019
2980 Clouds 12 1010 87 8000 2.1 80 04:25 05.12.2019
2981 Clouds 12 1010 87 8000 2.1 180 02:44 05.12.2019
2982 Clouds 12 1011 87 8000 1 0 02:24 05.12.2019
2983 Clouds 12 1011 87 8000 1 0 01:53 05.12.2019
2984 Clouds 12 1011 87 8000 2.6 170 01:27 05.12.2019
2985 Clouds 12 1012 87 8000 2.1 170 00:52 05.12.2019
2986 Clouds 12 1012 87 8000 2.6 180 00:33 05.12.2019
2987 Clouds 12 1012 87 8000 2.6 170 23:58 04.12.2019
2988 Clouds 12 1012 87 8000 2.6 160 23:39 04.12.2019
2989 Clouds 12 1012 87 8000 2.6 160 23:21 04.12.2019
2990 Clouds 13 1013 82 8000 1.5 170 22:55 04.12.2019
2991 Clouds 12 1013 87 8000 1 0 22:36 04.12.2019
2992 Clouds 12 1013 87 8000 1 0 22:18 04.12.2019
2993 Clouds 12 1013 87 8000 2.1 280 21:54 04.12.2019
2994 Clouds 13 1013 82 8000 3.1 280 21:36 04.12.2019
2995 Clouds 13 1013 82 8000 3.1 280 21:18 04.12.2019
2996 Clouds 13 1013 82 8000 4.1 280 20:56 04.12.2019
2997 Clouds 13 1013 82 8000 1.5 250 20:37 04.12.2019
2998 Clouds 13 1013 82 8000 1.5 250 20:19 04.12.2019
2999 Clouds 13 1013 66 0 4.27 299 19:40 04.12.2019
3000 Clouds 14 1013 67 8000 2.6 200 19:21 04.12.2019
3001 Clouds 14 1013 67 8000 2.6 200 18:58 04.12.2019
3002 Clouds 14 1013 67 8000 2.6 200 18:58 04.12.2019
3003 Clouds 14 1013 67 8000 2.6 200 18:40 04.12.2019
3004 Clouds 14 1013 67 8000 2.6 200 18:21 04.12.2019
3005 Clouds 15 1014 72 8000 5.7 300 17:56 04.12.2019
3006 Clouds 15 1014 72 8000 5.7 300 17:37 04.12.2019
3007 Clouds 15 1014 72 8000 5.7 300 17:18 04.12.2019
3008 Clouds 16 1013 63 8000 6.2 290 16:40 04.12.2019
3009 Clouds 16 1013 63 8000 6.2 290 16:20 04.12.2019
3010 Clouds 16 1013 67 8000 4.6 310 15:57 04.12.2019
3011 Clouds 17 1013 59 8000 4.1 310 15:39 04.12.2019
3012 Clouds 17 1013 59 8000 4.1 310 15:20 04.12.2019
3013 Clouds 17 1013 55 8000 4.1 240 14:57 04.12.2019
3014 Clouds 17 1014 55 10000 4.1 220 14:39 04.12.2019
3015 Clouds 17 1014 55 10000 4.1 220 14:20 04.12.2019
3016 Clouds 16 1015 63 10000 3.6 200 13:39 04.12.2019
3017 Clouds 16 1015 63 10000 3.6 200 13:21 04.12.2019
3018 Clouds 16 1016 63 10000 3.6 270 12:59 04.12.2019
3019 Clouds 15 1016 62 10000 3.1 260 12:41 04.12.2019
3020 Clouds 15 1016 62 10000 3.1 260 12:23 04.12.2019
3021 Clouds 15 1016 67 10000 2.1 260 11:43 04.12.2019
3022 Clouds 14 1016 67 10000 2.1 290 11:24 04.12.2019
3023 Clouds 14 1016 67 10000 2.1 290 11:24 04.12.2019
3024 Clouds 13 1016 71 10000 1.5 300 10:58 04.12.2019
3025 Clouds 12 1016 71 10000 0.5 0 10:39 04.12.2019
3026 Clouds 12 1016 71 10000 0.5 0 10:21 04.12.2019
3027 Clouds 10 1016 76 10000 1 0 09:43 04.12.2019
3028 Clouds 10 1016 76 10000 1 0 09:23 04.12.2019
3029 Clouds 9 1015 81 10000 2.1 190 08:44 04.12.2019
3030 Clouds 9 1016 81 10000 1.5 220 08:44 04.12.2019
3031 Clouds 9 1015 81 10000 2.1 190 08:25 04.12.2019
3032 Clouds 9 1015 81 10000 3.1 160 07:51 04.12.2019
3033 Clouds 8 1015 87 10000 1 0 07:31 04.12.2019
3034 Clouds 7 1015 93 10000 1.5 160 06:59 04.12.2019
3035 Clouds 7 1015 93 10000 1.5 160 06:31 04.12.2019
3036 Clouds 8 1015 87 10000 1.5 20 05:46 04.12.2019
3037 Clouds 8 1015 87 10000 1 0 04:34 04.12.2019
3038 Clouds 9 1016 87 10000 3.6 180 03:47 04.12.2019
3039 Clouds 10 1016 81 10000 3.6 180 01:49 04.12.2019
3040 Clouds 11 1016 81 10000 3.1 190 00:47 04.12.2019
3041 Clouds 9 1017 87 10000 1 0 00:21 04.12.2019
3042 Clouds 9 1016 93 10000 1 0 23:43 03.12.2019
3043 Clouds 9 1016 87 10000 0.5 0 23:20 03.12.2019
3044 Clouds 10 1016 81 10000 0.5 0 22:59 03.12.2019
3045 Clouds 11 1015 81 10000 2.1 180 22:38 03.12.2019
3046 Clouds 11 1015 81 10000 2.1 180 22:18 03.12.2019
3047 Clouds 11 1015 81 10000 0.5 0 21:57 03.12.2019
3048 Clouds 11 1015 81 10000 1.5 230 21:37 03.12.2019
3049 Clouds 11 1015 81 10000 1.5 230 21:18 03.12.2019
3050 Clouds 12 1014 76 10000 2.1 220 20:42 03.12.2019
3051 Clouds 12 1014 76 10000 2.1 220 20:20 03.12.2019
3052 Clouds 12 1014 76 10000 2.1 220 20:20 03.12.2019
3053 Clouds 12 1014 81 10000 1.5 240 19:57 03.12.2019
3054 Clouds 12 1014 76 10000 2.1 260 19:38 03.12.2019
3055 Clouds 12 1014 76 10000 2.1 260 19:38 03.12.2019
3056 Clouds 12 1014 76 10000 2.1 260 19:20 03.12.2019
3057 Clouds 13 1014 71 10000 2.6 290 18:59 03.12.2019
3058 Clouds 13 1014 71 10000 2.6 290 18:59 03.12.2019
3059 Clouds 14 1013 62 10000 3.6 290 18:41 03.12.2019
3060 Clouds 14 1013 62 10000 3.6 290 18:21 03.12.2019
3061 Clouds 14 1013 67 10000 3.6 280 17:58 03.12.2019
3062 Clouds 14 1013 67 10000 3.6 280 17:58 03.12.2019
3063 Clouds 15 1012 62 10000 3.6 280 17:39 03.12.2019
3064 Clouds 15 1012 62 10000 3.6 280 17:18 03.12.2019
3065 Clouds 15 1012 62 10000 3.6 280 17:18 03.12.2019
3066 Clouds 14 1012 67 10000 3.1 300 16:58 03.12.2019
3067 Clouds 14 1012 67 10000 3.1 300 16:58 03.12.2019
3068 Clouds 14 1012 67 10000 3.1 300 16:58 03.12.2019
3069 Clouds 15 1012 62 10000 3.6 300 16:39 03.12.2019
3070 Clouds 15 1012 62 10000 3.6 300 16:20 03.12.2019
3071 Clouds 15 1012 62 10000 3.6 300 16:20 03.12.2019
3072 Clouds 15 1012 67 10000 3.6 280 15:57 03.12.2019
3073 Clouds 15 1011 62 10000 3.1 310 15:38 03.12.2019
3074 Clouds 15 1011 62 10000 3.1 310 15:19 03.12.2019
3075 Clouds 14 1011 67 10000 3.6 250 14:43 03.12.2019
3076 Clouds 14 1011 67 8000 2.1 220 14:20 03.12.2019
3077 Clouds 13 1012 76 8000 3.1 300 13:58 03.12.2019
3078 Clouds 13 1012 76 8000 2.1 260 13:37 03.12.2019
3079 Clouds 13 1012 76 8000 2.1 260 13:19 03.12.2019
3080 Clouds 13 1012 76 8000 2.6 210 12:42 03.12.2019
3081 Clouds 13 1012 76 8000 1.5 260 12:19 03.12.2019
3082 Clouds 12 1012 76 8000 2.6 250 11:59 03.12.2019
3083 Clouds 11 1012 81 8000 1.5 270 11:39 03.12.2019
3084 Clouds 11 1012 81 8000 1.5 270 11:21 03.12.2019
3085 Clouds 11 1012 87 8000 0.5 0 10:59 03.12.2019
3086 Clouds 10 1011 93 8000 0.5 0 10:41 03.12.2019
3087 Clouds 10 1011 93 8000 0.5 0 10:21 03.12.2019
3088 Rain 9 1010 93 5000 0.5 0 09:57 03.12.2019
3089 Clouds 9 1010 87 10000 2.1 280 09:38 03.12.2019
3090 Clouds 9 1010 87 10000 2.1 280 09:20 03.12.2019
3091 Clouds 10 1009 87 10000 2.6 180 08:41 03.12.2019
3092 Clouds 10 1009 87 10000 2.6 180 08:22 03.12.2019
3093 Clouds 10 1008 87 10000 2.1 190 07:57 03.12.2019
3094 Clouds 10 1008 87 8000 2.6 130 07:39 03.12.2019
3095 Clouds 10 1008 87 8000 2.6 130 07:20 03.12.2019
3096 Clouds 10 1008 87 10000 1 0 06:23 03.12.2019
3097 Clouds 9 1008 93 10000 2.1 80 05:58 03.12.2019
3098 Clouds 9 1008 87 10000 1.5 230 04:49 03.12.2019
3099 Clouds 10 1008 81 10000 3.6 230 03:39 03.12.2019
3100 Clouds 10 1008 81 10000 3.6 230 03:19 03.12.2019
3101 Clouds 10 1008 87 10000 2.1 180 02:47 03.12.2019
3102 Clouds 10 1008 87 10000 2.1 210 02:26 03.12.2019
3103 Clouds 9 1009 87 10000 1.5 250 01:42 03.12.2019
3104 Clouds 10 1009 81 10000 2.6 240 01:23 03.12.2019
3105 Clouds 10 1009 87 10000 2.6 220 00:55 03.12.2019
3106 Clouds 10 1009 81 10000 3.6 220 00:37 03.12.2019
3107 Clouds 10 1009 81 10000 3.6 220 00:18 03.12.2019
3108 Clouds 10 1009 81 10000 3.1 220 23:42 02.12.2019
3109 Clouds 10 1009 81 10000 3.1 220 23:19 02.12.2019
3110 Clouds 10 1009 87 10000 3.6 220 22:42 02.12.2019
3111 Clouds 10 1009 87 10000 4.6 210 22:22 02.12.2019
3112 Clouds 10 1009 87 10000 4.6 210 21:58 02.12.2019
3113 Clouds 10 1009 87 8000 3.6 200 21:37 02.12.2019
3114 Clouds 10 1009 87 8000 3.6 200 21:19 02.12.2019
3115 Clouds 10 1009 87 8000 4.1 210 20:56 02.12.2019
3116 Rain 9 1009 93 4000 4.1 220 20:38 02.12.2019
3117 Rain 9 1009 93 4000 4.1 220 20:19 02.12.2019
3118 Rain 10 1009 93 4000 3.1 270 19:43 02.12.2019
3119 -273 0 0 0 0 0 19:23 02.12.2019
3120 Rain 11 1009 81 8000 4.1 320 19:23 02.12.2019
3121 -273 0 0 0 0 0 19:23 02.12.2019
3122 Rain 10 1009 87 8000 3.6 260 18:59 02.12.2019
3123 Rain 10 1009 87 8000 3.6 260 18:59 02.12.2019
3124 Rain 11 1008 81 8000 5.1 300 18:41 02.12.2019
3125 Rain 11 1008 81 8000 5.1 300 18:19 02.12.2019
3126 Rain 11 1008 87 8000 4.1 300 17:58 02.12.2019
3127 Rain 11 1008 87 8000 6.7 290 17:39 02.12.2019
3128 Rain 11 1008 87 8000 6.7 290 17:19 02.12.2019
3129 Clouds 13 1008 71 10000 7.2 290 16:42 02.12.2019
3130 Clouds 16 1008 63 10000 7.7 270 16:19 02.12.2019
3131 Clouds 16 1008 63 10000 8.7 270 15:59 02.12.2019
3132 Clouds 16 1008 63 10000 7.7 250 15:40 02.12.2019
3133 Clouds 16 1008 63 10000 7.7 250 15:22 02.12.2019
3134 Clouds 16 1009 63 10000 6.7 260 14:59 02.12.2019
3135 Clouds 16 1009 63 10000 6.7 260 14:38 02.12.2019
3136 Clouds 16 1009 63 10000 6.7 260 14:20 02.12.2019
3137 Clouds 15 1010 72 10000 5.1 250 13:57 02.12.2019
3138 Clouds 15 1011 77 10000 4.6 240 13:39 02.12.2019
3139 Clouds 15 1011 77 10000 4.6 240 13:19 02.12.2019
3140 Clouds 15 1011 72 10000 4.6 240 12:56 02.12.2019
3141 Clouds 14 1012 76 10000 5.1 230 12:37 02.12.2019
3142 Clouds 14 1012 76 10000 5.1 230 12:19 02.12.2019
3143 Clouds 13 1013 87 10000 4.1 230 11:38 02.12.2019
3144 Clouds 13 1013 87 10000 4.1 230 11:38 02.12.2019
3145 Clouds 13 1013 87 10000 4.1 230 11:20 02.12.2019
3146 Clouds 12 1013 93 8000 2.1 210 10:59 02.12.2019
3147 Rain 11 1013 93 8000 3.6 240 10:41 02.12.2019
3148 Rain 11 1013 93 8000 3.6 240 10:22 02.12.2019
3149 Rain 12 1013 93 8000 4.1 230 09:57 02.12.2019
3150 Clouds 11 1013 100 8000 4.1 230 09:39 02.12.2019
3151 Clouds 11 1013 100 8000 4.1 230 09:18 02.12.2019
3152 Clouds 11 1013 100 8000 4.1 230 09:18 02.12.2019
3153 Clouds 11 1013 93 8000 3.6 240 08:55 02.12.2019
3154 Clouds 11 1013 93 8000 3.6 240 08:37 02.12.2019
3155 Clouds 11 1013 93 8000 3.6 240 08:18 02.12.2019
3156 Rain 11 1013 93 5000 3.1 260 07:40 02.12.2019
3157 Rain 11 1013 93 5000 3.1 260 07:20 02.12.2019
3158 Clouds 11 1013 93 8000 3.1 260 06:45 02.12.2019
3159 Clouds 11 1013 93 8000 3.1 260 06:27 02.12.2019
3160 Clouds 12 1013 87 8000 3.1 240 05:19 02.12.2019
3161 Clouds 12 1013 87 8000 3.1 240 05:19 02.12.2019
3162 Clouds 12 1013 87 8000 4.1 260 04:19 02.12.2019
3163 Clouds 12 1014 93 8000 2.6 250 02:51 02.12.2019
3164 Clouds 13 1015 87 6000 3.1 270 01:50 02.12.2019
3165 Clouds 13 1015 93 6000 3.6 270 01:21 02.12.2019
3166 Clouds 14 1016 87 6000 2.6 280 00:44 02.12.2019
3167 Clouds 14 1016 87 8000 2.1 270 00:23 02.12.2019
3168 Clouds 14 1016 82 8000 2.6 270 23:44 01.12.2019
3169 Clouds 15 1016 82 8000 3.1 290 23:23 01.12.2019
3170 Clouds 15 1016 82 8000 3.1 290 23:23 01.12.2019
3171 Clouds 15 1016 82 8000 3.6 260 22:58 01.12.2019
3172 Clouds 15 1017 82 8000 3.1 280 22:38 01.12.2019
3173 Clouds 15 1017 82 8000 3.1 280 22:20 01.12.2019
3174 Clouds 15 1017 82 8000 3.1 280 22:20 01.12.2019
3175 Clouds 16 1017 77 8000 3.1 300 21:58 01.12.2019
3176 Clouds 16 1017 77 8000 2.6 280 21:40 01.12.2019
3177 Clouds 16 1017 77 8000 2.6 280 21:21 01.12.2019
3178 Clouds 16 1017 77 8000 3.1 300 20:58 01.12.2019
3179 Clouds 16 1017 77 8000 4.1 310 20:40 01.12.2019
3180 Clouds 16 1017 77 8000 4.1 310 20:21 01.12.2019
3181 Clouds 19 1016 55 8000 3.1 300 19:58 01.12.2019
3182 Clouds 19 1016 55 8000 3.1 300 19:39 01.12.2019
3183 Clouds 19 1016 55 8000 3.1 300 19:39 01.12.2019
3184 Clouds 19 1016 55 8000 3.1 300 19:20 01.12.2019
3185 Clouds 19 1016 55 8000 3.1 300 18:57 01.12.2019
3186 Clouds 19 1016 55 8000 3.6 300 18:38 01.12.2019
3187 Clouds 19 1016 55 8000 3.6 300 18:19 01.12.2019
3188 Clouds 19 1017 55 8000 3.6 290 17:57 01.12.2019
3189 Clouds 20 1017 49 8000 3.1 250 17:39 01.12.2019
3190 Clouds 20 1017 49 8000 3.1 250 17:20 01.12.2019
3191 Clouds 20 1017 49 8000 3.1 250 17:20 01.12.2019
3192 Clouds 20 1017 49 8000 3.1 250 17:20 01.12.2019
3193 Clouds 20 1017 52 8000 2.6 210 16:55 01.12.2019
3194 Clouds 20 1018 52 8000 1 0 16:36 01.12.2019
3195 Clouds 20 1018 52 8000 1 0 16:18 01.12.2019
3196 Clouds 19 1018 55 8000 1.5 200 15:44 01.12.2019
3197 Clouds 19 1018 55 8000 1.5 200 15:44 01.12.2019
3198 Clouds 20 1019 52 8000 1.5 0 15:26 01.12.2019
3199 Clouds 20 1019 52 8000 1.5 0 15:26 01.12.2019
3200 Clouds 20 1019 52 8000 1.5 0 15:26 01.12.2019
3201 Clouds 20 1019 52 8000 1.5 0 15:26 01.12.2019
3202 Clouds 18 1020 59 8000 3.6 210 14:39 01.12.2019
3203 Clouds 18 1020 59 8000 3.6 210 14:19 01.12.2019
3204 Clouds 17 1020 59 8000 4.1 180 13:56 01.12.2019
3205 Clouds 16 1021 67 8000 2.6 210 13:37 01.12.2019
3206 Clouds 16 1021 67 8000 2.6 210 13:19 01.12.2019
3207 Clouds 16 1021 67 8000 2.6 210 13:19 01.12.2019
3208 Clouds 15 1021 72 8000 2.1 310 12:41 01.12.2019
3209 Clouds 14 1021 76 8000 2.1 270 11:55 01.12.2019
3210 Clouds 14 1021 76 6000 2.6 210 11:37 01.12.2019
3211 Clouds 14 1021 76 6000 2.6 210 11:37 01.12.2019
3212 Clouds 14 1021 76 6000 2.6 210 11:18 01.12.2019
3213 Clouds 14 1021 82 6000 3.1 180 10:43 01.12.2019
3214 Mist 13 1021 93 4000 1.5 250 10:20 01.12.2019
3215 Mist 13 1021 93 2600 1 0 09:42 01.12.2019
3216 Drizzle 12 1020 100 2000 1.5 290 09:24 01.12.2019
3217 Drizzle 12 1020 100 2000 1.5 290 08:58 01.12.2019
3218 Drizzle 12 1020 100 2000 1.5 280 08:38 01.12.2019
3219 Drizzle 12 1020 100 2000 1.5 280 08:19 01.12.2019
3220 Clear 11 1019 91 0 1.68 314 07:49 01.12.2019
3221 Clear 11 1019 91 0 1.68 314 07:29 01.12.2019
3222 Clear 11 1019 91 0 1.68 314 06:53 01.12.2019
3223 Fog 12 1020 100 800 2.6 250 06:19 01.12.2019
3224 Fog 12 1020 100 800 2.6 250 05:42 01.12.2019
3225 Fog 12 1021 100 800 4.1 260 04:29 01.12.2019
3226 Mist 13 1021 93 1000 3.6 240 02:46 01.12.2019
3227 Clouds 13 1021 87 6000 3.1 260 02:27 01.12.2019
3228 Clouds 12 1021 93 10000 2.6 250 01:54 01.12.2019
3229 Clouds 13 1021 87 10000 2.6 240 01:32 01.12.2019
3230 Clouds 13 1022 87 10000 2.1 260 00:50 01.12.2019
3231 Clouds 14 1022 82 10000 3.1 250 00:27 01.12.2019
3232 Clouds 14 1022 76 10000 3.6 250 23:57 30.11.2019
3233 Clouds 15 1022 72 10000 4.6 240 23:39 30.11.2019
3234 Clear 15 1022 72 10000 4.6 240 23:20 30.11.2019
3235 Clear 16 1022 67 10000 4.6 230 22:46 30.11.2019
3236 Clear 17 1022 59 10000 4.1 230 22:28 30.11.2019
3237 Clear 17 1021 55 10000 3.6 220 21:54 30.11.2019
3238 Clear 17 1021 51 10000 3.1 240 21:36 30.11.2019
3239 Clear 17 1021 51 10000 3.1 240 21:18 30.11.2019
3240 Clear 18 1021 42 10000 2.6 260 20:54 30.11.2019
3241 Clear 20 1021 37 10000 2.1 260 20:36 30.11.2019
3242 Clouds 20 1021 37 10000 2.1 260 20:18 30.11.2019
3243 Clouds 21 1021 32 10000 1 0 19:54 30.11.2019
3244 Clouds 22 1020 33 10000 1.5 290 19:36 30.11.2019
3245 Clouds 22 1020 33 10000 1.5 290 19:18 30.11.2019
3246 Clouds 25 1020 25 10000 2.6 310 18:39 30.11.2019
3247 Clouds 25 1020 25 10000 2.6 310 18:21 30.11.2019
3248 Clouds 26 1020 24 10000 2.6 300 17:59 30.11.2019
3249 Clouds 26 1020 24 10000 2.1 20 17:41 30.11.2019
3250 Clouds 26 1020 24 10000 2.1 20 17:23 30.11.2019
3251 Clouds 26 1020 26 8000 3.1 270 16:59 30.11.2019
3252 Clouds 27 1021 24 8000 1 0 16:41 30.11.2019
3253 Clouds 27 1021 24 8000 1 0 16:22 30.11.2019
3254 Clouds 27 1021 24 8000 1 0 15:54 30.11.2019
3255 Clouds 26 1021 24 8000 1 0 15:36 30.11.2019
3256 Clouds 26 1021 24 8000 1 0 15:18 30.11.2019
3257 Clouds 26 1021 24 8000 1 0 14:55 30.11.2019
3258 Clouds 26 1021 26 8000 1 0 14:36 30.11.2019
3259 Clouds 26 1021 26 8000 1 0 14:18 30.11.2019
3260 Clouds 25 1022 29 8000 0.5 0 13:45 30.11.2019
3261 Clouds 24 1023 33 8000 1.5 100 13:25 30.11.2019
3262 Clouds 20 1023 42 8000 1.5 50 12:58 30.11.2019
3263 Clouds 18 1023 48 8000 2.1 80 12:39 30.11.2019
3264 Clouds 18 1023 48 8000 2.1 80 12:21 30.11.2019
3265 Clouds 15 1024 54 8000 1.5 70 11:42 30.11.2019
3266 Clouds 15 1024 54 8000 1.5 70 11:19 30.11.2019
3267 Clouds 15 1024 54 8000 1.5 70 11:19 30.11.2019
3268 Clouds 15 1023 58 8000 1.5 70 10:55 30.11.2019
3269 Clouds 15 1023 58 8000 1.5 70 10:55 30.11.2019
3270 Clouds 15 1023 54 8000 2.1 90 10:37 30.11.2019
3271 Clouds 15 1023 54 8000 2.1 90 10:18 30.11.2019
3272 Clouds 14 1023 58 10000 2.1 80 09:45 30.11.2019
3273 Clouds 12 1023 66 10000 2.1 70 09:23 30.11.2019
3274 Clouds 11 1022 66 10000 1.5 70 08:44 30.11.2019
3275 Clouds 11 1022 66 10000 1.5 100 08:20 30.11.2019
3276 Clouds 12 1022 62 10000 1 0 07:56 30.11.2019
3277 Clouds 11 1022 66 10000 1.5 70 07:37 30.11.2019
3278 Clouds 11 1022 66 10000 2.1 90 06:56 30.11.2019
3279 Clouds 12 1022 58 10000 2.1 70 06:29 30.11.2019
3280 Clouds 13 1022 54 10000 1.5 90 05:49 30.11.2019
3281 Clouds 15 1022 47 10000 2.1 170 03:44 30.11.2019
3282 Clouds 15 1022 47 10000 0.5 0 02:39 30.11.2019
3283 Clouds 15 1022 47 10000 0.5 0 02:20 30.11.2019
3284 Clouds 17 1022 42 10000 2.1 210 01:25 30.11.2019
3285 Clouds 18 1022 42 10000 2.6 220 00:49 30.11.2019
3286 Clouds 19 1022 39 10000 3.6 220 00:30 30.11.2019
3287 Clouds 18 1022 42 10000 2.6 230 23:59 29.11.2019
3288 Clouds 17 1022 45 10000 2.1 260 23:40 29.11.2019
3289 Clouds 17 1022 45 10000 2.1 260 23:20 29.11.2019
3290 Clouds 19 1022 39 10000 3.1 230 22:42 29.11.2019
3291 Clouds 20 1022 34 10000 4.1 220 22:23 29.11.2019
3292 Clouds 20 1022 32 10000 2.6 230 21:44 29.11.2019
3293 Clouds 19 1021 34 10000 1 0 21:24 29.11.2019
3294 Clouds 20 1021 32 10000 1.5 250 20:57 29.11.2019
3295 Clouds 21 1021 30 10000 1.5 270 20:38 29.11.2019
3296 Clouds 21 1021 30 10000 1.5 270 20:19 29.11.2019
3297 Clouds 22 1021 28 10000 2.6 300 19:57 29.11.2019
3298 Clouds 23 1021 28 10000 2.1 300 19:38 29.11.2019
3299 Clouds 23 1021 28 10000 2.1 300 19:19 29.11.2019
3300 Clouds 25 1020 27 10000 2.1 310 18:55 29.11.2019
3301 Clouds 25 1020 27 10000 2.1 310 18:37 29.11.2019
3302 Clouds 25 1020 27 10000 2.1 310 18:19 29.11.2019
3303 Clouds 25 1020 27 10000 2.1 310 17:43 29.11.2019
3304 Clouds 26 1020 27 10000 0.5 0 17:23 29.11.2019
3305 Clouds 26 1020 27 10000 0.5 0 16:56 29.11.2019
3306 Clouds 26 1020 27 10000 1 0 16:37 29.11.2019
3307 Clouds 26 1020 27 10000 1 0 16:18 29.11.2019
3308 Clouds 26 1020 27 10000 1.5 0 15:40 29.11.2019
3309 Clouds 26 1020 27 10000 1.5 0 15:21 29.11.2019
3310 Clouds 26 1020 27 10000 1.5 350 14:42 29.11.2019
3311 Clouds 25 1020 29 10000 2.1 360 14:22 29.11.2019
3312 Clouds 25 1021 31 10000 1.5 30 13:59 29.11.2019
3313 Clouds 25 1021 33 10000 1.5 30 13:39 29.11.2019
3314 Clouds 25 1021 33 10000 1.5 30 13:20 29.11.2019
3315 Clouds 24 1021 36 10000 2.1 40 12:45 29.11.2019
3316 Clouds 22 1022 40 10000 1 0 12:25 29.11.2019
3317 Clouds 21 1022 46 10000 1.5 40 11:59 29.11.2019
3318 Clouds 19 1022 48 10000 1.5 70 11:41 29.11.2019
3319 Clear 19 1022 48 10000 1.5 70 11:19 29.11.2019
3320 Clear 19 1022 48 10000 1.5 70 11:19 29.11.2019
3321 Clear 17 1022 51 10000 1 0 10:59 29.11.2019
3322 Clear 17 1022 51 10000 1 0 10:59 29.11.2019
3323 Clear 16 1021 55 10000 0.5 0 10:39 29.11.2019
3324 Clear 16 1021 55 10000 0.5 0 10:21 29.11.2019
3325 Clear 11 1021 76 10000 1.5 80 09:59 29.11.2019
3326 Clear 11 1021 76 10000 1.5 80 09:40 29.11.2019
3327 Clear 11 1021 76 10000 1.5 80 09:22 29.11.2019
3328 Clear 10 1021 76 10000 2.6 70 08:58 29.11.2019
3329 Clear 9 1021 81 10000 3.1 90 08:38 29.11.2019
3330 Clouds 9 1021 81 10000 3.1 90 08:20 29.11.2019
3331 Clouds 9 1021 81 10000 3.1 90 08:20 29.11.2019
3332 Clouds 10 1020 76 10000 1.5 90 07:47 29.11.2019
3333 Clouds 10 1020 76 10000 1.5 90 07:24 29.11.2019
3334 Clouds 13 1020 41 0 0.91 134 06:58 29.11.2019
3335 Clouds 13 1020 41 0 0.91 134 06:37 29.11.2019
3336 Clouds 11 1020 71 10000 1.5 100 05:47 29.11.2019
3337 Clouds 11 1020 71 10000 1.5 100 05:23 29.11.2019
3338 Clouds 14 1020 58 10000 1.5 160 03:58 29.11.2019
3339 Clouds 14 1020 58 10000 1.5 160 03:19 29.11.2019
3340 Clouds 15 1020 54 10000 0.5 0 02:28 29.11.2019
3341 Clouds 14 1020 42 0 0.67 128 01:51 29.11.2019
3342 Clouds 15 1020 54 10000 0.5 0 01:25 29.11.2019
3343 Clouds 15 1020 54 10000 0.5 0 00:42 29.11.2019
3344 Clouds 15 1020 54 10000 0.5 0 00:20 29.11.2019
3345 Clouds 16 1020 51 10000 1 0 23:44 28.11.2019
3346 Clear 16 1020 51 10000 1 0 23:22 28.11.2019
3347 Clear 17 1019 51 10000 1.5 100 22:58 28.11.2019
3348 Clear 17 1019 51 10000 1.5 100 22:38 28.11.2019
3349 Clear 17 1019 51 10000 1.5 100 22:38 28.11.2019
3350 Clear 17 1019 51 10000 1.5 100 22:20 28.11.2019
3351 Clear 18 1019 45 10000 1 0 21:56 28.11.2019
3352 Clear 18 1019 45 10000 1 0 21:38 28.11.2019
3353 Clear 18 1019 45 10000 1 0 21:19 28.11.2019
3354 Clouds 20 1018 40 10000 2.1 240 20:54 28.11.2019
3355 Clouds 20 1018 40 10000 2.1 240 20:36 28.11.2019
3356 Clouds 20 1018 40 10000 2.1 240 20:18 28.11.2019
3357 Clouds 23 1018 33 10000 1 0 19:41 28.11.2019
3358 Clouds 23 1018 33 10000 1 0 19:22 28.11.2019
3359 Clear 25 1017 29 10000 1.5 20 18:59 28.11.2019
3360 Clear 25 1017 29 10000 1.5 20 18:39 28.11.2019
3361 Clear 25 1017 29 10000 1.5 20 18:18 28.11.2019
3362 Clear 26 1017 26 10000 1.5 300 17:59 28.11.2019
3363 Clear 26 1017 26 10000 1.5 300 17:59 28.11.2019
3364 Clear 26 1017 26 10000 1.5 300 17:41 28.11.2019
3365 Clear 26 1017 26 10000 1.5 300 17:22 28.11.2019
3366 Clear 26 1017 27 10000 2.1 340 16:57 28.11.2019
3367 Clear 26 1017 27 10000 2.1 340 16:38 28.11.2019
3368 Clear 26 1017 27 10000 2.1 340 16:18 28.11.2019
3369 Clear 25 1018 31 10000 2.1 350 15:42 28.11.2019
3370 Clear 25 1018 31 10000 2.1 350 15:20 28.11.2019
3371 Clear 25 1018 33 10000 1.5 340 14:59 28.11.2019
3372 Clear 25 1018 33 10000 1.5 340 14:41 28.11.2019
3373 Clear 25 1018 33 10000 1.5 340 14:22 28.11.2019
3374 Clear 22 1019 40 10000 2.6 360 13:57 28.11.2019
3375 Clear 22 1019 40 10000 2.6 360 13:39 28.11.2019
3376 Clear 22 1019 40 10000 2.6 360 13:21 28.11.2019
3377 Clear 24 1020 36 10000 0.5 0 12:43 28.11.2019
3378 Clear 24 1020 36 10000 0.5 0 12:24 28.11.2019
3379 Clear 20 1020 45 10000 0.5 0 11:58 28.11.2019
3380 Clear 22 1019 27 0 2.15 23 11:39 28.11.2019
3381 Clear 17 1019 39 0 1.44 56 11:20 28.11.2019
3382 Clear 14 1019 67 10000 1 0 10:56 28.11.2019
3383 Clear 14 1019 67 10000 1 0 10:38 28.11.2019
3384 Clear 14 1019 67 10000 1 0 10:18 28.11.2019
3385 Clear 10 1018 76 10000 2.6 100 09:41 28.11.2019
3386 Clear 10 1018 76 10000 2.6 100 09:22 28.11.2019
3387 Clear 10 1018 76 10000 2.6 100 08:57 28.11.2019
3388 Clear 17 1019 39 0 1.44 56 08:38 28.11.2019
3389 Clouds 10 1018 76 10000 2.6 80 08:19 28.11.2019
3390 Clouds 10 1018 76 10000 2.6 80 07:42 28.11.2019
3391 Clouds 10 1018 76 10000 2.6 80 07:23 28.11.2019
3392 Clouds 11 1018 76 10000 3.1 90 06:50 28.11.2019
3393 Clouds 11 1018 76 10000 3.1 90 06:50 28.11.2019
3394 Clouds 11 1018 76 10000 3.1 90 06:29 28.11.2019
3395 Clouds 11 1018 76 10000 2.1 80 05:51 28.11.2019
3396 Clouds 11 1018 76 10000 2.6 90 05:18 28.11.2019
3397 Clouds 13 1018 71 10000 0.5 0 02:37 28.11.2019
3398 Clouds 13 1018 71 10000 0.84 33 01:50 28.11.2019
3399 Clouds 13 1019 71 10000 1 0 00:48 28.11.2019
3400 Clouds 14 1019 67 10000 1 0 00:23 28.11.2019
3401 Clouds 15 1018 62 10000 0.5 0 23:55 27.11.2019
3402 Clouds 15 1019 62 10000 0.5 0 23:37 27.11.2019
3403 Clouds 15 1019 62 10000 0.5 0 23:19 27.11.2019
3404 Clouds 16 1018 59 10000 2.1 280 22:39 27.11.2019
3405 Clouds 16 1018 59 10000 2.1 280 22:20 27.11.2019
3406 Clouds 17 1018 55 10000 0.5 0 21:56 27.11.2019
3407 Clouds 17 1018 51 10000 2.6 270 21:38 27.11.2019
3408 Clouds 17 1018 51 10000 2.6 270 21:38 27.11.2019
3409 Clouds 17 1018 51 10000 2.6 270 21:19 27.11.2019
3410 -273 0 0 0 0 0 20:59 27.11.2019
3411 Clouds 18 1018 48 10000 2.1 260 20:39 27.11.2019
3412 Clouds 18 1018 48 10000 2.1 260 20:21 27.11.2019
3413 Clouds 19 1017 45 10000 2.1 270 19:58 27.11.2019
3414 Clouds 20 1017 40 10000 2.1 270 19:39 27.11.2019
3415 Clouds 20 1017 40 10000 2.1 270 19:21 27.11.2019
3416 Clouds 22 1017 35 10000 2.6 290 18:59 27.11.2019
3417 Clouds 24 1017 31 10000 2.6 300 18:37 27.11.2019
3418 Clouds 24 1017 31 10000 2.6 300 18:19 27.11.2019
3419 Clouds 25 1017 31 10000 2.6 300 17:57 27.11.2019
3420 Clouds 25 1017 31 10000 2.6 300 17:39 27.11.2019
3421 Clouds 25 1017 31 10000 2.6 300 17:20 27.11.2019
3422 Clouds 25 1016 31 10000 3.1 310 16:56 27.11.2019
3423 Clouds 26 1016 27 10000 2.6 330 16:38 27.11.2019
3424 Clouds 26 1016 27 10000 2.6 330 16:19 27.11.2019
3425 Clouds 25 1016 31 10000 2.1 350 15:57 27.11.2019
3426 Clouds 25 1016 31 10000 2.1 350 15:57 27.11.2019
3427 Clouds 25 1016 33 10000 2.1 340 15:38 27.11.2019
3428 Clouds 25 1016 33 10000 2.1 340 15:20 27.11.2019
3429 Clouds 24 1017 36 10000 2.1 360 14:56 27.11.2019
3430 Clouds 23 1017 40 10000 2.1 30 14:38 27.11.2019
3431 Clouds 23 1017 40 10000 2.1 30 14:20 27.11.2019
3432 Clouds 23 1018 46 10000 2.1 360 13:55 27.11.2019
3433 Clouds 22 1018 46 10000 2.6 10 13:37 27.11.2019
3434 Clouds 22 1018 46 10000 2.6 10 13:18 27.11.2019
3435 Clouds 20 1019 52 10000 2.1 70 12:41 27.11.2019
3436 Clouds 20 1019 52 10000 2.1 70 12:22 27.11.2019
3437 Clouds 20 1019 52 10000 2.1 70 12:22 27.11.2019
3438 Clouds 20 1019 52 10000 2.1 80 11:57 27.11.2019
3439 Clouds 18 1019 55 10000 2.6 90 11:37 27.11.2019
3440 Clouds 18 1019 55 10000 2.6 90 11:18 27.11.2019
3441 Clouds 13 1019 71 10000 1.5 90 10:46 27.11.2019
3442 Clouds 13 1019 71 10000 1.5 90 10:25 27.11.2019
3443 Clouds 10 1018 87 10000 2.6 90 09:58 27.11.2019
3444 Clouds 10 1018 87 10000 2.6 90 09:40 27.11.2019
3445 Clouds 10 1018 87 10000 2.6 90 09:22 27.11.2019
3446 Clouds 10 1018 87 10000 2.1 60 08:43 27.11.2019
3447 Clouds 11 1017 81 10000 1 0 08:23 27.11.2019
3448 Clouds 10 1017 87 10000 1 0 07:57 27.11.2019
3449 Clouds 10 1017 87 10000 1 0 07:39 27.11.2019
3450 Clouds 10 1017 87 10000 1 0 07:20 27.11.2019
3451 Clouds 13 1017 57 0 0.63 31 06:40 27.11.2019
3452 Clouds 11 1018 87 10000 1.5 120 06:20 27.11.2019
3453 Clouds 11 1018 87 10000 1.5 120 05:26 27.11.2019
3454 Clouds 10 1018 93 10000 1 0 04:56 27.11.2019
3455 Clouds 10 1018 93 10000 1 0 04:36 27.11.2019
3456 Clouds 13 1018 76 10000 1 0 03:48 27.11.2019
3457 Clouds 13 1018 76 10000 1 0 03:21 27.11.2019
3458 Clouds 14 1018 71 10000 1.5 180 02:48 27.11.2019
3459 Clouds 15 1018 72 0 0.07 183 01:26 27.11.2019
3460 Clouds 15 1019 72 10000 0.5 0 00:42 27.11.2019
3461 Clouds 15 1019 72 10000 0.5 0 00:23 27.11.2019
3462 Clouds 17 1019 63 10000 1 0 23:42 26.11.2019
3463 Clouds 17 1019 63 10000 1 0 23:24 26.11.2019
3464 Clouds 17 1019 63 10000 1.5 220 22:55 26.11.2019
3465 Clouds 16 1019 67 10000 1.5 220 22:37 26.11.2019
3466 Clouds 16 1019 67 10000 1.5 220 22:18 26.11.2019
3467 Clouds 17 1019 63 10000 1.5 230 21:40 26.11.2019
3468 Clouds 17 1019 63 10000 1.5 230 21:21 26.11.2019
3469 Clouds 19 1019 52 0 1.5 260 20:58 26.11.2019
3470 Clouds 19 1019 52 0 1.5 260 20:58 26.11.2019
3471 Clouds 19 1018 52 10000 1.5 240 20:39 26.11.2019
3472 Clouds 19 1018 52 10000 1.5 240 20:20 26.11.2019
3473 Clouds 19 1018 52 10000 1.5 240 19:56 26.11.2019
3474 Clouds 20 1018 49 10000 2.1 270 19:38 26.11.2019
3475 Clouds 20 1018 49 10000 2.1 270 19:20 26.11.2019
3476 Clouds 22 1018 43 10000 2.6 270 18:59 26.11.2019
3477 Clouds 23 1018 38 10000 3.1 280 18:40 26.11.2019
3478 Clouds 23 1018 38 10000 3.1 280 18:21 26.11.2019
3479 Clouds 24 1017 36 10000 3.6 290 17:59 26.11.2019
3480 Clouds 24 1017 36 10000 2.6 300 17:41 26.11.2019
3481 Clouds 24 1017 36 10000 2.6 300 17:23 26.11.2019
3482 Clouds 25 1017 36 10000 2.1 320 16:57 26.11.2019
3483 -273 0 0 0 0 0 16:38 26.11.2019
3484 Clouds 24 1017 38 10000 3.1 320 16:38 26.11.2019
3485 Clouds 24 1017 38 10000 3.1 320 16:19 26.11.2019
3486 Clouds 24 1017 38 10000 2.6 280 15:59 26.11.2019
3487 Clouds 23 1018 40 10000 3.6 290 15:38 26.11.2019
3488 Clouds 23 1018 40 10000 3.6 290 15:20 26.11.2019
3489 Clouds 23 1018 40 10000 3.6 300 14:58 26.11.2019
3490 Clouds 24 1018 41 10000 2.6 340 14:40 26.11.2019
3491 Clouds 24 1018 41 10000 2.6 340 14:22 26.11.2019
3492 Clouds 23 1018 43 10000 1.5 0 13:41 26.11.2019
3493 Clouds 23 1018 43 10000 1.5 0 13:41 26.11.2019
3494 Clouds 23 1018 43 10000 1.5 0 13:23 26.11.2019
3495 Clouds 23 1018 43 10000 1.5 0 13:23 26.11.2019
3496 Clouds 24 1018 44 10000 1 0 12:54 26.11.2019
3497 Clouds 22 1019 46 10000 1 0 12:36 26.11.2019
3498 Clouds 22 1019 46 10000 1 0 12:18 26.11.2019
3499 Clouds 17 1019 59 8000 2.1 110 11:40 26.11.2019
3500 Clouds 17 1019 59 8000 2.1 110 11:20 26.11.2019
3501 Clouds 16 1019 67 8000 1.5 90 10:59 26.11.2019
3502 Clouds 14 1019 76 10000 1 0 10:41 26.11.2019
3503 Clouds 14 1019 76 10000 1 0 10:21 26.11.2019
3504 Clouds 12 1018 81 10000 1.5 70 09:58 26.11.2019
3505 Clouds 11 1018 81 10000 2.1 80 09:40 26.11.2019
3506 Clouds 11 1018 81 10000 2.1 80 09:21 26.11.2019
3507 Clouds 10 1018 87 10000 1.5 70 08:46 26.11.2019
3508 Clouds 10 1018 87 10000 1.5 100 08:27 26.11.2019
3509 Clouds 11 1018 81 10000 1.5 160 07:57 26.11.2019
3510 Clouds 11 1018 81 10000 1 0 07:36 26.11.2019
3511 Clouds 11 1018 81 10000 1 0 07:18 26.11.2019
3512 Clouds 11 1018 87 10000 1 0 06:41 26.11.2019
3513 Clouds 10 1018 93 10000 1.5 110 05:58 26.11.2019
3514 Clouds 11 1018 87 10000 1 0 04:57 26.11.2019
3515 Clouds 13 1019 82 10000 1.5 170 03:21 26.11.2019
3516 Clear 13 1019 82 10000 0.5 0 01:36 26.11.2019
3517 Clear 13 1019 82 10000 0.5 0 01:18 26.11.2019
3518 Clear 15 1019 77 10000 1 0 00:40 26.11.2019
3519 Clear 15 1019 77 10000 0.5 0 23:59 25.11.2019
3520 Clear 16 1020 72 10000 2.1 170 23:38 25.11.2019
3521 Clear 16 1020 72 10000 2.1 170 23:19 25.11.2019
3522 Clear 16 1019 72 10000 1.5 80 22:39 25.11.2019
3523 Clear 16 1019 72 10000 1.5 80 22:19 25.11.2019
3524 Clear 17 1020 67 10000 1.5 100 21:59 25.11.2019
3525 Clear 17 1020 67 10000 1.5 100 21:59 25.11.2019
3526 Clear 17 1020 67 10000 1.5 100 21:59 25.11.2019
3527 Clear 17 1019 67 10000 1.5 70 21:41 25.11.2019
3528 Clear 17 1019 67 10000 1.5 70 21:22 25.11.2019
3529 Clear 19 1019 55 10000 1 0 20:58 25.11.2019
3530 Clear 20 1019 52 10000 1 0 20:40 25.11.2019
3531 Clear 20 1019 52 10000 1 0 20:20 25.11.2019
3532 Clear 20 1019 56 10000 2.1 330 19:57 25.11.2019
3533 Clear 20 1019 60 10000 2.1 270 19:39 25.11.2019
3534 Clear 20 1019 60 10000 2.1 270 19:20 25.11.2019
3535 Clear 21 1018 52 10000 1.5 270 18:58 25.11.2019
3536 Clear 21 1018 52 10000 1.5 270 18:58 25.11.2019
3537 Clear 23 1018 43 10000 1 0 18:40 25.11.2019
3538 Clear 23 1018 43 10000 1 0 18:22 25.11.2019
3539 Clear 24 1018 41 10000 1 0 17:58 25.11.2019
3540 Clear 24 1018 41 10000 1.5 300 17:40 25.11.2019
3541 Clear 24 1018 41 10000 1.5 300 17:22 25.11.2019
3542 Clear 24 1018 44 10000 1.5 310 16:59 25.11.2019
3543 Clear 24 1018 44 10000 1.5 310 16:59 25.11.2019
3544 Clear 24 1018 44 10000 1.5 0 16:41 25.11.2019
3545 Clear 24 1018 44 10000 1.5 0 16:22 25.11.2019
3546 Clear 23 1018 46 10000 2.1 330 15:56 25.11.2019
3547 Clear 23 1018 49 10000 2.1 360 15:37 25.11.2019
3548 Clear 23 1018 49 10000 2.1 360 15:19 25.11.2019
3549 Clear 22 1018 49 10000 2.1 360 14:44 25.11.2019
3550 Clear 22 1019 49 10000 1.5 340 14:26 25.11.2019
3551 Clear 22 1019 53 10000 1 0 13:58 25.11.2019
3552 Clear 21 1019 56 10000 1 0 13:38 25.11.2019
3553 Clear 21 1019 56 10000 1 0 13:38 25.11.2019
3554 Clear 21 1019 56 10000 1 0 13:20 25.11.2019
3555 Clear 21 1019 56 10000 1 0 13:20 25.11.2019
3556 Clear 20 1019 60 10000 1.5 70 12:59 25.11.2019
3557 Clear 19 1020 63 10000 2.1 50 12:39 25.11.2019
3558 Clear 19 1020 63 10000 2.1 50 12:19 25.11.2019
3559 Clear 17 1020 72 10000 1.5 80 11:40 25.11.2019
3560 Clouds 17 1020 72 10000 1.5 80 11:21 25.11.2019
3561 Clouds 17 1020 72 10000 1.5 80 11:21 25.11.2019
3562 Clouds 16 1020 77 8000 1 0 10:59 25.11.2019
3563 Clouds 14 1020 82 8000 1 0 10:41 25.11.2019
3564 Clouds 14 1020 82 8000 1 0 10:20 25.11.2019
3565 Clouds 10 1020 93 8000 1.5 80 09:44 25.11.2019
3566 Clouds 10 1020 93 8000 1.5 80 09:26 25.11.2019
3567 Clouds 10 1020 93 8000 1.5 80 09:26 25.11.2019
3568 Clouds 9 1019 93 8000 1.5 90 08:58 25.11.2019
3569 Clouds 9 1019 93 8000 2.1 80 08:39 25.11.2019
3570 Clouds 9 1019 93 8000 2.1 80 08:20 25.11.2019
3571 Clouds 10 1019 93 8000 1 0 07:41 25.11.2019
3572 Clouds 10 1019 93 8000 1 0 07:18 25.11.2019
3573 Clouds 10 1018 93 8000 2.1 120 06:43 25.11.2019
3574 Clouds 10 1018 93 8000 2.1 120 06:19 25.11.2019
3575 Clouds 10 1019 93 8000 1.5 70 05:37 25.11.2019
3576 Clouds 10 1018 93 8000 2.1 50 04:50 25.11.2019
3577 Clouds 12 1019 87 8000 2.6 110 02:48 25.11.2019
3578 Clouds 13 1019 87 8000 1.5 30 01:57 25.11.2019
3579 Clouds 12 1019 87 8000 2.1 70 01:38 25.11.2019
3580 Clear 12 1019 87 8000 2.1 70 01:19 25.11.2019
3581 Clear 13 1019 87 8000 2.6 110 00:21 25.11.2019
3582 Clouds 14 1019 82 10000 3.1 110 23:46 24.11.2019
3583 Clouds 14 1019 82 10000 2.6 90 23:21 24.11.2019
3584 Clouds 14 1019 82 10000 2.1 90 22:59 24.11.2019
3585 Clouds 15 1019 77 10000 2.1 80 22:40 24.11.2019
3586 Clouds 15 1019 77 10000 2.1 80 22:20 24.11.2019
3587 Clouds 16 1019 72 10000 2.6 60 21:58 24.11.2019
3588 Clouds 16 1018 72 10000 2.1 60 21:40 24.11.2019
3589 Clouds 16 1018 72 10000 2.1 60 21:21 24.11.2019
3590 Clouds 16 1018 72 10000 2.1 60 20:58 24.11.2019
3591 Clear 16 1018 72 10000 2.1 50 20:38 24.11.2019
3592 Clear 16 1018 72 10000 2.1 50 20:19 24.11.2019
3593 Clear 17 1018 72 10000 2.1 80 19:56 24.11.2019
3594 Clear 18 1018 63 10000 2.1 70 19:38 24.11.2019
3595 Clear 18 1018 63 10000 2.1 70 19:20 24.11.2019
3596 Clear 19 1018 59 10000 2.6 50 18:58 24.11.2019
3597 Clouds 20 1018 56 10000 3.1 70 18:37 24.11.2019
3598 Clouds 20 1018 56 10000 3.1 70 18:19 24.11.2019
3599 Clouds 20 1017 56 10000 2.6 90 17:56 24.11.2019
3600 Clouds 20 1017 56 10000 2.6 90 17:37 24.11.2019
3601 Clouds 20 1017 56 10000 2.6 90 17:19 24.11.2019
3602 Clouds 20 1017 56 10000 2.6 80 16:57 24.11.2019
3603 Clouds 20 1017 56 10000 2.6 100 16:38 24.11.2019
3604 -273 0 0 0 0 0 16:19 24.11.2019
3605 Clouds 21 1017 56 10000 3.1 70 15:43 24.11.2019
3606 Clouds 20 1017 56 10000 3.6 50 15:25 24.11.2019
3607 Clouds 20 1017 60 10000 3.1 40 14:58 24.11.2019
3608 Clouds 20 1017 60 10000 3.1 40 14:58 24.11.2019
3609 Clouds 20 1018 60 10000 3.6 40 14:38 24.11.2019
3610 Clouds 20 1018 60 10000 3.6 40 14:18 24.11.2019
3611 Clouds 19 1018 63 10000 3.1 60 13:54 24.11.2019
3612 Clouds 19 1018 63 10000 3.1 60 13:36 24.11.2019
3613 Clouds 19 1018 63 10000 3.1 60 13:18 24.11.2019
3614 Clouds 17 1019 72 10000 4.1 60 12:42 24.11.2019
3615 Clouds 17 1019 72 10000 4.1 60 12:19 24.11.2019
3616 Clouds 17 1019 67 10000 3.6 70 11:57 24.11.2019
3617 Clouds 16 1019 77 10000 3.1 70 11:37 24.11.2019
3618 Clouds 16 1019 77 10000 3.1 70 11:37 24.11.2019
3619 Clouds 16 1019 77 10000 3.1 70 11:18 24.11.2019
3620 Clouds 15 1019 77 10000 3.6 80 10:47 24.11.2019
3621 Clouds 15 1019 77 10000 3.6 80 10:29 24.11.2019
3622 Clouds 14 1019 82 10000 2.6 90 09:58 24.11.2019
3623 Clouds 13 1019 87 10000 2.1 70 09:37 24.11.2019
3624 Clouds 13 1019 87 10000 2.1 70 09:19 24.11.2019
3625 Clouds 13 1019 87 10000 2.1 100 08:45 24.11.2019
3626 Clouds 14 1018 82 10000 2.6 60 08:22 24.11.2019
3627 Clouds 14 1018 82 10000 2.1 70 07:58 24.11.2019
3628 Clouds 14 1018 82 10000 2.1 90 07:38 24.11.2019
3629 Clouds 14 1018 82 10000 2.1 90 07:19 24.11.2019
3630 Clouds 14 1017 82 10000 3.1 80 06:20 24.11.2019
3631 Clouds 14 1017 82 10000 3.1 80 06:20 24.11.2019
3632 Clouds 14 1017 82 10000 3.1 80 06:20 24.11.2019
3633 Clouds 14 1017 82 10000 3.1 80 06:20 24.11.2019
3634 Clouds 14 1017 82 10000 2.6 60 04:49 24.11.2019
3635 Clouds 14 1017 87 10000 2.6 70 03:38 24.11.2019
3636 Clouds 15 1018 87 10000 2.6 60 02:26 24.11.2019
3637 Clouds 15 1018 87 10000 2.6 20 01:41 24.11.2019
3638 Clouds 15 1018 87 10000 2.6 20 01:22 24.11.2019
3639 Clouds 15 1018 87 10000 3.1 20 00:47 24.11.2019
3640 Clouds 16 1018 82 10000 2.1 10 00:24 24.11.2019
3641 Clouds 16 1018 87 10000 1.5 110 23:46 23.11.2019
3642 Clouds 16 1018 87 10000 2.6 120 23:24 23.11.2019
3643 Clouds 16 1018 87 10000 1.5 90 22:59 23.11.2019
3644 Clouds 16 1018 87 10000 2.6 50 22:40 23.11.2019
3645 Clouds 16 1018 87 10000 2.6 50 22:22 23.11.2019
3646 Clouds 16 1018 87 10000 2.6 60 21:59 23.11.2019
3647 Clouds 16 1018 87 10000 2.1 30 21:41 23.11.2019
3648 Clouds 16 1018 87 10000 2.1 30 21:22 23.11.2019
3649 Clouds 16 1018 87 10000 2.1 30 21:22 23.11.2019
3650 Clouds 17 1017 82 10000 2.1 30 20:58 23.11.2019
3651 Clouds 17 1017 82 8000 1 0 20:37 23.11.2019
3652 Clouds 17 1017 82 8000 1 0 20:37 23.11.2019
3653 Clouds 17 1017 82 8000 1 0 20:18 23.11.2019
3654 Clouds 17 1017 82 8000 1 0 20:18 23.11.2019
3655 Clouds 17 1017 82 8000 1 0 19:55 23.11.2019
3656 Clouds 17 1016 82 8000 1.5 30 19:36 23.11.2019
3657 Clouds 17 1016 82 8000 1.5 30 19:18 23.11.2019
3658 Clouds 17 1016 82 8000 2.1 360 18:40 23.11.2019
3659 Clouds 17 1016 82 8000 2.1 360 18:21 23.11.2019
3660 Clouds 17 1016 88 8000 3.6 360 17:55 23.11.2019
3661 Clouds 17 1015 88 7000 2.6 330 17:37 23.11.2019
3662 Clouds 17 1015 88 7000 2.6 330 17:19 23.11.2019
3663 Clouds 17 1015 88 7000 2.6 330 17:19 23.11.2019
3664 Clouds 17 1015 88 7000 2.1 350 16:56 23.11.2019
3665 Clouds 17 1015 93 6000 2.1 360 16:37 23.11.2019
3666 Clouds 17 1015 93 6000 2.1 360 16:18 23.11.2019
3667 Rain 17 1015 88 6000 3.1 350 15:56 23.11.2019
3668 Rain 16 1015 93 5000 3.1 10 15:38 23.11.2019
3669 Rain 16 1015 93 5000 3.1 10 15:18 23.11.2019
3670 Clouds 17 1016 93 5000 3.1 270 14:43 23.11.2019
3671 Rain 18 1016 93 6000 2.6 260 14:21 23.11.2019
3672 Rain 17 1016 93 5000 2.6 240 13:59 23.11.2019
3673 Rain 17 1016 93 3000 3.1 260 13:40 23.11.2019
3674 Rain 17 1016 93 3000 3.1 260 13:19 23.11.2019
3675 Rain 16 1017 93 4000 2.6 260 12:44 23.11.2019
3676 Rain 17 1017 88 7000 2.6 270 12:24 23.11.2019
3677 Clouds 18 1017 82 10000 2.6 230 11:56 23.11.2019
3678 Clouds 17 1017 88 10000 3.6 200 11:38 23.11.2019
3679 Clouds 17 1017 88 10000 3.6 200 11:18 23.11.2019
3680 Rain 15 1016 87 6000 2.6 210 10:43 23.11.2019
3681 Rain 15 1016 87 6000 2.6 210 10:20 23.11.2019
3682 Clouds 16 1016 77 10000 2.6 270 09:41 23.11.2019
3683 Clouds 16 1016 77 10000 2.6 270 09:19 23.11.2019
3684 Clouds 16 1015 77 10000 3.1 230 08:41 23.11.2019
3685 Clouds 16 1015 77 10000 3.1 230 08:19 23.11.2019
3686 Clouds 17 1015 72 10000 3.1 210 07:44 23.11.2019
3687 Clouds 17 1015 72 10000 3.1 210 07:26 23.11.2019
3688 Clouds 16 1015 77 10000 3.6 210 06:42 23.11.2019
3689 Clouds 16 1015 77 10000 3.6 210 06:19 23.11.2019
3690 Clouds 16 1015 77 10000 3.6 210 05:45 23.11.2019
3691 Clouds 16 1015 77 10000 3.6 210 05:27 23.11.2019
3692 Clouds 16 1015 77 10000 4.1 200 04:44 23.11.2019
3693 Clouds 16 1016 77 10000 4.1 200 04:26 23.11.2019
3694 Clouds 16 1016 77 10000 2.6 220 02:39 23.11.2019
3695 Clouds 16 1016 77 10000 3.6 220 01:42 23.11.2019
3696 Clouds 15 1016 82 0 3.1 220 00:57 23.11.2019
3697 Clouds 15 1016 82 0 3.1 220 00:38 23.11.2019
3698 Clouds 15 1016 82 0 3.1 220 00:18 23.11.2019
3699 Clouds 15 1016 82 0 3.1 220 00:18 23.11.2019
3700 Clouds 16 1016 77 0 3.6 240 23:39 22.11.2019
3701 Clouds 16 1016 77 0 3.6 240 23:20 22.11.2019
3702 Clouds 16 1016 82 0 3.1 210 22:57 22.11.2019
3703 Clouds 16 1016 82 0 3.1 230 22:38 22.11.2019
3704 Clouds 16 1016 82 0 3.1 230 22:20 22.11.2019
3705 Clouds 16 1016 82 0 3.6 230 21:57 22.11.2019
3706 Clouds 16 1016 82 0 3.1 230 21:38 22.11.2019
3707 Clouds 16 1016 82 0 3.1 230 21:19 22.11.2019
3708 Clouds 16 1016 82 0 3.6 250 20:42 22.11.2019
3709 Clouds 17 1016 82 0 4.1 250 20:22 22.11.2019
3710 Clouds 17 1015 82 0 3.1 270 19:55 22.11.2019
3711 Clouds 18 1015 77 10000 4.6 290 19:37 22.11.2019
3712 Clouds 18 1015 77 10000 4.6 290 19:18 22.11.2019
3713 Clouds 19 1014 72 10000 4.6 290 18:39 22.11.2019
3714 Clouds 19 1014 72 10000 4.6 290 18:21 22.11.2019
3715 Clouds 19 1014 72 10000 4.6 290 18:21 22.11.2019
3716 Clouds 20 1014 68 10000 5.7 290 17:55 22.11.2019
3717 Clouds 20 1013 68 10000 6.2 290 17:37 22.11.2019
3718 Clouds 20 1013 68 10000 6.2 290 17:19 22.11.2019
3719 Clouds 20 1013 72 10000 5.1 290 16:40 22.11.2019
3720 Clouds 20 1013 72 10000 5.1 290 16:22 22.11.2019
3721 Clouds 21 1013 68 10000 5.1 300 15:41 22.11.2019
3722 Clouds 21 1013 68 10000 5.1 300 15:23 22.11.2019
3723 Clouds 21 1013 68 10000 4.6 270 14:56 22.11.2019
3724 Clouds 20 1014 72 10000 6.2 260 14:37 22.11.2019
3725 Clouds 20 1014 72 10000 6.2 260 14:37 22.11.2019
3726 Clouds 20 1014 72 10000 6.2 260 14:19 22.11.2019
3727 Clouds 20 1014 72 10000 6.2 270 13:55 22.11.2019
3728 Clouds 20 1015 72 10000 4.6 290 13:36 22.11.2019
3729 Clouds 20 1015 72 10000 4.6 290 13:18 22.11.2019
3730 Clouds 20 1015 72 10000 4.6 290 13:18 22.11.2019
3731 Clouds 19 1016 72 10000 5.1 280 12:40 22.11.2019
3732 Clouds 19 1016 72 10000 5.1 280 12:20 22.11.2019
3733 Clouds 18 1016 77 10000 3.1 280 11:59 22.11.2019
3734 Clouds 18 1015 72 10000 3.1 260 11:38 22.11.2019
3735 Clouds 18 1015 72 10000 3.1 260 11:20 22.11.2019
3736 Clouds 17 1014 77 10000 3.1 190 10:58 22.11.2019
3737 Clouds 17 1014 77 10000 3.1 190 10:39 22.11.2019
3738 Clouds 17 1014 77 10000 3.1 190 10:21 22.11.2019
3739 Clouds 14 1014 93 10000 0.5 0 09:55 22.11.2019
3740 Clouds 14 1014 93 10000 0.5 0 09:37 22.11.2019
3741 Clouds 14 1014 93 10000 0.5 0 09:18 22.11.2019
3742 Clouds 12 1013 93 10000 1 0 08:44 22.11.2019
3743 Clouds 12 1013 93 10000 1 0 08:24 22.11.2019
3744 Clouds 12 1012 93 10000 1 0 07:44 22.11.2019
3745 Clouds 12 1012 93 10000 1 0 07:22 22.11.2019
3746 Clouds 11 1012 100 10000 1.5 70 06:49 22.11.2019
3747 Clouds 12 1012 93 10000 2.6 90 06:29 22.11.2019
3748 Clouds 12 1012 100 10000 2.1 90 05:45 22.11.2019
3749 Clouds 12 1013 100 10000 1.5 80 04:19 22.11.2019
3750 Clouds 13 1014 93 10000 1 0 02:52 22.11.2019
3751 Clouds 13 1014 93 10000 1.5 80 02:29 22.11.2019
3752 Clouds 13 1014 93 10000 1.5 100 01:45 22.11.2019
3753 Clouds 13 1014 100 10000 2.1 100 01:19 22.11.2019
3754 Clouds 14 1014 93 10000 2.6 120 00:50 22.11.2019
3755 Clouds 14 1014 93 10000 1.5 90 00:23 22.11.2019
3756 Clouds 14 1014 93 10000 1 0 23:46 21.11.2019
3757 Clouds 14 1014 93 10000 3.6 130 23:28 21.11.2019
3758 Clouds 14 1014 93 10000 1.5 90 22:58 21.11.2019
3759 Clouds 14 1014 93 10000 2.1 40 22:39 21.11.2019
3760 Clouds 14 1014 93 10000 2.1 40 22:39 21.11.2019
3761 Clouds 14 1014 93 10000 2.1 40 22:21 21.11.2019
3762 Clouds 14 1014 93 10000 3.1 30 21:56 21.11.2019
3763 Clouds 15 1014 93 10000 3.6 40 21:37 21.11.2019
3764 Clouds 15 1014 93 10000 3.6 40 21:19 21.11.2019
3765 Clouds 15 1013 93 10000 3.1 180 20:58 21.11.2019
3766 Rain 15 1013 93 6000 3.6 170 20:38 21.11.2019
3767 Rain 15 1013 93 6000 3.6 170 20:19 21.11.2019
3768 Rain 15 1014 93 5000 3.6 190 19:59 21.11.2019
3769 Rain 15 1014 93 5000 3.6 190 19:59 21.11.2019
3770 Rain 14 1014 93 5000 2.6 0 19:40 21.11.2019
3771 Rain 14 1014 93 5000 2.6 0 19:21 21.11.2019
3772 Rain 14 1014 93 5000 3.1 270 18:56 21.11.2019
3773 Rain 15 1014 87 3000 4.1 300 18:37 21.11.2019
3774 Rain 15 1014 87 3000 4.1 300 18:18 21.11.2019
3775 Rain 15 1014 87 4000 3.1 290 17:57 21.11.2019
3776 Clouds 16 1013 82 8000 2.6 300 17:38 21.11.2019
3777 Clouds 16 1013 82 8000 2.6 300 17:19 21.11.2019
3778 Clouds 18 1013 68 6000 3.6 320 16:41 21.11.2019
3779 Clouds 18 1013 68 6000 3.6 320 16:21 21.11.2019
3780 Clouds 18 1013 68 6000 3.1 330 15:57 21.11.2019
3781 Clouds 18 1013 68 6000 2.1 280 15:38 21.11.2019
3782 Clouds 18 1013 68 6000 2.1 280 15:19 21.11.2019
3783 Clouds 19 1014 59 8000 2.6 300 14:55 21.11.2019
3784 Clouds 19 1014 59 8000 2.6 340 14:36 21.11.2019
3785 Clouds 19 1014 59 8000 2.6 340 14:18 21.11.2019
3786 Clouds 19 1014 55 6000 3.1 340 13:39 21.11.2019
3787 Clouds 19 1014 55 6000 3.1 340 13:19 21.11.2019
3788 Clouds 20 1014 52 6000 2.6 360 12:56 21.11.2019
3789 Clouds 19 1014 55 6000 1.5 20 12:37 21.11.2019
3790 Clouds 19 1014 55 6000 1.5 20 12:19 21.11.2019
3791 Clouds 17 1014 63 8000 0.5 0 11:41 21.11.2019
3792 Clouds 17 1014 63 8000 0.5 0 11:21 21.11.2019
3793 Clouds 17 1015 63 8000 1 0 10:59 21.11.2019
3794 Clouds 17 1015 59 8000 0.5 0 10:41 21.11.2019
3795 Clouds 17 1015 59 8000 0.5 0 10:20 21.11.2019
3796 Clouds 15 1015 67 8000 1 0 09:56 21.11.2019
3797 Clouds 14 1015 71 8000 1.5 100 09:37 21.11.2019
3798 Clouds 14 1015 71 8000 1.5 100 09:19 21.11.2019
3799 Clouds 13 1014 71 8000 1 0 08:41 21.11.2019
3800 Clouds 13 1014 71 8000 1 0 08:20 21.11.2019
3801 Clouds 13 1014 71 8000 1.5 140 07:42 21.11.2019
3802 Clouds 13 1014 71 8000 1.5 140 07:18 21.11.2019
3803 Clouds 12 1014 76 8000 1.5 80 06:57 21.11.2019
3804 Clouds 12 1014 76 8000 1.5 90 06:33 21.11.2019
3805 Clouds 11 1014 81 8000 1 0 05:36 21.11.2019
3806 Clouds 13 1015 76 8000 1.5 170 03:34 21.11.2019
3807 Clouds 14 1015 76 8000 0.5 0 02:42 21.11.2019
3808 Clouds 14 1016 76 8000 0.5 0 01:55 21.11.2019
3809 Clouds 14 1016 76 8000 0.5 0 01:55 21.11.2019
3810 Clouds 14 1016 76 8000 0.5 0 01:37 21.11.2019
3811 Clouds 15 1016 72 8000 1.5 90 00:55 21.11.2019
3812 Clouds 15 1016 72 8000 1.5 90 00:55 21.11.2019
3813 Clouds 15 1016 77 8000 0.5 0 00:21 21.11.2019
3814 Clouds 15 1016 77 8000 2.1 180 23:59 20.11.2019
3815 Clouds 15 1016 77 8000 2.6 170 23:40 20.11.2019
3816 Clouds 15 1016 77 8000 2.6 170 23:20 20.11.2019
3817 Clouds 16 1016 72 8000 2.6 180 22:55 20.11.2019
3818 Clouds 16 1017 72 8000 2.1 200 22:37 20.11.2019
3819 Clouds 16 1017 72 8000 2.1 200 22:18 20.11.2019
3820 Clouds 16 1016 72 8000 4.1 270 21:55 20.11.2019
3821 Clouds 16 1016 72 8000 4.1 280 21:37 20.11.2019
3822 Clouds 16 1016 72 8000 4.1 280 21:18 20.11.2019
3823 Clouds 17 1016 63 8000 5.1 280 20:54 20.11.2019
3824 Clouds 17 1016 59 8000 4.1 280 20:36 20.11.2019
3825 Clouds 17 1016 59 8000 4.1 280 20:18 20.11.2019
3826 Clouds 17 1015 55 8000 2.1 260 19:54 20.11.2019
3827 Clouds 18 1015 52 8000 3.1 260 19:36 20.11.2019
3828 Clouds 18 1015 52 8000 3.1 260 19:18 20.11.2019
3829 Clouds 19 1015 48 8000 4.6 270 18:55 20.11.2019
3830 Clouds 19 1015 48 8000 5.7 280 18:36 20.11.2019
3831 Clouds 19 1015 48 8000 5.7 280 18:18 20.11.2019
3832 Clouds 20 1014 42 8000 5.1 290 17:55 20.11.2019
3833 Clouds 20 1014 45 8000 5.7 290 17:36 20.11.2019
3834 Clouds 20 1014 45 8000 5.7 290 17:18 20.11.2019
3835 Clouds 21 1014 37 8000 4.6 280 16:41 20.11.2019
3836 Clouds 21 1014 37 8000 4.6 280 16:20 20.11.2019
3837 Clouds 20 1014 40 8000 5.7 270 15:57 20.11.2019
3838 Clouds 20 1014 40 8000 5.7 270 15:57 20.11.2019
3839 Clouds 20 1014 40 8000 4.1 270 15:39 20.11.2019
3840 Clouds 20 1014 40 8000 4.1 270 15:19 20.11.2019
3841 Clouds 20 1015 40 8000 5.1 280 14:56 20.11.2019
3842 Clouds 20 1015 40 8000 4.6 270 14:38 20.11.2019
3843 Clouds 20 1015 40 8000 4.6 270 14:18 20.11.2019
3844 Clouds 19 1015 42 8000 3.6 260 13:55 20.11.2019
3845 Clouds 19 1016 42 8000 3.6 250 13:36 20.11.2019
3846 Clouds 19 1016 42 8000 3.6 250 13:18 20.11.2019
3847 Clouds 17 1016 48 8000 3.6 270 12:40 20.11.2019
3848 Clouds 17 1016 48 8000 3.6 270 12:22 20.11.2019
3849 Clouds 16 1017 51 8000 2.6 270 11:47 20.11.2019
3850 Clouds 16 1017 51 8000 2.1 270 11:23 20.11.2019
3851 Clouds 13 1016 62 8000 1.5 220 10:59 20.11.2019
3852 Clouds 13 1016 62 8000 1.5 220 10:39 20.11.2019
3853 Clouds 13 1016 62 8000 1.5 220 10:20 20.11.2019
3854 Clouds 11 1016 66 8000 0.5 0 09:59 20.11.2019
3855 Clouds 11 1016 66 8000 0.5 0 09:41 20.11.2019
3856 Clouds 11 1016 66 8000 0.5 0 09:20 20.11.2019
3857 Clouds 9 1016 70 8000 0.5 0 08:46 20.11.2019
3858 Clouds 9 1016 70 8000 0.5 0 08:28 20.11.2019
3859 Clouds 8 1016 70 8000 1 0 07:56 20.11.2019
3860 Clouds 9 1016 70 8000 1 0 07:36 20.11.2019
3861 Clouds 9 1016 70 8000 1 0 07:18 20.11.2019
3862 Clouds 10 1016 66 8000 1 0 06:43 20.11.2019
3863 Clouds 11 1016 62 8000 2.1 190 06:18 20.11.2019
3864 Clouds 12 1016 58 8000 2.6 160 04:43 20.11.2019
3865 Clouds 12 1016 62 8000 1.5 260 02:29 20.11.2019
3866 Clouds 13 1016 58 8000 1 0 01:38 20.11.2019
3867 Clouds 13 1016 58 8000 1.5 50 00:50 20.11.2019
3868 Clouds 13 1016 58 8000 2.1 80 00:21 20.11.2019
3869 Clouds 14 1016 54 8000 2.1 90 23:41 19.11.2019
3870 Clouds 14 1016 54 8000 2.1 90 23:41 19.11.2019
3871 Clouds 14 1016 54 8000 2.1 90 23:22 19.11.2019
3872 Clouds 14 1016 54 8000 2.1 90 22:56 19.11.2019
3873 Clouds 14 1016 54 8000 2.1 50 22:37 19.11.2019
3874 Clouds 14 1016 54 8000 2.1 50 22:18 19.11.2019
3875 Clouds 14 1016 54 8000 2.6 30 21:54 19.11.2019
3876 Clouds 14 1016 50 8000 2.1 50 21:36 19.11.2019
3877 Clouds 14 1016 50 8000 2.1 50 21:18 19.11.2019
3878 Clouds 15 1016 51 8000 3.1 10 20:54 19.11.2019
3879 Clouds 16 1016 48 8000 3.6 360 20:36 19.11.2019
3880 Clouds 16 1016 48 8000 3.6 360 20:18 19.11.2019
3881 Clouds 17 1015 51 8000 2.1 300 19:41 19.11.2019
3882 Clouds 17 1015 51 8000 2.1 300 19:20 19.11.2019
3883 Clouds 17 1015 51 8000 2.1 300 19:20 19.11.2019
3884 Clouds 17 1015 51 8000 1 0 18:58 19.11.2019
3885 Clouds 17 1015 51 8000 1 0 18:58 19.11.2019
3886 Clouds 17 1015 51 8000 1.5 340 18:39 19.11.2019
3887 Clouds 17 1015 51 8000 1.5 340 18:20 19.11.2019
3888 Clouds 18 1015 48 8000 1.5 350 17:57 19.11.2019
3889 Clouds 18 1015 48 8000 1 0 17:39 19.11.2019
3890 Clouds 18 1015 48 8000 1 0 17:20 19.11.2019
3891 Clouds 18 1015 48 8000 2.1 80 16:59 19.11.2019
3892 Clouds 18 1016 52 8000 1.5 0 16:39 19.11.2019
3893 Clouds 18 1016 52 8000 1.5 0 16:19 19.11.2019
3894 Clouds 18 1016 52 8000 1.5 200 15:45 19.11.2019
3895 Clouds 20 1016 45 8000 1 0 15:26 19.11.2019
3896 Clouds 20 1017 49 8000 1.5 0 14:57 19.11.2019
3897 Clouds 17 1017 55 8000 1.5 0 14:39 19.11.2019
3898 Clouds 17 1017 55 8000 1.5 0 14:20 19.11.2019
3899 Clouds 17 1017 59 8000 1.5 0 13:42 19.11.2019
3900 Clouds 17 1017 55 8000 2.1 10 13:42 19.11.2019
3901 Clouds 17 1017 59 8000 1.5 0 13:20 19.11.2019
3902 Clouds 16 1018 63 8000 3.1 30 12:42 19.11.2019
3903 Clouds 15 1018 67 8000 3.1 30 12:23 19.11.2019
3904 Clouds 15 1018 72 10000 2.6 30 11:59 19.11.2019
3905 Clouds 15 1018 72 10000 2.1 90 11:39 19.11.2019
3906 Clouds 15 1018 72 10000 2.1 90 11:20 19.11.2019
3907 Clouds 14 1019 76 10000 1 0 10:58 19.11.2019
3908 Clouds 14 1018 71 10000 1 0 10:40 19.11.2019
3909 Clouds 14 1018 71 10000 1 0 10:20 19.11.2019
3910 Clouds 14 1018 71 10000 1 0 10:20 19.11.2019
3911 Clouds 13 1018 71 10000 1 0 09:42 19.11.2019
3912 Clouds 12 1018 76 10000 2.1 100 09:21 19.11.2019
3913 Clouds 13 1018 71 10000 2.1 110 08:56 19.11.2019
3914 Clouds 13 1018 76 10000 1 0 08:38 19.11.2019
3915 Clouds 13 1018 76 10000 1 0 08:20 19.11.2019
3916 Clouds 13 1018 71 10000 1 0 07:42 19.11.2019
3917 Clouds 13 1017 76 10000 1 0 07:23 19.11.2019
3918 Clouds 13 1017 82 8000 0.5 0 06:54 19.11.2019
3919 Clouds 13 1017 76 8000 0.5 0 06:35 19.11.2019
3920 Clouds 13 1018 82 8000 1.5 220 05:49 19.11.2019
3921 Clouds 11 1018 76 8000 0.5 0 04:46 19.11.2019
3922 Clouds 12 1018 76 10000 1.5 180 03:35 19.11.2019
3923 Clouds 11 1018 87 10000 1 0 02:59 19.11.2019
3924 Clouds 12 1019 81 10000 1.5 240 02:33 19.11.2019
3925 Clouds 12 1019 81 10000 1.5 240 01:46 19.11.2019
3926 Clouds 13 1019 76 10000 2.1 240 00:37 19.11.2019
3927 Clouds 13 1019 76 10000 2.1 240 00:19 19.11.2019
3928 Clouds 15 1019 62 10000 1.5 220 23:37 18.11.2019
3929 Clouds 15 1019 62 10000 1.5 220 23:19 18.11.2019
3930 Clouds 15 1019 62 10000 2.1 250 22:46 18.11.2019
3931 Clouds 15 1019 62 10000 2.1 250 22:24 18.11.2019
3932 Clouds 16 1019 59 10000 2.6 290 21:57 18.11.2019
3933 Clouds 16 1019 59 10000 2.1 270 21:39 18.11.2019
3934 Clouds 16 1019 59 10000 2.1 270 21:20 18.11.2019
3935 Clouds 17 1019 55 10000 2.1 250 20:57 18.11.2019
3936 Clouds 17 1019 51 10000 2.1 240 20:39 18.11.2019
3937 Clouds 17 1019 51 10000 2.1 240 20:18 18.11.2019
3938 Clear 17 1019 51 0 2.1 240 19:56 18.11.2019
3939 Clouds 17 1018 51 10000 2.1 260 19:37 18.11.2019
3940 Clouds 17 1018 51 10000 2.1 260 19:19 18.11.2019
3941 Clouds 19 1018 45 10000 2.1 280 18:55 18.11.2019
3942 Clouds 19 1018 45 10000 2.1 280 18:37 18.11.2019
3943 Clouds 19 1018 45 10000 2.1 280 18:19 18.11.2019
3944 -273 0 0 0 0 0 17:40 18.11.2019
3945 Clouds 20 1018 40 10000 1.5 320 17:21 18.11.2019
3946 Clouds 21 1019 32 10000 2.1 0 16:58 18.11.2019
3947 Clouds 21 1019 32 10000 2.1 0 16:40 18.11.2019
3948 Clouds 21 1019 32 10000 2.1 0 16:22 18.11.2019
3949 Clouds 21 1019 26 10000 2.6 320 15:56 18.11.2019
3950 Clouds 20 1019 24 10000 3.1 330 15:38 18.11.2019
3951 Clouds 20 1019 24 10000 3.1 330 15:19 18.11.2019
3952 Clouds 19 1019 29 10000 3.1 300 14:43 18.11.2019
3953 Clouds 19 1019 29 10000 3.1 300 14:24 18.11.2019
3954 Clouds 19 1020 32 10000 3.6 320 13:57 18.11.2019
3955 Clouds 19 1020 32 10000 3.1 330 13:39 18.11.2019
3956 Clouds 19 1020 32 10000 3.1 330 13:21 18.11.2019
3957 Clouds 17 1021 39 10000 2.1 340 12:39 18.11.2019
3958 Clouds 17 1021 39 10000 2.1 340 12:20 18.11.2019
3959 Clouds 17 1021 39 10000 1 0 11:54 18.11.2019
3960 Clouds 16 1021 41 10000 1.5 230 11:36 18.11.2019
3961 Clouds 16 1021 41 10000 1.5 230 11:18 18.11.2019
3962 Clouds 13 1022 47 10000 2.1 170 10:42 18.11.2019
3963 Clouds 13 1022 47 10000 2.1 170 10:42 18.11.2019
3964 Clouds 13 1022 47 10000 2.1 170 10:23 18.11.2019
3965 Clear 12 1022 50 10000 1.5 180 09:56 18.11.2019
3966 Clear 10 1021 57 10000 1.5 160 09:38 18.11.2019
3967 Clear 10 1021 57 10000 1.5 160 09:19 18.11.2019
3968 Clear 7 1021 65 10000 2.1 100 08:45 18.11.2019
3969 Clear 7 1021 65 10000 1.5 70 08:22 18.11.2019
3970 Clear 6 1021 70 10000 2.1 90 07:49 18.11.2019
3971 Clear 7 1020 48 10000 2.1 130 07:30 18.11.2019
3972 Clear 7 1020 48 10000 1.5 120 06:59 18.11.2019
3973 Clear 7 1020 48 10000 1 0 06:41 18.11.2019
3974 Clear 7 1020 48 10000 1 0 06:21 18.11.2019
3975 Clear 9 1020 57 10000 2.1 160 05:25 18.11.2019
3976 Clear 8 1021 45 10000 0.5 0 03:30 18.11.2019
3977 Clear 10 1021 53 10000 0.5 0 01:37 18.11.2019
3978 Clear 10 1021 39 10000 0.5 0 00:46 18.11.2019
3979 Clear 12 1021 46 10000 0.5 0 23:59 17.11.2019
3980 Clear 12 1021 46 10000 0.5 0 23:59 17.11.2019
3981 Clear 12 1021 39 10000 1 0 23:40 17.11.2019
3982 Clear 12 1021 33 10000 1 0 23:21 17.11.2019
3983 Clear 12 1021 33 10000 2.1 120 22:56 17.11.2019
3984 Clear 12 1021 33 10000 2.1 90 22:38 17.11.2019
3985 Clear 12 1021 33 10000 2.1 90 22:38 17.11.2019
3986 Clear 12 1021 33 10000 2.1 90 22:19 17.11.2019
3987 Clear 14 1021 41 10000 2.1 80 21:42 17.11.2019
3988 Clear 14 1021 41 10000 2.1 80 21:20 17.11.2019
3989 Clear 15 1021 33 10000 2.1 50 20:59 17.11.2019
3990 Clear 15 1021 38 10000 1 0 20:39 17.11.2019
3991 Clear 15 1021 38 10000 1 0 20:20 17.11.2019
3992 Clear 16 1020 36 10000 1.5 270 19:57 17.11.2019
3993 Clear 17 1020 33 10000 1.5 280 19:39 17.11.2019
3994 Clear 17 1020 33 10000 1.5 280 19:20 17.11.2019
3995 Clear 18 1020 31 10000 2.6 300 18:57 17.11.2019
3996 Clear 19 1020 32 10000 3.1 310 18:38 17.11.2019
3997 Clear 19 1020 32 10000 3.1 310 18:19 17.11.2019
3998 Clear 19 1020 32 10000 3.1 310 18:19 17.11.2019
3999 Clear 20 1020 30 10000 3.1 300 17:58 17.11.2019
4000 Clear 20 1020 30 10000 3.6 290 17:40 17.11.2019
4001 Clear 20 1020 30 10000 3.6 290 17:20 17.11.2019
4002 Clear 21 1020 26 10000 2.6 330 16:59 17.11.2019
4003 Clear 20 1020 28 10000 3.6 310 16:41 17.11.2019
4004 Clear 20 1020 28 10000 3.6 310 16:21 17.11.2019
4005 Clear 20 1020 30 10000 2.6 330 15:56 17.11.2019
4006 Clear 20 1021 30 10000 1 0 15:38 17.11.2019
4007 Clear 20 1021 30 10000 1 0 15:19 17.11.2019
4008 Clear 20 1021 30 10000 1.5 0 14:57 17.11.2019
4009 Clear 19 1021 32 10000 1.5 350 14:38 17.11.2019
4010 Clear 19 1021 32 10000 1.5 350 14:20 17.11.2019
4011 Clear 19 1021 32 10000 1.5 350 14:20 17.11.2019
4012 Clear 18 1022 36 10000 1.5 0 13:57 17.11.2019
4013 Clear 17 1022 39 10000 2.1 30 13:39 17.11.2019
4014 Clear 17 1022 39 10000 2.1 30 13:19 17.11.2019
4015 Clear 16 1023 41 10000 2.6 80 12:44 17.11.2019
4016 Clear 15 1023 44 10000 3.6 80 12:23 17.11.2019
4017 Clear 15 1023 44 10000 3.6 80 12:23 17.11.2019
4018 Clear 14 1023 50 10000 3.6 90 11:57 17.11.2019
4019 Clear 13 1023 54 10000 3.1 80 11:39 17.11.2019
4020 Clear 13 1023 54 10000 3.1 80 11:20 17.11.2019
4021 Clear 12 1023 54 10000 3.1 100 10:44 17.11.2019
4022 Clear 10 1023 61 10000 3.1 100 10:23 17.11.2019
4023 Clear 7 1023 70 10000 3.1 90 09:58 17.11.2019
4024 Clear 7 1023 70 10000 3.1 90 09:58 17.11.2019
4025 Clear 6 1023 75 10000 3.1 90 09:39 17.11.2019
4026 Clear 6 1023 75 10000 3.1 90 09:21 17.11.2019
4027 Clear 6 1022 75 10000 1 0 08:40 17.11.2019
4028 Clear 6 1022 75 10000 1 0 08:22 17.11.2019
4029 Clear 6 1022 75 10000 1.5 20 07:55 17.11.2019
4030 Clear 5 1021 75 10000 1 0 07:37 17.11.2019
4031 Clear 5 1021 75 10000 1 0 07:18 17.11.2019
4032 Clear 6 1021 75 10000 1 0 06:40 17.11.2019
4033 Clear 6 1021 75 10000 1 0 06:21 17.11.2019
4034 Clear 7 1021 70 10000 2.1 100 04:24 17.11.2019
4035 Clear 7 1020 75 10000 1.5 110 03:51 17.11.2019
4036 Clear 7 1020 70 10000 2.1 60 03:32 17.11.2019
4037 Clear 9 1020 66 10000 3.1 120 02:28 17.11.2019
4038 Clear 8 1020 70 10000 2.6 60 01:41 17.11.2019
4039 Clear 9 1020 66 10000 2.6 110 00:54 17.11.2019
4040 Clear 9 1020 70 10000 3.1 90 00:22 17.11.2019
4041 Clear 9 1020 70 10000 3.1 70 23:47 16.11.2019
4042 Clear 9 1020 66 10000 2.6 80 23:20 16.11.2019
4043 Clear 10 1020 61 10000 2.6 90 22:59 16.11.2019
4044 Clear 11 1020 62 10000 3.1 70 22:40 16.11.2019
4045 Clear 11 1020 62 10000 3.1 70 22:19 16.11.2019
4046 Clear 12 1019 58 10000 4.1 60 21:56 16.11.2019
4047 Clear 12 1019 58 10000 4.1 60 21:37 16.11.2019
4048 Clear 12 1019 58 10000 4.1 60 21:19 16.11.2019
4049 Clear 12 1019 58 10000 4.6 40 20:42 16.11.2019
4050 Clouds 13 1019 54 10000 4.6 40 20:21 16.11.2019
4051 Clouds 13 1019 54 10000 5.1 40 19:58 16.11.2019
4052 Clouds 13 1019 54 10000 5.1 40 19:58 16.11.2019
4053 Clouds 14 1018 41 10000 5.1 40 19:40 16.11.2019
4054 Clouds 14 1018 41 10000 5.1 40 19:21 16.11.2019
4055 Clouds 15 1018 38 10000 5.7 40 18:47 16.11.2019
4056 Clouds 16 1018 36 10000 4.6 40 18:29 16.11.2019
4057 Clouds 16 1018 36 10000 5.1 40 17:57 16.11.2019
4058 Clouds 16 1018 38 10000 5.7 30 17:38 16.11.2019
4059 Clouds 16 1018 38 10000 5.7 30 17:19 16.11.2019
4060 Clouds 17 1018 33 10000 4.6 40 16:48 16.11.2019
4061 Clouds 16 1018 38 10000 4.6 30 16:30 16.11.2019
4062 Clouds 16 1018 41 10000 3.1 20 15:59 16.11.2019
4063 Clouds 17 1018 42 10000 4.1 30 15:39 16.11.2019
4064 Clouds 17 1018 42 10000 4.1 30 15:20 16.11.2019
4065 Clouds 17 1018 42 10000 4.1 40 14:57 16.11.2019
4066 Clouds 17 1018 42 10000 4.1 40 14:57 16.11.2019
4067 Clouds 16 1018 44 10000 3.6 30 14:39 16.11.2019
4068 Clouds 16 1018 44 10000 3.6 30 14:20 16.11.2019
4069 Clouds 16 1019 44 10000 3.6 60 13:55 16.11.2019
4070 Clouds 16 1019 41 10000 4.6 50 13:37 16.11.2019
4071 Clouds 16 1019 41 10000 4.6 50 13:18 16.11.2019
4072 Clouds 16 1019 41 10000 4.6 50 13:18 16.11.2019
4073 Clouds 15 1019 51 10000 4.6 50 12:42 16.11.2019
4074 Clouds 15 1019 51 10000 4.6 50 12:23 16.11.2019
4075 Clouds 14 1019 54 10000 4.6 60 11:56 16.11.2019
4076 Clouds 13 1019 66 10000 3.6 60 11:38 16.11.2019
4077 Clouds 13 1019 66 10000 3.6 60 11:19 16.11.2019
4078 Clouds 13 1019 66 10000 2.6 70 10:43 16.11.2019
4079 Clouds 12 1018 76 10000 2.1 90 10:25 16.11.2019
4080 Clouds 11 1018 76 10000 2.1 110 09:58 16.11.2019
4081 Clouds 9 1018 87 10000 1.5 90 09:40 16.11.2019
4082 Clouds 9 1018 87 10000 1.5 90 09:19 16.11.2019
4083 Clouds 6 1017 93 10000 2.1 70 08:41 16.11.2019
4084 Clouds 6 1017 93 10000 2.1 70 08:20 16.11.2019
4085 Clouds 6 1017 93 10000 2.1 70 08:20 16.11.2019
4086 Clouds 7 1017 87 10000 1 0 07:44 16.11.2019
4087 Clouds 7 1016 87 10000 1.5 130 07:22 16.11.2019
4088 Clouds 7 1016 87 10000 1.5 130 06:59 16.11.2019
4089 Clouds 7 1016 87 10000 1 0 06:41 16.11.2019
4090 Clouds 7 1016 87 10000 1 0 06:19 16.11.2019
4091 Clouds 7 1015 87 8000 1 0 04:21 16.11.2019
4092 Clouds 7 1015 87 8000 1 0 04:21 16.11.2019
4093 Clouds 8 1015 87 8000 0.5 0 03:26 16.11.2019
4094 Clouds 9 1016 81 8000 1.5 240 02:36 16.11.2019
4095 Clouds 8 1016 81 8000 2.1 260 01:38 16.11.2019
4096 Clouds 8 1016 81 8000 2.1 260 01:38 16.11.2019
4097 Clouds 9 1016 81 8000 1.5 290 00:48 16.11.2019
4098 Clouds 9 1016 81 8000 2.1 300 00:29 16.11.2019
4099 Clouds 10 1016 76 8000 1.5 270 23:44 15.11.2019
4100 Clouds 11 1015 71 8000 1.5 260 23:25 15.11.2019
4101 Clouds 11 1015 71 8000 1.5 260 23:25 15.11.2019
4102 Clouds 11 1015 71 8000 0.5 0 22:59 15.11.2019
4103 Clouds 11 1015 71 8000 1 0 22:40 15.11.2019
4104 Clouds 11 1015 71 8000 1 0 22:19 15.11.2019
4105 Clouds 12 1015 71 8000 1.5 330 21:56 15.11.2019
4106 Clouds 12 1015 71 8000 1.5 360 21:38 15.11.2019
4107 Clouds 12 1015 71 8000 1.5 360 21:19 15.11.2019
4108 Clouds 13 1015 66 8000 3.1 10 20:56 15.11.2019
4109 Clouds 13 1015 66 8000 3.1 10 20:56 15.11.2019
4110 Clouds 14 1014 62 8000 3.1 330 20:38 15.11.2019
4111 Clouds 14 1014 62 8000 3.1 330 20:19 15.11.2019
4112 Clouds 13 1014 66 8000 2.1 270 19:57 15.11.2019
4113 Clouds 14 1014 62 8000 1.5 260 19:38 15.11.2019
4114 Clouds 14 1014 62 8000 1.5 260 19:19 15.11.2019
4115 Clouds 15 1014 58 8000 2.1 260 18:43 15.11.2019
4116 Clouds 15 1014 58 8000 2.1 310 18:24 15.11.2019
4117 Clouds 16 1014 59 8000 2.1 310 17:58 15.11.2019
4118 Clouds 13 1012 54 0 0.59 244 17:39 15.11.2019
4119 Clouds 15 1014 58 8000 1.5 0 17:21 15.11.2019
4120 Clouds 15 1014 58 8000 1.5 0 16:54 15.11.2019
4121 Clouds 15 1014 58 8000 1.5 0 16:36 15.11.2019
4122 Clouds 15 1014 58 8000 1.5 0 16:18 15.11.2019
4123 Clouds 16 1014 55 8000 2.6 150 15:38 15.11.2019
4124 Clouds 16 1014 55 8000 2.6 150 15:19 15.11.2019
4125 Clouds 16 1014 55 8000 2.1 170 14:56 15.11.2019
4126 Clouds 15 1015 62 8000 2.6 140 14:38 15.11.2019
4127 Clouds 15 1015 62 8000 2.6 140 14:19 15.11.2019
4128 Clouds 14 1015 67 8000 2.1 130 13:56 15.11.2019
4129 Clouds 14 1016 67 8000 2.6 140 13:38 15.11.2019
4130 Clouds 14 1016 67 8000 2.6 140 13:20 15.11.2019
4131 Clouds 13 1016 76 8000 2.1 120 12:57 15.11.2019
4132 Clouds 13 1016 76 6000 1.5 130 12:38 15.11.2019
4133 Clouds 13 1016 76 6000 1.5 130 12:19 15.11.2019
4134 Clouds 13 1017 76 6000 2.1 0 11:55 15.11.2019
4135 Clouds 13 1016 82 6000 2.6 150 11:37 15.11.2019
4136 Clouds 13 1016 82 6000 2.6 150 11:19 15.11.2019
4137 Clouds 13 1016 82 6000 2.6 150 11:19 15.11.2019
4138 Rain 12 1016 87 5000 3.1 140 10:39 15.11.2019
4139 Rain 12 1016 87 5000 3.1 140 10:21 15.11.2019
4140 Rain 12 1016 87 5000 3.1 140 09:58 15.11.2019
4141 Rain 12 1016 87 5000 3.1 140 09:58 15.11.2019
4142 Clouds 12 1015 87 8000 2.6 130 09:39 15.11.2019
4143 Clouds 12 1015 87 8000 2.6 130 09:18 15.11.2019
4144 Rain 12 1015 81 8000 2.6 50 08:42 15.11.2019
4145 Rain 12 1015 87 8000 4.1 40 08:21 15.11.2019
4146 Rain 11 1015 93 8000 3.6 20 07:47 15.11.2019
4147 Clouds 11 1014 93 8000 4.6 20 07:27 15.11.2019
4148 Clouds 13 1014 82 10000 3.6 10 06:37 15.11.2019
4149 Clouds 14 1014 76 10000 2.6 350 05:58 15.11.2019
4150 Clouds 14 1014 71 10000 2.1 350 05:39 15.11.2019
4151 Clouds 14 1014 71 10000 2.1 350 05:39 15.11.2019
4152 Clouds 14 1014 71 10000 2.1 350 05:19 15.11.2019
4153 Clouds 14 1014 71 10000 1.5 290 03:46 15.11.2019
4154 Clouds 13 1015 76 10000 1.5 280 02:51 15.11.2019
4155 Clouds 13 1016 76 10000 1 0 02:18 15.11.2019
4156 Clouds 15 1016 72 10000 1 0 01:32 15.11.2019
4157 Clouds 15 1016 72 10000 1 0 01:32 15.11.2019
4158 Clouds 15 1016 72 10000 1.5 140 00:48 15.11.2019
4159 Clouds 15 1016 72 10000 0.5 0 00:29 15.11.2019
4160 Clouds 15 1016 67 10000 1.5 330 23:49 14.11.2019
4161 Clouds 15 1016 72 10000 0.5 0 23:27 14.11.2019
4162 Clouds 15 1016 72 10000 1.5 10 22:57 14.11.2019
4163 Clouds 15 1016 72 10000 2.6 10 22:39 14.11.2019
4164 Clouds 15 1016 72 10000 2.6 10 22:20 14.11.2019
4165 Clouds 16 1016 63 10000 3.1 340 21:55 14.11.2019
4166 Clouds 17 1016 55 10000 2.6 10 21:36 14.11.2019
4167 Clouds 17 1016 55 10000 2.6 10 21:18 14.11.2019
4168 Clouds 17 1016 55 10000 4.1 360 20:41 14.11.2019
4169 Clouds 17 1016 55 10000 4.1 360 20:22 14.11.2019
4170 Clouds 18 1015 55 10000 4.1 10 19:58 14.11.2019
4171 Clouds 19 1015 48 10000 3.6 340 19:40 14.11.2019
4172 Clouds 19 1015 48 10000 3.6 340 19:18 14.11.2019
4173 Clouds 20 1015 42 10000 2.6 320 18:54 14.11.2019
4174 Clouds 21 1015 40 10000 1.5 0 18:36 14.11.2019
4175 Clouds 21 1015 40 10000 1.5 0 18:18 14.11.2019
4176 Clouds 22 1015 37 10000 1.5 270 17:38 14.11.2019
4177 Clouds 22 1015 37 10000 1.5 270 17:20 14.11.2019
4178 Clouds 22 1015 37 10000 2.1 290 16:58 14.11.2019
4179 Clouds 22 1015 37 10000 2.1 290 16:58 14.11.2019
4180 Clouds 22 1015 37 10000 1.5 0 16:39 14.11.2019
4181 Clouds 22 1015 37 10000 1.5 0 16:20 14.11.2019
4182 Clouds 22 1015 37 10000 1.5 0 16:20 14.11.2019
4183 Clouds 22 1015 37 10000 3.6 340 15:58 14.11.2019
4184 Clouds 21 1016 40 10000 3.6 360 15:39 14.11.2019
4185 Clouds 21 1016 40 10000 3.6 360 15:20 14.11.2019
4186 Clouds 21 1016 40 10000 4.1 340 14:58 14.11.2019
4187 Clouds 20 1016 45 10000 3.6 320 14:39 14.11.2019
4188 Clouds 20 1016 45 10000 3.6 320 14:39 14.11.2019
4189 Clouds 20 1016 45 10000 3.6 320 14:21 14.11.2019
4190 Clouds 21 1016 43 10000 1 0 13:42 14.11.2019
4191 Clouds 21 1016 43 10000 1 0 13:42 14.11.2019
4192 Clouds 18 1019 52 10000 1.5 80 13:23 14.11.2019
4193 Clouds 18 1019 52 10000 1.5 80 12:59 14.11.2019
4194 Clouds 20 1015 31 0 1.17 328 12:40 14.11.2019
4195 Clouds 20 1015 31 0 1.17 328 12:21 14.11.2019
4196 Clouds 20 1015 31 0 1.17 328 11:56 14.11.2019
4197 Clouds 20 1015 31 0 1.17 328 11:37 14.11.2019
4198 Clouds 20 1015 31 0 1.17 328 11:37 14.11.2019
4199 Clouds 14 1018 62 10000 2.6 100 11:19 14.11.2019
4200 Clouds 14 1018 62 10000 2.6 100 10:57 14.11.2019
4201 Clouds 14 1018 62 10000 2.6 100 10:37 14.11.2019
4202 Clouds 14 1018 62 10000 2.6 100 10:19 14.11.2019
4203 Clouds 12 1017 66 10000 1.5 80 09:42 14.11.2019
4204 Clouds 12 1017 66 10000 1 0 09:24 14.11.2019
4205 Clouds 10 1016 71 10000 1 0 08:59 14.11.2019
4206 Clouds 10 1016 71 10000 1 0 08:40 14.11.2019
4207 Clouds 10 1016 71 10000 1 0 08:22 14.11.2019
4208 Clouds 11 1016 71 10000 1 0 07:42 14.11.2019
4209 Clouds 10 1016 76 10000 1.5 40 07:24 14.11.2019
4210 Clouds 10 1016 76 10000 1.5 40 07:24 14.11.2019
4211 Clouds 10 1016 71 10000 0.5 0 06:46 14.11.2019
4212 Clouds 11 1016 71 10000 0.5 0 06:20 14.11.2019
4213 Clouds 12 1016 66 10000 1.5 70 05:38 14.11.2019
4214 Clouds 13 1016 62 10000 4.1 110 04:38 14.11.2019
4215 Clouds 12 1017 62 10000 2.1 80 03:27 14.11.2019
4216 Clouds 12 1017 62 10000 2.6 100 02:35 14.11.2019
4217 Clouds 13 1017 58 10000 2.1 90 01:40 14.11.2019
4218 Clouds 13 1017 58 10000 2.1 70 00:57 14.11.2019
4219 Clouds 13 1017 58 10000 2.6 90 00:38 14.11.2019
4220 Clouds 13 1017 58 10000 2.6 90 00:19 14.11.2019
4221 Clouds 15 1018 58 10000 2.6 90 23:38 13.11.2019
4222 Clouds 15 1018 58 10000 2.6 90 23:20 13.11.2019
4223 Clouds 16 1018 55 10000 3.1 70 22:55 13.11.2019
4224 Clouds 16 1018 51 10000 2.6 80 22:37 13.11.2019
4225 Clouds 16 1018 51 10000 2.6 80 22:19 13.11.2019
4226 Clouds 17 1018 51 10000 2.6 70 21:55 13.11.2019
4227 Clouds 17 1018 51 10000 2.1 70 21:36 13.11.2019
4228 Clouds 17 1018 51 10000 2.1 70 21:18 13.11.2019
4229 Clouds 17 1018 48 10000 2.6 90 20:54 13.11.2019
4230 Clouds 19 1018 45 10000 2.6 50 20:36 13.11.2019
4231 Clouds 19 1018 45 10000 2.6 50 20:18 13.11.2019
4232 Clouds 20 1018 40 10000 3.1 40 19:42 13.11.2019
4233 Clouds 20 1018 42 10000 3.6 40 19:19 13.11.2019
4234 Clouds 21 1017 40 10000 4.1 40 18:56 13.11.2019
4235 Clouds 22 1017 35 10000 4.1 30 18:37 13.11.2019
4236 Clouds 22 1017 35 10000 4.1 30 18:19 13.11.2019
4237 Clouds 23 1017 33 10000 3.6 30 17:57 13.11.2019
4238 Clouds 23 1017 33 10000 4.1 30 17:38 13.11.2019
4239 Clouds 23 1017 33 10000 4.1 30 17:19 13.11.2019
4240 Clouds 23 1017 33 10000 4.1 30 17:19 13.11.2019
4241 Clouds 23 1017 38 10000 3.6 40 16:57 13.11.2019
4242 Clouds 23 1017 38 10000 3.1 30 16:38 13.11.2019
4243 Clouds 23 1017 38 10000 3.1 30 16:20 13.11.2019
4244 Clouds 23 1017 38 10000 3.1 30 15:57 13.11.2019
4245 Clouds 23 1017 38 10000 2.6 60 15:38 13.11.2019
4246 Clouds 23 1017 38 10000 2.6 60 15:18 13.11.2019
4247 Clouds 21 1018 46 10000 2.6 0 14:41 13.11.2019
4248 Clouds 21 1018 46 10000 2.6 0 14:21 13.11.2019
4249 Clouds 21 1018 46 10000 2.6 0 13:54 13.11.2019
4250 Clouds 20 1019 52 10000 3.1 30 13:36 13.11.2019
4251 Clouds 20 1019 52 10000 3.1 30 13:18 13.11.2019
4252 Clouds 18 1020 55 10000 2.6 90 12:42 13.11.2019
4253 Clouds 18 1020 55 10000 2.6 90 12:23 13.11.2019
4254 Clouds 20 1017 33 0 3.13 36 11:57 13.11.2019
4255 Clouds 20 1017 33 0 3.13 36 11:38 13.11.2019
4256 Clouds 20 1017 33 0 3.13 36 11:38 13.11.2019
4257 Clouds 15 1020 67 8000 1.5 20 11:19 13.11.2019
4258 Clouds 15 1020 67 8000 1.5 20 10:56 13.11.2019
4259 Clouds 15 1020 67 8000 1.5 20 10:37 13.11.2019
4260 Clouds 15 1020 67 8000 1.5 20 10:19 13.11.2019
4261 Clouds 13 1020 71 8000 2.1 20 09:43 13.11.2019
4262 Clouds 13 1020 71 8000 2.1 20 09:43 13.11.2019
4263 Clouds 12 1020 76 8000 1.5 40 09:21 13.11.2019
4264 Clouds 10 1019 76 10000 2.6 110 08:42 13.11.2019
4265 Clear 10 1019 76 10000 2.6 110 08:23 13.11.2019
4266 Clear 10 1018 76 10000 1.5 100 07:59 13.11.2019
4267 Clear 10 1018 76 10000 2.1 100 07:39 13.11.2019
4268 Clear 10 1018 76 10000 2.1 100 07:18 13.11.2019
4269 Clear 11 1018 76 10000 3.1 80 06:42 13.11.2019
4270 Clear 12 1017 76 10000 2.6 80 06:19 13.11.2019
4271 Clear 11 1017 76 10000 2.6 70 05:48 13.11.2019
4272 Clear 11 1017 81 10000 2.1 70 05:22 13.11.2019
4273 Clear 12 1018 76 10000 2.6 100 03:57 13.11.2019
4274 Clear 12 1018 66 10000 2.1 80 01:52 13.11.2019
4275 Clear 13 1018 62 10000 1.5 100 01:27 13.11.2019
4276 Clear 13 1018 62 10000 1.5 100 01:27 13.11.2019
4277 Clear 13 1018 62 10000 1.5 100 01:27 13.11.2019
4278 Clear 14 1019 58 10000 1.5 110 00:43 13.11.2019
4279 Clear 15 1018 54 10000 2.6 100 23:57 12.11.2019
4280 Clear 15 1019 58 10000 3.1 90 23:39 12.11.2019
4281 Clear 15 1019 58 10000 3.1 90 23:19 12.11.2019
4282 Clear 17 1018 51 10000 3.1 70 22:42 12.11.2019
4283 Clear 17 1018 51 10000 3.1 70 22:19 12.11.2019
4284 Clear 18 1018 48 10000 3.1 50 21:57 12.11.2019
4285 Clear 18 1018 48 10000 5.1 40 21:38 12.11.2019
4286 Clear 18 1018 48 10000 5.1 40 21:20 12.11.2019
4287 Clear 19 1018 45 10000 5.1 40 20:55 12.11.2019
4288 Clear 19 1018 42 10000 5.1 40 20:37 12.11.2019
4289 Clear 19 1018 42 10000 5.1 40 20:37 12.11.2019
4290 Clouds 19 1018 42 10000 5.1 40 20:18 12.11.2019
4291 Clouds 20 1018 37 10000 4.6 40 19:55 12.11.2019
4292 Clouds 20 1018 37 10000 4.6 40 19:55 12.11.2019
4293 Clouds 21 1017 37 10000 5.1 40 19:37 12.11.2019
4294 Clouds 21 1017 37 10000 5.1 40 19:18 12.11.2019
4295 Clouds 21 1017 40 10000 4.6 40 18:55 12.11.2019
4296 Clouds 18 1016 42 0 5.63 38 18:36 12.11.2019
4297 Clouds 18 1016 42 0 5.63 38 18:18 12.11.2019
4298 Clouds 23 1017 43 10000 3.6 40 17:55 12.11.2019
4299 Clouds 23 1017 43 10000 3.6 40 17:36 12.11.2019
4300 Clouds 23 1017 43 10000 3.6 40 17:36 12.11.2019
4301 Clouds 23 1017 43 10000 3.6 40 17:36 12.11.2019
4302 Clouds 23 1017 43 10000 3.6 40 17:36 12.11.2019
4303 Clouds 23 1017 43 10000 3.6 40 17:36 12.11.2019
4304 Clouds 23 1017 43 10000 3.6 40 17:18 12.11.2019
4305 Clouds 23 1017 43 10000 3.6 40 16:43 12.11.2019
4306 -273 0 0 0 0 0 16:24 12.11.2019
4307 Clouds 24 1017 41 10000 3.1 30 15:57 12.11.2019
4308 Clouds 23 1014 30 0 5.52 28 15:37 12.11.2019
4309 Clouds 23 1014 30 0 5.52 28 15:18 12.11.2019
4310 Clouds 23 1014 30 0 5.52 28 14:42 12.11.2019
4311 Clouds 21 1019 52 10000 4.1 60 14:20 12.11.2019
4312 Clouds 21 1019 52 10000 4.1 60 13:58 12.11.2019
4313 Clouds 21 1019 52 10000 4.1 60 13:40 12.11.2019
4314 Clouds 21 1019 52 10000 4.1 60 13:19 12.11.2019
4315 Clouds 20 1019 56 10000 4.6 40 12:59 12.11.2019
4316 Clouds 20 1019 56 10000 4.6 40 12:59 12.11.2019
4317 Clouds 19 1020 59 10000 3.6 50 12:39 12.11.2019
4318 Clouds 19 1020 59 10000 3.6 50 12:18 12.11.2019
4319 Clouds 18 1019 63 10000 3.1 70 11:43 12.11.2019
4320 Clouds 18 1020 63 10000 3.1 80 11:24 12.11.2019
4321 Clouds 16 1020 67 8000 3.1 90 10:58 12.11.2019
4322 Clouds 16 1020 63 8000 2.1 80 10:40 12.11.2019
4323 Clouds 16 1020 63 8000 2.1 80 10:22 12.11.2019
4324 Clouds 14 1020 67 8000 2.1 80 09:59 12.11.2019
4325 Clouds 13 1019 76 8000 2.1 120 09:39 12.11.2019
4326 Clouds 13 1019 76 8000 2.1 120 09:18 12.11.2019
4327 Clouds 11 1019 87 8000 1.5 100 08:48 12.11.2019
4328 Clouds 11 1019 87 8000 2.1 80 08:28 12.11.2019
4329 Clouds 11 1019 81 8000 2.1 70 07:42 12.11.2019
4330 Clouds 11 1018 87 8000 1.5 90 07:24 12.11.2019
4331 Clouds 11 1018 87 8000 1.5 90 06:51 12.11.2019
4332 Clouds 12 1019 81 8000 1 0 06:26 12.11.2019
4333 Clouds 12 1019 87 8000 1.5 60 05:52 12.11.2019
4334 Clouds 13 1019 82 10000 3.1 110 04:51 12.11.2019
4335 Clouds 13 1020 82 10000 3.6 100 04:20 12.11.2019
4336 Clouds 13 1020 76 10000 2.1 90 01:58 12.11.2019
4337 Clouds 14 1020 71 10000 3.1 80 01:27 12.11.2019
4338 Clouds 14 1020 76 10000 2.6 110 00:53 12.11.2019
4339 Clouds 15 1020 72 10000 2.6 80 00:33 12.11.2019
4340 Clouds 15 1021 72 10000 2.6 90 23:55 11.11.2019
4341 Clouds 16 1021 67 10000 3.1 70 23:36 11.11.2019
4342 Clouds 16 1021 67 10000 3.1 70 23:18 11.11.2019
4343 Clouds 17 1021 63 10000 3.6 50 22:38 11.11.2019
4344 Clouds 17 1021 63 10000 3.6 50 22:20 11.11.2019
4345 Clouds 17 1021 63 10000 4.6 50 21:58 11.11.2019
4346 Clouds 17 1021 59 10000 4.1 40 21:39 11.11.2019
4347 Clouds 17 1021 59 10000 4.1 40 21:20 11.11.2019
4348 Clouds 18 1021 55 10000 5.1 40 20:55 11.11.2019
4349 Clouds 19 1021 52 10000 4.6 50 20:37 11.11.2019
4350 Clouds 19 1021 52 10000 4.6 50 20:19 11.11.2019
4351 Clouds 20 1020 45 10000 4.6 40 19:42 11.11.2019
4352 Clouds 20 1020 45 10000 4.6 40 19:20 11.11.2019
4353 Clouds 20 1020 45 10000 5.7 40 18:58 11.11.2019
4354 Clouds 21 1020 40 10000 4.6 50 18:40 11.11.2019
4355 Clouds 21 1020 40 10000 4.6 50 18:20 11.11.2019
4356 Clouds 22 1020 40 10000 5.1 30 17:45 11.11.2019
4357 Clouds 22 1020 37 10000 5.1 40 17:27 11.11.2019
4358 Clouds 22 1020 40 10000 4.6 50 16:58 11.11.2019
4359 Clouds 22 1020 37 10000 5.7 30 16:38 11.11.2019
4360 Clouds 22 1020 37 10000 5.7 30 16:20 11.11.2019
4361 Clouds 22 1020 37 10000 4.1 50 15:41 11.11.2019
4362 Clouds 22 1020 37 10000 4.1 50 15:20 11.11.2019
4363 Clouds 22 1021 37 10000 4.6 60 14:55 11.11.2019
4364 Clouds 22 1021 40 10000 3.6 60 14:37 11.11.2019
4365 Clouds 22 1021 40 10000 3.6 60 14:19 11.11.2019
4366 Clouds 21 1022 40 10000 5.1 80 13:54 11.11.2019
4367 Clouds 21 1022 40 10000 4.6 70 13:36 11.11.2019
4368 Clouds 21 1022 40 10000 4.6 70 13:18 11.11.2019
4369 Clouds 19 1023 42 10000 5.7 60 12:54 11.11.2019
4370 Clouds 19 1023 45 10000 5.1 60 12:36 11.11.2019
4371 Clouds 19 1023 45 10000 5.1 60 12:18 11.11.2019
4372 Clouds 17 1023 51 10000 4.1 70 11:40 11.11.2019
4373 Clouds 17 1023 51 10000 4.1 70 11:21 11.11.2019
4374 Clouds 17 1023 51 10000 4.1 70 11:21 11.11.2019
4375 Clouds 15 1023 58 10000 4.1 90 10:43 11.11.2019
4376 Clouds 14 1023 62 10000 4.1 80 10:19 11.11.2019
4377 Clear 12 1023 71 10000 4.1 80 09:58 11.11.2019
4378 Clear 11 1023 76 10000 3.1 80 09:39 11.11.2019
4379 Clear 11 1023 76 10000 3.1 80 09:19 11.11.2019
4380 Clouds 11 1023 76 10000 2.6 60 08:41 11.11.2019
4381 Clouds 11 1023 76 10000 2.6 60 08:22 11.11.2019
4382 Clouds 10 1023 81 10000 3.1 60 07:57 11.11.2019
4383 Clear 10 1023 76 10000 3.1 60 07:37 11.11.2019
4384 Clear 10 1023 76 10000 3.1 60 07:37 11.11.2019
4385 Clear 10 1023 76 10000 3.1 60 07:19 11.11.2019
4386 Clear 10 1024 76 10000 2.6 70 06:48 11.11.2019
4387 -273 0 0 0 0 0 06:23 11.11.2019
4388 Clear 11 1024 76 10000 3.1 110 05:51 11.11.2019
4389 Clear 11 1024 76 10000 3.6 110 04:50 11.11.2019
4390 Clear 11 1024 71 10000 3.1 90 03:25 11.11.2019
4391 Clear 12 1024 71 10000 3.6 100 02:30 11.11.2019
4392 Clear 13 1025 66 10000 4.1 90 01:57 11.11.2019
4393 Clear 14 1025 62 10000 4.6 40 01:35 11.11.2019
4394 Clear 14 1025 62 10000 6.2 50 00:51 11.11.2019
4395 Clear 14 1025 62 10000 3.6 60 00:26 11.11.2019
4396 Clear 14 1026 62 10000 5.1 50 23:55 10.11.2019
4397 Clear 15 1025 58 10000 4.6 60 23:36 10.11.2019
4398 Clear 15 1025 58 10000 4.6 60 23:18 10.11.2019
4399 Clear 15 1025 58 10000 3.6 50 22:54 10.11.2019
4400 Clear 15 1025 58 10000 4.6 50 22:36 10.11.2019
4401 Clear 15 1025 58 10000 4.6 50 22:18 10.11.2019
4402 Clear 16 1025 59 10000 3.6 50 21:40 10.11.2019
4403 Clear 16 1025 59 10000 3.6 50 21:21 10.11.2019
4404 Clear 17 1025 55 10000 4.1 40 20:58 10.11.2019
4405 Clouds 17 1024 55 10000 3.6 40 20:39 10.11.2019
4406 Clouds 17 1024 55 10000 3.6 40 20:21 10.11.2019
4407 Clouds 17 1024 59 10000 4.1 40 19:55 10.11.2019
4408 Clouds 18 1024 52 10000 5.1 30 19:37 10.11.2019
4409 Clouds 18 1024 52 10000 5.1 30 19:18 10.11.2019
4410 Clouds 18 1024 52 10000 5.1 30 19:18 10.11.2019
4411 Clouds 18 1024 52 10000 4.6 30 18:55 10.11.2019
4412 Clouds 19 1023 48 10000 5.1 30 18:37 10.11.2019
4413 Clouds 19 1023 48 10000 5.1 30 18:19 10.11.2019
4414 Clouds 19 1023 48 10000 5.1 20 17:55 10.11.2019
4415 Clouds 20 1023 45 10000 3.1 40 17:37 10.11.2019
4416 Clouds 20 1023 45 10000 3.1 40 17:19 10.11.2019
4417 Clouds 20 1023 45 10000 4.1 30 16:44 10.11.2019
4418 Clouds 21 1023 43 10000 4.1 30 16:25 10.11.2019
4419 Clouds 20 1023 42 10000 3.6 30 15:57 10.11.2019
4420 Clouds 20 1023 42 10000 3.6 30 15:57 10.11.2019
4421 Clouds 21 1023 43 10000 4.6 30 15:38 10.11.2019
4422 Clouds 21 1023 43 10000 4.6 30 15:19 10.11.2019
4423 Clouds 21 1023 43 10000 4.6 30 15:19 10.11.2019
4424 Clouds 21 1023 43 10000 4.6 30 15:19 10.11.2019
4425 Clouds 21 1023 40 10000 5.7 30 14:58 10.11.2019
4426 Clouds 21 1024 28 10000 4.6 70 14:38 10.11.2019
4427 Clouds 21 1024 28 10000 4.6 70 14:20 10.11.2019
4428 Clouds 20 1024 28 10000 2.6 60 13:55 10.11.2019
4429 Clouds 19 1025 32 10000 3.6 40 13:37 10.11.2019
4430 Clouds 19 1025 32 10000 3.6 40 13:19 10.11.2019
4431 Clouds 17 1026 45 10000 3.1 360 12:41 10.11.2019
4432 Clouds 17 1026 45 10000 3.1 360 12:20 10.11.2019
4433 Clouds 17 1026 45 10000 3.1 360 12:20 10.11.2019
4434 Clouds 16 1026 44 10000 1.5 30 11:56 10.11.2019
4435 Clouds 15 1026 51 10000 2.1 90 11:38 10.11.2019
4436 Clear 15 1026 51 10000 2.1 90 11:19 10.11.2019
4437 Clear 14 1026 54 10000 2.1 100 10:42 10.11.2019
4438 Clear 13 1026 58 10000 2.1 140 10:42 10.11.2019
4439 Clear 13 1026 58 10000 2.1 140 10:22 10.11.2019
4440 Clear 12 1026 54 10000 0.5 0 09:59 10.11.2019
4441 Clear 9 1026 66 10000 1.5 60 09:39 10.11.2019
4442 Clear 9 1026 66 10000 1.5 60 09:19 10.11.2019
4443 Clear 7 1025 70 10000 2.1 70 08:40 10.11.2019
4444 Clear 7 1025 70 10000 2.1 70 08:20 10.11.2019
4445 Clear 7 1025 70 10000 3.1 100 07:53 10.11.2019
4446 Clear 8 1024 70 10000 2.1 40 07:33 10.11.2019
4447 Clear 8 1024 70 10000 2.1 70 06:59 10.11.2019
4448 Clear 8 1023 70 10000 1.5 100 06:21 10.11.2019
4449 Clear 10 1025 66 10000 1.5 110 03:38 10.11.2019
4450 Clear 11 1025 62 10000 2.1 110 02:30 10.11.2019
4451 Clouds 12 1025 66 10000 3.1 60 01:37 10.11.2019
4452 Clouds 12 1025 66 10000 3.1 60 01:18 10.11.2019
4453 Clouds 13 1025 58 10000 3.6 40 00:25 10.11.2019
4454 Clouds 13 1024 58 10000 2.6 80 23:40 09.11.2019
4455 Clouds 13 1024 58 10000 2.6 80 23:19 09.11.2019
4456 Clouds 15 1024 44 10000 4.1 60 22:42 09.11.2019
4457 Clouds 15 1024 44 10000 4.1 60 22:22 09.11.2019
4458 Clouds 16 1024 36 10000 3.6 30 21:58 09.11.2019
4459 Clouds 16 1023 31 10000 1.5 40 21:40 09.11.2019
4460 Clouds 16 1023 31 10000 1.5 40 21:21 09.11.2019
4461 Clouds 17 1023 29 10000 2.6 30 20:56 09.11.2019
4462 Clouds 17 1023 32 10000 2.1 40 20:37 09.11.2019
4463 Clouds 17 1023 25 10000 2.1 40 20:18 09.11.2019
4464 Clouds 18 1023 24 10000 2.6 40 19:41 09.11.2019
4465 Clouds 18 1023 24 10000 2.6 40 19:23 09.11.2019
4466 Clouds 19 1022 24 10000 3.6 40 18:59 09.11.2019
4467 Clouds 20 1022 28 10000 4.1 40 18:39 09.11.2019
4468 Clouds 20 1022 28 10000 4.1 40 18:19 09.11.2019
4469 Clouds 20 1022 28 10000 4.1 50 17:43 09.11.2019
4470 Clouds 21 1022 28 10000 5.1 30 17:23 09.11.2019
4471 Clouds 21 1022 30 10000 3.1 30 16:59 09.11.2019
4472 Clouds 21 1022 30 10000 4.1 30 16:40 09.11.2019
4473 Clouds 21 1022 30 10000 4.1 30 16:20 09.11.2019
4474 Clouds 21 1021 32 10000 4.1 350 15:43 09.11.2019
4475 Clouds 22 1022 35 10000 2.1 0 15:24 09.11.2019
4476 Clouds 21 1022 37 10000 2.1 330 14:57 09.11.2019
4477 Clouds 20 1022 40 10000 3.6 10 14:39 09.11.2019
4478 Clear 20 1022 40 10000 3.6 10 14:18 09.11.2019
4479 Clear 20 1023 37 10000 2.6 70 13:55 09.11.2019
4480 Clear 19 1023 42 10000 2.6 70 13:36 09.11.2019
4481 Clear 19 1023 42 10000 2.6 70 13:18 09.11.2019
4482 Clear 18 1023 45 10000 2.6 40 12:41 09.11.2019
4483 Clear 17 1023 48 10000 3.1 50 12:22 09.11.2019
4484 Clear 16 1023 51 10000 3.6 50 11:55 09.11.2019
4485 Clear 14 1023 58 10000 4.6 50 11:37 09.11.2019
4486 Clear 14 1023 58 10000 4.6 50 11:18 09.11.2019
4487 Clear 13 1023 62 10000 4.1 60 10:40 09.11.2019
4488 Clear 13 1023 62 10000 4.1 60 10:19 09.11.2019
4489 Clear 12 1023 66 10000 3.6 70 09:48 09.11.2019
4490 Clear 11 1023 71 10000 3.6 90 09:28 09.11.2019
4491 Clear 9 1023 81 10000 3.1 100 08:59 09.11.2019
4492 Clear 9 1023 81 10000 3.1 100 08:59 09.11.2019
4493 Clear 9 1022 76 10000 2.6 100 08:40 09.11.2019
4494 Clear 9 1022 76 10000 2.6 100 08:21 09.11.2019
4495 Clear 9 1022 76 10000 3.1 80 07:46 09.11.2019
4496 Clear 9 1022 76 10000 3.1 80 07:24 09.11.2019
4497 Clear 9 1022 76 10000 2.1 70 06:50 09.11.2019
4498 Clear 9 1022 76 10000 2.1 70 06:32 09.11.2019
4499 Clear 9 1022 76 10000 2.1 110 05:47 09.11.2019
4500 Clear 10 1022 71 10000 2.6 90 05:23 09.11.2019
4501 Clear 11 1022 66 10000 2.6 100 03:57 09.11.2019
4502 Clear 11 1022 66 10000 2.6 100 03:57 09.11.2019
4503 Clear 11 1021 71 10000 2.1 80 02:44 09.11.2019
4504 Clear 12 1022 62 10000 2.6 110 01:55 09.11.2019
4505 Clear 13 1022 62 10000 3.6 80 00:53 09.11.2019
4506 Clear 14 1022 58 10000 4.1 70 00:31 09.11.2019
4507 Clear 15 1022 54 10000 5.1 60 23:58 08.11.2019
4508 Clear 15 1022 54 10000 4.6 60 23:39 08.11.2019
4509 Clear 15 1022 54 10000 4.6 60 23:20 08.11.2019
4510 Clear 15 1022 54 10000 6.2 50 22:48 08.11.2019
4511 Clear 16 1021 55 10000 7.2 50 22:22 08.11.2019
4512 Clouds 16 1021 55 10000 6.7 40 21:57 08.11.2019
4513 Clouds 17 1021 48 10000 5.7 40 21:39 08.11.2019
4514 Clouds 17 1021 48 10000 5.7 40 21:19 08.11.2019
4515 Clouds 18 1020 39 10000 3.6 30 20:43 08.11.2019
4516 Clouds 18 1020 39 10000 3.6 30 20:22 08.11.2019
4517 Clouds 18 1020 39 10000 3.6 30 20:22 08.11.2019
4518 Clouds 19 1020 34 10000 3.6 40 19:59 08.11.2019
4519 Clouds 18 1020 42 10000 2.1 60 19:39 08.11.2019
4520 Clouds 18 1020 42 10000 2.1 60 19:19 08.11.2019
4521 Clouds 20 1020 40 10000 3.1 60 18:56 08.11.2019
4522 Clouds 21 1020 37 10000 4.1 70 18:38 08.11.2019
4523 Clouds 21 1020 37 10000 4.1 70 18:20 08.11.2019
4524 Clouds 21 1020 37 10000 3.6 60 17:56 08.11.2019
4525 Clouds 21 1020 40 10000 3.1 50 17:37 08.11.2019
4526 Clouds 21 1020 40 10000 3.1 50 17:19 08.11.2019
4527 Clouds 20 1020 42 10000 3.1 60 16:58 08.11.2019
4528 Clouds 21 1020 43 10000 3.1 30 16:39 08.11.2019
4529 Clouds 21 1020 43 10000 3.1 30 16:20 08.11.2019
4530 Clouds 20 1020 49 10000 3.1 30 15:58 08.11.2019
4531 Clouds 20 1020 52 10000 3.1 60 15:40 08.11.2019
4532 Clouds 20 1020 52 10000 3.1 60 15:21 08.11.2019
4533 Clouds 19 1021 59 10000 3.1 60 14:56 08.11.2019
4534 Clouds 18 1021 63 10000 3.6 80 14:36 08.11.2019
4535 Clouds 18 1021 63 10000 3.6 80 14:18 08.11.2019
4536 Clouds 18 1021 63 10000 3.6 80 14:18 08.11.2019
4537 Clouds 17 1021 67 10000 3.6 60 13:57 08.11.2019
4538 Clouds 17 1021 67 10000 3.6 60 13:57 08.11.2019
4539 Clouds 17 1021 67 10000 3.6 70 13:38 08.11.2019
4540 Clouds 17 1021 67 10000 3.6 70 13:19 08.11.2019
4541 Clouds 16 1022 72 10000 3.1 60 12:42 08.11.2019
4542 Clouds 16 1022 72 8000 3.6 30 12:24 08.11.2019
4543 Clear 19 1018 48 0 4.45 39 11:57 08.11.2019
4544 Clear 19 1018 48 0 4.45 39 11:38 08.11.2019
4545 Clear 14 1019 75 0 3.77 52 11:20 08.11.2019
4546 Clear 14 1019 75 0 3.77 52 11:20 08.11.2019
4547 Clear 14 1019 75 0 3.77 52 10:56 08.11.2019
4548 Clear 14 1019 75 0 3.77 52 10:38 08.11.2019
4549 Clouds 14 1021 76 7000 2.6 110 10:20 08.11.2019
4550 Clouds 14 1021 76 7000 2.6 110 09:41 08.11.2019
4551 Clouds 14 1021 76 7000 2.6 110 09:20 08.11.2019
4552 Clouds 14 1021 76 7000 2.6 110 09:20 08.11.2019
4553 Clouds 14 1020 82 7000 2.6 100 08:59 08.11.2019
4554 Clouds 13 1020 82 6000 3.1 100 08:37 08.11.2019
4555 Clouds 13 1020 82 6000 3.1 100 08:18 08.11.2019
4556 Clouds 13 1020 82 6000 2.1 60 07:40 08.11.2019
4557 Clouds 13 1020 82 6000 2.1 60 07:22 08.11.2019
4558 Clouds 13 1019 82 7000 2.6 110 06:41 08.11.2019
4559 Clouds 13 1019 82 7000 2.6 110 06:22 08.11.2019
4560 Clouds 12 1019 81 6000 1.5 110 05:55 08.11.2019
4561 Clouds 13 1019 82 6000 1.5 80 05:21 08.11.2019
4562 Clouds 13 1019 76 10000 2.6 100 03:44 08.11.2019
4563 Clouds 13 1019 76 10000 2.6 80 03:23 08.11.2019
4564 Clouds 14 1019 71 10000 2.6 90 02:45 08.11.2019
4565 Clouds 14 1019 76 10000 2.6 70 01:47 08.11.2019
4566 Clouds 15 1019 72 10000 2.6 90 01:24 08.11.2019
4567 Clouds 16 1019 67 10000 2.6 60 00:24 08.11.2019
4568 Clouds 17 1019 63 10000 4.1 50 23:58 07.11.2019
4569 Clouds 17 1019 59 10000 2.6 40 23:40 07.11.2019
4570 Clouds 17 1019 59 10000 2.6 40 23:22 07.11.2019
4571 Clouds 15 1017 54 0 2.75 51 22:42 07.11.2019
4572 Clouds 15 1017 54 0 2.75 51 22:22 07.11.2019
4573 Clouds 15 1017 54 0 2.75 51 22:22 07.11.2019
4574 Clouds 15 1017 54 0 2.75 51 21:56 07.11.2019
4575 Clouds 15 1017 54 0 2.75 51 21:37 07.11.2019
4576 Clouds 15 1017 54 0 2.75 51 21:19 07.11.2019
4577 Clouds 15 1017 54 0 2.75 51 20:57 07.11.2019
4578 Clouds 15 1017 54 0 2.75 51 20:39 07.11.2019
4579 Clouds 19 1015 29 0 4.93 30 20:20 07.11.2019
4580 Clouds 19 1015 29 0 4.93 30 19:54 07.11.2019
4581 Clouds 19 1015 29 0 4.93 30 19:36 07.11.2019
4582 Clouds 19 1015 29 0 4.93 30 19:18 07.11.2019
4583 Clouds 19 1015 29 0 4.93 30 18:55 07.11.2019
4584 Clouds 19 1015 29 0 4.93 30 18:36 07.11.2019
4585 Clouds 19 1015 29 0 4.93 30 18:18 07.11.2019
4586 Clouds 24 1016 29 10000 3.1 10 17:40 07.11.2019
4587 Clouds 24 1016 29 10000 3.1 10 17:21 07.11.2019
4588 Clouds 24 1016 29 10000 3.1 10 16:58 07.11.2019
4589 Clouds 24 1016 29 10000 3.1 10 16:40 07.11.2019
4590 Clouds 24 1016 29 10000 2.6 340 16:20 07.11.2019
4591 Clouds 23 1017 38 10000 1 0 15:57 07.11.2019
4592 Clouds 23 1017 38 10000 1 0 15:57 07.11.2019
4593 Clouds 23 1017 38 10000 1 0 15:38 07.11.2019
4594 Clouds 23 1017 38 10000 1 0 15:19 07.11.2019
4595 Clouds 22 1017 37 10000 1.5 40 14:45 07.11.2019
4596 Clouds 22 1017 35 10000 2.6 340 14:27 07.11.2019
4597 Clouds 21 1018 43 10000 2.1 0 13:57 07.11.2019
4598 Clouds 21 1018 43 10000 2.1 0 13:38 07.11.2019
4599 Clear 21 1018 43 10000 2.6 40 13:20 07.11.2019
4600 Clear 20 1019 45 10000 2.1 0 12:58 07.11.2019
4601 Clear 20 1019 45 10000 2.1 0 12:39 07.11.2019
4602 Clear 19 1019 52 10000 1.5 30 12:21 07.11.2019
4603 Clear 17 1019 59 10000 2.6 70 11:45 07.11.2019
4604 Clear 17 1019 59 10000 2.1 80 11:24 07.11.2019
4605 -273 0 0 0 0 0 10:59 07.11.2019
4606 Clear 14 1019 67 10000 2.6 90 10:40 07.11.2019
4607 Clear 14 1019 67 10000 2.6 90 10:18 07.11.2019
4608 Clear 13 1018 71 10000 3.1 90 09:42 07.11.2019
4609 Clear 13 1018 71 10000 3.1 90 09:40 07.11.2019
4610 -273 0 0 0 0 0 09:20 07.11.2019
4611 -273 0 0 0 0 0 08:48 07.11.2019
4612 Clear 11 1018 76 10000 2.1 80 08:47 07.11.2019
4613 Clear 10 1018 81 10000 3.1 100 08:25 07.11.2019
4614 -273 0 0 0 0 0 08:25 07.11.2019
4615 Clear 10 1018 81 10000 3.1 100 08:24 07.11.2019
4616 -273 0 0 0 0 0 08:23 07.11.2019
4617 Clear 11 1017 81 10000 1.5 90 07:58 07.11.2019
4618 Clear 11 1017 81 10000 1.5 90 07:40 07.11.2019
4619 Clear 11 1018 81 10000 1.5 70 07:20 07.11.2019
4620 Clear 10 1018 87 10000 1.5 80 06:46 07.11.2019
4621 Clear 10 1018 87 10000 1.5 80 06:46 07.11.2019
4622 -273 0 0 0 0 0 06:25 07.11.2019
4623 -273 0 0 0 0 0 05:51 07.11.2019
4624 Clear 11 1018 81 10000 1 0 05:32 07.11.2019
4625 -273 0 0 0 0 0 04:52 07.11.2019
4626 Clear 11 1018 81 10000 1.5 80 04:52 07.11.2019
4627 Clear 11 1018 81 10000 1.5 80 04:52 07.11.2019
4628 Clear 11 1018 81 10000 1.5 80 04:52 07.11.2019
4629 Clear 12 1017 76 10000 3.1 100 04:29 07.11.2019
4630 Clear 13 1018 71 10000 2.6 90 01:28 07.11.2019
4631 Clear 15 1018 67 10000 3.6 70 00:32 07.11.2019
4632 Clear 15 1018 67 10000 3.6 70 23:58 06.11.2019
4633 Clear 15 1018 67 10000 3.6 70 23:40 06.11.2019
4634 Clear 16 1019 63 10000 5.7 60 23:20 06.11.2019
4635 Clear 16 1018 63 10000 5.1 60 22:40 06.11.2019
4636 Clear 17 1018 59 10000 5.7 50 22:21 06.11.2019
4637 Clear 18 1018 52 10000 4.6 40 21:57 06.11.2019
4638 Clear 18 1018 52 10000 4.6 40 21:39 06.11.2019
4639 Clear 18 1018 48 10000 4.6 50 21:19 06.11.2019
4640 Clear 19 1018 42 10000 5.1 40 20:57 06.11.2019
4641 Clear 19 1018 42 10000 5.1 40 20:39 06.11.2019
4642 Clear 20 1018 34 10000 3.1 40 20:39 06.11.2019
4643 Clear 20 1018 34 10000 3.1 40 20:20 06.11.2019
4644 Clear 20 1018 34 10000 3.1 40 19:56 06.11.2019
4645 Clear 20 1018 34 10000 3.1 40 19:36 06.11.2019
4646 Clear 21 1018 32 10000 4.1 40 19:18 06.11.2019
4647 Clouds 21 1017 32 10000 4.1 40 18:55 06.11.2019
4648 Clouds 22 1017 28 10000 3.6 30 18:36 06.11.2019
4649 Clouds 22 1017 28 10000 3.6 30 18:18 06.11.2019
4650 Clouds 22 1018 26 10000 3.6 40 17:42 06.11.2019
4651 Clouds 22 1018 26 10000 3.6 40 17:23 06.11.2019
4652 Clouds 23 1017 27 10000 4.6 30 16:57 06.11.2019
4653 Clouds 23 1017 27 10000 4.6 30 16:39 06.11.2019
4654 Clouds 23 1017 27 10000 4.6 30 16:20 06.11.2019
4655 Clouds 22 1018 28 10000 4.6 50 15:57 06.11.2019
4656 Clouds 22 1018 30 10000 4.1 50 15:37 06.11.2019
4657 Clouds 22 1018 30 10000 4.1 50 15:19 06.11.2019
4658 Clouds 22 1018 30 10000 4.1 0 14:57 06.11.2019
4659 Clouds 22 1019 30 10000 4.1 60 14:39 06.11.2019
4660 Clouds 21 1019 32 10000 5.1 70 14:20 06.11.2019
4661 Clouds 21 1019 32 10000 5.1 70 13:58 06.11.2019
4662 Clouds 21 1019 32 10000 5.1 70 13:37 06.11.2019
4663 Clouds 21 1019 32 10000 5.1 70 13:18 06.11.2019
4664 Clouds 20 1020 37 10000 5.7 50 12:55 06.11.2019
4665 Clouds 20 1020 40 10000 4.1 70 12:37 06.11.2019
4666 Clouds 20 1020 40 10000 4.1 70 12:18 06.11.2019
4667 Clouds 18 1020 48 10000 5.1 70 11:54 06.11.2019
4668 Clouds 17 1020 51 10000 5.1 80 11:36 06.11.2019
4669 Clouds 17 1020 51 10000 5.1 80 11:18 06.11.2019
4670 Clear 14 1018 70 0 3.06 73 10:42 06.11.2019
4671 Clear 14 1018 70 0 3.06 73 10:24 06.11.2019
4672 Clear 14 1018 70 0 3.06 73 10:24 06.11.2019
4673 Clear 14 1018 70 0 3.06 73 09:58 06.11.2019
4674 Clear 14 1018 70 0 3.06 73 09:39 06.11.2019
4675 Clear 14 1018 70 0 3.06 73 09:20 06.11.2019
4676 Clouds 13 1019 76 8000 3.6 100 08:55 06.11.2019
4677 Clouds 13 1019 76 8000 3.6 100 08:37 06.11.2019
4678 Clouds 13 1019 76 8000 3.6 100 08:18 06.11.2019
4679 Clouds 13 1019 76 8000 3.6 100 07:44 06.11.2019
4680 Clouds 13 1019 76 8000 3.1 100 07:26 06.11.2019
4681 Clouds 13 1019 76 8000 4.1 80 06:52 06.11.2019
4682 Clouds 13 1019 76 8000 3.6 50 06:34 06.11.2019
4683 Clouds 14 1019 71 8000 4.1 60 05:50 06.11.2019
4684 Clouds 15 1019 72 8000 3.6 60 03:35 06.11.2019
4685 Clouds 16 1021 72 8000 5.1 60 01:42 06.11.2019
4686 Clouds 16 1021 72 8000 5.7 40 00:47 06.11.2019
4687 Clouds 17 1022 67 8000 4.6 50 00:00 06.11.2019
4688 Clouds 16 1021 72 8000 5.1 60 23:41 05.11.2019
4689 Clouds 16 1021 72 8000 5.1 60 23:22 05.11.2019
4690 Clouds 16 1021 72 8000 4.6 50 22:58 05.11.2019
4691 Clouds 16 1021 77 8000 5.1 30 22:40 05.11.2019
4692 Clouds 16 1021 77 8000 5.1 30 22:18 05.11.2019
4693 Clouds 16 1021 77 8000 5.1 60 21:43 05.11.2019
4694 Clouds 16 1021 77 8000 5.1 60 21:22 05.11.2019
4695 Clouds 16 1021 77 8000 4.1 40 20:59 05.11.2019
4696 Clouds 16 1021 77 8000 4.1 40 20:59 05.11.2019
4697 Clouds 16 1021 77 8000 5.1 20 20:39 05.11.2019
4698 Clouds 16 1021 77 8000 5.1 20 20:21 05.11.2019
4699 Clouds 16 1020 77 8000 5.1 30 19:59 05.11.2019
4700 Clouds 17 1020 72 8000 5.1 30 19:40 05.11.2019
4701 Clouds 17 1020 72 8000 5.1 30 19:22 05.11.2019
4702 Clouds 17 1020 77 8000 5.7 30 18:58 05.11.2019
4703 Clouds 18 1020 72 8000 5.1 360 18:39 05.11.2019
4704 Clouds 18 1020 72 8000 5.1 360 18:20 05.11.2019
4705 Clouds 19 1019 68 8000 5.7 350 17:58 05.11.2019
4706 Clouds 20 1019 68 8000 5.7 350 17:39 05.11.2019
4707 Clouds 20 1019 68 8000 5.7 350 17:19 05.11.2019
4708 Clouds 20 1019 68 8000 5.7 350 17:19 05.11.2019
4709 Clouds 22 1019 53 8000 4.1 320 16:56 05.11.2019
4710 Clouds 22 1019 49 8000 3.6 310 16:38 05.11.2019
4711 Clouds 22 1019 49 8000 3.6 310 16:19 05.11.2019
4712 Clouds 22 1019 53 8000 2.1 0 15:39 05.11.2019
4713 Clouds 22 1019 53 8000 2.1 0 15:20 05.11.2019
4714 Clouds 22 1019 53 8000 2.1 0 14:58 05.11.2019
4715 Clouds 22 1020 53 8000 1.5 0 14:40 05.11.2019
4716 Clouds 22 1020 53 8000 1.5 0 14:21 05.11.2019
4717 Clouds 21 1021 56 8000 2.1 230 13:55 05.11.2019
4718 Clouds 21 1021 56 8000 2.1 170 13:37 05.11.2019
4719 Clouds 21 1021 56 8000 2.1 170 13:18 05.11.2019
4720 Clouds 20 1022 68 8000 1 0 12:39 05.11.2019
4721 Clouds 20 1022 68 8000 1 0 12:21 05.11.2019
4722 Clouds 18 1022 72 8000 1 0 11:56 05.11.2019
4723 Clouds 18 1022 72 8000 1.5 270 11:37 05.11.2019
4724 Clouds 18 1022 72 8000 1.5 270 11:19 05.11.2019
4725 Clouds 17 1022 77 8000 2.1 260 10:43 05.11.2019
4726 Clouds 17 1021 77 8000 2.1 260 10:24 05.11.2019
4727 Clouds 17 1021 77 8000 2.1 230 09:58 05.11.2019
4728 Clouds 16 1021 77 8000 2.1 230 09:40 05.11.2019
4729 Clouds 16 1021 77 8000 2.1 230 09:19 05.11.2019
4730 Clouds 17 1021 77 8000 2.1 200 08:55 05.11.2019
4731 Clouds 17 1021 77 8000 2.1 200 08:55 05.11.2019
4732 Clouds 17 1020 77 8000 1 0 08:37 05.11.2019
4733 Clouds 17 1020 77 8000 1 0 08:18 05.11.2019
4734 Clouds 16 1020 77 8000 0.5 0 07:43 05.11.2019
4735 Clouds 16 1020 82 8000 1 0 07:24 05.11.2019
4736 Clouds 15 1020 82 8000 1 0 06:51 05.11.2019
4737 Clouds 16 1020 77 8000 1.5 60 06:26 05.11.2019
4738 Clouds 17 1020 72 8000 2.6 90 05:39 05.11.2019
4739 Clouds 17 1020 72 8000 2.6 90 05:19 05.11.2019
4740 Clouds 18 1021 68 8000 3.1 120 04:20 05.11.2019
4741 Clouds 18 1022 68 8000 2.1 110 03:24 05.11.2019
4742 Clouds 18 1022 72 8000 3.1 50 02:41 05.11.2019
4743 Clouds 18 1022 68 8000 2.1 30 01:52 05.11.2019
4744 Clouds 18 1022 68 8000 2.1 30 01:52 05.11.2019
4745 Clouds 18 1022 68 8000 2.1 30 01:52 05.11.2019
4746 Clouds 18 1022 68 8000 2.6 340 00:43 05.11.2019
4747 Clouds 18 1022 68 8000 2.6 340 00:23 05.11.2019
4748 Clouds 19 1021 68 8000 2.6 340 23:41 04.11.2019
4749 Clouds 19 1021 68 8000 2.6 340 23:19 04.11.2019
4750 Clouds 19 1021 68 8000 2.6 340 23:19 04.11.2019
4751 Clouds 19 1021 63 8000 3.6 350 22:55 04.11.2019
4752 Clear 21 1020 56 8000 2.6 10 22:37 04.11.2019
4753 Clear 21 1020 56 8000 2.6 10 22:19 04.11.2019
4754 Clear 21 1020 56 8000 3.1 350 21:54 04.11.2019
4755 Clear 22 1019 53 8000 2.6 340 21:36 04.11.2019
4756 Clear 22 1019 53 8000 2.6 340 21:18 04.11.2019
4757 Clear 22 1019 53 8000 2.6 10 20:55 04.11.2019
4758 Clear 22 1019 56 8000 2.1 280 20:36 04.11.2019
4759 Clear 22 1019 56 8000 2.1 280 20:36 04.11.2019
4760 Clear 22 1019 56 8000 2.1 280 20:18 04.11.2019
4761 Clear 23 1019 53 8000 2.1 260 19:42 04.11.2019
4762 Clouds 24 1019 50 8000 2.6 270 19:23 04.11.2019
4763 Clouds 24 1018 53 8000 2.1 290 18:59 04.11.2019
4764 Clouds 25 1018 50 8000 2.1 310 18:40 04.11.2019
4765 Clouds 25 1018 50 8000 2.1 310 18:21 04.11.2019
4766 Clouds 26 1018 47 8000 1 0 17:59 04.11.2019
4767 Clouds 26 1018 47 10000 2.1 310 17:37 04.11.2019
4768 Clouds 26 1018 47 10000 2.1 310 17:19 04.11.2019
4769 Clouds 26 1018 47 10000 1.5 10 16:44 04.11.2019
4770 Clouds 25 1019 53 8000 2.6 330 16:25 04.11.2019
4771 Clouds 25 1019 53 8000 2.6 330 15:59 04.11.2019
4772 Clouds 25 1019 53 8000 2.1 0 15:41 04.11.2019
4773 Clouds 25 1019 53 8000 2.1 0 15:21 04.11.2019
4774 Clouds 25 1019 53 8000 1.5 0 14:58 04.11.2019
4775 Clouds 24 1020 57 8000 2.6 340 14:40 04.11.2019
4776 Clouds 24 1020 57 8000 2.6 340 14:20 04.11.2019
4777 Clouds 23 1020 60 8000 3.1 70 13:58 04.11.2019
4778 Clouds 23 1021 60 8000 1.5 0 13:39 04.11.2019
4779 Clouds 23 1021 60 8000 1.5 0 13:21 04.11.2019
4780 Clouds 21 1021 68 8000 2.1 30 12:55 04.11.2019
4781 Clouds 21 1021 68 8000 2.1 30 12:37 04.11.2019
4782 Clouds 21 1021 68 8000 2.1 30 12:18 04.11.2019
4783 Clouds 20 1022 77 6000 1 0 11:42 04.11.2019
4784 Clouds 20 1022 77 6000 1 0 11:23 04.11.2019
4785 Clouds 20 1022 77 6000 1 0 11:23 04.11.2019
4786 Clouds 19 1022 77 6000 1 0 10:58 04.11.2019
4787 Clouds 18 1022 82 6000 1.5 300 10:39 04.11.2019
4788 Clouds 18 1022 82 6000 1.5 300 10:20 04.11.2019
4789 Clouds 18 1021 82 8000 2.1 290 09:45 04.11.2019
4790 Clouds 18 1021 82 8000 2.1 290 09:45 04.11.2019
4791 Clouds 18 1021 82 8000 1.5 280 09:27 04.11.2019
4792 Clouds 17 1021 88 8000 2.1 270 08:57 04.11.2019
4793 Clouds 17 1021 88 8000 2.1 240 08:37 04.11.2019
4794 Clouds 17 1021 88 8000 2.1 240 08:18 04.11.2019
4795 Clouds 18 1020 82 8000 1 0 07:42 04.11.2019
4796 Clouds 18 1020 82 10000 1.5 80 07:21 04.11.2019
4797 Clouds 18 1020 82 10000 1 0 06:49 04.11.2019
4798 Clouds 18 1020 82 10000 1 0 06:49 04.11.2019
4799 Clouds 18 1020 82 10000 1 0 06:49 04.11.2019
4800 Clouds 18 1020 82 10000 1 0 06:18 04.11.2019
4801 Clouds 17 1020 88 10000 2.1 60 05:38 04.11.2019
4802 Clouds 17 1020 88 10000 2.1 40 04:41 04.11.2019
4803 Clouds 17 1020 88 10000 2.1 40 04:21 04.11.2019
4804 Clouds 17 1021 88 10000 2.1 70 01:46 04.11.2019
4805 Clouds 18 1021 82 10000 2.1 60 01:20 04.11.2019
4806 Clouds 18 1021 82 10000 2.6 60 00:39 04.11.2019
4807 Clouds 18 1021 82 10000 2.6 60 00:19 04.11.2019
4808 Clouds 19 1022 82 10000 3.6 50 23:40 03.11.2019
4809 Clouds 19 1022 82 10000 3.6 50 23:21 03.11.2019
4810 Clouds 19 1022 82 10000 3.6 50 22:57 03.11.2019
4811 Clouds 19 1022 82 10000 4.1 30 22:39 03.11.2019
4812 Clouds 19 1022 82 10000 4.1 30 22:19 03.11.2019
4813 Clouds 20 1021 77 10000 4.1 40 21:46 03.11.2019
4814 Clouds 21 1021 73 10000 4.1 30 21:22 03.11.2019
4815 Clouds 21 1021 73 10000 4.6 340 20:59 03.11.2019
4816 Clouds 22 1021 49 10000 1.5 260 20:38 03.11.2019
4817 Clouds 22 1021 49 10000 1.5 260 20:38 03.11.2019
4818 Clouds 22 1021 49 10000 1.5 260 20:38 03.11.2019
4819 Clouds 22 1021 49 10000 1.5 260 20:20 03.11.2019
4820 Clouds 23 1020 46 10000 2.1 240 19:58 03.11.2019
4821 Clouds 23 1020 46 10000 2.1 250 19:39 03.11.2019
4822 Clouds 23 1020 46 10000 2.1 250 19:21 03.11.2019
4823 Clouds 24 1020 47 10000 0.5 0 18:59 03.11.2019
4824 Clouds 25 1020 44 10000 1 0 18:38 03.11.2019
4825 Clouds 25 1020 44 10000 1 0 18:18 03.11.2019
4826 Clouds 26 1020 41 10000 1 0 17:56 03.11.2019
4827 Clouds 25 1020 41 10000 1.5 20 17:37 03.11.2019
4828 Clouds 25 1020 41 10000 1.5 20 17:18 03.11.2019
4829 Clouds 26 1020 39 10000 1 0 16:54 03.11.2019
4830 Clouds 25 1020 38 10000 2.1 360 16:36 03.11.2019
4831 Clouds 25 1020 38 10000 2.1 360 16:36 03.11.2019
4832 Clouds 25 1020 38 10000 2.1 360 16:18 03.11.2019
4833 Clouds 25 1020 38 10000 1.5 0 15:43 03.11.2019
4834 Clouds 25 1020 44 10000 1.5 0 15:24 03.11.2019
4835 Clouds 25 1020 47 10000 1.5 0 14:57 03.11.2019
4836 Clouds 24 1021 50 10000 1.5 30 14:38 03.11.2019
4837 Clouds 24 1021 50 10000 1.5 30 14:18 03.11.2019
4838 Clouds 24 1021 50 10000 1.5 0 13:43 03.11.2019
4839 Clouds 23 1021 53 8000 2.1 0 13:20 03.11.2019
4840 Clouds 23 1022 56 8000 1.5 0 12:59 03.11.2019
4841 Clouds 21 1022 64 8000 2.1 330 12:37 03.11.2019
4842 Clouds 21 1022 64 8000 2.1 330 12:19 03.11.2019
4843 Clouds 22 1022 64 8000 1.5 0 11:44 03.11.2019
4844 Clouds 20 1022 72 8000 2.1 160 11:22 03.11.2019
4845 Clouds 19 1022 77 8000 2.1 220 10:58 03.11.2019
4846 Clouds 19 1022 77 8000 1 0 10:40 03.11.2019
4847 Clouds 19 1022 77 8000 1 0 10:22 03.11.2019
4848 Clouds 18 1022 82 8000 1 0 09:56 03.11.2019
4849 Clouds 17 1021 88 8000 1.5 270 09:38 03.11.2019
4850 Clouds 17 1021 88 8000 1.5 270 09:20 03.11.2019
4851 Clouds 18 1021 82 8000 2.1 220 08:39 03.11.2019
4852 Clouds 16 1021 93 8000 1 0 08:20 03.11.2019
4853 Clouds 16 1021 93 8000 1 0 07:46 03.11.2019
4854 Clouds 16 1021 93 8000 1.5 260 07:25 03.11.2019
4855 Clouds 15 1020 93 8000 1.5 260 06:49 03.11.2019
4856 Clear 15 1020 93 10000 1.5 280 06:30 03.11.2019
4857 Clear 16 1020 87 10000 2.1 250 05:39 03.11.2019
4858 Clear 16 1020 87 10000 3.6 230 04:56 03.11.2019
4859 Clear 16 1020 87 10000 3.6 230 04:36 03.11.2019
4860 Clear 17 1020 82 10000 3.6 230 03:31 03.11.2019
4861 Clear 17 1021 72 10000 2.1 260 02:42 03.11.2019
4862 Clouds 17 1021 72 10000 2.1 260 02:19 03.11.2019
4863 Clouds 18 1021 68 10000 3.1 280 01:38 03.11.2019
4864 Clouds 18 1021 68 10000 3.1 280 01:20 03.11.2019
4865 Clouds 19 1021 63 10000 2.1 280 00:43 03.11.2019
4866 Clouds 19 1021 63 10000 2.6 270 00:25 03.11.2019
4867 Clouds 20 1021 60 10000 2.1 260 23:57 02.11.2019
4868 Clouds 21 1021 56 10000 4.1 230 23:38 02.11.2019
4869 Clouds 21 1021 56 10000 4.1 230 23:18 02.11.2019
4870 Clouds 21 1021 56 10000 4.1 230 22:55 02.11.2019
4871 Clouds 22 1021 53 10000 3.1 230 22:37 02.11.2019
4872 Clouds 22 1021 53 10000 3.1 230 22:37 02.11.2019
4873 Clouds 22 1021 53 10000 3.1 230 22:18 02.11.2019
4874 Clouds 24 1020 47 10000 2.6 310 21:56 02.11.2019
4875 Clouds 24 1020 47 10000 2.6 310 21:37 02.11.2019
4876 Clouds 24 1020 47 10000 2.6 310 21:37 02.11.2019
4877 Clouds 24 1020 47 10000 2.6 310 21:18 02.11.2019
4878 Clouds 25 1020 47 10000 4.1 330 20:58 02.11.2019
4879 Clouds 26 1020 41 10000 3.1 320 20:39 02.11.2019
4880 Clouds 26 1020 41 10000 3.1 320 20:19 02.11.2019
4881 Clouds 28 1019 34 10000 3.6 310 19:40 02.11.2019
4882 Clouds 28 1019 34 10000 3.6 310 19:22 02.11.2019
4883 Clouds 29 1019 30 10000 3.1 280 18:56 02.11.2019
4884 Clouds 30 1019 28 10000 3.6 290 18:37 02.11.2019
4885 Clouds 30 1019 28 10000 3.6 290 18:19 02.11.2019
4886 Clouds 30 1019 28 10000 4.1 290 17:57 02.11.2019
4887 Clouds 31 1019 27 10000 3.1 300 17:38 02.11.2019
4888 Clouds 31 1019 27 10000 3.1 300 17:19 02.11.2019
4889 Clouds 31 1019 27 10000 3.1 300 16:57 02.11.2019
4890 Clouds 31 1019 29 10000 2.6 320 16:36 02.11.2019
4891 Clouds 31 1019 29 10000 2.6 320 16:18 02.11.2019
4892 Clouds 31 1019 29 10000 2.6 320 16:18 02.11.2019
4893 Clouds 31 1020 27 10000 2.6 340 15:41 02.11.2019
4894 Clouds 31 1020 27 10000 2.6 340 15:19 02.11.2019
4895 Clouds 30 1020 30 10000 2.6 330 14:43 02.11.2019
4896 Clouds 30 1020 30 10000 2.6 330 14:23 02.11.2019
4897 Clouds 30 1021 33 10000 1.5 0 13:57 02.11.2019
4898 Clouds 30 1021 33 10000 0.5 0 13:38 02.11.2019
4899 Clouds 30 1021 33 10000 0.5 0 13:18 02.11.2019
4900 Clouds 27 1022 39 10000 1.5 340 12:41 02.11.2019
4901 Clouds 27 1022 39 10000 1.5 340 12:22 02.11.2019
4902 Clouds 27 1022 39 10000 1.5 340 12:22 02.11.2019
4903 Clouds 26 1022 41 10000 1.5 0 11:57 02.11.2019
4904 Clouds 26 1022 41 10000 1 0 11:39 02.11.2019
4905 Clouds 26 1022 41 10000 0.5 0 11:20 02.11.2019
4906 Clouds 26 1022 41 10000 0.5 0 10:48 02.11.2019
4907 Clouds 24 1022 44 10000 0.5 0 10:27 02.11.2019
4908 Clouds 22 1022 56 10000 1 0 09:57 02.11.2019
4909 Clouds 21 1022 60 10000 1 0 09:39 02.11.2019
4910 Clouds 21 1022 60 10000 1 0 09:19 02.11.2019
4911 Clouds 21 1022 60 10000 1 0 09:19 02.11.2019
4912 Clouds 19 1022 59 10000 0.5 0 08:45 02.11.2019
4913 Clouds 18 1022 59 10000 1 0 08:22 02.11.2019
4914 Clouds 17 1022 72 10000 1 0 07:48 02.11.2019
4915 Clouds 17 1022 72 10000 1 0 07:28 02.11.2019
4916 Clouds 17 1022 72 10000 1 0 07:28 02.11.2019
4917 Clouds 18 1022 72 10000 1 0 06:55 02.11.2019
4918 Clouds 18 1022 72 10000 2.1 50 06:30 02.11.2019
4919 Clouds 18 1022 72 10000 1.5 110 05:56 02.11.2019
4920 Clouds 19 1022 68 10000 2.6 130 05:20 02.11.2019
4921 Clouds 18 1022 72 10000 2.1 80 04:21 02.11.2019
4922 Clouds 18 1022 72 10000 2.1 80 04:21 02.11.2019
4923 Clouds 20 1023 64 10000 2.6 110 03:47 02.11.2019
4924 Clouds 20 1023 64 10000 2.6 90 02:40 02.11.2019
4925 Clear 21 1024 60 10000 2.6 120 01:43 02.11.2019
4926 Clear 21 1024 60 10000 2.6 120 01:21 02.11.2019
4927 Clear 21 1024 73 10000 3.1 90 00:48 02.11.2019
4928 Clear 22 1024 68 10000 2.6 60 00:26 02.11.2019
4929 Clear 22 1025 68 10000 3.1 60 23:46 01.11.2019
4930 Clear 23 1025 64 10000 4.6 50 23:22 01.11.2019
4931 Clear 24 1024 60 10000 4.1 40 22:57 01.11.2019
4932 Clear 24 1024 60 10000 5.1 40 22:39 01.11.2019
4933 Clear 24 1024 60 10000 5.1 40 22:20 01.11.2019
4934 Clear 25 1024 47 10000 3.6 60 21:41 01.11.2019
4935 Clear 25 1024 47 10000 3.6 60 21:23 01.11.2019
4936 Clear 25 1024 41 10000 2.6 100 20:56 01.11.2019
4937 Clouds 26 1024 39 10000 2.6 60 20:38 01.11.2019
4938 Clouds 26 1024 39 10000 2.6 60 20:19 01.11.2019
4939 Clouds 27 1023 36 10000 4.1 40 19:55 01.11.2019
4940 Clouds 27 1023 36 10000 4.1 40 19:36 01.11.2019
4941 Clouds 27 1023 36 10000 4.1 40 19:18 01.11.2019
4942 Clear 25 1022 32 0 4.82 60 18:39 01.11.2019
4943 Clear 25 1022 32 0 4.82 60 18:20 01.11.2019
4944 Clear 25 1022 32 0 4.82 60 17:55 01.11.2019
4945 Clear 25 1022 32 0 4.82 60 17:36 01.11.2019
4946 Clouds 30 1023 30 10000 4.1 40 17:18 01.11.2019
4947 Clouds 30 1023 30 10000 4.1 40 16:38 01.11.2019
4948 Clouds 30 1023 30 10000 4.1 40 16:19 01.11.2019
4949 Clouds 30 1023 33 10000 3.1 50 15:41 01.11.2019
4950 Clouds 30 1023 33 10000 3.1 50 15:23 01.11.2019
4951 Clouds 29 1024 37 10000 3.6 30 14:59 01.11.2019
4952 Clear 28 1024 39 10000 3.6 50 14:41 01.11.2019
4953 Clear 28 1024 39 10000 3.6 50 14:23 01.11.2019
4954 Clear 28 1025 39 10000 4.1 40 13:57 01.11.2019
4955 Clear 27 1025 44 10000 4.1 30 13:37 01.11.2019
4956 Clear 27 1025 44 10000 4.1 30 13:19 01.11.2019
4957 Clear 25 1026 50 10000 3.6 50 12:43 01.11.2019
4958 Clear 25 1026 50 10000 3.6 50 12:25 01.11.2019
4959 Clear 23 1026 56 10000 3.6 80 11:55 01.11.2019
4960 Clear 22 1027 60 10000 3.6 90 11:37 01.11.2019
4961 Clear 22 1027 60 10000 3.6 90 11:18 01.11.2019
4962 Clear 20 1027 72 10000 3.1 100 10:41 01.11.2019
4963 Clear 20 1027 72 10000 3.1 100 10:21 01.11.2019
4964 Clear 19 1027 72 10000 2.6 90 09:57 01.11.2019
4965 Clear 19 1027 72 10000 2.6 90 09:57 01.11.2019
4966 Clear 18 1027 77 10000 2.1 80 09:37 01.11.2019
4967 Clear 18 1027 77 10000 2.1 80 09:19 01.11.2019
4968 Clear 16 1026 87 10000 2.1 90 08:42 01.11.2019
4969 Clear 16 1026 87 10000 2.1 90 08:22 01.11.2019
4970 Clear 16 1026 87 10000 2.1 90 08:22 01.11.2019
4971 Clear 16 1026 82 10000 2.1 50 07:55 01.11.2019
4972 Clear 16 1026 82 10000 2.1 50 07:36 01.11.2019
4973 Clear 16 1026 82 10000 2.1 50 07:18 01.11.2019
4974 Clear 16 1026 82 10000 2.1 50 07:18 01.11.2019
4975 Clear 17 1026 77 10000 2.1 90 06:40 01.11.2019
4976 Clear 17 1026 77 10000 2.1 90 06:21 01.11.2019
4977 Clear 17 1026 77 10000 2.1 90 06:21 01.11.2019
4978 Clear 17 1026 77 10000 1.5 90 05:43 01.11.2019
4979 Clear 18 1026 77 10000 1.5 50 03:42 01.11.2019
4980 Clear 19 1026 72 10000 2.1 60 02:47 01.11.2019
4981 Clouds 20 1026 68 10000 3.6 50 01:28 01.11.2019
4982 Clouds 21 1026 64 10000 3.6 40 00:22 01.11.2019
4983 Clouds 21 1026 64 10000 4.6 50 23:59 31.10.2019
4984 Clouds 22 1027 60 10000 4.6 50 23:41 31.10.2019
4985 Clouds 22 1027 60 10000 4.6 50 23:22 31.10.2019
4986 Clouds 22 1027 60 10000 4.1 60 22:42 31.10.2019
4987 Clouds 23 1026 56 10000 4.6 50 22:24 31.10.2019
4988 Clouds 23 1026 53 10000 3.1 40 21:58 31.10.2019
4989 Clouds 24 1026 50 10000 4.1 40 21:40 31.10.2019
4990 Clouds 24 1026 50 10000 4.1 40 21:19 31.10.2019
4991 Clouds 25 1025 44 10000 4.6 30 20:41 31.10.2019
4992 Clouds 25 1025 44 10000 4.6 30 20:23 31.10.2019
4993 Clouds 26 1025 41 10000 5.1 30 19:59 31.10.2019
4994 Clouds 27 1025 36 10000 4.6 20 19:39 31.10.2019
4995 Clouds 27 1025 36 10000 4.6 20 19:21 31.10.2019
4996 Clouds 28 1024 32 10000 3.6 50 18:55 31.10.2019
4997 Clouds 28 1024 32 10000 4.1 40 18:36 31.10.2019
4998 Clouds 28 1024 32 10000 4.1 40 18:18 31.10.2019
4999 Clouds 29 1024 30 10000 4.6 30 17:41 31.10.2019
5000 Clouds 29 1024 30 10000 4.6 30 17:21 31.10.2019
5001 Clouds 29 1024 30 10000 5.1 40 16:56 31.10.2019
5002 Clouds 30 1024 28 10000 3.6 20 16:37 31.10.2019
5003 Clouds 30 1024 28 10000 3.6 20 16:18 31.10.2019
5004 Clouds 30 1024 28 10000 3.6 40 15:41 31.10.2019
5005 Clouds 30 1024 28 10000 3.6 40 15:23 31.10.2019
5006 Clouds 29 1024 30 10000 3.6 40 14:59 31.10.2019
5007 Clouds 29 1025 30 10000 2.6 0 14:41 31.10.2019
5008 Clouds 29 1025 30 10000 2.6 0 14:23 31.10.2019
5009 Clouds 28 1025 32 10000 1.5 40 13:59 31.10.2019
5010 Clouds 27 1026 34 10000 2.1 0 13:39 31.10.2019
5011 Clouds 27 1026 34 10000 2.1 0 13:19 31.10.2019
5012 Clouds 27 1026 34 10000 2.6 70 12:57 31.10.2019
5013 Clouds 24 1026 41 10000 2.6 80 12:38 31.10.2019
5014 Clouds 24 1026 41 10000 2.6 80 12:20 31.10.2019
5015 Clouds 23 1026 43 10000 2.6 80 11:45 31.10.2019
5016 Clouds 23 1026 43 10000 2.6 80 11:21 31.10.2019
5017 Clouds 23 1026 43 10000 2.6 80 11:21 31.10.2019
5018 Clouds 22 1026 46 10000 2.6 60 10:58 31.10.2019
5019 Clouds 22 1026 46 10000 2.6 60 10:58 31.10.2019
5020 Clouds 21 1026 49 10000 2.6 80 10:39 31.10.2019
5021 Clouds 21 1026 49 10000 2.6 80 10:39 31.10.2019
5022 Clouds 21 1026 49 10000 2.6 80 10:21 31.10.2019
5023 Clouds 19 1026 48 10000 2.6 70 09:54 31.10.2019
5024 Clouds 18 1025 48 10000 1 0 09:36 31.10.2019
5025 Clouds 18 1025 48 10000 1 0 09:18 31.10.2019
5026 Clouds 15 1025 58 10000 1.5 80 08:43 31.10.2019
5027 Clouds 14 1025 58 10000 2.6 60 08:24 31.10.2019
5028 Clouds 15 1025 58 10000 1.5 70 07:48 31.10.2019
5029 Clouds 15 1024 58 10000 2.6 80 07:26 31.10.2019
5030 Clouds 16 1024 59 10000 3.1 100 06:53 31.10.2019
5031 Clouds 16 1024 59 10000 1.5 100 06:32 31.10.2019
5032 Clouds 17 1024 55 10000 1.5 60 05:27 31.10.2019
5033 Clouds 17 1025 67 10000 2.1 100 02:50 31.10.2019
5034 Clouds 18 1025 68 10000 2.6 100 02:27 31.10.2019
5035 Clear 19 1025 63 10000 2.1 60 01:21 31.10.2019
5036 Clear 20 1025 60 10000 2.1 50 00:26 31.10.2019
5037 Clear 21 1025 49 10000 2.1 40 23:49 30.10.2019
5038 Clear 21 1025 43 10000 2.1 40 23:25 30.10.2019
5039 Clear 22 1024 37 10000 1.5 90 22:42 30.10.2019
5040 Clear 22 1024 37 10000 1.5 90 22:20 30.10.2019
5041 Clear 23 1024 35 10000 2.1 100 21:55 30.10.2019
5042 Clear 23 1024 33 10000 1 0 21:37 30.10.2019
5043 Clear 23 1024 33 10000 1 0 21:18 30.10.2019
5044 Clear 24 1024 31 10000 2.1 50 20:58 30.10.2019
5045 Clouds 25 1023 27 10000 2.6 40 20:39 30.10.2019
5046 Clouds 25 1023 27 10000 2.6 40 20:21 30.10.2019
5047 Clouds 25 1023 31 10000 2.6 40 19:54 30.10.2019
5048 Clouds 26 1023 27 10000 2.6 40 19:36 30.10.2019
5049 Clouds 26 1023 27 10000 2.6 40 19:18 30.10.2019
5050 Clouds 28 1022 21 10000 2.6 20 18:39 30.10.2019
5051 Clouds 28 1022 21 10000 2.6 20 18:19 30.10.2019
5052 Clouds 29 1022 20 10000 2.6 10 17:56 30.10.2019
5053 Clouds 29 1022 21 10000 3.1 340 17:38 30.10.2019
5054 Clouds 29 1022 21 10000 3.1 340 17:18 30.10.2019
5055 Clouds 29 1022 21 10000 2.6 350 16:54 30.10.2019
5056 Clouds 29 1022 26 10000 2.1 0 16:36 30.10.2019
5057 Clouds 29 1022 26 10000 2.1 0 16:18 30.10.2019
5058 Clouds 29 1022 26 10000 3.1 340 15:41 30.10.2019
5059 Clouds 29 1022 26 10000 3.1 340 15:21 30.10.2019
5060 Clouds 28 1022 32 10000 3.6 320 14:59 30.10.2019
5061 Clouds 28 1023 32 10000 3.6 330 14:41 30.10.2019
5062 Clouds 28 1023 32 10000 3.6 330 14:22 30.10.2019
5063 Clouds 28 1023 34 10000 3.1 350 13:57 30.10.2019
5064 Clouds 27 1023 36 10000 2.1 330 13:39 30.10.2019
5065 Clouds 27 1023 36 10000 2.1 330 13:19 30.10.2019
5066 Clouds 26 1023 34 10000 2.1 0 12:54 30.10.2019
5067 Clouds 27 1024 39 10000 1 0 12:36 30.10.2019
5068 Clouds 27 1024 39 10000 1 0 12:36 30.10.2019
5069 Clouds 27 1024 39 10000 1 0 12:18 30.10.2019
5070 Clouds 24 1024 47 10000 1 0 11:41 30.10.2019
5071 Clouds 24 1024 47 10000 1 0 11:21 30.10.2019
5072 Clouds 23 1024 46 10000 1 0 10:44 30.10.2019
5073 Clouds 22 1024 49 10000 1.5 10 10:23 30.10.2019
5074 Clouds 22 1024 53 10000 0.5 0 09:57 30.10.2019
5075 Clouds 20 1023 56 10000 0.5 0 09:38 30.10.2019
5076 Clouds 20 1023 56 10000 0.5 0 09:19 30.10.2019
5077 Clouds 17 1023 63 10000 2.1 170 08:40 30.10.2019
5078 Clouds 17 1023 63 10000 2.1 170 08:22 30.10.2019
5079 Clouds 17 1023 63 10000 2.6 170 07:51 30.10.2019
5080 Clouds 17 1022 63 10000 2.6 160 07:32 30.10.2019
5081 Clouds 16 1022 67 10000 1 0 06:43 30.10.2019
5082 Clouds 17 1022 59 10000 1 0 06:22 30.10.2019
5083 Clouds 17 1022 59 10000 1 0 05:46 30.10.2019
5084 Clouds 18 1022 55 10000 2.1 160 05:24 30.10.2019
5085 Clouds 19 1021 59 10000 1.5 360 03:45 30.10.2019
5086 Clouds 18 1021 55 10000 1.5 20 03:18 30.10.2019
5087 Clear 19 1021 52 10000 1 0 02:19 30.10.2019
5088 Clear 20 1022 52 10000 1.5 180 01:32 30.10.2019
5089 Clouds 20 1022 49 10000 1.5 260 00:31 30.10.2019
5090 Clouds 20 1021 52 10000 1.5 270 23:46 29.10.2019
5091 Clear 21 1021 52 10000 1 0 23:25 29.10.2019
5092 Clouds 22 1021 46 10000 1 0 22:55 29.10.2019
5093 Clouds 23 1021 38 10000 2.1 210 22:37 29.10.2019
5094 Clouds 23 1021 38 10000 2.1 210 22:37 29.10.2019
5095 Clouds 23 1021 38 10000 2.1 210 22:37 29.10.2019
5096 Clouds 23 1021 38 10000 2.1 210 22:18 29.10.2019
5097 Clouds 22 1021 40 10000 1 0 21:42 29.10.2019
5098 Clouds 23 1021 38 10000 1.5 240 21:21 29.10.2019
5099 Clouds 23 1020 38 10000 1.5 250 20:59 29.10.2019
5100 Clouds 23 1020 38 10000 2.1 270 20:40 29.10.2019
5101 Clouds 23 1020 38 10000 2.1 270 20:21 29.10.2019
5102 Clouds 24 1019 36 10000 2.1 280 19:57 29.10.2019
5103 Clouds 26 1019 34 10000 2.1 270 19:38 29.10.2019
5104 Clouds 26 1019 34 10000 2.1 270 19:20 29.10.2019
5105 Clouds 27 1019 32 10000 3.1 280 18:56 29.10.2019
5106 Clouds 27 1019 32 10000 3.1 280 18:56 29.10.2019
5107 Clouds 28 1019 28 10000 3.1 290 18:37 29.10.2019
5108 Clouds 28 1019 28 10000 3.1 290 18:19 29.10.2019
5109 Clouds 29 1019 30 10000 1.5 0 17:55 29.10.2019
5110 Clouds 29 1019 30 10000 1.5 0 17:36 29.10.2019
5111 Clouds 29 1019 30 10000 1.5 0 17:18 29.10.2019
5112 Clouds 29 1019 32 10000 2.6 0 16:40 29.10.2019
5113 Clouds 29 1019 32 10000 2.6 0 16:21 29.10.2019
5114 Clouds 29 1018 32 10000 3.6 270 15:57 29.10.2019
5115 Clouds 29 1019 35 10000 2.1 0 15:39 29.10.2019
5116 Clouds 29 1019 35 10000 2.1 0 15:20 29.10.2019
5117 Clouds 29 1019 35 10000 2.1 0 15:20 29.10.2019
5118 Clouds 28 1019 37 10000 2.6 0 14:55 29.10.2019
5119 Clouds 28 1019 37 10000 2.1 350 14:37 29.10.2019
5120 Clouds 28 1019 37 10000 2.1 350 14:19 29.10.2019
5121 Clouds 27 1020 42 10000 2.1 0 13:40 29.10.2019
5122 Clouds 27 1020 42 10000 2.1 0 13:22 29.10.2019
5123 Clouds 26 1020 50 10000 2.1 360 12:55 29.10.2019
5124 Clouds 26 1020 50 10000 1 0 12:36 29.10.2019
5125 Clouds 26 1020 50 10000 1 0 12:18 29.10.2019
5126 Clouds 23 1021 56 10000 1 0 11:42 29.10.2019
5127 Clouds 23 1021 56 10000 1 0 11:22 29.10.2019
5128 Clouds 23 1021 60 10000 1 0 10:58 29.10.2019
5129 Clouds 22 1021 64 10000 0.5 0 10:39 29.10.2019
5130 Clouds 22 1021 64 10000 0.5 0 10:20 29.10.2019
5131 Clouds 22 1020 64 10000 0.5 0 09:57 29.10.2019
5132 Clouds 19 1020 77 10000 1 0 09:39 29.10.2019
5133 Clouds 19 1020 77 10000 1 0 09:21 29.10.2019
5134 Clouds 17 1020 82 10000 1 0 08:44 29.10.2019
5135 Clouds 16 1019 87 10000 1 0 08:25 29.10.2019
5136 Clouds 16 1019 87 10000 1 0 07:55 29.10.2019
5137 Clouds 16 1019 87 10000 1 0 07:36 29.10.2019
5138 Clouds 16 1019 87 10000 1 0 07:18 29.10.2019
5139 Clouds 16 1019 82 10000 1.5 260 06:44 29.10.2019
5140 Clouds 17 1018 88 10000 1.5 230 06:21 29.10.2019
5141 Clouds 17 1018 82 10000 1 0 05:50 29.10.2019
5142 Clouds 16 1018 87 10000 0.5 0 05:26 29.10.2019
5143 Clouds 17 1018 82 10000 1.5 260 04:30 29.10.2019
5144 Clouds 19 1018 77 10000 2.6 230 02:32 29.10.2019
5145 Clouds 18 1019 82 10000 2.6 240 01:46 29.10.2019
5146 Clouds 18 1019 82 10000 3.1 250 01:18 29.10.2019
5147 Clouds 20 1019 68 10000 3.6 240 00:32 29.10.2019
5148 Clouds 20 1019 72 10000 3.6 240 23:43 28.10.2019
5149 Clear 21 1019 68 10000 3.6 240 23:21 28.10.2019
5150 Clouds 21 1019 68 10000 3.6 240 22:58 28.10.2019
5151 Clouds 23 1018 60 10000 3.1 270 22:37 28.10.2019
5152 Clouds 23 1018 60 10000 3.1 270 22:18 28.10.2019
5153 Clouds 24 1018 57 10000 3.1 310 21:56 28.10.2019
5154 Clouds 23 1018 56 10000 3.1 260 21:38 28.10.2019
5155 Clouds 23 1018 56 10000 3.1 260 21:38 28.10.2019
5156 Clouds 23 1018 56 10000 3.1 260 21:19 28.10.2019
5157 Clouds 23 1018 53 10000 2.1 260 20:45 28.10.2019
5158 Clouds 24 1017 50 10000 3.1 250 20:25 28.10.2019
5159 Clouds 26 1017 41 10000 3.6 240 19:59 28.10.2019
5160 Clouds 27 1017 39 10000 3.1 250 19:39 28.10.2019
5161 Clouds 27 1017 39 10000 3.1 250 19:21 28.10.2019
5162 Clouds 28 1017 39 10000 4.1 250 18:59 28.10.2019
5163 Clouds 28 1017 39 10000 4.1 250 18:59 28.10.2019
5164 Clouds 29 1017 37 10000 3.6 260 18:40 28.10.2019
5165 Clouds 29 1017 37 10000 3.6 260 18:21 28.10.2019
5166 Clouds 30 1017 37 10000 2.6 300 17:56 28.10.2019
5167 Clouds 30 1017 37 10000 2.6 300 17:38 28.10.2019
5168 Clouds 30 1017 37 10000 2.6 300 17:19 28.10.2019
5169 Clear 28 1017 32 0 2.75 324 16:57 28.10.2019
5170 Clear 28 1017 32 0 2.75 324 16:39 28.10.2019
5171 Clear 28 1017 32 0 2.75 324 16:20 28.10.2019
5172 Clouds 30 1018 40 10000 1 0 15:58 28.10.2019
5173 Clouds 30 1018 40 10000 1 0 15:58 28.10.2019
5174 Clouds 30 1018 40 10000 1 0 15:39 28.10.2019
5175 Clouds 30 1018 40 10000 1 0 15:20 28.10.2019
5176 Clouds 30 1018 40 10000 1 0 14:56 28.10.2019
5177 Clouds 29 1018 42 10000 1.5 0 14:38 28.10.2019
5178 Clouds 29 1018 42 10000 1.5 0 14:18 28.10.2019
5179 Clouds 28 1019 45 10000 2.6 0 13:54 28.10.2019
5180 Clouds 29 1019 45 10000 1.5 0 13:36 28.10.2019
5181 Clouds 29 1019 45 10000 1.5 0 13:18 28.10.2019
5182 Clouds 29 1019 45 10000 1.5 0 13:18 28.10.2019
5183 Clouds 27 1020 47 10000 2.1 10 12:41 28.10.2019
5184 Clouds 27 1020 47 10000 2.1 10 12:20 28.10.2019
5185 Clouds 26 1020 50 10000 1.5 50 11:40 28.10.2019
5186 Clouds 26 1020 50 10000 1.5 50 11:21 28.10.2019
5187 Clouds 25 1020 53 10000 2.1 90 10:57 28.10.2019
5188 Clouds 24 1020 53 10000 2.1 90 10:38 28.10.2019
5189 Clouds 24 1020 53 10000 2.1 90 10:20 28.10.2019
5190 Clouds 23 1020 56 10000 2.6 110 09:55 28.10.2019
5191 Clouds 23 1020 56 10000 2.6 110 09:55 28.10.2019
5192 Clouds 22 1020 60 10000 2.1 120 09:37 28.10.2019
5193 Clouds 22 1020 60 10000 2.1 120 09:18 28.10.2019
5194 Clouds 21 1019 60 10000 2.6 130 08:56 28.10.2019
5195 Clouds 21 1019 60 10000 2.6 130 08:56 28.10.2019
5196 Clouds 20 1019 64 10000 3.1 120 08:37 28.10.2019
5197 Clouds 20 1019 64 10000 3.1 120 08:18 28.10.2019
5198 Clouds 20 1019 64 10000 1.5 120 07:47 28.10.2019
5199 Clouds 20 1019 64 10000 0.5 0 07:23 28.10.2019
5200 Clouds 20 1019 64 10000 0.5 0 07:23 28.10.2019
5201 Clouds 20 1019 64 10000 1.5 60 06:59 28.10.2019
5202 Clouds 21 1019 60 10000 2.6 20 06:39 28.10.2019
5203 Clouds 21 1019 60 10000 0.5 0 05:19 28.10.2019
5204 Clouds 21 1020 60 10000 1.5 260 03:44 28.10.2019
5205 Clouds 21 1021 60 10000 2.6 220 02:46 28.10.2019
5206 Clouds 21 1021 60 10000 1.5 170 01:52 28.10.2019
5207 Clouds 21 1021 60 10000 1.5 270 00:47 28.10.2019
5208 Clouds 23 1022 56 10000 1.5 320 00:26 28.10.2019
5209 Clouds 23 1022 56 10000 3.1 340 23:45 27.10.2019
5210 Clouds 23 1021 51 0 3.36 277 23:22 27.10.2019
5211 Clouds 23 1021 51 0 3.36 277 22:57 27.10.2019
5212 Clouds 25 1021 53 10000 2.6 240 22:37 27.10.2019
5213 Clouds 25 1021 53 10000 2.6 240 22:19 27.10.2019
5214 Clouds 25 1021 53 10000 2.1 240 21:56 27.10.2019
5215 Clouds 26 1021 50 10000 2.1 300 21:38 27.10.2019
5216 Clouds 26 1021 50 10000 2.1 300 21:20 27.10.2019
5217 Clouds 26 1021 50 10000 2.1 300 21:20 27.10.2019
5218 Clouds 27 1020 44 10000 3.6 290 20:42 27.10.2019
5219 Clouds 27 1020 44 10000 3.6 290 20:23 27.10.2019
5220 Clouds 27 1020 47 10000 5.1 280 19:59 27.10.2019
5221 Clouds 28 1020 42 10000 4.6 270 19:39 27.10.2019
5222 Clouds 28 1020 42 10000 4.6 270 19:20 27.10.2019
5223 Clouds 28 1019 39 10000 3.1 260 18:57 27.10.2019
5224 Clouds 29 1019 37 10000 5.1 270 18:39 27.10.2019
5225 Clouds 29 1019 37 10000 5.1 270 18:20 27.10.2019
5226 Clouds 29 1019 37 10000 4.1 280 17:55 27.10.2019
5227 Clouds 30 1019 35 10000 4.6 270 17:37 27.10.2019
5228 Clouds 30 1019 35 10000 4.6 270 17:19 27.10.2019
5229 Clouds 30 1019 33 10000 4.1 290 16:55 27.10.2019
5230 Clouds 30 1019 35 10000 5.1 280 16:37 27.10.2019
5231 Clouds 30 1019 35 10000 5.1 280 16:19 27.10.2019
5232 Clouds 31 1019 35 10000 4.6 280 15:55 27.10.2019
5233 Clouds 31 1019 33 10000 4.1 300 15:37 27.10.2019
5234 Clouds 31 1019 33 10000 4.1 300 15:18 27.10.2019
5235 Clouds 30 1020 30 10000 4.1 290 14:41 27.10.2019
5236 Clouds 30 1020 30 10000 4.1 290 14:20 27.10.2019
5237 Clouds 31 1020 29 10000 3.6 300 13:56 27.10.2019
5238 Clouds 29 1021 32 10000 1.5 270 13:37 27.10.2019
5239 Clouds 29 1021 32 10000 1.5 270 13:19 27.10.2019
5240 Clouds 29 1021 32 10000 1.5 270 12:43 27.10.2019
5241 Clouds 28 1021 30 10000 2.1 330 12:24 27.10.2019
5242 Clouds 27 1022 30 10000 1.5 350 11:55 27.10.2019
5243 Clouds 27 1022 30 10000 1 0 11:37 27.10.2019
5244 Clouds 27 1022 30 10000 1 0 11:18 27.10.2019
5245 Clouds 24 1022 38 10000 1 0 10:42 27.10.2019
5246 Clouds 24 1022 38 10000 1 0 10:23 27.10.2019
5247 Clouds 23 1021 38 10000 0.5 0 09:44 27.10.2019
5248 Clouds 20 1021 42 10000 1.5 70 09:19 27.10.2019
5249 Clouds 18 1021 48 10000 1.5 80 08:59 27.10.2019
5250 Clouds 17 1020 48 10000 2.1 70 08:40 27.10.2019
5251 Clouds 17 1020 48 10000 2.1 70 08:20 27.10.2019
5252 Clouds 16 1020 51 10000 2.1 80 07:48 27.10.2019
5253 Clouds 16 1020 51 10000 1.5 40 07:28 27.10.2019
5254 Clouds 18 1020 45 10000 0.5 0 06:56 27.10.2019
5255 Clouds 19 1020 42 10000 1.5 140 06:31 27.10.2019
5256 Clouds 19 1020 39 10000 1.5 170 05:58 27.10.2019
5257 Clouds 18 1020 48 10000 1 0 05:37 27.10.2019
5258 Clear 18 1020 48 10000 1.5 90 04:32 27.10.2019
5259 Clouds 21 1022 40 10000 1.5 180 02:42 27.10.2019
5260 Clouds 19 1022 42 10000 1 0 01:28 27.10.2019
5261 Clouds 19 1021 46 0 0.83 276 00:56 27.10.2019
5262 Clouds 19 1021 46 0 0.83 276 00:38 27.10.2019
5263 Clouds 22 1022 36 0 1.45 232 23:59 26.10.2019
5264 Clouds 22 1022 36 0 1.45 232 23:59 26.10.2019
5265 Clouds 22 1022 36 0 1.45 232 23:40 26.10.2019
5266 Clouds 22 1022 36 0 1.45 232 23:22 26.10.2019
5267 Clouds 25 1021 36 10000 3.6 240 22:58 26.10.2019
5268 Clouds 25 1021 36 10000 3.6 240 22:39 26.10.2019
5269 Clouds 25 1021 36 10000 3.6 240 22:20 26.10.2019
5270 Clouds 25 1021 36 10000 3.6 240 21:58 26.10.2019
5271 Clouds 21 1022 36 0 0.67 248 21:40 26.10.2019
5272 Clouds 27 1020 30 10000 3.6 280 21:19 26.10.2019
5273 Clouds 27 1020 30 10000 3.6 280 20:45 26.10.2019
5274 Clouds 27 1020 30 10000 3.6 280 20:20 26.10.2019
5275 Clouds 29 1020 26 10000 6.2 280 19:56 26.10.2019
5276 Clouds 31 1019 22 10000 6.2 290 19:38 26.10.2019
5277 Clouds 31 1019 22 10000 6.2 290 19:19 26.10.2019
5278 Clouds 31 1019 22 10000 6.2 290 19:19 26.10.2019
5279 Clouds 32 1019 22 10000 6.2 280 18:55 26.10.2019
5280 Clouds 32 1019 24 10000 5.7 300 18:36 26.10.2019
5281 Clouds 32 1019 24 10000 5.7 300 18:18 26.10.2019
5282 Clouds 33 1018 22 10000 5.7 300 17:39 26.10.2019
5283 Clouds 33 1018 22 10000 5.7 300 17:20 26.10.2019
5284 Clouds 33 1019 24 10000 4.1 300 16:58 26.10.2019
5285 Clouds 32 1019 27 10000 2.6 330 16:39 26.10.2019
5286 Clouds 32 1019 27 10000 2.6 330 16:20 26.10.2019
5287 Clouds 32 1019 29 10000 1.5 0 15:40 26.10.2019
5288 Clouds 32 1019 29 10000 1.5 0 15:40 26.10.2019
5289 Clouds 32 1019 29 10000 1.5 0 15:19 26.10.2019
5290 Clear 31 1019 29 10000 2.1 30 14:40 26.10.2019
5291 Clear 31 1019 29 10000 2.1 30 14:40 26.10.2019
5292 Clear 31 1019 29 10000 2.1 30 14:22 26.10.2019
5293 Clear 30 1020 22 0 3.32 333 13:59 26.10.2019
5294 Clear 30 1020 22 0 3.32 333 13:40 26.10.2019
5295 Clear 30 1020 22 0 3.32 333 13:20 26.10.2019
5296 Clear 30 1020 22 0 3.32 333 12:46 26.10.2019
5297 Clouds 25 1020 38 10000 1.5 80 12:23 26.10.2019
5298 Clouds 25 1020 38 10000 1.5 80 11:48 26.10.2019
5299 Clouds 25 1020 38 10000 1.5 80 11:48 26.10.2019
5300 Clouds 25 1020 38 10000 1.5 80 11:28 26.10.2019
5301 Clouds 25 1020 38 10000 1.5 80 11:28 26.10.2019
5302 Clouds 25 1020 38 10000 1.5 80 11:28 26.10.2019
5303 Clouds 23 1020 40 10000 1.5 80 10:48 26.10.2019
5304 Clouds 21 1020 40 10000 2.1 70 10:27 26.10.2019
5305 Clouds 19 1020 45 10000 1.5 80 09:59 26.10.2019
5306 Clear 17 1020 45 10000 2.1 60 09:41 26.10.2019
5307 Clouds 17 1020 45 10000 2.1 60 09:23 26.10.2019
5308 Clouds 18 1020 42 10000 2.1 90 08:43 26.10.2019
5309 Clouds 17 1019 45 10000 2.1 90 08:25 26.10.2019
5310 Clouds 17 1020 45 10000 2.1 80 07:44 26.10.2019
5311 Clouds 17 1020 45 10000 2.1 80 07:44 26.10.2019
5312 Clouds 17 1019 42 10000 2.1 80 07:25 26.10.2019
5313 Clouds 19 1019 37 10000 1 0 06:42 26.10.2019
5314 Clouds 19 1019 37 10000 1 0 06:23 26.10.2019
5315 Clouds 18 1019 39 10000 2.1 100 05:19 26.10.2019
5316 Clouds 18 1019 36 10000 0.5 0 04:23 26.10.2019
5317 Clouds 21 1020 28 10000 0.5 0 02:46 26.10.2019
5318 Clouds 22 1020 28 10000 2.1 150 01:54 26.10.2019
5319 Clouds 21 1021 30 10000 1.5 140 01:22 26.10.2019
5320 Clouds 22 1021 30 10000 0.5 0 00:23 26.10.2019
5321 Clouds 23 1021 31 10000 2.6 250 23:43 25.10.2019
5322 Clouds 24 1021 29 10000 2.1 130 23:20 25.10.2019
5323 Clouds 23 1020 31 10000 0.5 0 22:40 25.10.2019
5324 Clouds 23 1020 31 10000 0.5 0 22:22 25.10.2019
5325 Clouds 24 1020 29 10000 0.5 0 21:57 25.10.2019
5326 Clouds 26 1020 26 10000 1 0 21:39 25.10.2019
5327 Clouds 26 1020 26 10000 1 0 21:19 25.10.2019
5328 Clouds 28 1020 23 10000 1 0 20:55 25.10.2019
5329 Clouds 31 1019 19 10000 1.5 20 20:37 25.10.2019
5330 Clouds 31 1019 19 10000 1.5 20 20:18 25.10.2019
5331 Clouds 31 1019 19 10000 1.5 10 19:41 25.10.2019
5332 Clouds 31 1019 19 10000 1.5 10 19:23 25.10.2019
5333 Clouds 32 1019 18 10000 1.5 20 18:44 25.10.2019
5334 Clouds 32 1019 18 10000 2.1 10 18:22 25.10.2019
5335 Clouds 31 1019 18 10000 3.1 330 17:41 25.10.2019
5336 Clouds 31 1019 18 10000 3.1 330 17:21 25.10.2019
5337 Clouds 33 1019 16 10000 1.5 340 16:54 25.10.2019
5338 Clouds 33 1019 16 10000 2.1 0 16:36 25.10.2019
5339 Clouds 33 1019 16 10000 2.1 0 16:18 25.10.2019
5340 Clouds 32 1019 11 10000 4.1 90 15:40 25.10.2019
5341 Clouds 32 1019 11 10000 4.1 90 15:21 25.10.2019
5342 Clouds 31 1020 12 10000 3.6 90 14:57 25.10.2019
5343 Clouds 30 1020 12 10000 4.1 90 14:39 25.10.2019
5344 Clouds 30 1020 12 10000 4.1 90 14:20 25.10.2019
5345 Clouds 27 1021 19 10000 3.1 100 13:41 25.10.2019
5346 Clouds 27 1021 19 10000 3.1 100 13:23 25.10.2019
5347 Clouds 25 1021 20 10000 2.1 90 12:55 25.10.2019
5348 Clouds 25 1021 22 10000 1.5 90 12:37 25.10.2019
5349 Clouds 25 1021 22 10000 1.5 90 12:18 25.10.2019
5350 Clouds 20 1021 10 10000 2.1 70 11:40 25.10.2019
5351 Clouds 20 1021 10 10000 2.1 70 11:22 25.10.2019
5352 Clouds 18 1021 31 10000 2.1 70 10:57 25.10.2019
5353 Clouds 17 1021 10 10000 1.5 90 10:36 25.10.2019
5354 Clouds 17 1021 10 10000 1.5 90 10:18 25.10.2019
5355 Clouds 11 1020 43 10000 2.1 80 09:42 25.10.2019
5356 Clear 11 1020 43 10000 2.1 80 09:21 25.10.2019
5357 Clear 11 1020 43 10000 2.1 80 09:21 25.10.2019
5358 Clear 10 1020 46 10000 2.6 90 08:57 25.10.2019
5359 Clear 10 1020 46 10000 1.5 80 08:39 25.10.2019
5360 Clear 10 1020 46 10000 1.5 80 08:39 25.10.2019
5361 Clear 10 1020 46 10000 1.5 80 08:20 25.10.2019
5362 Clear 12 1020 40 10000 1.5 210 07:45 25.10.2019
5363 Clear 12 1020 40 10000 1.5 210 07:26 25.10.2019
5364 Clear 11 1019 40 10000 2.1 80 06:37 25.10.2019
5365 Clouds 11 1019 43 10000 2.6 60 05:49 25.10.2019
5366 Clouds 11 1019 17 10000 2.1 80 05:28 25.10.2019
5367 Clouds 12 1019 17 10000 2.6 90 04:30 25.10.2019
5368 Clear 17 1020 27 10000 3.1 180 02:35 25.10.2019
5369 Clear 16 1020 26 10000 1.5 160 01:52 25.10.2019
5370 Clear 17 1020 27 10000 1.5 140 00:36 25.10.2019
5371 Clear 18 1020 27 10000 1 0 23:44 24.10.2019
5372 Clear 18 1020 25 10000 1.5 140 23:25 24.10.2019
5373 Clear 19 1020 24 10000 2.1 100 22:59 24.10.2019
5374 Clear 20 1019 22 10000 1.5 110 22:39 24.10.2019
5375 Clear 20 1019 22 10000 1.5 110 22:19 24.10.2019
5376 Clear 20 1019 22 10000 1.5 110 22:19 24.10.2019
5377 Clear 21 1019 21 10000 1.5 30 21:57 24.10.2019
5378 Clear 21 1019 21 10000 1.5 30 21:57 24.10.2019
5379 Clear 22 1019 19 10000 2.6 40 21:38 24.10.2019
5380 Clear 22 1019 19 10000 2.6 40 21:20 24.10.2019
5381 Clear 23 1019 18 10000 2.1 30 20:59 24.10.2019
5382 Clear 25 1018 11 10000 1.5 10 20:39 24.10.2019
5383 Clear 25 1018 11 10000 1.5 10 20:21 24.10.2019
5384 Clear 27 1018 14 10000 1.5 100 19:56 24.10.2019
5385 Clear 27 1018 14 10000 1.5 360 19:37 24.10.2019
5386 Clear 27 1018 14 10000 1.5 360 19:19 24.10.2019
5387 Clear 27 1018 14 10000 2.1 10 18:55 24.10.2019
5388 Clear 28 1018 14 10000 1 0 18:37 24.10.2019
5389 Clear 28 1018 14 10000 1 0 18:18 24.10.2019
5390 Clear 28 1018 13 10000 2.1 0 17:41 24.10.2019
5391 Clear 28 1018 13 10000 2.1 0 17:20 24.10.2019
5392 Clear 27 1018 15 10000 2.1 70 16:56 24.10.2019
5393 Clear 27 1018 15 10000 2.1 70 16:56 24.10.2019
5394 Clear 26 1018 15 10000 2.6 0 16:38 24.10.2019
5395 Clear 26 1018 15 10000 2.6 0 16:19 24.10.2019
5396 Clear 26 1018 16 10000 3.6 30 15:58 24.10.2019
5397 Clear 25 1018 20 10000 3.1 60 15:39 24.10.2019
5398 Clear 25 1018 20 10000 3.1 60 15:21 24.10.2019
5399 Clear 24 1019 23 10000 3.6 60 14:55 24.10.2019
5400 Clear 23 1019 27 10000 3.1 70 14:37 24.10.2019
5401 Clear 23 1019 27 10000 3.1 70 14:18 24.10.2019
5402 Clear 22 1020 33 10000 4.1 50 13:40 24.10.2019
5403 Clear 22 1020 33 10000 4.1 50 13:19 24.10.2019
5404 Clear 20 1020 34 10000 3.6 50 12:57 24.10.2019
5405 Clear 19 1020 39 10000 3.6 70 12:38 24.10.2019
5406 Clear 19 1020 39 10000 3.6 70 12:19 24.10.2019
5407 Clear 17 1020 45 10000 4.1 70 11:56 24.10.2019
5408 Clear 17 1020 45 10000 4.1 70 11:56 24.10.2019
5409 Clear 16 1020 44 10000 4.6 80 11:37 24.10.2019
5410 Clear 16 1020 44 10000 4.6 80 11:37 24.10.2019
5411 Clear 16 1020 44 10000 4.6 80 11:19 24.10.2019
5412 Clear 15 1020 47 10000 3.6 100 10:55 24.10.2019
5413 Clear 13 1020 50 10000 3.1 90 10:36 24.10.2019
5414 Clear 13 1020 50 10000 3.1 90 10:18 24.10.2019
5415 Clear 10 1019 61 10000 3.1 70 09:37 24.10.2019
5416 Clear 10 1019 61 10000 3.1 70 09:18 24.10.2019
5417 Clear 10 1019 66 10000 3.6 90 08:44 24.10.2019
5418 Clear 10 1019 66 10000 3.6 90 08:20 24.10.2019
5419 Clear 10 1019 66 10000 3.6 90 08:20 24.10.2019
5420 Clear 11 1019 71 10000 4.1 90 07:49 24.10.2019
5421 Clear 11 1019 71 10000 4.1 100 07:24 24.10.2019
5422 Clear 11 1019 76 10000 4.1 100 06:59 24.10.2019
5423 Clear 11 1019 71 10000 3.6 90 06:37 24.10.2019
5424 Clear 12 1019 71 10000 3.1 90 05:56 24.10.2019
5425 Clear 12 1019 71 10000 3.1 80 05:36 24.10.2019
5426 Clear 13 1020 66 10000 3.6 80 04:34 24.10.2019
5427 Clear 13 1020 58 10000 2.6 80 03:36 24.10.2019
5428 Clear 14 1020 54 10000 3.1 80 02:44 24.10.2019
5429 Clear 14 1020 54 10000 3.1 80 02:20 24.10.2019
5430 Clear 14 1020 50 10000 2.6 70 01:32 24.10.2019
5431 Clear 14 1020 50 10000 2.1 70 00:57 24.10.2019
5432 Clear 14 1020 47 10000 2.1 80 00:30 24.10.2019
5433 Clear 16 1020 44 10000 3.1 80 23:58 23.10.2019
5434 Clear 17 1020 42 10000 3.6 70 23:38 23.10.2019
5435 Clear 17 1020 42 10000 3.6 70 23:20 23.10.2019
5436 Clear 17 1019 42 10000 3.1 70 22:57 23.10.2019
5437 Clear 18 1019 39 10000 3.6 60 22:37 23.10.2019
5438 Clear 18 1019 39 10000 3.6 60 22:18 23.10.2019
5439 Clear 18 1019 39 10000 5.1 40 21:57 23.10.2019
5440 Clear 18 1019 39 10000 5.1 40 21:57 23.10.2019
5441 Clear 19 1018 32 10000 3.6 30 21:37 23.10.2019
5442 Clear 19 1018 32 10000 3.6 30 21:19 23.10.2019
5443 Clear 20 1018 30 10000 3.6 30 20:54 23.10.2019
5444 Clear 20 1018 30 10000 3.6 30 20:36 23.10.2019
5445 Clear 20 1018 30 10000 3.6 30 20:18 23.10.2019
5446 Clear 21 1017 28 10000 3.1 40 19:43 23.10.2019
5447 Clear 22 1017 28 10000 1.5 0 19:19 23.10.2019
5448 Clear 22 1017 28 10000 2.6 0 18:58 23.10.2019
5449 Clear 22 1017 28 0 2.6 0 18:39 23.10.2019
5450 Clear 22 1017 28 0 2.6 0 18:39 23.10.2019
5451 Clear 22 1017 28 0 2.6 0 18:19 23.10.2019
5452 Clear 22 1017 28 10000 3.1 330 17:55 23.10.2019
5453 Clear 22 1016 28 10000 1.5 0 17:37 23.10.2019
5454 Clear 22 1016 28 10000 1.5 0 17:18 23.10.2019
5455 Clear 22 1017 26 10000 2.1 0 16:40 23.10.2019
5456 Clear 22 1017 26 10000 2.1 0 16:21 23.10.2019
5457 Clear 21 1017 28 10000 2.6 90 15:57 23.10.2019
5458 Clear 20 1017 32 10000 3.1 40 15:39 23.10.2019
5459 Clear 20 1017 32 10000 3.1 40 15:20 23.10.2019
5460 Clear 20 1018 32 10000 2.1 40 14:56 23.10.2019
5461 Clear 20 1018 37 10000 2.1 0 14:37 23.10.2019
5462 Clear 20 1018 37 10000 2.1 0 14:18 23.10.2019
5463 Clear 20 1018 37 10000 2.1 0 14:18 23.10.2019
5464 Clear 18 1018 42 10000 1.5 90 13:43 23.10.2019
5465 Clear 18 1018 42 10000 1.5 90 13:25 23.10.2019
5466 Clear 17 1019 45 10000 2.6 70 12:57 23.10.2019
5467 Clear 17 1019 51 10000 2.6 50 12:38 23.10.2019
5468 Clear 17 1019 51 10000 2.6 50 12:19 23.10.2019
5469 Clear 16 1018 59 10000 2.6 30 11:58 23.10.2019
5470 Clear 15 1018 58 10000 2.1 50 11:39 23.10.2019
5471 Clear 15 1018 58 10000 2.1 50 11:21 23.10.2019
5472 Clear 15 1018 58 10000 1.5 60 10:55 23.10.2019
5473 Clear 13 1017 66 10000 2.1 90 10:37 23.10.2019
5474 Clear 13 1017 66 10000 2.1 90 10:18 23.10.2019
5475 Clear 13 1018 59 0 1.72 37 09:40 23.10.2019
5476 Clear 9 1017 89 0 0.98 55 09:21 23.10.2019
5477 Clouds 10 1017 76 10000 2.1 100 08:43 23.10.2019
5478 Clouds 10 1017 76 10000 2.1 100 08:25 23.10.2019
5479 Clouds 10 1017 76 10000 2.1 100 07:58 23.10.2019
5480 Clouds 11 1017 76 10000 1 0 07:39 23.10.2019
5481 Clouds 11 1017 76 10000 1 0 07:18 23.10.2019
5482 Clouds 11 1017 76 10000 3.1 160 06:41 23.10.2019
5483 Clouds 11 1017 76 10000 3.1 160 06:18 23.10.2019
5484 Clouds 11 1017 81 10000 1 0 05:19 23.10.2019
5485 Clouds 11 1017 76 10000 1.5 230 03:46 23.10.2019
5486 Clouds 11 1017 76 10000 1.5 240 02:43 23.10.2019
5487 Clouds 13 1018 66 10000 2.1 240 01:40 23.10.2019
5488 Clouds 13 1018 66 10000 2.1 240 01:18 23.10.2019
5489 Clouds 14 1018 62 10000 3.1 230 00:34 23.10.2019
5490 Clouds 14 1017 62 10000 3.1 230 23:55 22.10.2019
5491 Clouds 14 1017 62 10000 3.1 230 23:37 22.10.2019
5492 Clouds 14 1017 62 10000 3.1 230 23:18 22.10.2019
5493 Clouds 14 1017 62 10000 3.1 230 23:18 22.10.2019
5494 Clouds 14 1017 62 10000 3.6 280 22:40 22.10.2019
5495 Clouds 14 1017 62 10000 3.6 280 22:22 22.10.2019
5496 Clouds 15 1016 58 6000 3.6 260 21:57 22.10.2019
5497 Clouds 15 1016 62 6000 4.1 310 21:38 22.10.2019
5498 Clouds 15 1016 62 6000 4.1 310 21:19 22.10.2019
5499 Clouds 15 1016 58 5000 4.1 320 20:58 22.10.2019
5500 Clouds 15 1015 62 5000 5.7 320 20:40 22.10.2019
5501 Clouds 15 1015 62 5000 5.7 320 20:22 22.10.2019
5502 Dust 18 1015 48 3000 6.7 310 19:57 22.10.2019
5503 Clouds 18 1014 48 6000 4.6 320 19:39 22.10.2019
5504 Clouds 18 1014 48 6000 4.6 320 19:39 22.10.2019
5505 Clouds 18 1014 48 6000 4.6 320 19:21 22.10.2019
5506 Clouds 18 1014 48 6000 5.7 330 18:56 22.10.2019
5507 Dust 20 1014 37 4000 7.2 310 18:37 22.10.2019
5508 Dust 20 1014 37 4000 7.2 310 18:19 22.10.2019
5509 Clouds 21 1014 35 6000 7.7 280 17:55 22.10.2019
5510 Clouds 21 1014 35 10000 7.7 280 17:36 22.10.2019
5511 Clouds 21 1014 35 10000 7.7 280 17:18 22.10.2019
5512 Clouds 21 1014 35 10000 5.7 290 16:39 22.10.2019
5513 Clouds 21 1014 35 10000 5.7 290 16:20 22.10.2019
5514 Clouds 20 1014 37 10000 5.7 290 15:59 22.10.2019
5515 Clouds 20 1014 40 10000 4.6 290 15:41 22.10.2019
5516 Clouds 20 1014 40 10000 4.6 290 15:19 22.10.2019
5517 Clouds 19 1015 42 10000 5.1 260 14:46 22.10.2019
5518 Clouds 19 1015 42 10000 4.1 260 14:22 22.10.2019
5519 Clouds 19 1016 45 10000 3.1 260 13:56 22.10.2019
5520 Clouds 18 1016 48 10000 3.6 250 13:37 22.10.2019
5521 Clouds 18 1016 48 10000 3.6 250 13:18 22.10.2019
5522 Clouds 18 1016 52 10000 2.1 250 12:54 22.10.2019
5523 Clouds 17 1016 55 10000 2.1 0 12:36 22.10.2019
5524 Clouds 17 1016 55 10000 2.1 0 12:18 22.10.2019
5525 Clouds 16 1016 67 10000 2.6 230 11:40 22.10.2019
5526 Clouds 16 1016 67 10000 2.6 230 11:22 22.10.2019
5527 Clouds 15 1016 67 10000 2.6 250 10:58 22.10.2019
5528 Clouds 14 1016 71 10000 3.1 230 10:37 22.10.2019
5529 Clouds 14 1016 71 10000 3.1 230 10:19 22.10.2019
5530 Clouds 13 1016 71 10000 3.1 230 09:57 22.10.2019
5531 Clouds 12 1015 76 10000 2.6 230 09:38 22.10.2019
5532 Clouds 12 1015 76 10000 2.6 230 09:20 22.10.2019
5533 Clouds 11 1015 81 10000 2.6 240 08:43 22.10.2019
5534 Clouds 12 1015 81 10000 3.1 240 08:22 22.10.2019
5535 Clouds 12 1015 81 10000 2.6 240 07:55 22.10.2019
5536 Clouds 12 1015 81 10000 2.6 240 07:55 22.10.2019
5537 Clouds 12 1015 76 10000 2.1 250 07:37 22.10.2019
5538 Clouds 12 1015 76 10000 2.1 250 07:18 22.10.2019
5539 Clouds 14 1015 71 8000 2.1 350 06:36 22.10.2019
5540 Clouds 14 1015 71 8000 2.1 350 06:18 22.10.2019
5541 Clouds 15 1016 67 8000 2.1 330 05:27 22.10.2019
5542 Clouds 16 1016 59 8000 2.1 20 03:53 22.10.2019
5543 Clouds 16 1016 55 8000 3.1 50 02:29 22.10.2019
5544 Clouds 16 1016 55 10000 3.1 30 01:36 22.10.2019
5545 Clouds 16 1016 55 10000 3.1 30 01:18 22.10.2019
5546 Clouds 17 1017 51 10000 3.6 20 00:41 22.10.2019
5547 Clouds 17 1017 51 10000 3.6 20 00:22 22.10.2019
5548 Clouds 17 1017 51 10000 3.6 360 23:58 21.10.2019
5549 Clouds 17 1017 51 10000 5.7 360 23:37 21.10.2019
5550 Clouds 17 1017 51 10000 5.7 360 23:19 21.10.2019
5551 Clouds 18 1017 52 10000 4.1 360 22:57 21.10.2019
5552 Clouds 18 1016 52 10000 4.1 360 22:38 21.10.2019
5553 Clouds 18 1016 52 10000 4.1 360 22:19 21.10.2019
5554 Clouds 19 1016 48 10000 3.6 340 21:56 21.10.2019
5555 Clouds 19 1016 45 10000 2.6 270 21:37 21.10.2019
5556 Clouds 19 1016 45 10000 2.6 270 21:19 21.10.2019
5557 Clouds 19 1016 42 10000 2.1 260 20:56 21.10.2019
5558 Clouds 19 1015 42 10000 2.6 330 20:37 21.10.2019
5559 Clouds 19 1015 42 10000 2.6 330 20:19 21.10.2019
5560 Clouds 20 1015 42 10000 2.1 360 19:41 21.10.2019
5561 Clouds 20 1015 42 10000 2.1 360 19:22 21.10.2019
5562 Clouds 20 1015 42 10000 2.6 10 18:57 21.10.2019
5563 Clouds 20 1015 42 10000 2.6 340 18:39 21.10.2019
5564 Clouds 20 1015 42 10000 2.6 340 18:39 21.10.2019
5565 Clouds 20 1015 42 10000 2.6 340 18:19 21.10.2019
5566 Clouds 20 1015 42 10000 2.6 340 18:19 21.10.2019
5567 Clouds 20 1015 42 10000 3.1 340 17:59 21.10.2019
5568 Clouds 20 1015 42 10000 2.6 340 17:38 21.10.2019
5569 Clouds 20 1015 42 10000 2.6 340 17:19 21.10.2019
5570 Clouds 21 1015 40 10000 1.5 0 16:57 21.10.2019
5571 Clouds 20 1015 42 10000 2.6 40 16:39 21.10.2019
5572 Clouds 20 1015 42 10000 2.6 40 16:21 21.10.2019
5573 Clouds 20 1015 42 10000 2.1 0 15:47 21.10.2019
5574 Clouds 20 1015 40 10000 2.6 360 15:27 21.10.2019
5575 Clouds 20 1016 40 10000 1.5 0 14:59 21.10.2019
5576 Clouds 19 1016 45 8000 3.6 340 14:40 21.10.2019
5577 Clouds 19 1016 45 8000 3.6 340 14:21 21.10.2019
5578 Clouds 19 1016 45 8000 2.6 0 13:57 21.10.2019
5579 Clouds 20 1016 45 8000 2.1 0 13:39 21.10.2019
5580 Clouds 20 1016 45 8000 2.1 0 13:20 21.10.2019
5581 Clouds 19 1017 48 8000 3.1 40 12:43 21.10.2019
5582 Clouds 18 1017 52 8000 2.1 30 12:23 21.10.2019
5583 Clouds 18 1017 52 8000 3.6 40 11:58 21.10.2019
5584 Clouds 17 1017 59 8000 3.6 40 11:39 21.10.2019
5585 Clouds 17 1017 59 8000 3.6 40 11:21 21.10.2019
5586 Clouds 16 1016 63 8000 3.6 40 10:57 21.10.2019
5587 Clouds 16 1016 63 8000 3.6 40 10:38 21.10.2019
5588 Clouds 16 1016 63 8000 3.6 40 10:19 21.10.2019
5589 Clouds 16 1016 63 8000 3.1 30 09:54 21.10.2019
5590 Clouds 16 1016 63 8000 3.1 40 09:36 21.10.2019
5591 Clouds 16 1016 63 8000 3.1 40 09:18 21.10.2019
5592 Clouds 16 1015 59 10000 4.1 40 08:40 21.10.2019
5593 Clouds 16 1015 59 10000 4.1 40 08:22 21.10.2019
5594 Clouds 16 1015 59 10000 3.1 70 07:44 21.10.2019
5595 Clouds 17 1015 55 10000 3.1 50 07:23 21.10.2019
5596 Clouds 17 1015 59 10000 3.6 30 06:58 21.10.2019
5597 Clouds 16 1015 63 10000 3.6 30 06:40 21.10.2019
5598 Clouds 17 1015 59 10000 4.1 30 05:57 21.10.2019
5599 Clouds 17 1015 59 10000 4.1 30 05:57 21.10.2019
5600 Clouds 17 1016 63 10000 4.1 40 04:50 21.10.2019
5601 Clouds 17 1016 67 10000 4.1 30 03:39 21.10.2019
5602 Clouds 18 1016 63 10000 4.1 50 02:39 21.10.2019
5603 Clouds 18 1016 63 10000 4.1 50 02:19 21.10.2019
5604 Clouds 18 1016 68 10000 4.1 30 01:43 21.10.2019
5605 Clouds 18 1016 63 10000 4.1 20 00:51 21.10.2019
5606 Clouds 18 1016 68 10000 3.6 30 00:28 21.10.2019
5607 Clouds 18 1016 68 10000 4.1 20 23:57 20.10.2019
5608 Clouds 18 1016 68 10000 4.1 30 23:38 20.10.2019
5609 Clouds 18 1016 68 10000 4.1 30 23:20 20.10.2019
5610 Clouds 19 1016 63 10000 4.1 50 22:41 20.10.2019
5611 Clouds 19 1016 63 10000 4.1 50 22:23 20.10.2019
5612 Clouds 19 1016 63 10000 4.1 40 21:59 20.10.2019
5613 Clouds 19 1016 63 10000 3.6 40 21:39 20.10.2019
5614 Clouds 19 1016 63 10000 3.6 40 21:21 20.10.2019
5615 Clouds 19 1016 63 10000 4.1 40 20:55 20.10.2019
5616 Clouds 19 1016 68 10000 4.1 20 20:37 20.10.2019
5617 Clouds 19 1016 68 10000 4.1 20 20:18 20.10.2019
5618 Clouds 20 1016 64 10000 3.1 20 19:55 20.10.2019
5619 Clouds 20 1016 64 10000 2.6 50 19:36 20.10.2019
5620 Clouds 20 1016 64 10000 2.6 50 19:18 20.10.2019
5621 Clouds 20 1016 68 10000 3.1 350 18:40 20.10.2019
5622 Clouds 20 1016 68 10000 3.1 350 18:20 20.10.2019
5623 Clouds 20 1016 68 10000 4.1 20 17:56 20.10.2019
5624 Clouds 20 1016 68 10000 4.1 20 17:56 20.10.2019
5625 Clouds 20 1015 68 10000 5.1 10 17:38 20.10.2019
5626 Clouds 20 1015 68 10000 5.1 10 17:19 20.10.2019
5627 Clouds 22 1015 60 10000 5.1 340 16:43 20.10.2019
5628 Clouds 22 1015 60 10000 4.1 340 16:24 20.10.2019
5629 Clouds 22 1015 60 10000 4.1 340 16:24 20.10.2019
5630 Clouds 23 1015 56 10000 3.1 350 15:59 20.10.2019
5631 Clouds 22 1015 60 10000 3.6 10 15:39 20.10.2019
5632 Clouds 22 1015 60 10000 3.6 10 15:20 20.10.2019
5633 Clouds 21 1016 64 10000 4.1 350 14:58 20.10.2019
5634 Clouds 21 1016 64 10000 4.6 330 14:38 20.10.2019
5635 Clouds 21 1016 64 10000 4.6 330 14:19 20.10.2019
5636 Clouds 22 1016 64 10000 3.1 330 13:56 20.10.2019
5637 Clouds 22 1016 64 10000 3.1 330 13:56 20.10.2019
5638 Clouds 21 1016 64 10000 4.1 320 13:37 20.10.2019
5639 Clouds 21 1016 64 10000 4.1 320 13:18 20.10.2019
5640 Clouds 21 1017 64 10000 3.6 310 12:56 20.10.2019
5641 Clouds 21 1017 64 10000 3.1 340 12:38 20.10.2019
5642 Clouds 21 1017 64 10000 3.1 340 12:20 20.10.2019
5643 Clouds 21 1017 64 10000 1.5 310 11:55 20.10.2019
5644 Clouds 21 1017 68 10000 1.5 210 11:37 20.10.2019
5645 Clouds 21 1017 68 10000 1.5 210 11:18 20.10.2019
5646 Clouds 18 1016 72 10000 1 0 10:41 20.10.2019
5647 Clouds 18 1016 72 10000 1 0 10:22 20.10.2019
5648 Clouds 17 1016 77 10000 1.5 210 09:57 20.10.2019
5649 Clouds 17 1016 77 10000 1.5 170 09:39 20.10.2019
5650 Clouds 17 1016 77 10000 1.5 170 09:21 20.10.2019
5651 Clouds 16 1015 82 10000 2.1 160 08:48 20.10.2019
5652 Clouds 16 1015 82 10000 2.1 160 08:48 20.10.2019
5653 Clouds 15 1015 87 10000 0.45 154.792 08:23 20.10.2019
5654 Clouds 15 1015 93 10000 0.5 0 07:50 20.10.2019
5655 Clouds 15 1015 87 10000 1 0 07:30 20.10.2019
5656 Clouds 14 1015 93 8000 1 0 06:35 20.10.2019
5657 Clouds 14 1015 93 8000 2.1 270 05:59 20.10.2019
5658 Clouds 15 1015 87 8000 2.1 240 04:27 20.10.2019
5659 Clouds 16 1015 87 8000 2.6 240 03:43 20.10.2019
5660 Clouds 15 1016 87 8000 2.1 260 03:20 20.10.2019
5661 Clouds 17 1016 77 10000 2.6 250 02:38 20.10.2019
5662 Clouds 17 1016 77 10000 3.1 240 01:58 20.10.2019
5663 Clouds 17 1016 82 10000 3.1 240 01:23 20.10.2019
5664 Clouds 18 1016 72 10000 3.1 250 00:55 20.10.2019
5665 Clouds 18 1016 72 10000 3.1 240 00:22 20.10.2019
5666 Clouds 19 1016 59 10000 3.6 230 23:59 19.10.2019
5667 Clouds 20 1016 49 10000 3.1 260 23:41 19.10.2019
5668 Clouds 20 1016 49 10000 3.1 260 23:22 19.10.2019
5669 Clouds 21 1015 40 10000 3.1 250 22:56 19.10.2019
5670 Clouds 20 1015 37 10000 2.1 250 22:37 19.10.2019
5671 Clouds 20 1015 37 10000 2.1 250 22:18 19.10.2019
5672 Clouds 21 1015 37 10000 2.1 260 21:45 19.10.2019
5673 Clouds 21 1015 37 10000 2.1 260 21:45 19.10.2019
5674 Clouds 23 1015 31 10000 2.6 240 21:22 19.10.2019
5675 Clouds 24 1014 31 10000 2.6 250 20:45 19.10.2019
5676 Clouds 24 1014 31 10000 2.6 250 20:45 19.10.2019
5677 Clouds 25 1014 27 10000 3.1 280 20:22 19.10.2019
5678 Clouds 26 1014 27 10000 3.6 300 19:57 19.10.2019
5679 Clouds 27 1014 26 10000 3.6 280 19:39 19.10.2019
5680 Clouds 27 1014 26 10000 3.6 280 19:21 19.10.2019
5681 Clouds 27 1014 30 10000 2.6 270 18:42 19.10.2019
5682 Clouds 27 1014 30 10000 2.6 270 18:24 19.10.2019
5683 Clouds 27 1014 32 10000 3.1 270 17:55 19.10.2019
5684 Clouds 27 1015 32 10000 3.6 290 17:36 19.10.2019
5685 Clouds 27 1015 32 10000 3.6 290 17:36 19.10.2019
5686 Clouds 27 1015 32 10000 3.6 290 17:18 19.10.2019
5687 Clouds 27 1015 36 10000 3.6 260 16:39 19.10.2019
5688 Clouds 27 1015 36 10000 3.6 260 16:20 19.10.2019
5689 Clouds 27 1015 36 10000 3.6 270 15:44 19.10.2019
5690 Clouds 26 1015 36 10000 3.1 270 15:26 19.10.2019
5691 Clouds 27 1016 34 10000 2.6 300 14:56 19.10.2019
5692 Clouds 26 1016 39 10000 2.6 320 14:38 19.10.2019
5693 Clouds 26 1016 39 10000 2.6 320 14:19 19.10.2019
5694 Clouds 26 1016 39 10000 2.6 320 14:19 19.10.2019
5695 Clouds 25 1016 41 10000 3.1 310 13:54 19.10.2019
5696 Clouds 24 1016 44 10000 2.6 320 13:36 19.10.2019
5697 Clouds 24 1016 44 10000 2.6 320 13:18 19.10.2019
5698 Clouds 23 1016 43 10000 0.5 0 12:39 19.10.2019
5699 Clouds 23 1016 43 10000 0.5 0 12:21 19.10.2019
5700 Clouds 22 1016 49 10000 1 0 11:56 19.10.2019
5701 Clouds 22 1016 49 10000 1 0 11:56 19.10.2019
5702 Clear 21 1016 52 10000 0.5 0 11:36 19.10.2019
5703 Clear 21 1016 52 10000 0.5 0 11:18 19.10.2019
5704 Clear 18 1016 59 10000 1 0 10:40 19.10.2019
5705 Clear 18 1016 59 10000 1 0 10:22 19.10.2019
5706 Clear 17 1016 59 10000 1 0 09:57 19.10.2019
5707 Clear 15 1016 67 10000 0.5 0 09:39 19.10.2019
5708 Clear 15 1016 67 10000 0.5 0 09:20 19.10.2019
5709 Clear 15 1016 62 10000 1 0 08:41 19.10.2019
5710 Clear 15 1016 62 10000 1 0 08:21 19.10.2019
5711 Clear 16 1016 63 10000 2.1 240 07:46 19.10.2019
5712 Clear 16 1016 63 10000 2.1 240 07:26 19.10.2019
5713 Clear 14 1016 67 10000 1.5 250 06:52 19.10.2019
5714 Clear 14 1016 67 10000 1.5 260 06:32 19.10.2019
5715 Clear 16 1016 59 10000 2.1 260 05:35 19.10.2019
5716 Clear 18 1016 52 10000 2.1 230 04:26 19.10.2019
5717 Clear 19 1017 48 10000 1.5 220 02:56 19.10.2019
5718 Clear 21 1017 43 10000 1 0 01:56 19.10.2019
5719 Clear 21 1017 46 10000 1 0 01:37 19.10.2019
5720 Clear 22 1017 43 10000 2.6 20 00:51 19.10.2019
5721 Clear 22 1017 43 10000 2.6 40 00:28 19.10.2019
5722 Clear 23 1017 40 10000 2.1 30 23:56 18.10.2019
5723 Clear 23 1017 40 10000 2.1 30 23:56 18.10.2019
5724 Clear 25 1017 31 10000 2.1 20 23:38 18.10.2019
5725 Clear 25 1017 31 10000 2.1 20 23:19 18.10.2019
5726 Clear 25 1017 31 10000 2.1 20 22:54 18.10.2019
5727 Clear 24 1017 36 10000 1 0 22:36 18.10.2019
5728 Clear 24 1017 36 10000 1 0 22:18 18.10.2019
5729 Clear 24 1017 36 10000 0.5 0 21:54 18.10.2019
5730 Clear 25 1017 36 10000 1.5 290 21:36 18.10.2019
5731 Clear 25 1017 36 10000 1.5 290 21:18 18.10.2019
5732 Clear 28 1016 28 10000 1.5 290 20:41 18.10.2019
5733 Clear 28 1016 28 10000 1.5 290 20:22 18.10.2019
5734 Clear 29 1016 28 10000 1.5 300 19:58 18.10.2019
5735 Clouds 29 1016 28 10000 2.1 320 19:40 18.10.2019
5736 Clouds 29 1016 28 10000 2.1 320 19:40 18.10.2019
5737 Clouds 29 1016 28 10000 2.1 320 19:21 18.10.2019
5738 Clouds 30 1016 27 10000 1.5 0 18:58 18.10.2019
5739 Clouds 30 1016 27 10000 1 0 18:40 18.10.2019
5740 Clouds 30 1016 27 10000 1 0 18:21 18.10.2019
5741 Clouds 30 1016 27 10000 1.5 0 17:55 18.10.2019
5742 Clouds 30 1017 28 10000 2.1 0 17:36 18.10.2019
5743 Clouds 30 1017 28 10000 2.1 0 17:18 18.10.2019
5744 Clear 30 1017 30 10000 1.5 0 16:38 18.10.2019
5745 Clear 30 1017 30 10000 1.5 0 16:20 18.10.2019
5746 Clear 28 1017 32 10000 2.6 310 15:55 18.10.2019
5747 Clear 28 1018 34 10000 1.5 20 15:37 18.10.2019
5748 Clear 28 1018 34 10000 1.5 20 15:37 18.10.2019
5749 Clear 28 1018 34 10000 1.5 20 15:19 18.10.2019
5750 Clear 27 1018 34 10000 2.6 340 14:56 18.10.2019
5751 Clear 27 1019 34 10000 2.6 30 14:38 18.10.2019
5752 Clear 27 1019 34 10000 2.6 30 14:18 18.10.2019
5753 Clear 25 1019 41 10000 2.1 0 13:45 18.10.2019
5754 Clear 25 1019 41 10000 2.1 0 13:45 18.10.2019
5755 Clear 25 1019 41 10000 2.1 0 13:27 18.10.2019
5756 Clear 23 1020 46 10000 2.1 360 12:59 18.10.2019
5757 Clear 22 1020 49 10000 1.5 0 12:40 18.10.2019
5758 Clear 22 1020 49 10000 1.5 0 12:22 18.10.2019
5759 Clear 21 1020 52 10000 1.5 360 11:59 18.10.2019
5760 Clear 20 1020 56 10000 1 0 11:41 18.10.2019
5761 Clear 20 1020 56 10000 1 0 11:20 18.10.2019
5762 Clear 20 1020 56 10000 0.5 0 10:57 18.10.2019
5763 Clear 19 1019 55 10000 0.5 0 10:39 18.10.2019
5764 Clear 19 1019 55 10000 0.5 0 10:19 18.10.2019
5765 Clear 17 1019 63 0 0.5 0 09:57 18.10.2019
5766 Clear 15 1019 67 10000 1 0 09:39 18.10.2019
5767 Clear 15 1019 67 10000 1 0 09:18 18.10.2019
5768 Clear 14 1019 71 10000 1 0 08:42 18.10.2019
5769 Clear 15 1019 67 10000 1 0 08:24 18.10.2019
5770 Clear 15 1019 67 10000 0.5 0 07:51 18.10.2019
5771 Clear 15 1019 67 10000 0.5 0 07:30 18.10.2019
5772 Clear 14 1019 71 10000 1.5 270 06:42 18.10.2019
5773 Clear 14 1019 71 10000 1.5 270 06:23 18.10.2019
5774 Clear 16 1019 63 10000 1.5 130 05:59 18.10.2019
5775 Clear 16 1019 63 10000 2.1 100 05:24 18.10.2019
5776 Clear 17 1019 63 10000 1.5 70 04:49 18.10.2019
5777 Clear 17 1019 63 10000 2.1 90 03:34 18.10.2019
5778 Clear 18 1019 59 10000 2.6 100 02:50 18.10.2019
5779 Clear 18 1019 59 10000 2.6 90 02:32 18.10.2019
5780 Clear 19 1019 55 10000 2.6 60 01:38 18.10.2019
5781 Clear 20 1020 52 10000 3.1 60 00:54 18.10.2019
5782 Clear 20 1020 52 10000 3.1 40 00:36 18.10.2019
5783 Clear 20 1020 52 10000 3.1 40 00:18 18.10.2019
5784 Clear 22 1020 43 10000 2.6 20 23:38 17.10.2019
5785 Clear 22 1020 43 10000 2.6 20 23:19 17.10.2019
5786 Clear 23 1019 40 10000 2.1 30 22:55 17.10.2019
5787 Clear 23 1019 40 10000 2.1 40 22:37 17.10.2019
5788 Clear 23 1019 40 10000 2.1 40 22:18 17.10.2019
5789 Clear 23 1019 38 10000 2.1 40 21:56 17.10.2019
5790 Clear 24 1019 36 10000 2.1 40 21:37 17.10.2019
5791 Clear 24 1019 36 10000 2.1 40 21:19 17.10.2019
5792 Clear 25 1018 36 10000 3.1 40 20:56 17.10.2019
5793 Clear 25 1018 36 10000 3.1 40 20:38 17.10.2019
5794 Clear 25 1018 36 10000 3.1 40 20:18 17.10.2019
5795 Clear 26 1018 34 10000 2.6 30 19:55 17.10.2019
5796 Clear 26 1018 36 10000 2.6 360 19:37 17.10.2019
5797 Clear 26 1018 36 10000 2.6 360 19:18 17.10.2019
5798 Clear 26 1018 36 10000 2.6 360 19:18 17.10.2019
5799 Clear 27 1018 34 10000 2.1 20 18:42 17.10.2019
5800 Clear 27 1018 34 10000 2.1 20 18:21 17.10.2019
5801 Clear 26 1018 36 10000 3.1 10 17:55 17.10.2019
5802 Clear 26 1019 36 10000 3.6 340 17:37 17.10.2019
5803 Clear 26 1019 36 10000 3.6 340 17:19 17.10.2019
5804 Clear 27 1019 34 10000 1 0 16:42 17.10.2019
5805 Clear 27 1019 34 10000 1 0 16:42 17.10.2019
5806 Clear 27 1019 34 10000 1 0 16:19 17.10.2019
5807 Clear 26 1019 36 10000 2.6 0 15:59 17.10.2019
5808 Clear 25 1019 38 10000 2.6 0 15:41 17.10.2019
5809 Clear 25 1019 38 10000 2.6 0 15:20 17.10.2019
5810 Clear 24 1020 41 10000 3.1 10 14:58 17.10.2019
5811 Clear 23 1020 43 10000 2.6 30 14:39 17.10.2019
5812 Clear 23 1020 43 10000 2.6 30 14:20 17.10.2019
5813 Clear 21 1021 49 10000 1.5 0 13:41 17.10.2019
5814 Clear 21 1021 49 10000 1.5 0 13:21 17.10.2019
5815 Clear 20 1021 56 10000 1.5 0 12:58 17.10.2019
5816 Clear 21 1022 52 10000 0.5 0 12:39 17.10.2019
5817 Clear 21 1022 52 10000 0.5 0 12:20 17.10.2019
5818 Clear 20 1022 56 10000 0.5 0 11:56 17.10.2019
5819 Clear 18 1022 63 10000 1.5 300 11:38 17.10.2019
5820 Clear 18 1022 63 10000 1.5 300 11:18 17.10.2019
5821 Clear 16 1021 72 10000 1.5 250 10:42 17.10.2019
5822 Clear 16 1021 72 10000 1.5 250 10:20 17.10.2019
5823 Clear 15 1021 72 10000 1.5 250 09:57 17.10.2019
5824 Clear 13 1020 76 10000 1.5 240 09:38 17.10.2019
5825 Clear 13 1020 76 10000 1.5 240 09:38 17.10.2019
5826 Clear 13 1020 76 10000 1.5 240 09:20 17.10.2019
5827 -273 0 0 0 0 0 08:57 17.10.2019
5828 -273 0 0 0 0 0 08:57 17.10.2019
5829 Clear 12 1020 81 10000 1.5 250 08:38 17.10.2019
5830 Clear 12 1020 81 10000 1.5 250 08:18 17.10.2019
5831 Clear 12 1020 81 10000 1.5 250 07:43 17.10.2019
5832 Clear 12 1019 81 10000 1.5 250 07:21 17.10.2019
5833 Clear 13 1019 76 10000 2.1 240 06:56 17.10.2019
5834 Clear 14 1019 76 10000 1.5 240 06:38 17.10.2019
5835 Clear 14 1019 76 10000 1.5 240 06:19 17.10.2019
5836 Clear 14 1020 76 10000 1.5 250 05:41 17.10.2019
5837 Clear 14 1020 76 10000 1.5 250 05:20 17.10.2019
5838 Clear 14 1020 76 10000 1.5 240 04:48 17.10.2019
5839 Clear 15 1021 72 10000 3.1 230 03:49 17.10.2019
5840 Clear 15 1021 72 10000 3.1 230 03:49 17.10.2019
5841 Clouds 16 1021 67 10000 3.6 230 02:35 17.10.2019
5842 Clouds 18 1021 55 10000 1.5 30 00:43 17.10.2019
5843 Clouds 19 1021 52 10000 3.1 30 00:21 17.10.2019
5844 Clouds 19 1020 55 10000 5.1 30 23:59 16.10.2019
5845 Clouds 20 1020 52 10000 4.1 20 23:41 16.10.2019
5846 Clouds 20 1020 52 10000 4.1 20 23:41 16.10.2019
5847 Clouds 20 1020 52 10000 4.1 20 23:19 16.10.2019
5848 Clouds 22 1019 46 10000 4.1 10 22:54 16.10.2019
5849 Clouds 21 1019 43 10000 1 0 22:36 16.10.2019
5850 Clouds 21 1019 43 10000 1 0 22:18 16.10.2019
5851 Clouds 22 1019 43 10000 2.1 280 21:54 16.10.2019
5852 Clear 22 1018 43 10000 2.1 260 21:36 16.10.2019
5853 Clouds 22 1018 43 10000 2.1 260 21:18 16.10.2019
5854 Clouds 23 1018 40 10000 2.6 260 20:56 16.10.2019
5855 Clouds 24 1018 36 10000 2.6 260 20:37 16.10.2019
5856 Clouds 24 1018 36 10000 2.6 260 20:19 16.10.2019
5857 Clouds 26 1018 34 10000 2.1 250 19:41 16.10.2019
5858 Clouds 26 1018 34 10000 2.1 250 19:21 16.10.2019
5859 Clouds 26 1018 34 10000 2.1 290 18:58 16.10.2019
5860 Clouds 28 1018 30 10000 1 0 18:39 16.10.2019
5861 Clouds 28 1018 30 10000 1 0 18:19 16.10.2019
5862 Clouds 28 1018 30 10000 1 0 18:19 16.10.2019
5863 Clouds 27 1018 34 10000 1.5 170 17:56 16.10.2019
5864 Clouds 27 1018 34 10000 1.5 0 17:37 16.10.2019
5865 Clouds 27 1018 34 10000 1.5 0 17:19 16.10.2019
5866 Clouds 25 1018 41 10000 2.1 0 16:57 16.10.2019
5867 Clouds 25 1019 41 10000 2.1 0 16:38 16.10.2019
5868 Clouds 25 1019 41 10000 2.1 0 16:20 16.10.2019
5869 -273 0 0 0 0 0 15:42 16.10.2019
5870 Clouds 25 1019 44 10000 1.5 0 15:41 16.10.2019
5871 Clouds 25 1019 44 10000 1.5 0 15:20 16.10.2019
5872 Clouds 22 1019 41 0 2.64 357 14:59 16.10.2019
5873 Clouds 23 1018 40 0 2.726 358 14:41 16.10.2019
5874 Clouds 23 1018 40 0 2.726 358 14:23 16.10.2019
5875 Clouds 22 1021 56 10000 1.5 0 13:59 16.10.2019
5876 Clouds 22 1021 56 10000 1.5 0 13:41 16.10.2019
5877 Clouds 22 1021 56 10000 1.5 0 13:22 16.10.2019
5878 Clouds 22 1021 56 10000 1.5 0 12:44 16.10.2019
5879 Clouds 22 1021 56 10000 1.5 0 12:44 16.10.2019
5880 Clouds 21 1021 56 10000 1.5 0 12:20 16.10.2019
5881 Clouds 21 1021 60 10000 1 0 11:58 16.10.2019
5882 Clouds 18 1021 68 10000 2.1 260 11:40 16.10.2019
5883 Clouds 18 1021 68 10000 2.1 260 11:18 16.10.2019
5884 Clouds 16 1021 72 10000 2.1 260 10:37 16.10.2019
5885 Clouds 16 1021 72 10000 2.1 260 10:19 16.10.2019
5886 Clouds 14 1020 82 10000 2.1 240 09:41 16.10.2019
5887 Clouds 14 1020 82 10000 2.1 240 09:22 16.10.2019
5888 Clouds 13 1020 82 10000 1.5 260 08:58 16.10.2019
5889 Clouds 14 1020 82 10000 2.1 260 08:40 16.10.2019
5890 Clouds 14 1020 82 10000 2.1 260 08:20 16.10.2019
5891 Clouds 14 1020 82 10000 1.5 270 07:43 16.10.2019
5892 Clouds 14 1020 82 10000 2.1 260 07:24 16.10.2019
5893 Clouds 15 1020 77 10000 1.5 290 06:56 16.10.2019
5894 Clouds 15 1020 77 10000 1.5 290 06:56 16.10.2019
5895 Clouds 16 1020 72 10000 1.5 240 06:35 16.10.2019
5896 Clouds 16 1020 72 10000 1.5 80 05:23 16.10.2019
5897 Clear 18 1021 63 10000 1.5 80 02:57 16.10.2019
5898 Clear 19 1021 63 10000 3.6 70 01:39 16.10.2019
5899 Clear 19 1021 63 10000 3.6 70 01:18 16.10.2019
5900 Clear 19 1021 63 10000 3.1 50 00:45 16.10.2019
5901 Clouds 20 1021 60 10000 4.6 30 23:59 15.10.2019
5902 Clouds 21 1021 56 10000 5.1 30 23:39 15.10.2019
5903 Clouds 21 1021 56 10000 5.1 30 23:21 15.10.2019
5904 Clouds 21 1021 56 10000 5.1 30 23:21 15.10.2019
5905 Clouds 21 1021 56 10000 5.7 30 22:55 15.10.2019
5906 Clouds 23 1020 40 10000 3.6 20 22:37 15.10.2019
5907 Clouds 23 1020 40 10000 3.6 20 22:19 15.10.2019
5908 Clouds 24 1020 36 10000 3.6 30 21:55 15.10.2019
5909 Clouds 24 1020 36 10000 3.6 30 21:55 15.10.2019
5910 Clouds 24 1020 36 10000 3.6 10 21:37 15.10.2019
5911 Clouds 24 1020 36 10000 3.6 10 21:19 15.10.2019
5912 Clouds 25 1019 33 10000 3.1 360 20:57 15.10.2019
5913 Clouds 25 1019 33 10000 3.6 340 20:38 15.10.2019
5914 Clouds 25 1019 33 10000 3.6 340 20:19 15.10.2019
5915 Clouds 27 1019 34 10000 2.1 340 19:56 15.10.2019
5916 Clouds 27 1019 34 10000 2.1 340 19:56 15.10.2019
5917 Clouds 27 1019 34 10000 1.5 350 19:37 15.10.2019
5918 Clouds 27 1019 34 10000 1.5 350 19:19 15.10.2019
5919 Clouds 27 1019 34 10000 2.1 340 18:44 15.10.2019
5920 -273 0 0 0 0 0 18:26 15.10.2019
5921 Clouds 27 1019 36 10000 2.6 320 17:57 15.10.2019
5922 Clouds 28 1019 37 10000 2.6 350 17:38 15.10.2019
5923 Clouds 28 1019 37 10000 2.6 350 17:19 15.10.2019
5924 Clouds 28 1019 37 10000 2.1 0 16:46 15.10.2019
5925 Clouds 27 1019 39 10000 1.5 0 16:23 15.10.2019
5926 Clouds 27 1019 39 10000 2.6 0 15:59 15.10.2019
5927 Clouds 26 1020 41 10000 2.1 0 15:40 15.10.2019
5928 Clouds 26 1020 41 10000 2.1 0 15:20 15.10.2019
5929 Clouds 26 1020 44 10000 2.1 0 14:57 15.10.2019
5930 Clouds 25 1020 47 10000 2.1 90 14:38 15.10.2019
5931 Clouds 25 1020 47 10000 2.1 90 14:19 15.10.2019
5932 Clouds 24 1021 50 10000 2.6 0 13:44 15.10.2019
5933 Clouds 24 1021 50 10000 3.1 90 13:21 15.10.2019
5934 Clouds 23 1021 53 10000 3.1 70 12:59 15.10.2019
5935 Clouds 22 1021 60 10000 3.1 0 12:39 15.10.2019
5936 Clouds 22 1021 60 10000 3.1 0 12:20 15.10.2019
5937 -273 0 0 0 0 0 11:55 15.10.2019
5938 Clouds 21 1021 64 10000 2.1 70 11:37 15.10.2019
5939 Clouds 21 1021 64 10000 2.1 70 11:18 15.10.2019
5940 Clouds 19 1021 72 10000 2.1 70 10:42 15.10.2019
5941 Clouds 19 1021 72 10000 2.1 70 10:19 15.10.2019
5942 Clouds 18 1021 72 10000 2.1 70 09:57 15.10.2019
5943 Clouds 17 1021 77 10000 2.1 80 09:37 15.10.2019
5944 Clouds 17 1021 77 10000 2.1 80 09:19 15.10.2019
5945 Clouds 17 1021 77 10000 2.6 80 08:42 15.10.2019
5946 Clouds 17 1020 77 10000 1.5 40 08:22 15.10.2019
5947 Clouds 17 1020 77 10000 1.5 40 08:22 15.10.2019
5948 Clouds 18 1020 72 10000 1.5 50 07:56 15.10.2019
5949 -273 0 0 0 0 0 07:56 15.10.2019
5950 Clouds 18 1020 72 10000 1.5 50 07:56 15.10.2019
5951 Clouds 18 1020 72 10000 2.1 70 07:38 15.10.2019
5952 Clouds 18 1020 72 10000 2.1 70 07:19 15.10.2019
5953 Clouds 18 1020 72 10000 2.6 60 06:43 15.10.2019
5954 Clouds 19 1020 68 10000 2.6 60 06:24 15.10.2019
5955 Clouds 19 1021 72 10000 3.1 80 05:41 15.10.2019
5956 Clouds 19 1021 72 10000 3.1 80 05:22 15.10.2019
5957 Clouds 19 1021 72 10000 4.1 70 04:23 15.10.2019
5958 Clouds 19 1022 72 10000 4.6 50 03:37 15.10.2019
5959 Clouds 19 1022 72 10000 4.6 50 02:23 15.10.2019
5960 Clouds 19 1022 72 10000 3.6 50 01:47 15.10.2019
5961 Clouds 19 1022 72 10000 3.6 30 01:19 15.10.2019
5962 Clouds 20 1022 68 10000 4.1 30 00:48 15.10.2019
5963 Clouds 20 1022 68 10000 4.6 40 00:21 15.10.2019
5964 Clouds 21 1021 64 10000 4.6 30 23:43 14.10.2019
5965 Clouds 21 1021 64 10000 4.6 30 23:20 14.10.2019
5966 Clouds 22 1021 56 10000 5.1 30 22:55 14.10.2019
5967 Clouds 22 1021 56 10000 3.6 360 22:37 14.10.2019
5968 Clouds 22 1021 56 10000 3.6 360 22:18 14.10.2019
5969 Clouds 24 1020 50 10000 4.1 350 21:41 14.10.2019
5970 Clouds 24 1020 50 10000 4.1 350 21:22 14.10.2019
5971 -273 0 0 0 0 0 20:59 14.10.2019
5972 Clouds 25 1020 44 10000 2.6 250 20:39 14.10.2019
5973 Clouds 25 1020 44 10000 2.6 250 20:21 14.10.2019
5974 Clouds 26 1020 41 10000 3.1 250 19:59 14.10.2019
5975 Clouds 26 1020 39 10000 2.1 0 19:40 14.10.2019
5976 Clouds 26 1020 39 10000 2.1 0 19:22 14.10.2019
5977 -273 0 0 0 0 0 18:58 14.10.2019
5978 Clouds 27 1020 36 10000 3.1 300 18:38 14.10.2019
5979 Clouds 27 1020 36 10000 3.1 300 18:19 14.10.2019
5980 Clouds 26 1020 39 10000 3.6 290 17:44 14.10.2019
5981 Clouds 27 1020 39 10000 1.5 0 17:26 14.10.2019
5982 Clouds 27 1020 39 10000 1.5 280 16:59 14.10.2019
5983 Clouds 25 1020 44 10000 3.1 330 16:40 14.10.2019
5984 Clouds 25 1020 44 10000 3.1 330 16:20 14.10.2019
5985 Clouds 25 1020 44 10000 3.1 330 16:20 14.10.2019
5986 Clouds 25 1021 47 10000 3.1 0 15:42 14.10.2019
5987 Clouds 25 1021 47 10000 3.1 0 15:22 14.10.2019
5988 Clouds 25 1021 47 10000 3.1 310 14:56 14.10.2019
5989 Clouds 25 1021 47 10000 3.1 310 14:56 14.10.2019
5990 Clouds 25 1021 50 10000 2.6 0 14:38 14.10.2019
5991 Clouds 25 1021 50 10000 2.6 0 14:18 14.10.2019
5992 Clouds 22 1020 52 0 1.73 8.467 13:42 14.10.2019
5993 Clouds 22 1022 60 10000 2.1 190 13:21 14.10.2019
5994 Clouds 22 1022 60 10000 2.1 190 12:54 14.10.2019
5995 Clouds 22 1022 60 10000 2.1 190 12:36 14.10.2019
5996 Clouds 22 1022 60 10000 2.1 190 12:18 14.10.2019
5997 Clouds 20 1022 64 10000 1.5 290 11:43 14.10.2019
5998 Clouds 20 1022 64 10000 1.5 290 11:24 14.10.2019
5999 Clouds 20 1021 68 10000 1.5 250 10:55 14.10.2019
6000 Clouds 19 1021 72 10000 2.1 260 10:37 14.10.2019
6001 Clouds 19 1021 72 10000 2.1 260 10:18 14.10.2019
6002 -273 0 0 0 0 0 09:41 14.10.2019
6003 Clouds 18 1021 77 10000 2.1 340 09:41 14.10.2019
6004 Clouds 18 1021 77 10000 2.1 340 09:20 14.10.2019
6005 Clouds 18 1020 77 10000 2.1 320 08:49 14.10.2019
6006 Clouds 18 1020 82 10000 2.1 290 08:23 14.10.2019
6007 Clouds 18 1020 82 10000 3.1 320 07:47 14.10.2019
6008 Clouds 18 1020 82 10000 2.6 320 07:24 14.10.2019
6009 Clouds 18 1020 82 10000 3.1 290 06:57 14.10.2019
6010 Clouds 18 1020 82 10000 2.6 290 06:28 14.10.2019
6011 Clouds 18 1020 82 10000 2.6 310 05:56 14.10.2019
6012 Clouds 18 1019 82 10000 3.1 280 05:25 14.10.2019
6013 Clouds 19 1020 77 10000 2.6 270 03:50 14.10.2019
6014 Clouds 19 1020 77 10000 3.6 260 03:23 14.10.2019
6015 Clouds 20 1020 77 10000 4.6 280 02:25 14.10.2019
6016 Clouds 19 1019 82 10000 4.6 280 01:19 14.10.2019
6017 Clouds 20 1019 77 10000 3.6 270 00:42 14.10.2019
6018 Clouds 20 1019 77 10000 3.6 270 00:18 14.10.2019
6019 Clear 20 1019 77 10000 3.6 290 23:40 13.10.2019
6020 Clear 20 1019 77 10000 3.6 290 23:19 13.10.2019
6021 Clear 20 1019 77 10000 3.6 290 23:19 13.10.2019
6022 Clouds 21 1018 73 10000 4.1 290 22:57 13.10.2019
6023 Clouds 21 1018 73 10000 4.1 290 22:57 13.10.2019
6024 Clouds 21 1018 73 8000 3.6 280 22:39 13.10.2019
6025 Clouds 21 1018 73 8000 3.6 280 22:20 13.10.2019
6026 Clouds 21 1018 73 8000 5.1 280 21:57 13.10.2019
6027 Clouds 23 1017 64 8000 5.1 270 21:36 13.10.2019
6028 Clouds 23 1017 64 8000 5.1 270 21:18 13.10.2019
6029 Clouds 24 1016 60 8000 7.2 280 20:56 13.10.2019
6030 Clouds 25 1016 57 8000 8.2 280 20:37 13.10.2019
6031 Clouds 25 1016 57 8000 8.2 280 20:37 13.10.2019
6032 Clouds 25 1016 57 8000 8.2 280 20:37 13.10.2019
6033 Clouds 25 1016 57 8000 8.2 280 20:18 13.10.2019
6034 Dust 26 1015 54 4000 8.2 280 19:55 13.10.2019
6035 -273 0 0 0 0 0 19:36 13.10.2019
6036 Dust 28 1015 45 4000 8.7 300 19:36 13.10.2019
6037 Dust 28 1015 45 4000 8.7 300 19:18 13.10.2019
6038 Clouds 33 1014 26 10000 6.2 280 18:41 13.10.2019
6039 Clouds 33 1014 26 10000 6.2 280 18:21 13.10.2019
6040 Clouds 34 1014 24 10000 4.6 290 17:59 13.10.2019
6041 Clouds 34 1013 24 10000 5.1 290 17:41 13.10.2019
6042 Clouds 34 1013 24 10000 5.1 290 17:41 13.10.2019
6043 Clouds 34 1013 24 10000 5.1 290 17:23 13.10.2019
6044 Clouds 34 1013 26 10000 4.6 300 16:44 13.10.2019
6045 Clouds 33 1013 27 10000 5.1 290 16:20 13.10.2019
6046 Clouds 34 1013 26 10000 4.1 300 15:58 13.10.2019
6047 Clouds 33 1014 26 10000 3.6 300 15:39 13.10.2019
6048 Clouds 33 1014 26 10000 3.6 300 15:20 13.10.2019
6049 Clouds 33 1014 26 10000 3.1 320 14:58 13.10.2019
6050 Clouds 32 1014 27 10000 3.6 290 14:39 13.10.2019
6051 Clouds 32 1014 27 10000 3.6 290 14:20 13.10.2019
6052 Clouds 32 1014 27 8000 2.1 0 13:56 13.10.2019
6053 Clouds 30 1015 33 8000 2.1 340 13:37 13.10.2019
6054 Clouds 30 1015 33 8000 2.1 340 13:18 13.10.2019
6055 Clouds 30 1015 33 8000 1.5 0 12:55 13.10.2019
6056 Clouds 28 1015 37 8000 1.5 80 12:37 13.10.2019
6057 Clouds 28 1015 37 8000 1.5 80 12:18 13.10.2019
6058 Clouds 27 1015 39 8000 2.6 90 11:55 13.10.2019
6059 Clouds 27 1015 39 8000 2.6 90 11:55 13.10.2019
6060 Clouds 25 1015 44 8000 2.1 90 11:36 13.10.2019
6061 Clouds 25 1015 44 8000 2.1 90 11:18 13.10.2019
6062 Clouds 23 1015 49 8000 0.5 0 10:41 13.10.2019
6063 Clouds 23 1015 49 8000 0.5 0 10:22 13.10.2019
6064 Clouds 23 1015 49 8000 0.5 0 10:22 13.10.2019
6065 Clouds 18 1015 63 8000 0.5 0 09:41 13.10.2019
6066 Clouds 18 1015 63 8000 0.5 0 09:21 13.10.2019
6067 Clouds 18 1015 68 8000 2.1 100 08:57 13.10.2019
6068 Clear 19 1014 63 10000 1 0 08:38 13.10.2019
6069 Clear 19 1014 63 10000 1 0 08:19 13.10.2019
6070 Clear 19 1014 63 10000 1 0 07:45 13.10.2019
6071 Clear 19 1015 68 10000 1.5 210 06:58 13.10.2019
6072 Clear 19 1014 68 10000 1 0 06:31 13.10.2019
6073 Clear 21 1015 60 10000 1 0 05:34 13.10.2019
6074 Clear 21 1015 60 10000 1 0 05:34 13.10.2019
6075 Clear 21 1015 64 10000 1 0 04:46 13.10.2019
6076 Clear 22 1016 56 10000 1.5 60 03:40 13.10.2019
6077 Clear 23 1017 56 10000 0.5 0 02:39 13.10.2019
6078 Clear 23 1017 60 10000 1 0 01:53 13.10.2019
6079 Clear 24 1017 57 10000 1.5 60 01:22 13.10.2019
6080 Clear 24 1017 57 10000 2.6 80 00:44 13.10.2019
6081 Clear 25 1017 50 10000 2.6 80 00:21 13.10.2019
6082 Clear 26 1017 50 10000 2.6 20 23:55 12.10.2019
6083 Clear 26 1017 44 10000 2.6 20 23:36 12.10.2019
6084 Clear 26 1017 44 10000 2.6 20 23:18 12.10.2019
6085 Clear 27 1017 42 10000 3.1 20 22:55 12.10.2019
6086 Clear 27 1017 42 10000 3.1 20 22:36 12.10.2019
6087 Clear 27 1017 42 10000 3.1 20 22:18 12.10.2019
6088 Clear 28 1016 39 10000 3.1 350 21:41 12.10.2019
6089 Clear 28 1016 39 10000 3.1 350 21:23 12.10.2019
6090 Clear 29 1016 35 10000 3.1 340 20:56 12.10.2019
6091 Clear 29 1015 35 10000 3.1 340 20:38 12.10.2019
6092 Clear 29 1015 35 10000 3.1 340 20:38 12.10.2019
6093 Clear 29 1015 35 10000 3.1 340 20:20 12.10.2019
6094 Clouds 31 1015 29 10000 4.1 340 19:37 12.10.2019
6095 Clouds 31 1015 29 10000 4.1 340 19:19 12.10.2019
6096 Clouds 32 1015 27 10000 4.6 280 18:46 12.10.2019
6097 Clouds 33 1015 22 10000 3.6 280 18:27 12.10.2019
6098 Clouds 33 1015 22 10000 4.1 270 17:58 12.10.2019
6099 Clouds 33 1015 26 10000 3.6 290 17:40 12.10.2019
6100 Clouds 33 1015 26 10000 3.6 290 17:18 12.10.2019
6101 Clouds 32 1015 24 10000 2.6 0 16:41 12.10.2019
6102 Clouds 32 1015 24 10000 2.6 0 16:21 12.10.2019
6103 Clouds 31 1015 31 10000 3.1 350 15:58 12.10.2019
6104 Clouds 30 1016 37 10000 3.1 320 15:38 12.10.2019
6105 Clouds 30 1016 37 10000 3.1 320 15:19 12.10.2019
6106 Clouds 28 1017 42 10000 3.1 310 14:41 12.10.2019
6107 Clouds 28 1017 42 10000 3.1 310 14:21 12.10.2019
6108 Clear 27 1017 47 10000 1.5 0 13:52 12.10.2019
6109 Clear 26 1018 50 10000 1.5 0 13:33 12.10.2019
6110 Clear 26 1018 50 10000 1 0 12:59 12.10.2019
6111 Clear 25 1018 53 10000 1 0 12:38 12.10.2019
6112 Clear 25 1018 53 10000 1 0 12:20 12.10.2019
6113 Clear 23 1018 60 10000 1.5 0 11:47 12.10.2019
6114 Clear 22 1018 64 10000 1 0 11:26 12.10.2019
6115 Clear 20 1018 72 10000 2.1 0 10:59 12.10.2019
6116 Clear 19 1018 77 10000 2.6 250 10:40 12.10.2019
6117 Clear 19 1018 77 10000 2.6 250 10:22 12.10.2019
6118 Clear 17 1017 82 10000 3.1 240 09:57 12.10.2019
6119 Clear 17 1017 82 10000 3.1 240 09:57 12.10.2019
6120 Clear 17 1017 82 10000 3.1 230 09:38 12.10.2019
6121 Clear 17 1017 82 10000 3.1 230 09:20 12.10.2019
6122 Clear 16 1017 82 10000 2.6 250 08:55 12.10.2019
6123 Clear 16 1017 72 10000 2.6 260 08:36 12.10.2019
6124 Clear 16 1017 72 10000 2.6 260 08:18 12.10.2019
6125 Clear 16 1017 72 10000 2.6 260 08:18 12.10.2019
6126 Clear 19 1016 68 10000 0.5 0 07:32 12.10.2019
6127 Clear 19 1016 68 10000 1.5 120 06:38 12.10.2019
6128 -273 0 0 0 0 0 05:44 12.10.2019
6129 Clear 20 1016 64 10000 1 0 04:47 12.10.2019
6130 Clouds 20 1017 64 10000 1.5 80 03:56 12.10.2019
6131 Clouds 21 1017 64 10000 0.5 0 02:54 12.10.2019
6132 Clouds 21 1018 64 8000 2.1 250 01:35 12.10.2019
6133 Clouds 22 1018 60 8000 3.6 230 00:57 12.10.2019
6134 Clouds 22 1018 60 8000 3.6 240 00:38 12.10.2019
6135 Clouds 23 1018 56 8000 3.6 240 23:56 11.10.2019
6136 Clouds 23 1018 56 8000 3.1 240 23:37 11.10.2019
6137 Clouds 23 1018 56 8000 3.1 240 23:19 11.10.2019
6138 Clouds 25 1017 50 8000 3.1 240 22:39 11.10.2019
6139 Clouds 25 1017 50 8000 3.1 240 22:20 11.10.2019
6140 Clouds 26 1017 44 8000 2.6 260 21:55 11.10.2019
6141 Clouds 29 1016 30 8000 2.1 0 21:36 11.10.2019
6142 Clouds 29 1016 30 8000 2.1 0 21:18 11.10.2019
6143 Clouds 30 1015 25 8000 3.6 20 20:42 11.10.2019
6144 Clouds 30 1015 25 8000 3.6 20 20:24 11.10.2019
6145 Clouds 31 1015 23 8000 4.1 20 19:56 11.10.2019
6146 Clouds 32 1015 22 8000 4.6 20 19:38 11.10.2019
6147 Clouds 32 1015 22 8000 4.6 20 19:18 11.10.2019
6148 Clouds 32 1015 22 8000 3.6 20 18:56 11.10.2019
6149 Clouds 32 1015 22 8000 3.6 20 18:56 11.10.2019
6150 Clouds 33 1015 21 8000 4.6 30 18:37 11.10.2019
6151 Clouds 33 1015 21 8000 4.6 30 18:18 11.10.2019
6152 Clouds 33 1015 19 8000 4.1 50 17:57 11.10.2019
6153 Clouds 33 1015 19 8000 4.1 50 17:37 11.10.2019
6154 Clouds 33 1015 19 8000 4.1 50 17:18 11.10.2019
6155 Clouds 33 1016 18 8000 4.1 30 16:42 11.10.2019
6156 Clouds 33 1016 18 8000 4.1 30 16:21 11.10.2019
6157 Clouds 33 1016 19 8000 4.6 40 15:59 11.10.2019
6158 Clouds 33 1016 19 8000 3.6 0 15:39 11.10.2019
6159 Clouds 33 1016 19 8000 3.6 0 15:19 11.10.2019
6160 Clouds 31 1017 27 8000 1.5 360 14:48 11.10.2019
6161 Clouds 32 1017 27 8000 2.1 350 14:29 11.10.2019
6162 Clouds 30 1018 30 8000 2.6 10 13:57 11.10.2019
6163 Clouds 29 1018 32 8000 2.6 50 13:39 11.10.2019
6164 Clouds 29 1018 32 8000 2.6 50 13:21 11.10.2019
6165 Clouds 29 1018 37 8000 2.6 70 12:56 11.10.2019
6166 Clouds 27 1018 42 8000 3.6 80 12:38 11.10.2019
6167 Clouds 27 1018 42 8000 3.6 80 12:19 11.10.2019
6168 Clouds 25 1018 44 8000 1.5 80 11:41 11.10.2019
6169 Clouds 25 1018 44 8000 1.5 80 11:22 11.10.2019
6170 Clouds 25 1018 44 8000 1.5 80 11:22 11.10.2019
6171 Clouds 24 1018 47 8000 2.1 70 10:58 11.10.2019
6172 Clouds 24 1018 47 8000 2.1 70 10:58 11.10.2019
6173 Clouds 24 1018 47 8000 2.1 70 10:58 11.10.2019
6174 Clouds 23 1018 53 8000 2.1 50 10:40 11.10.2019
6175 Clouds 23 1018 53 8000 2.1 50 10:22 11.10.2019
6176 Clouds 23 1018 53 8000 2.6 100 09:56 11.10.2019
6177 Clouds 23 1018 53 8000 1.5 140 09:37 11.10.2019
6178 Clouds 23 1018 53 8000 1.5 140 09:19 11.10.2019
6179 Clouds 23 1017 56 8000 2.1 120 08:55 11.10.2019
6180 Clouds 22 1017 60 8000 2.1 100 08:36 11.10.2019
6181 Clouds 22 1017 60 8000 2.1 100 08:18 11.10.2019
6182 Clouds 22 1017 60 8000 1.5 80 07:44 11.10.2019
6183 Clouds 22 1017 60 8000 1.5 80 07:25 11.10.2019
6184 Clouds 21 1017 64 8000 0.5 0 06:48 11.10.2019
6185 Clouds 21 1017 64 8000 1 0 06:23 11.10.2019
6186 Clouds 23 1017 56 8000 2.1 120 05:39 11.10.2019
6187 Clouds 23 1017 60 8000 2.1 100 04:59 11.10.2019
6188 Clouds 22 1017 60 8000 1 0 04:25 11.10.2019
6189 Clouds 23 1018 60 8000 1.5 280 02:40 11.10.2019
6190 Clouds 23 1018 60 8000 1.5 240 00:51 11.10.2019
6191 Clouds 23 1018 60 8000 1.5 280 00:29 11.10.2019
6192 Clouds 24 1018 57 8000 2.6 240 23:44 10.10.2019
6193 Clouds 25 1018 50 8000 3.6 240 23:22 10.10.2019
6194 Clouds 26 1017 47 8000 1.5 240 22:58 10.10.2019
6195 Clouds 26 1017 47 8000 2.1 260 22:39 10.10.2019
6196 Clouds 26 1017 47 8000 2.1 260 22:21 10.10.2019
6197 Clouds 26 1017 47 8000 2.1 260 21:58 10.10.2019
6198 Clouds 26 1017 47 8000 2.1 260 21:58 10.10.2019
6199 Clouds 27 1016 42 8000 2.6 250 21:39 10.10.2019
6200 Clouds 27 1016 42 8000 2.6 250 21:21 10.10.2019
6201 Clouds 27 1016 42 8000 2.6 250 21:21 10.10.2019
6202 Clouds 29 1016 39 8000 2.6 310 20:43 10.10.2019
6203 Clouds 29 1016 39 8000 2.6 310 20:22 10.10.2019
6204 Clouds 30 1016 35 8000 3.6 310 19:59 10.10.2019
6205 Clouds 30 1016 35 8000 3.6 310 19:59 10.10.2019
6206 Clouds 30 1015 40 8000 5.7 260 19:41 10.10.2019
6207 Clouds 30 1015 40 8000 5.7 260 19:21 10.10.2019
6208 Clouds 31 1015 33 8000 5.7 280 18:59 10.10.2019
6209 Clouds 33 1015 26 8000 5.7 270 18:40 10.10.2019
6210 Clouds 33 1015 26 8000 5.7 270 18:20 10.10.2019
6211 Clouds 33 1014 26 8000 4.6 270 17:55 10.10.2019
6212 Clouds 34 1014 24 8000 4.6 270 17:37 10.10.2019
6213 Clouds 34 1014 24 8000 4.6 270 17:18 10.10.2019
6214 Clouds 34 1014 23 8000 3.1 280 16:46 10.10.2019
6215 Clouds 34 1014 26 8000 2.1 340 16:26 10.10.2019
6216 Clouds 33 1014 27 8000 2.1 310 15:58 10.10.2019
6217 Clouds 33 1015 29 8000 2.6 310 15:38 10.10.2019
6218 Clouds 33 1015 29 8000 2.6 310 15:19 10.10.2019
6219 Clouds 32 1015 31 8000 2.1 320 14:55 10.10.2019
6220 Clouds 31 1015 33 0 2.1 320 14:36 10.10.2019
6221 Clouds 31 1015 33 0 2.1 320 14:18 10.10.2019
6222 Clouds 29 1016 45 0 1.5 0 13:42 10.10.2019
6223 Clouds 29 1016 45 0 1.5 0 13:24 10.10.2019
6224 Clouds 28 1016 45 0 1 0 12:57 10.10.2019
6225 Clouds 28 1016 45 0 1 0 12:57 10.10.2019
6226 Clear 27 1016 51 10000 1 0 12:39 10.10.2019
6227 Clear 27 1016 51 10000 1 0 12:20 10.10.2019
6228 Clear 27 1016 51 10000 1 0 12:20 10.10.2019
6229 Clear 26 1016 57 10000 1 0 11:56 10.10.2019
6230 Clear 26 1016 57 10000 1 0 11:38 10.10.2019
6231 Clear 26 1016 57 10000 1 0 11:19 10.10.2019
6232 Clear 23 1016 64 10000 0.5 0 10:44 10.10.2019
6233 Clear 22 1016 68 10000 1 0 10:26 10.10.2019
6234 Clear 21 1016 73 10000 1 0 09:56 10.10.2019
6235 Clear 20 1015 72 10000 1.5 100 09:38 10.10.2019
6236 Clear 20 1015 72 10000 1.5 100 09:38 10.10.2019
6237 Clear 20 1015 72 10000 1.5 100 09:19 10.10.2019
6238 Clouds 20 1015 72 0 1 0 08:56 10.10.2019
6239 Clear 20 1015 77 10000 1.5 60 08:37 10.10.2019
6240 Clear 20 1015 77 10000 1.5 60 08:18 10.10.2019
6241 Clear 20 1015 77 10000 1.5 60 08:18 10.10.2019
6242 Clear 20 1015 77 10000 1 0 07:42 10.10.2019
6243 Clear 20 1015 77 10000 1 0 07:20 10.10.2019
6244 Clear 19 1015 77 10000 1.5 270 06:46 10.10.2019
6245 Clear 19 1015 77 10000 1.5 260 06:26 10.10.2019
6246 Clear 20 1015 72 10000 2.1 260 05:27 10.10.2019
6247 Clear 20 1016 72 10000 2.1 250 04:39 10.10.2019
6248 Clear 20 1016 72 10000 2.1 250 04:21 10.10.2019
6249 Clear 23 1016 53 10000 2.1 250 01:43 10.10.2019
6250 Clear 23 1016 53 10000 2.1 250 01:24 10.10.2019
6251 Clear 24 1016 50 10000 3.1 250 00:53 10.10.2019
6252 Clear 26 1016 50 10000 1 0 00:22 10.10.2019
6253 Clouds 24 1016 49 0 3.46 266.586 23:40 09.10.2019
6254 Clouds 24 1016 49 0 3.46 266.586 23:20 09.10.2019
6255 Clear 29 1016 30 10000 2.1 20 22:44 09.10.2019
6256 Clear 29 1016 30 10000 2.1 20 22:24 09.10.2019
6257 Clear 29 1015 30 10000 1.5 360 21:59 09.10.2019
6258 Clear 30 1015 28 10000 3.1 10 21:40 09.10.2019
6259 Clear 30 1015 28 10000 3.1 10 21:20 09.10.2019
6260 Clear 31 1015 23 10000 3.6 360 20:56 09.10.2019
6261 Clouds 31 1014 14 0 5.29 353.04 20:37 09.10.2019
6262 Clear 34 1014 16 10000 2.6 20 20:19 09.10.2019
6263 Clear 34 1014 16 10000 2.6 20 20:19 09.10.2019
6264 Clear 34 1014 16 10000 2.6 20 19:57 09.10.2019
6265 Clear 34 1014 16 10000 2.6 20 19:39 09.10.2019
6266 Clear 34 1014 16 10000 2.6 20 19:20 09.10.2019
6267 Clouds 31 1014 14 0 5.29 353.04 18:38 09.10.2019
6268 Clear 35 1013 16 10000 3.1 340 18:19 09.10.2019
6269 Clear 35 1013 16 10000 3.1 340 17:57 09.10.2019
6270 Clear 35 1013 16 10000 3.1 340 17:37 09.10.2019
6271 Clear 35 1013 16 10000 3.1 340 17:19 09.10.2019
6272 Clear 34 1014 20 10000 2.1 330 16:42 09.10.2019
6273 Clear 34 1014 20 10000 2.1 330 16:23 09.10.2019
6274 Clear 33 1014 24 10000 2.1 0 15:58 09.10.2019
6275 Clear 32 1015 24 10000 2.1 350 15:40 09.10.2019
6276 Clear 32 1015 24 10000 2.1 350 15:20 09.10.2019
6277 Clear 32 1015 25 10000 1.5 320 14:59 09.10.2019
6278 Clear 30 1015 30 10000 1.5 320 14:41 09.10.2019
6279 Clear 30 1015 30 10000 1.5 320 14:18 09.10.2019
6280 Clear 28 1016 37 10000 1.5 330 13:40 09.10.2019
6281 Clear 28 1016 37 10000 1.5 330 13:22 09.10.2019
6282 Clear 26 1016 44 10000 1.5 340 12:59 09.10.2019
6283 Clear 26 1016 44 10000 1.5 340 12:59 09.10.2019
6284 Clear 26 1016 44 10000 1 0 12:41 09.10.2019
6285 Clear 26 1016 44 10000 1 0 12:22 09.10.2019
6286 Clear 26 1016 44 10000 1 0 12:22 09.10.2019
6287 Clear 25 1016 44 10000 1 0 11:56 09.10.2019
6288 Clear 24 1017 47 10000 0.5 0 11:37 09.10.2019
6289 Clear 24 1017 47 10000 0.5 0 11:19 09.10.2019
6290 Clear 23 1016 46 10000 0.5 0 10:44 09.10.2019
6291 Clear 21 1015 49 10000 1 320 10:22 09.10.2019
6292 Clear 19 1016 59 10000 1 0 09:59 09.10.2019
6293 Clear 19 1016 63 10000 1 0 09:41 09.10.2019
6294 Clear 19 1016 63 10000 1 0 09:41 09.10.2019
6295 Clear 19 1016 63 10000 1 0 09:19 09.10.2019
6296 Clear 18 1015 63 10000 1 0 08:55 09.10.2019
6297 Clear 18 1015 68 10000 1.5 250 08:37 09.10.2019
6298 Clear 18 1015 68 10000 1.5 250 08:18 09.10.2019
6299 Clear 19 1015 68 10000 2.1 230 07:39 09.10.2019
6300 Clear 19 1015 68 10000 2.1 230 07:21 09.10.2019
6301 Clear 18 1015 68 0 2.1 250 06:52 09.10.2019
6302 Clear 18 1015 68 0 2.1 250 06:52 09.10.2019
6303 Clear 18 1015 63 0 2.1 250 06:19 09.10.2019
6304 Clear 18 1015 63 0 2.1 250 05:44 09.10.2019
6305 Clear 19 1015 59 10000 2.6 250 04:27 09.10.2019
6306 Clear 22 1015 49 10000 3.6 230 02:54 09.10.2019
6307 Clear 24 1016 41 10000 2.6 210 01:44 09.10.2019
6308 Clear 23 1015 38 0 1 0 01:21 09.10.2019
6309 Clear 23 1016 40 10000 1 0 00:57 09.10.2019
6310 Clear 24 1016 38 10000 1.5 280 00:38 09.10.2019
6311 Clear 24 1016 38 10000 1.5 280 00:20 09.10.2019
6312 Clear 27 1015 32 10000 2.6 30 23:39 08.10.2019
6313 Clear 27 1015 32 10000 2.6 30 23:19 08.10.2019
6314 Clear 28 1015 28 10000 3.6 30 22:58 08.10.2019
6315 Clear 29 1015 25 10000 2.6 10 22:39 08.10.2019
6316 Clear 29 1015 25 10000 2.6 10 22:19 08.10.2019
6317 Clear 30 1014 20 0 3.1 10 21:57 08.10.2019
6318 Clear 31 1014 16 10000 2.6 10 21:39 08.10.2019
6319 Clear 31 1014 16 10000 2.6 10 21:39 08.10.2019
6320 Clear 31 1014 16 10000 2.6 10 21:19 08.10.2019
6321 Clear 32 1014 15 10000 3.1 360 20:56 08.10.2019
6322 Clear 33 1014 16 10000 2.6 340 20:37 08.10.2019
6323 Clear 33 1014 16 10000 2.6 340 20:19 08.10.2019
6324 Clear 34 1014 14 10000 3.1 340 19:58 08.10.2019
6325 Clear 35 1014 14 10000 2.6 360 19:39 08.10.2019
6326 Clear 35 1014 14 10000 2.6 360 19:20 08.10.2019
6327 Clear 36 1014 12 10000 3.1 320 18:54 08.10.2019
6328 Clear 35 1014 13 0 3.1 330 18:36 08.10.2019
6329 Clear 35 1014 13 0 3.1 330 18:18 08.10.2019
6330 Clear 36 1014 13 10000 3.6 330 17:40 08.10.2019
6331 Clear 36 1014 13 10000 3.6 330 17:40 08.10.2019
6332 Clear 36 1014 13 10000 3.6 330 17:20 08.10.2019
6333 Clear 36 1014 15 10000 3.1 300 16:57 08.10.2019
6334 Clear 35 1014 15 10000 2.6 0 16:38 08.10.2019
6335 Clear 35 1014 15 10000 2.6 0 16:20 08.10.2019
6336 Clear 34 1014 17 10000 2.6 360 15:40 08.10.2019
6337 Clear 34 1014 17 10000 2.6 360 15:21 08.10.2019
6338 Clear 33 1015 19 10000 2.6 340 14:57 08.10.2019
6339 Clear 33 1016 18 10000 2.1 0 14:39 08.10.2019
6340 Clear 33 1016 18 10000 2.1 0 14:20 08.10.2019
6341 Clear 32 1016 21 10000 2.1 0 13:56 08.10.2019
6342 Clear 30 1017 25 7000 1.5 310 13:38 08.10.2019
6343 Clear 30 1017 25 7000 1.5 310 13:18 08.10.2019
6344 Clear 30 1017 25 7000 1.5 310 12:56 08.10.2019
6345 Clear 29 1017 26 7000 1 0 12:37 08.10.2019
6346 Clear 29 1017 26 7000 1 0 12:18 08.10.2019
6347 Clear 26 1017 29 7000 1 0 11:40 08.10.2019
6348 Clear 26 1017 29 7000 1 0 11:22 08.10.2019
6349 Clear 25 1017 31 7000 0.5 0 10:56 08.10.2019
6350 Clear 25 1017 31 10000 0.79 313.46 10:36 08.10.2019
6351 Clear 25 1017 31 10000 0.79 313.46 10:18 08.10.2019
6352 Clear 19 1016 39 10000 0.5 0 09:41 08.10.2019
6353 Clear 19 1016 39 10000 0.5 0 09:41 08.10.2019
6354 Clear 19 1016 39 10000 0.5 0 09:23 08.10.2019
6355 Clear 18 1016 42 10000 0.5 0 08:59 08.10.2019
6356 Clear 19 1016 39 10000 0.5 0 08:41 08.10.2019
6357 Clear 19 1016 39 10000 0.5 0 08:22 08.10.2019
6358 Clear 18 1016 42 10000 1 0 07:42 08.10.2019
6359 Clear 18 1016 42 10000 1 0 07:20 08.10.2019
6360 Clear 18 1016 42 10000 1 0 07:20 08.10.2019
6361 Clear 19 1015 39 10000 1 0 06:47 08.10.2019
6362 Clear 19 1015 37 10000 0.5 0 06:26 08.10.2019
6363 Clear 20 1015 34 10000 0.5 0 05:45 08.10.2019
6364 Clear 20 1015 34 10000 0.5 0 05:45 08.10.2019
6365 Clear 19 1015 37 10000 0.75 12.703 05:24 08.10.2019
6366 Clear 22 1016 30 10000 1.5 280 03:32 08.10.2019
6367 Clear 21 1016 35 10000 0.5 0 02:47 08.10.2019
6368 Clear 24 1017 29 10000 1 0 02:29 08.10.2019
6369 Clear 25 1017 31 10000 1 0 01:43 08.10.2019
6370 Clear 25 1017 31 10000 1 0 01:19 08.10.2019
6371 Clear 26 1017 27 10000 2.6 120 00:38 08.10.2019
6372 Clear 26 1017 27 10000 2.6 120 00:19 08.10.2019
6373 Clear 28 1017 24 10000 2.1 50 23:39 07.10.2019
6374 Clear 28 1017 24 10000 2.1 50 23:19 07.10.2019
6375 Clear 29 1017 23 10000 4.1 30 22:55 07.10.2019
6376 Clear 29 1017 23 10000 4.1 30 22:55 07.10.2019
6377 Clear 30 1016 20 0 4.1 20 22:37 07.10.2019
6378 Clear 30 1016 20 0 4.1 20 22:19 07.10.2019
6379 Clear 31 1016 16 10000 1.5 360 21:55 07.10.2019
6380 Clear 32 1016 17 10000 2.1 20 21:37 07.10.2019
6381 Clear 32 1016 17 10000 2.1 20 21:18 07.10.2019
6382 Clear 33 1015 16 10000 3.1 20 20:56 07.10.2019
6383 Clear 33 1015 16 10000 4.1 30 20:38 07.10.2019
6384 Clear 35 1015 13 10000 3.1 20 20:19 07.10.2019
6385 Clear 35 1015 13 10000 3.1 20 19:54 07.10.2019
6386 Clear 35 1015 13 10000 3.1 20 19:36 07.10.2019
6387 Clear 35 1015 13 10000 3.1 20 19:18 07.10.2019
6388 Clear 36 1015 12 10000 3.6 340 18:42 07.10.2019
6389 Clear 36 1015 12 10000 3.6 340 18:19 07.10.2019
6390 Clear 36 1015 13 10000 3.1 340 17:59 07.10.2019
6391 Clear 36 1015 14 10000 3.1 340 17:40 07.10.2019
6392 Clear 36 1015 14 10000 3.1 340 17:19 07.10.2019
6393 Clear 37 1015 16 10000 2.6 0 16:46 07.10.2019
6394 Clear 36 1015 15 10000 2.1 0 16:46 07.10.2019
6395 Clear 36 1015 15 10000 2.1 0 16:28 07.10.2019
6396 Clear 35 1016 16 10000 2.1 0 15:58 07.10.2019
6397 Clear 35 1016 15 10000 3.1 360 15:40 07.10.2019
6398 Clear 35 1016 15 10000 3.1 360 15:21 07.10.2019
6399 Clear 35 1017 19 10000 1.5 0 14:42 07.10.2019
6400 Clear 35 1017 19 10000 1.5 0 14:23 07.10.2019
6401 Clear 33 1017 18 10000 1.5 0 13:45 07.10.2019
6402 Clear 30 1018 27 10000 1.5 0 13:21 07.10.2019
6403 Clear 30 1018 27 10000 1.5 0 12:58 07.10.2019
6404 Clear 29 1018 30 10000 1.5 0 12:40 07.10.2019
6405 Clear 29 1018 30 10000 1.5 0 12:40 07.10.2019
6406 Clear 29 1018 30 10000 1.5 0 12:21 07.10.2019
6407 Clear 29 1018 30 10000 1.5 0 12:21 07.10.2019
6408 Clear 29 1018 30 10000 1.5 0 12:21 07.10.2019
6409 Clear 28 1018 32 10000 1 0 11:59 07.10.2019
6410 Clear 28 1018 32 10000 1 0 11:59 07.10.2019
6411 Clear 26 1018 34 10000 1.5 80 11:40 07.10.2019
6412 Clear 26 1018 34 10000 1.5 80 11:21 07.10.2019
6413 Clear 26 1018 34 10000 1.5 80 11:21 07.10.2019
6414 Clear 23 1018 35 10000 1.5 80 10:57 07.10.2019
6415 Clear 26 1017 30 0 1.39 25.476 10:39 07.10.2019
6416 Clear 26 1017 30 0 1.39 25.476 10:20 07.10.2019
6417 Clear 19 1017 52 10000 1 0 09:39 07.10.2019
6418 Clear 19 1017 52 10000 1 0 09:39 07.10.2019
6419 Clear 19 1017 52 10000 1 0 09:21 07.10.2019
6420 Clear 20 1017 49 10000 1.5 30 08:44 07.10.2019
6421 Clear 20 1017 49 10000 1.5 30 08:21 07.10.2019
6422 Clear 20 1017 52 10000 1 0 07:56 07.10.2019
6423 Clear 19 1017 55 10000 1.5 100 07:36 07.10.2019
6424 Clear 19 1017 55 10000 1.5 100 07:18 07.10.2019
6425 Clear 19 1017 55 10000 1.5 90 06:43 07.10.2019
6426 Clear 20 1016 49 10000 1.5 100 06:22 07.10.2019
6427 Clear 21 1017 52 10000 1 0 05:27 07.10.2019
6428 Clear 22 1017 49 10000 1 0 04:56 07.10.2019
6429 Clear 22 1018 49 10000 0.5 0 03:51 07.10.2019
6430 Clear 22 1018 49 10000 0.5 0 03:51 07.10.2019
6431 Clear 23 1018 46 10000 0.5 0 03:32 07.10.2019
6432 Clear 23 1018 49 10000 1 0 02:53 07.10.2019
6433 Clear 23 1019 49 10000 0.5 0 02:19 07.10.2019
6434 Clear 24 1019 47 10000 1 0 01:24 07.10.2019
6435 Clear 25 1019 47 10000 0.5 0 00:53 07.10.2019
6436 Clear 26 1019 44 10000 2.6 110 00:27 07.10.2019
6437 Clear 27 1019 42 10000 2.6 50 23:59 06.10.2019
6438 Clear 28 1019 39 10000 2.6 30 23:40 06.10.2019
6439 Clear 28 1019 39 10000 2.6 30 23:20 06.10.2019
6440 Clear 29 1019 37 10000 3.1 30 22:58 06.10.2019
6441 Clear 29 1018 37 10000 4.1 20 22:39 06.10.2019
6442 Clear 29 1018 37 10000 4.1 20 22:21 06.10.2019
6443 Clear 31 1018 27 10000 3.6 30 21:56 06.10.2019
6444 Clear 31 1018 27 10000 3.6 20 21:37 06.10.2019
6445 Clear 31 1018 27 10000 3.6 20 21:19 06.10.2019
6446 Clear 32 1017 24 0 3.6 360 20:56 06.10.2019
6447 Clear 33 1017 22 0 4.1 20 20:38 06.10.2019
6448 Clear 33 1017 22 0 4.1 20 20:38 06.10.2019
6449 Clear 33 1017 22 0 4.1 20 20:19 06.10.2019
6450 Clear 33 1017 22 0 4.1 20 20:19 06.10.2019
6451 Clear 34 1017 18 10000 3.6 20 19:56 06.10.2019
6452 Clear 35 1017 17 10000 3.6 360 19:36 06.10.2019
6453 Clear 35 1017 17 10000 3.6 360 19:36 06.10.2019
6454 Clear 35 1017 17 10000 3.6 360 19:18 06.10.2019
6455 Clear 36 1016 15 10000 3.1 350 18:55 06.10.2019
6456 Clear 36 1016 16 10000 4.1 330 18:37 06.10.2019
6457 Clear 36 1016 16 10000 4.1 330 18:18 06.10.2019
6458 Clear 36 1016 16 10000 4.1 330 18:18 06.10.2019
6459 Clear 37 1016 13 10000 3.1 350 17:43 06.10.2019
6460 Clear 37 1016 13 10000 3.1 350 17:20 06.10.2019
6461 Clear 37 1016 13 10000 2.6 30 16:56 06.10.2019
6462 Clear 37 1016 13 10000 2.6 30 16:56 06.10.2019
6463 Clear 37 1016 13 10000 2.6 30 16:37 06.10.2019
6464 Clear 37 1016 13 10000 2.6 30 16:19 06.10.2019
6465 Clear 35 1017 20 10000 2.6 30 15:43 06.10.2019
6466 Clear 35 1017 20 10000 2.6 30 15:22 06.10.2019
6467 Clear 34 1017 23 10000 2.6 30 14:56 06.10.2019
6468 Clear 33 1018 27 10000 2.6 40 14:38 06.10.2019
6469 Clear 33 1018 27 10000 2.6 40 14:19 06.10.2019
6470 Clear 29 1018 37 10000 3.1 50 13:42 06.10.2019
6471 Clear 29 1018 37 10000 3.1 50 13:24 06.10.2019
6472 Clear 27 1019 44 10000 2.6 60 12:59 06.10.2019
6473 Clear 26 1019 47 10000 2.1 0 12:41 06.10.2019
6474 Clear 26 1019 47 10000 2.1 0 12:21 06.10.2019
6475 Clear 25 1019 53 10000 3.1 60 11:59 06.10.2019
6476 Clear 23 1019 60 10000 3.6 50 11:41 06.10.2019
6477 Clear 23 1019 60 10000 3.6 50 11:23 06.10.2019
6478 Clear 22 1019 64 10000 3.1 70 10:55 06.10.2019
6479 Clear 21 1018 64 10000 4.1 100 10:37 06.10.2019
6480 Clear 21 1018 64 10000 4.1 100 10:19 06.10.2019
6481 Clear 19 1018 68 10000 2.6 110 09:41 06.10.2019
6482 Clear 19 1018 68 10000 2.6 110 09:19 06.10.2019
6483 Clear 18 1018 72 10000 2.1 90 08:48 06.10.2019
6484 Clear 18 1018 72 10000 1.5 30 08:48 06.10.2019
6485 Clear 18 1018 72 10000 1.5 30 08:22 06.10.2019
6486 Clear 19 1018 72 10000 2.6 80 07:58 06.10.2019
6487 Clear 19 1018 68 10000 2.1 60 07:39 06.10.2019
6488 Clear 20 1017 64 10000 2.6 100 06:49 06.10.2019
6489 Clear 19 1018 68 10000 0.5 0 05:41 06.10.2019
6490 Clear 19 1018 68 10000 0.5 0 04:32 06.10.2019
6491 Clouds 21 1018 62 0 1.37 353.789 02:52 06.10.2019
6492 Clouds 21 1018 62 0 1.37 353.789 02:29 06.10.2019
6493 Clouds 21 1018 62 0 1.37 353.789 01:46 06.10.2019
6494 Clear 24 1019 53 10000 2.6 60 01:28 06.10.2019
6495 Clear 24 1019 53 10000 2.6 60 00:59 06.10.2019
6496 Clear 24 1019 53 10000 2.6 60 00:59 06.10.2019
6497 Clear 24 1019 53 10000 2.6 60 00:31 06.10.2019
6498 Clear 24 1019 53 10000 2.1 60 23:54 05.10.2019
6499 Clear 25 1019 53 10000 2.6 90 23:36 05.10.2019
6500 Clear 25 1019 53 10000 2.6 90 23:18 05.10.2019
6501 Clear 25 1019 50 10000 2.1 70 22:54 05.10.2019
6502 Clear 26 1018 47 10000 1 0 22:36 05.10.2019
6503 Clear 26 1018 47 10000 1 0 22:18 05.10.2019
6504 Clear 28 1018 42 10000 4.1 360 21:41 05.10.2019
6505 Clear 28 1018 42 10000 4.1 360 21:22 05.10.2019
6506 Clear 29 1017 37 10000 4.6 350 20:57 05.10.2019
6507 Clear 31 1017 33 10000 4.6 350 20:39 05.10.2019
6508 Clear 31 1017 33 10000 4.6 350 20:19 05.10.2019
6509 Clear 31 1017 33 10000 4.6 350 20:19 05.10.2019
6510 Clear 33 1016 24 10000 4.1 330 19:41 05.10.2019
6511 Clear 33 1016 24 10000 4.1 330 19:22 05.10.2019
6512 Clear 34 1016 23 10000 4.1 350 18:58 05.10.2019
6513 Clear 35 1015 20 10000 3.1 340 18:39 05.10.2019
6514 Clear 35 1015 20 10000 3.1 340 18:21 05.10.2019
6515 Clear 36 1015 19 10000 2.6 320 17:59 05.10.2019
6516 Clear 36 1015 20 10000 2.1 0 17:40 05.10.2019
6517 Clear 36 1015 20 10000 2.1 0 17:20 05.10.2019
6518 Clear 35 1015 21 10000 2.1 0 16:42 05.10.2019
6519 Clear 35 1015 21 10000 2.1 0 16:22 05.10.2019
6520 Clear 34 1015 23 10000 2.6 320 15:58 05.10.2019
6521 Clear 33 1016 22 10000 2.6 0 15:40 05.10.2019
6522 Clear 33 1016 22 10000 2.6 0 15:21 05.10.2019
6523 Clear 32 1016 24 10000 2.6 10 14:58 05.10.2019
6524 Clear 32 1016 24 10000 2.6 10 14:58 05.10.2019
6525 Clear 32 1016 24 10000 2.1 360 14:40 05.10.2019
6526 Clear 32 1016 24 10000 2.1 360 14:20 05.10.2019
6527 Clear 29 1017 30 10000 2.1 340 13:42 05.10.2019
6528 Clear 29 1017 30 10000 2.1 340 13:22 05.10.2019
6529 Clear 28 1017 34 10000 1 0 12:47 05.10.2019
6530 Clear 25 1017 41 10000 1.5 350 12:21 05.10.2019
6531 Clear 27 1017 34 10000 1.5 0 12:21 05.10.2019
6532 Clear 25 1017 41 10000 1.5 350 11:59 05.10.2019
6533 Clear 24 1017 44 10000 1 0 11:39 05.10.2019
6534 Clear 24 1017 44 10000 1 0 11:18 05.10.2019
6535 Clear 21 1017 49 10000 1.5 10 10:45 05.10.2019
6536 Clear 21 1017 49 10000 1.5 10 10:26 05.10.2019
6537 Clear 21 1016 49 10000 1.5 20 09:59 05.10.2019
6538 Clear 18 1016 55 10000 1 0 09:39 05.10.2019
6539 Clear 18 1016 55 10000 1 0 09:39 05.10.2019
6540 Clear 18 1016 55 10000 1 0 09:20 05.10.2019
6541 Clear 18 1016 59 10000 1 0 08:40 05.10.2019
6542 Clear 18 1016 59 10000 1 0 08:20 05.10.2019
6543 Clear 18 1016 59 10000 0.5 0 07:57 05.10.2019
6544 Clear 18 1016 55 10000 0.5 0 07:37 05.10.2019
6545 Clear 18 1016 55 10000 0.5 0 07:19 05.10.2019
6546 Clear 18 1016 48 10000 1.5 230 06:28 05.10.2019
6547 Clear 18 1016 48 10000 1.5 230 06:28 05.10.2019
6548 Clear 20 1016 45 10000 0.5 0 05:51 05.10.2019
6549 Clear 20 1016 42 10000 0.5 0 04:21 05.10.2019
6550 Clear 20 1017 42 10000 1.5 240 03:28 05.10.2019
6551 Clear 23 1017 38 10000 1.5 30 01:42 05.10.2019
6552 Clear 23 1017 38 10000 1.5 30 01:20 05.10.2019
6553 Clear 24 1017 36 10000 2.1 50 00:43 05.10.2019
6554 Clear 24 1017 36 10000 2.6 80 00:25 05.10.2019
6555 Clear 26 1017 31 10000 2.1 50 23:44 04.10.2019
6556 Clear 26 1017 31 10000 2.1 50 23:26 04.10.2019
6557 Clear 27 1017 30 10000 3.6 30 22:59 04.10.2019
6558 Clear 28 1017 24 10000 4.1 350 22:39 04.10.2019
6559 Clear 28 1017 24 10000 4.1 350 22:20 04.10.2019
6560 Clear 30 1016 20 10000 1.5 20 21:57 04.10.2019
6561 Clear 30 1016 20 10000 1.5 20 21:38 04.10.2019
6562 Clear 30 1016 20 10000 1.5 20 21:19 04.10.2019
6563 Clear 31 1016 19 10000 2.1 30 20:55 04.10.2019
6564 Clear 32 1016 19 10000 3.1 30 20:36 04.10.2019
6565 Clear 32 1016 19 10000 3.1 30 20:18 04.10.2019
6566 Clear 33 1016 18 10000 2.6 10 19:45 04.10.2019
6567 Clear 34 1016 18 10000 2.6 350 19:27 04.10.2019
6568 Clear 34 1016 18 10000 2.1 330 18:59 04.10.2019
6569 Clear 35 1016 19 10000 2.6 10 18:38 04.10.2019
6570 Clear 35 1016 19 10000 2.6 10 18:19 04.10.2019
6571 Clear 34 1016 20 0 3.1 350 17:55 04.10.2019
6572 Clear 34 1016 21 10000 2.1 290 17:36 04.10.2019
6573 Clear 34 1016 21 10000 2.1 290 17:18 04.10.2019
6574 Clear 34 1016 23 10000 1.5 0 16:42 04.10.2019
6575 Clear 34 1016 23 10000 1.5 0 16:19 04.10.2019
6576 Clear 32 1016 25 10000 2.1 0 15:59 04.10.2019
6577 Clear 32 1017 24 10000 2.6 20 15:40 04.10.2019
6578 Clear 32 1017 24 10000 2.6 20 15:21 04.10.2019
6579 Clear 32 1017 24 10000 2.6 20 15:21 04.10.2019
6580 Clear 31 1017 25 10000 2.1 360 14:59 04.10.2019
6581 Clear 31 1018 25 10000 2.6 90 14:41 04.10.2019
6582 Clear 31 1018 25 10000 2.6 90 14:22 04.10.2019
6583 Clear 29 1018 30 10000 2.1 30 13:54 04.10.2019
6584 Clear 29 1017 22 0 2.54 31.25 13:36 04.10.2019
6585 Clear 25 1019 41 10000 2.1 360 13:18 04.10.2019
6586 Clear 25 1019 41 10000 2.1 360 12:42 04.10.2019
6587 Clear 25 1019 41 10000 2.1 360 12:24 04.10.2019
6588 Clear 24 1019 41 10000 2.1 350 11:43 04.10.2019
6589 Clear 23 1019 40 10000 1.5 40 11:43 04.10.2019
6590 Clear 24 1019 41 10000 2.1 350 11:43 04.10.2019
6591 Clear 23 1019 40 10000 1.5 40 11:22 04.10.2019
6592 Clear 23 1019 40 10000 1.5 40 11:22 04.10.2019
6593 Clear 21 1018 49 10000 1.5 70 10:57 04.10.2019
6594 Clear 21 1018 52 10000 0.5 0 10:38 04.10.2019
6595 Clear 21 1018 52 10000 0.5 0 10:19 04.10.2019
6596 Clear 18 1018 63 10000 0.5 0 09:43 04.10.2019
6597 Clear 16 1018 63 10000 2.1 260 09:25 04.10.2019
6598 Clear 18 1018 63 10000 1.5 20 08:46 04.10.2019
6599 Clear 17 1018 67 10000 1 0 08:27 04.10.2019
6600 Clear 18 1018 63 10000 0.5 0 07:56 04.10.2019
6601 Clouds 18 1018 63 0 2.1 40 07:38 04.10.2019
6602 Clouds 18 1018 63 0 2.1 40 07:19 04.10.2019
6603 Clouds 18 1018 63 0 2.1 100 06:40 04.10.2019
6604 Clouds 18 1018 63 0 2.1 100 06:22 04.10.2019
6605 Clear 19 1018 59 10000 2.1 80 05:22 04.10.2019
6606 Clear 20 1018 60 10000 3.6 70 04:54 04.10.2019
6607 Clear 20 1018 56 10000 2.1 80 03:42 04.10.2019
6608 Clouds 20 1018 56 0 2.6 80 02:53 04.10.2019
6609 Clouds 20 1018 56 0 2.6 80 02:53 04.10.2019
6610 Clear 21 1019 56 10000 3.1 80 01:54 04.10.2019
6611 Clear 21 1019 56 10000 3.1 80 01:54 04.10.2019
6612 Clear 21 1019 56 10000 3.1 80 01:54 04.10.2019
6613 Clear 22 1019 53 10000 3.1 70 01:27 04.10.2019
6614 Clear 23 1019 49 10000 3.1 50 00:36 04.10.2019
6615 Clear 25 1019 44 10000 4.1 20 23:41 03.10.2019
6616 Clear 25 1019 44 10000 4.1 20 23:22 03.10.2019
6617 Clear 26 1019 29 10000 3.6 20 22:58 03.10.2019
6618 Clear 26 1019 24 10000 2.1 40 22:39 03.10.2019
6619 Clear 26 1019 24 10000 2.1 40 22:39 03.10.2019
6620 Clear 26 1019 24 10000 2.1 40 22:21 03.10.2019
6621 Clear 27 1019 22 10000 2.1 50 21:59 03.10.2019
6622 Clear 28 1018 21 10000 2.1 50 21:40 03.10.2019
6623 Clear 28 1018 21 10000 2.1 50 21:20 03.10.2019
6624 Clear 29 1018 23 10000 2.1 30 20:58 03.10.2019
6625 Clear 30 1018 22 10000 3.6 20 20:40 03.10.2019
6626 Clear 30 1018 22 10000 3.6 20 20:21 03.10.2019
6627 Clear 30 1018 25 10000 3.1 40 19:58 03.10.2019
6628 Clear 30 1018 25 10000 3.1 40 19:58 03.10.2019
6629 Clear 31 1018 23 10000 2.6 360 19:40 03.10.2019
6630 Clear 31 1018 23 10000 2.6 360 19:20 03.10.2019
6631 Clear 31 1018 22 10000 3.1 30 18:56 03.10.2019
6632 Clear 32 1018 21 10000 2.1 40 18:38 03.10.2019
6633 Clear 32 1018 21 10000 2.1 40 18:38 03.10.2019
6634 Clear 32 1018 21 10000 2.1 40 18:18 03.10.2019
6635 Clear 30 1019 27 10000 2.6 0 17:42 03.10.2019
6636 Clear 30 1019 27 10000 2.6 0 17:23 03.10.2019
6637 Clear 30 1019 27 10000 2.1 0 16:58 03.10.2019
6638 Clouds 30 1016 17 0 4.39 16.622 16:39 03.10.2019
6639 Clear 29 1020 32 10000 2.6 0 16:21 03.10.2019
6640 Clear 29 1020 32 10000 2.6 0 15:45 03.10.2019
6641 Clear 29 1020 32 10000 2.6 0 15:24 03.10.2019
6642 Clear 28 1020 37 10000 2.6 330 14:59 03.10.2019
6643 Clear 27 1020 39 10000 2.6 350 14:37 03.10.2019
6644 Clear 27 1020 39 10000 2.6 350 14:19 03.10.2019
6645 Clear 25 1021 47 10000 2.6 30 13:44 03.10.2019
6646 Clear 25 1021 47 10000 2.6 30 13:26 03.10.2019
6647 Clear 25 1021 47 10000 1.5 360 12:59 03.10.2019
6648 Clear 24 1021 50 10000 2.1 20 12:40 03.10.2019
6649 Clear 24 1021 50 10000 2.1 20 12:20 03.10.2019
6650 Clear 22 1022 53 10000 3.1 40 11:58 03.10.2019
6651 Clear 22 1021 56 10000 2.6 30 11:40 03.10.2019
6652 Clear 22 1021 56 10000 2.6 30 11:21 03.10.2019
6653 Clear 20 1021 60 10000 3.1 50 10:57 03.10.2019
6654 Clear 20 1021 64 10000 2.1 360 10:38 03.10.2019
6655 Clear 20 1021 64 10000 2.1 360 10:18 03.10.2019
6656 Clear 19 1020 72 10000 2.1 80 09:56 03.10.2019
6657 Clear 18 1020 72 10000 2.1 90 09:37 03.10.2019
6658 Clear 18 1020 72 10000 2.1 90 09:19 03.10.2019
6659 Clear 18 1020 72 10000 2.6 100 08:42 03.10.2019
6660 Clear 18 1020 72 10000 2.6 100 08:23 03.10.2019
6661 Clear 18 1019 72 10000 2.6 80 07:42 03.10.2019
6662 Clear 18 1019 72 10000 2.6 80 07:20 03.10.2019
6663 Clear 18 1019 72 10000 2.6 60 06:52 03.10.2019
6664 Clear 19 1019 68 10000 1.5 90 06:27 03.10.2019
6665 Clear 19 1019 68 10000 2.1 70 05:49 03.10.2019
6666 Clear 19 1019 68 10000 2.6 70 05:27 03.10.2019
6667 Clear 19 1020 68 10000 2.6 50 04:44 03.10.2019
6668 Clear 20 1020 68 10000 2.1 70 03:54 03.10.2019
6669 Clear 21 1020 64 10000 1.5 70 03:19 03.10.2019
6670 Clear 22 1020 64 10000 2.6 70 02:21 03.10.2019
6671 Clear 23 1021 60 10000 3.1 60 01:38 03.10.2019
6672 Clear 23 1021 60 10000 3.1 60 00:52 03.10.2019
6673 Clear 23 1021 56 10000 3.1 60 00:31 03.10.2019
6674 Clear 23 1021 56 10000 4.6 70 23:44 02.10.2019
6675 -273 0 0 0 0 0 23:25 02.10.2019
6676 Clear 25 1020 50 10000 5.1 40 22:57 02.10.2019
6677 Clear 26 1020 47 10000 4.6 30 22:39 02.10.2019
6678 Clear 26 1020 47 10000 4.6 30 22:18 02.10.2019
6679 Clear 27 1020 44 10000 6.2 20 21:55 02.10.2019
6680 Clear 29 1019 30 10000 4.6 20 21:36 02.10.2019
6681 Clear 29 1019 30 10000 4.6 20 21:18 02.10.2019
6682 Clear 30 1018 25 10000 4.1 10 20:55 02.10.2019
6683 Clear 31 1018 23 10000 4.6 360 20:37 02.10.2019
6684 Clear 31 1018 23 10000 4.6 360 20:18 02.10.2019
6685 Clear 32 1018 21 10000 4.6 10 19:43 02.10.2019
6686 Clear 33 1018 18 10000 4.1 360 19:22 02.10.2019
6687 Clear 34 1018 15 10000 4.1 350 18:58 02.10.2019
6688 Clear 34 1018 15 10000 4.1 350 18:58 02.10.2019
6689 Clear 34 1017 15 0 3.6 10 18:39 02.10.2019
6690 Clear 34 1017 15 0 3.6 10 18:21 02.10.2019
6691 Clear 34 1017 15 0 2.6 20 17:57 02.10.2019
6692 Clear 34 1017 15 0 2.6 20 17:57 02.10.2019
6693 Clear 34 1017 15 0 2.6 20 17:57 02.10.2019
6694 Clear 35 1017 15 0 2.6 20 17:38 02.10.2019
6695 Clear 35 1017 15 0 2.6 20 17:38 02.10.2019
6696 Clear 35 1017 15 0 2.6 20 17:20 02.10.2019
6697 Clear 34 1018 16 10000 3.6 360 16:56 02.10.2019
6698 Clear 34 1018 16 10000 3.1 340 16:36 02.10.2019
6699 Clear 34 1018 16 10000 3.1 340 16:18 02.10.2019
6700 Clear 34 1018 17 10000 2.1 360 15:41 02.10.2019
6701 Clear 33 1018 17 10000 3.1 30 15:23 02.10.2019
6702 Clear 33 1019 16 10000 2.6 0 14:58 02.10.2019
6703 Clear 31 1019 22 10000 2.1 0 14:40 02.10.2019
6704 Clear 31 1019 22 10000 2.1 0 14:21 02.10.2019
6705 Clear 30 1020 25 0 2.6 0 13:45 02.10.2019
6706 Clear 29 1020 26 0 1.5 0 13:26 02.10.2019
6707 Clear 29 1021 30 0 1.5 0 12:59 02.10.2019
6708 Clear 29 1021 30 0 1.5 0 12:39 02.10.2019
6709 Clear 26 1021 41 10000 2.6 30 12:20 02.10.2019
6710 Clear 26 1021 39 10000 2.6 40 11:45 02.10.2019
6711 Clear 25 1021 41 10000 2.1 50 11:23 02.10.2019
6712 Clear 23 1021 46 10000 1.5 80 10:42 02.10.2019
6713 Clear 23 1021 46 10000 1.5 80 10:20 02.10.2019
6714 Clear 21 1020 52 10000 1.5 60 09:59 02.10.2019
6715 Clear 21 1020 52 10000 1.5 60 09:38 02.10.2019
6716 Clear 19 1020 55 10000 1.5 60 09:19 02.10.2019
6717 Clear 19 1020 55 10000 2.1 70 08:45 02.10.2019
6718 Clear 19 1020 59 10000 2.6 90 08:25 02.10.2019
6719 Clear 19 1020 59 10000 2.6 90 08:25 02.10.2019
6720 Clear 19 1019 59 10000 2.1 80 07:59 02.10.2019
6721 Clear 19 1019 59 10000 2.1 80 07:39 02.10.2019
6722 Clear 20 1019 56 10000 1.5 80